<?xml version='1.0' encoding='UTF-8'?><gpx version="1.1" creator="JPX - https://github.com/jenetics/jpx" xmlns="http://www.topografix.com/GPX/1/1"><trk><trkseg><trkpt lat="45.5080894" lon="11.0916102"><ele>565.0</ele><time>2026-04-23T13:27:15.311Z</time></trkpt><trkpt lat="45.5081422" lon="11.0916719"><ele>565.0</ele><time>2026-04-23T13:27:31.351Z</time></trkpt><trkpt lat="45.508128" lon="11.0918876"><ele>565.0</ele><time>2026-04-23T13:27:32.357Z</time></trkpt><trkpt lat="45.508136" lon="11.0919965"><ele>565.0</ele><time>2026-04-23T13:27:33.365Z</time></trkpt><trkpt lat="45.5081531" lon="11.0922942"><ele>563.5</ele><time>2026-04-23T13:27:35.377Z</time></trkpt><trkpt lat="45.508139" lon="11.0924436"><ele>562.0</ele><time>2026-04-23T13:27:36.31Z</time></trkpt><trkpt lat="45.5081038" lon="11.0925239"><ele>560.5</ele><time>2026-04-23T13:27:38.22Z</time></trkpt><trkpt lat="45.5079911" lon="11.0927681"><ele>559.0</ele><time>2026-04-23T13:27:40.407Z</time></trkpt><trkpt lat="45.5078889" lon="11.0928869"><ele>559.0</ele><time>2026-04-23T13:27:41.31Z</time></trkpt><trkpt lat="45.507802" lon="11.0929881"><ele>559.0</ele><time>2026-04-23T13:27:42.311Z</time></trkpt><trkpt lat="45.5077198" lon="11.093073"><ele>559.0</ele><time>2026-04-23T13:27:43.31Z</time></trkpt><trkpt lat="45.5076073" lon="11.0931335"><ele>559.0</ele><time>2026-04-23T13:27:44.31Z</time></trkpt><trkpt lat="45.5075119" lon="11.0932156"><ele>559.0</ele><time>2026-04-23T13:27:45.31Z</time></trkpt><trkpt lat="45.5074136" lon="11.0933016"><ele>557.75</ele><time>2026-04-23T13:27:46.311Z</time></trkpt><trkpt lat="45.5073122" lon="11.093394"><ele>556.5</ele><time>2026-04-23T13:27:47.31Z</time></trkpt><trkpt lat="45.5072127" lon="11.0934841"><ele>555.25</ele><time>2026-04-23T13:27:48.311Z</time></trkpt><trkpt lat="45.5071051" lon="11.0935662"><ele>554.0</ele><time>2026-04-23T13:27:49.31Z</time></trkpt><trkpt lat="45.506994" lon="11.0936558"><ele>554.0</ele><time>2026-04-23T13:27:50.31Z</time></trkpt><trkpt lat="45.5068763" lon="11.0937398"><ele>554.0</ele><time>2026-04-23T13:27:51.31Z</time></trkpt><trkpt lat="45.5067446" lon="11.0938115"><ele>554.0</ele><time>2026-04-23T13:27:52.31Z</time></trkpt><trkpt lat="45.5066107" lon="11.0938591"><ele>554.0</ele><time>2026-04-23T13:27:53.311Z</time></trkpt><trkpt lat="45.5064799" lon="11.0938848"><ele>554.0</ele><time>2026-04-23T13:27:54.31Z</time></trkpt><trkpt lat="45.5063605" lon="11.0939118"><ele>554.0</ele><time>2026-04-23T13:27:55.311Z</time></trkpt><trkpt lat="45.5062507" lon="11.0939657"><ele>554.0</ele><time>2026-04-23T13:27:56.311Z</time></trkpt><trkpt lat="45.5061505" lon="11.094066"><ele>554.0</ele><time>2026-04-23T13:27:57.31Z</time></trkpt><trkpt lat="45.5060603" lon="11.0941764"><ele>554.4</ele><time>2026-04-23T13:27:58.31Z</time></trkpt><trkpt lat="45.505966" lon="11.0942558"><ele>554.8</ele><time>2026-04-23T13:27:59.31Z</time></trkpt><trkpt lat="45.5058577" lon="11.0942788"><ele>555.2</ele><time>2026-04-23T13:28:00.31Z</time></trkpt><trkpt lat="45.5057541" lon="11.0942716"><ele>555.6</ele><time>2026-04-23T13:28:01.311Z</time></trkpt><trkpt lat="45.5056386" lon="11.0942466"><ele>556.0</ele><time>2026-04-23T13:28:02.311Z</time></trkpt><trkpt lat="45.5055248" lon="11.0942229"><ele>555.75</ele><time>2026-04-23T13:28:03.31Z</time></trkpt><trkpt lat="45.5054069" lon="11.0942088"><ele>555.5</ele><time>2026-04-23T13:28:04.31Z</time></trkpt><trkpt lat="45.5052944" lon="11.0941957"><ele>555.25</ele><time>2026-04-23T13:28:05.31Z</time></trkpt><trkpt lat="45.505178" lon="11.0941824"><ele>555.0</ele><time>2026-04-23T13:28:06.31Z</time></trkpt><trkpt lat="45.5050539" lon="11.094163"><ele>555.0</ele><time>2026-04-23T13:28:07.31Z</time></trkpt><trkpt lat="45.5049334" lon="11.0941619"><ele>555.0</ele><time>2026-04-23T13:28:08.31Z</time></trkpt><trkpt lat="45.5048173" lon="11.0941425"><ele>555.0</ele><time>2026-04-23T13:28:09.311Z</time></trkpt><trkpt lat="45.5046978" lon="11.0941375"><ele>555.0</ele><time>2026-04-23T13:28:10.311Z</time></trkpt><trkpt lat="45.5045838" lon="11.0941228"><ele>554.2</ele><time>2026-04-23T13:28:11.31Z</time></trkpt><trkpt lat="45.5044959" lon="11.0940813"><ele>553.4</ele><time>2026-04-23T13:28:12.311Z</time></trkpt><trkpt lat="45.5044365" lon="11.0940355"><ele>552.6</ele><time>2026-04-23T13:28:13.31Z</time></trkpt><trkpt lat="45.5043747" lon="11.0938729"><ele>551.8</ele><time>2026-04-23T13:28:15.31Z</time></trkpt><trkpt lat="45.5043607" lon="11.0937487"><ele>551.0</ele><time>2026-04-23T13:28:16.31Z</time></trkpt><trkpt lat="45.5043553" lon="11.0935843"><ele>551.0</ele><time>2026-04-23T13:28:17.31Z</time></trkpt><trkpt lat="45.5043569" lon="11.093398"><ele>551.0</ele><time>2026-04-23T13:28:18.31Z</time></trkpt><trkpt lat="45.5043748" lon="11.0932009"><ele>551.0</ele><time>2026-04-23T13:28:19.31Z</time></trkpt><trkpt lat="45.5043907" lon="11.0929988"><ele>551.0</ele><time>2026-04-23T13:28:20.31Z</time></trkpt><trkpt lat="45.5044056" lon="11.0927955"><ele>549.0</ele><time>2026-04-23T13:28:21.31Z</time></trkpt><trkpt lat="45.5044195" lon="11.0925892"><ele>547.0</ele><time>2026-04-23T13:28:22.31Z</time></trkpt><trkpt lat="45.5044447" lon="11.0923585"><ele>545.0</ele><time>2026-04-23T13:28:23.31Z</time></trkpt><trkpt lat="45.5045086" lon="11.0921181"><ele>543.0</ele><time>2026-04-23T13:28:24.31Z</time></trkpt><trkpt lat="45.5045851" lon="11.0918503"><ele>541.0</ele><time>2026-04-23T13:28:25.31Z</time></trkpt><trkpt lat="45.5046368" lon="11.0915867"><ele>539.0</ele><time>2026-04-23T13:28:26.31Z</time></trkpt><trkpt lat="45.5046913" lon="11.0913462"><ele>538.0</ele><time>2026-04-23T13:28:27.31Z</time></trkpt><trkpt lat="45.5047562" lon="11.0910983"><ele>537.0</ele><time>2026-04-23T13:28:28.311Z</time></trkpt><trkpt lat="45.5048194" lon="11.0908643"><ele>536.0</ele><time>2026-04-23T13:28:29.31Z</time></trkpt><trkpt lat="45.5048798" lon="11.0906631"><ele>534.25</ele><time>2026-04-23T13:28:30.31Z</time></trkpt><trkpt lat="45.5049226" lon="11.0904856"><ele>532.5</ele><time>2026-04-23T13:28:31.31Z</time></trkpt><trkpt lat="45.5049384" lon="11.0903322"><ele>530.75</ele><time>2026-04-23T13:28:32.31Z</time></trkpt><trkpt lat="45.5049478" lon="11.0901723"><ele>529.0</ele><time>2026-04-23T13:28:33.31Z</time></trkpt><trkpt lat="45.5049454" lon="11.0900294"><ele>527.1666666666667</ele><time>2026-04-23T13:28:34.31Z</time></trkpt><trkpt lat="45.5049333" lon="11.0899043"><ele>525.3333333333334</ele><time>2026-04-23T13:28:35.31Z</time></trkpt><trkpt lat="45.5049018" lon="11.0897908"><ele>523.5</ele><time>2026-04-23T13:28:36.31Z</time></trkpt><trkpt lat="45.5048664" lon="11.0896845"><ele>521.6666666666666</ele><time>2026-04-23T13:28:37.31Z</time></trkpt><trkpt lat="45.504823" lon="11.0896104"><ele>519.8333333333333</ele><time>2026-04-23T13:28:38.31Z</time></trkpt><trkpt lat="45.5047603" lon="11.0895533"><ele>518.0</ele><time>2026-04-23T13:28:39.31Z</time></trkpt><trkpt lat="45.5046808" lon="11.0895073"><ele>518.0</ele><time>2026-04-23T13:28:40.31Z</time></trkpt><trkpt lat="45.5045975" lon="11.0894593"><ele>518.0</ele><time>2026-04-23T13:28:41.31Z</time></trkpt><trkpt lat="45.5045175" lon="11.0894033"><ele>518.0</ele><time>2026-04-23T13:28:42.31Z</time></trkpt><trkpt lat="45.5044716" lon="11.0893119"><ele>518.0</ele><time>2026-04-23T13:28:43.31Z</time></trkpt><trkpt lat="45.5044788" lon="11.0891779"><ele>518.0</ele><time>2026-04-23T13:28:44.311Z</time></trkpt><trkpt lat="45.5044944" lon="11.0890203"><ele>515.3333333333333</ele><time>2026-04-23T13:28:45.31Z</time></trkpt><trkpt lat="45.5045094" lon="11.0888929"><ele>512.6666666666666</ele><time>2026-04-23T13:28:46.31Z</time></trkpt><trkpt lat="45.5045298" lon="11.0887916"><ele>510.0</ele><time>2026-04-23T13:28:47.31Z</time></trkpt><trkpt lat="45.5045609" lon="11.0887016"><ele>507.33333333333337</ele><time>2026-04-23T13:28:48.31Z</time></trkpt><trkpt lat="45.5046341" lon="11.0885944"><ele>504.6666666666667</ele><time>2026-04-23T13:28:50.311Z</time></trkpt><trkpt lat="45.5046424" lon="11.0885024"><ele>502.0</ele><time>2026-04-23T13:28:52.31Z</time></trkpt><trkpt lat="45.5046483" lon="11.088406"><ele>498.0</ele><time>2026-04-23T13:29:42.362Z</time></trkpt><trkpt lat="45.5046083" lon="11.0881326"><ele>494.0</ele><time>2026-04-23T13:29:49.31Z</time></trkpt><trkpt lat="45.5045701" lon="11.0879238"><ele>490.0</ele><time>2026-04-23T13:29:51.262Z</time></trkpt><trkpt lat="45.5044773" lon="11.0876491"><ele>490.0</ele><time>2026-04-23T13:29:52.31Z</time></trkpt><trkpt lat="45.504436" lon="11.0875012"><ele>490.0</ele><time>2026-04-23T13:29:53.31Z</time></trkpt><trkpt lat="45.5044063" lon="11.0873623"><ele>490.0</ele><time>2026-04-23T13:29:54.31Z</time></trkpt><trkpt lat="45.5043789" lon="11.0872263"><ele>490.0</ele><time>2026-04-23T13:29:55.31Z</time></trkpt><trkpt lat="45.5043617" lon="11.0870925"><ele>490.0</ele><time>2026-04-23T13:29:56.31Z</time></trkpt><trkpt lat="45.5043657" lon="11.0869651"><ele>485.75</ele><time>2026-04-23T13:29:57.31Z</time></trkpt><trkpt lat="45.5043833" lon="11.0868257"><ele>481.5</ele><time>2026-04-23T13:29:58.31Z</time></trkpt><trkpt lat="45.5044061" lon="11.0866671"><ele>477.25</ele><time>2026-04-23T13:29:59.31Z</time></trkpt><trkpt lat="45.5044433" lon="11.0865"><ele>473.0</ele><time>2026-04-23T13:30:00.31Z</time></trkpt><trkpt lat="45.50447" lon="11.0863317"><ele>470.75</ele><time>2026-04-23T13:30:01.31Z</time></trkpt><trkpt lat="45.5044933" lon="11.0861517"><ele>468.5</ele><time>2026-04-23T13:30:02.31Z</time></trkpt><trkpt lat="45.50453" lon="11.085965"><ele>466.25</ele><time>2026-04-23T13:30:03.31Z</time></trkpt><trkpt lat="45.5045733" lon="11.085805"><ele>464.0</ele><time>2026-04-23T13:30:04.31Z</time></trkpt><trkpt lat="45.5046233" lon="11.085675"><ele>462.49999999999994</ele><time>2026-04-23T13:30:05.31Z</time></trkpt><trkpt lat="45.5046717" lon="11.0855483"><ele>461.0</ele><time>2026-04-23T13:30:06.31Z</time></trkpt><trkpt lat="45.5047133" lon="11.08543"><ele>459.5</ele><time>2026-04-23T13:30:07.31Z</time></trkpt><trkpt lat="45.5047417" lon="11.08533"><ele>458.0</ele><time>2026-04-23T13:30:08.311Z</time></trkpt><trkpt lat="45.5047517" lon="11.0852117"><ele>456.49999999999994</ele><time>2026-04-23T13:30:09.31Z</time></trkpt><trkpt lat="45.504745" lon="11.0850933"><ele>455.0</ele><time>2026-04-23T13:30:10.31Z</time></trkpt><trkpt lat="45.5047283" lon="11.0849633"><ele>452.5</ele><time>2026-04-23T13:30:11.31Z</time></trkpt><trkpt lat="45.5047133" lon="11.0847783"><ele>450.0</ele><time>2026-04-23T13:30:12.31Z</time></trkpt><trkpt lat="45.504715" lon="11.08455"><ele>447.5</ele><time>2026-04-23T13:30:13.311Z</time></trkpt><trkpt lat="45.5047067" lon="11.084335"><ele>445.0</ele><time>2026-04-23T13:30:14.31Z</time></trkpt><trkpt lat="45.5047" lon="11.084135"><ele>444.0</ele><time>2026-04-23T13:30:15.31Z</time></trkpt><trkpt lat="45.5047117" lon="11.08394"><ele>443.0</ele><time>2026-04-23T13:30:16.31Z</time></trkpt><trkpt lat="45.504735" lon="11.0837417"><ele>442.0</ele><time>2026-04-23T13:30:17.31Z</time></trkpt><trkpt lat="45.5047633" lon="11.08358"><ele>441.0</ele><time>2026-04-23T13:30:18.311Z</time></trkpt><trkpt lat="45.5048033" lon="11.083455"><ele>441.0</ele><time>2026-04-23T13:30:19.311Z</time></trkpt><trkpt lat="45.5048533" lon="11.0833517"><ele>441.0</ele><time>2026-04-23T13:30:20.31Z</time></trkpt><trkpt lat="45.5049" lon="11.0832667"><ele>441.0</ele><time>2026-04-23T13:30:21.31Z</time></trkpt><trkpt lat="45.5049383" lon="11.083195"><ele>441.0</ele><time>2026-04-23T13:30:22.31Z</time></trkpt><trkpt lat="45.504965" lon="11.0830533"><ele>441.0</ele><time>2026-04-23T13:30:24.31Z</time></trkpt><trkpt lat="45.5049017" lon="11.0829167"><ele>441.0</ele><time>2026-04-23T13:30:26.31Z</time></trkpt><trkpt lat="45.5048267" lon="11.0828533"><ele>439.75</ele><time>2026-04-23T13:30:27.31Z</time></trkpt><trkpt lat="45.504735" lon="11.08278"><ele>438.5</ele><time>2026-04-23T13:30:28.31Z</time></trkpt><trkpt lat="45.5046267" lon="11.0827"><ele>437.25</ele><time>2026-04-23T13:30:29.31Z</time></trkpt><trkpt lat="45.5045033" lon="11.0826333"><ele>436.0</ele><time>2026-04-23T13:30:30.311Z</time></trkpt><trkpt lat="45.5043833" lon="11.08258"><ele>436.0</ele><time>2026-04-23T13:30:31.31Z</time></trkpt><trkpt lat="45.5042533" lon="11.0825483"><ele>436.0</ele><time>2026-04-23T13:30:32.31Z</time></trkpt><trkpt lat="45.5041217" lon="11.082515"><ele>436.0</ele><time>2026-04-23T13:30:33.311Z</time></trkpt><trkpt lat="45.503995" lon="11.0824833"><ele>436.0</ele><time>2026-04-23T13:30:34.31Z</time></trkpt><trkpt lat="45.5038833" lon="11.0824633"><ele>434.83333333333337</ele><time>2026-04-23T13:30:35.311Z</time></trkpt><trkpt lat="45.503775" lon="11.08243"><ele>433.6666666666667</ele><time>2026-04-23T13:30:36.31Z</time></trkpt><trkpt lat="45.5036917" lon="11.0823683"><ele>432.5</ele><time>2026-04-23T13:30:37.31Z</time></trkpt><trkpt lat="45.5036267" lon="11.0822833"><ele>431.33333333333337</ele><time>2026-04-23T13:30:38.31Z</time></trkpt><trkpt lat="45.50359" lon="11.0821833"><ele>430.1666666666667</ele><time>2026-04-23T13:30:39.311Z</time></trkpt><trkpt lat="45.5035817" lon="11.08208"><ele>429.0</ele><time>2026-04-23T13:30:40.31Z</time></trkpt><trkpt lat="45.5035983" lon="11.0819767"><ele>427.0</ele><time>2026-04-23T13:30:41.31Z</time></trkpt><trkpt lat="45.50362" lon="11.0818317"><ele>425.0</ele><time>2026-04-23T13:30:42.31Z</time></trkpt><trkpt lat="45.5036267" lon="11.0816717"><ele>423.0</ele><time>2026-04-23T13:30:43.31Z</time></trkpt><trkpt lat="45.5036067" lon="11.0815183"><ele>421.0</ele><time>2026-04-23T13:30:44.311Z</time></trkpt><trkpt lat="45.5035583" lon="11.08137"><ele>419.0</ele><time>2026-04-23T13:30:45.31Z</time></trkpt><trkpt lat="45.50349" lon="11.0812533"><ele>417.6</ele><time>2026-04-23T13:30:46.31Z</time></trkpt><trkpt lat="45.503415" lon="11.0811833"><ele>416.2</ele><time>2026-04-23T13:30:47.31Z</time></trkpt><trkpt lat="45.50332" lon="11.08114"><ele>414.8</ele><time>2026-04-23T13:30:48.31Z</time></trkpt><trkpt lat="45.503215" lon="11.0811233"><ele>413.40000000000003</ele><time>2026-04-23T13:30:49.31Z</time></trkpt><trkpt lat="45.5031233" lon="11.081125"><ele>412.0</ele><time>2026-04-23T13:30:50.31Z</time></trkpt><trkpt lat="45.50305" lon="11.0811383"><ele>412.0</ele><time>2026-04-23T13:30:51.31Z</time></trkpt><trkpt lat="45.502955" lon="11.0812083"><ele>412.0</ele><time>2026-04-23T13:30:53.311Z</time></trkpt><trkpt lat="45.502915" lon="11.0812967"><ele>412.0</ele><time>2026-04-23T13:30:54.311Z</time></trkpt><trkpt lat="45.5028967" lon="11.0814667"><ele>412.0</ele><time>2026-04-23T13:30:55.311Z</time></trkpt><trkpt lat="45.5028733" lon="11.0816083"><ele>412.0</ele><time>2026-04-23T13:30:56.31Z</time></trkpt><trkpt lat="45.5028517" lon="11.081755"><ele>410.6</ele><time>2026-04-23T13:30:57.31Z</time></trkpt><trkpt lat="45.5028567" lon="11.0819017"><ele>409.20000000000005</ele><time>2026-04-23T13:30:58.31Z</time></trkpt><trkpt lat="45.5028917" lon="11.08203"><ele>407.8</ele><time>2026-04-23T13:30:59.31Z</time></trkpt><trkpt lat="45.5029167" lon="11.082135"><ele>406.4</ele><time>2026-04-23T13:31:00.31Z</time></trkpt><trkpt lat="45.5029367" lon="11.0822367"><ele>405.0</ele><time>2026-04-23T13:31:01.31Z</time></trkpt><trkpt lat="45.5029033" lon="11.0824183"><ele>406.25</ele><time>2026-04-23T13:31:03.311Z</time></trkpt><trkpt lat="45.5028633" lon="11.0825383"><ele>407.5</ele><time>2026-04-23T13:31:04.31Z</time></trkpt><trkpt lat="45.5028383" lon="11.0826567"><ele>408.75</ele><time>2026-04-23T13:31:05.31Z</time></trkpt><trkpt lat="45.50278" lon="11.08283"><ele>410.0</ele><time>2026-04-23T13:31:06.31Z</time></trkpt><trkpt lat="45.5027183" lon="11.0830017"><ele>410.0</ele><time>2026-04-23T13:31:07.31Z</time></trkpt><trkpt lat="45.5026517" lon="11.0831833"><ele>410.0</ele><time>2026-04-23T13:31:08.31Z</time></trkpt><trkpt lat="45.5025867" lon="11.0833817"><ele>410.0</ele><time>2026-04-23T13:31:09.311Z</time></trkpt><trkpt lat="45.5025267" lon="11.0835633"><ele>410.0</ele><time>2026-04-23T13:31:10.31Z</time></trkpt><trkpt lat="45.502485" lon="11.0837067"><ele>411.75</ele><time>2026-04-23T13:31:11.31Z</time></trkpt><trkpt lat="45.5024417" lon="11.0838417"><ele>413.5</ele><time>2026-04-23T13:31:12.31Z</time></trkpt><trkpt lat="45.5024" lon="11.083985"><ele>415.25</ele><time>2026-04-23T13:31:13.31Z</time></trkpt><trkpt lat="45.50238" lon="11.0841683"><ele>417.0</ele><time>2026-04-23T13:31:14.31Z</time></trkpt><trkpt lat="45.5023717" lon="11.0843583"><ele>416.33333333333337</ele><time>2026-04-23T13:31:15.31Z</time></trkpt><trkpt lat="45.5023617" lon="11.0846083"><ele>415.6666666666667</ele><time>2026-04-23T13:31:16.31Z</time></trkpt><trkpt lat="45.5023633" lon="11.08485"><ele>415.0</ele><time>2026-04-23T13:31:17.31Z</time></trkpt><trkpt lat="45.5023667" lon="11.0850733"><ele>415.0</ele><time>2026-04-23T13:31:18.31Z</time></trkpt><trkpt lat="45.502375" lon="11.085265"><ele>415.0</ele><time>2026-04-23T13:31:19.311Z</time></trkpt><trkpt lat="45.5023917" lon="11.085425"><ele>415.0</ele><time>2026-04-23T13:31:20.311Z</time></trkpt><trkpt lat="45.5024033" lon="11.08557"><ele>415.0</ele><time>2026-04-23T13:31:21.31Z</time></trkpt><trkpt lat="45.5024167" lon="11.0856983"><ele>415.0</ele><time>2026-04-23T13:31:22.311Z</time></trkpt><trkpt lat="45.5023417" lon="11.0857583"><ele>415.5</ele><time>2026-04-23T13:31:25.31Z</time></trkpt><trkpt lat="45.5021817" lon="11.0858133"><ele>416.0</ele><time>2026-04-23T13:31:50.31Z</time></trkpt><trkpt lat="45.5021" lon="11.08589"><ele>416.5</ele><time>2026-04-23T13:31:51.31Z</time></trkpt><trkpt lat="45.502035" lon="11.0859467"><ele>417.0</ele><time>2026-04-23T13:31:52.31Z</time></trkpt><trkpt lat="45.501925" lon="11.0859833"><ele>414.6666666666667</ele><time>2026-04-23T13:31:53.31Z</time></trkpt><trkpt lat="45.5018467" lon="11.0860117"><ele>412.33333333333337</ele><time>2026-04-23T13:31:54.309Z</time></trkpt><trkpt lat="45.50178" lon="11.0860333"><ele>410.0</ele><time>2026-04-23T13:31:55.309Z</time></trkpt><trkpt lat="45.5017117" lon="11.08604"><ele>407.6666666666667</ele><time>2026-04-23T13:31:56.309Z</time></trkpt><trkpt lat="45.5016483" lon="11.08605"><ele>405.33333333333337</ele><time>2026-04-23T13:31:57.309Z</time></trkpt><trkpt lat="45.5015867" lon="11.0860983"><ele>403.0</ele><time>2026-04-23T13:31:58.309Z</time></trkpt><trkpt lat="45.50149" lon="11.0860733"><ele>403.0</ele><time>2026-04-23T13:31:59.309Z</time></trkpt><trkpt lat="45.5014183" lon="11.08611"><ele>403.0</ele><time>2026-04-23T13:32:00.309Z</time></trkpt><trkpt lat="45.5013417" lon="11.086175"><ele>403.0</ele><time>2026-04-23T13:32:01.309Z</time></trkpt><trkpt lat="45.501265" lon="11.0862583"><ele>403.0</ele><time>2026-04-23T13:32:02.309Z</time></trkpt><trkpt lat="45.5011567" lon="11.08635"><ele>403.0</ele><time>2026-04-23T13:32:03.309Z</time></trkpt><trkpt lat="45.5010583" lon="11.0864367"><ele>402.0</ele><time>2026-04-23T13:32:04.309Z</time></trkpt><trkpt lat="45.5009733" lon="11.0865183"><ele>401.0</ele><time>2026-04-23T13:32:05.309Z</time></trkpt><trkpt lat="45.50093" lon="11.0865933"><ele>400.0</ele><time>2026-04-23T13:32:06.31Z</time></trkpt><trkpt lat="45.5009017" lon="11.0866767"><ele>399.0</ele><time>2026-04-23T13:32:07.309Z</time></trkpt><trkpt lat="45.5008517" lon="11.0867517"><ele>398.0</ele><time>2026-04-23T13:32:08.309Z</time></trkpt><trkpt lat="45.50082" lon="11.08684"><ele>397.0</ele><time>2026-04-23T13:32:09.31Z</time></trkpt><trkpt lat="45.5007867" lon="11.0869167"><ele>396.0</ele><time>2026-04-23T13:32:10.309Z</time></trkpt><trkpt lat="45.500765" lon="11.0870067"><ele>396.0</ele><time>2026-04-23T13:32:11.309Z</time></trkpt><trkpt lat="45.50076" lon="11.087105"><ele>396.0</ele><time>2026-04-23T13:32:12.309Z</time></trkpt><trkpt lat="45.50074" lon="11.0872483"><ele>396.0</ele><time>2026-04-23T13:32:14.309Z</time></trkpt><trkpt lat="45.500695" lon="11.08735"><ele>396.0</ele><time>2026-04-23T13:32:17.309Z</time></trkpt><trkpt lat="45.5006833" lon="11.0874483"><ele>396.0</ele><time>2026-04-23T13:32:20.31Z</time></trkpt><trkpt lat="45.5007283" lon="11.0875333"><ele>396.0</ele><time>2026-04-23T13:32:23.309Z</time></trkpt><trkpt lat="45.5006633" lon="11.0875333"><ele>396.5</ele><time>2026-04-23T13:32:25.309Z</time></trkpt><trkpt lat="45.5005767" lon="11.087525"><ele>397.0</ele><time>2026-04-23T13:32:26.309Z</time></trkpt><trkpt lat="45.5004117" lon="11.08739"><ele>397.5</ele><time>2026-04-23T13:32:27.309Z</time></trkpt><trkpt lat="45.5003067" lon="11.0874717"><ele>398.0</ele><time>2026-04-23T13:32:29.309Z</time></trkpt><trkpt lat="45.5002383" lon="11.087535"><ele>397.99999999999994</ele><time>2026-04-23T13:32:30.31Z</time></trkpt><trkpt lat="45.5001783" lon="11.0875817"><ele>398.0</ele><time>2026-04-23T13:32:31.309Z</time></trkpt><trkpt lat="45.5001167" lon="11.0876017"><ele>398.0</ele><time>2026-04-23T13:32:32.31Z</time></trkpt><trkpt lat="45.50004" lon="11.0877283"><ele>398.0</ele><time>2026-04-23T13:32:34.309Z</time></trkpt><trkpt lat="45.4999633" lon="11.0877583"><ele>397.99999999999994</ele><time>2026-04-23T13:32:36.309Z</time></trkpt><trkpt lat="45.49986" lon="11.0876917"><ele>398.0</ele><time>2026-04-23T13:32:38.309Z</time></trkpt><trkpt lat="45.4998333" lon="11.0874867"><ele>396.0</ele><time>2026-04-23T13:32:39.309Z</time></trkpt><trkpt lat="45.4997983" lon="11.0873567"><ele>394.0</ele><time>2026-04-23T13:32:40.309Z</time></trkpt><trkpt lat="45.4997667" lon="11.0872433"><ele>392.0</ele><time>2026-04-23T13:32:41.31Z</time></trkpt><trkpt lat="45.49972" lon="11.0871217"><ele>390.0</ele><time>2026-04-23T13:32:42.31Z</time></trkpt><trkpt lat="45.4996667" lon="11.0870033"><ele>388.0</ele><time>2026-04-23T13:32:43.309Z</time></trkpt><trkpt lat="45.4995983" lon="11.0868733"><ele>386.6666666666667</ele><time>2026-04-23T13:32:44.31Z</time></trkpt><trkpt lat="45.4994633" lon="11.0867667"><ele>385.33333333333337</ele><time>2026-04-23T13:32:45.309Z</time></trkpt><trkpt lat="45.4993067" lon="11.08673"><ele>384.0</ele><time>2026-04-23T13:32:46.309Z</time></trkpt><trkpt lat="45.4991617" lon="11.086665"><ele>384.0</ele><time>2026-04-23T13:32:47.309Z</time></trkpt><trkpt lat="45.499" lon="11.0866683"><ele>384.0</ele><time>2026-04-23T13:32:48.309Z</time></trkpt><trkpt lat="45.4988617" lon="11.086695"><ele>384.0</ele><time>2026-04-23T13:32:49.309Z</time></trkpt><trkpt lat="45.498755" lon="11.0867067"><ele>384.0</ele><time>2026-04-23T13:32:50.309Z</time></trkpt><trkpt lat="45.4986683" lon="11.0866867"><ele>383.1666666666667</ele><time>2026-04-23T13:32:51.309Z</time></trkpt><trkpt lat="45.4986033" lon="11.0866583"><ele>382.3333333333333</ele><time>2026-04-23T13:32:52.309Z</time></trkpt><trkpt lat="45.49855" lon="11.08659"><ele>381.5</ele><time>2026-04-23T13:32:53.309Z</time></trkpt><trkpt lat="45.49849" lon="11.086495"><ele>380.66666666666663</ele><time>2026-04-23T13:32:54.309Z</time></trkpt><trkpt lat="45.498425" lon="11.0863733"><ele>379.8333333333333</ele><time>2026-04-23T13:32:55.309Z</time></trkpt><trkpt lat="45.498375" lon="11.0862533"><ele>379.0</ele><time>2026-04-23T13:32:56.309Z</time></trkpt><trkpt lat="45.4983317" lon="11.0861433"><ele>376.8333333333333</ele><time>2026-04-23T13:32:57.309Z</time></trkpt><trkpt lat="45.4982983" lon="11.0860433"><ele>374.66666666666663</ele><time>2026-04-23T13:32:58.309Z</time></trkpt><trkpt lat="45.4982733" lon="11.0859267"><ele>372.5</ele><time>2026-04-23T13:33:00.309Z</time></trkpt><trkpt lat="45.498355" lon="11.0858633"><ele>370.3333333333333</ele><time>2026-04-23T13:35:20.309Z</time></trkpt><trkpt lat="45.4983683" lon="11.0857583"><ele>368.1666666666667</ele><time>2026-04-23T13:35:21.309Z</time></trkpt><trkpt lat="45.49838" lon="11.08565"><ele>366.0</ele><time>2026-04-23T13:35:22.309Z</time></trkpt><trkpt lat="45.49839" lon="11.08553"><ele>364.20000000000005</ele><time>2026-04-23T13:35:23.31Z</time></trkpt><trkpt lat="45.4983983" lon="11.08542"><ele>362.40000000000003</ele><time>2026-04-23T13:35:24.31Z</time></trkpt><trkpt lat="45.498405" lon="11.0852867"><ele>360.6</ele><time>2026-04-23T13:35:25.309Z</time></trkpt><trkpt lat="45.4983933" lon="11.0850883"><ele>358.8</ele><time>2026-04-23T13:35:26.309Z</time></trkpt><trkpt lat="45.4983783" lon="11.084905"><ele>357.0</ele><time>2026-04-23T13:35:27.309Z</time></trkpt><trkpt lat="45.4983617" lon="11.08475"><ele>354.1666666666667</ele><time>2026-04-23T13:35:28.31Z</time></trkpt><trkpt lat="45.4983467" lon="11.084615"><ele>351.3333333333333</ele><time>2026-04-23T13:35:29.309Z</time></trkpt><trkpt lat="45.4983367" lon="11.08449"><ele>348.5</ele><time>2026-04-23T13:35:30.309Z</time></trkpt><trkpt lat="45.4983167" lon="11.084375"><ele>345.66666666666663</ele><time>2026-04-23T13:35:31.309Z</time></trkpt><trkpt lat="45.4982783" lon="11.0842633"><ele>342.8333333333333</ele><time>2026-04-23T13:35:32.309Z</time></trkpt><trkpt lat="45.4982267" lon="11.08417"><ele>340.0</ele><time>2026-04-23T13:35:33.309Z</time></trkpt><trkpt lat="45.4981583" lon="11.0840683"><ele>338.6</ele><time>2026-04-23T13:35:34.309Z</time></trkpt><trkpt lat="45.4980667" lon="11.083995"><ele>337.2</ele><time>2026-04-23T13:35:35.309Z</time></trkpt><trkpt lat="45.4979833" lon="11.0839067"><ele>335.79999999999995</ele><time>2026-04-23T13:35:36.31Z</time></trkpt><trkpt lat="45.4978933" lon="11.08383"><ele>334.4</ele><time>2026-04-23T13:35:37.309Z</time></trkpt><trkpt lat="45.49782" lon="11.08375"><ele>333.0</ele><time>2026-04-23T13:35:38.31Z</time></trkpt><trkpt lat="45.49778" lon="11.083645"><ele>331.1666666666667</ele><time>2026-04-23T13:35:39.31Z</time></trkpt><trkpt lat="45.4977467" lon="11.0835233"><ele>329.3333333333333</ele><time>2026-04-23T13:35:40.308Z</time></trkpt><trkpt lat="45.4977133" lon="11.0834083"><ele>327.5</ele><time>2026-04-23T13:35:41.308Z</time></trkpt><trkpt lat="45.497675" lon="11.0832967"><ele>325.66666666666663</ele><time>2026-04-23T13:35:42.308Z</time></trkpt><trkpt lat="45.4976383" lon="11.08318"><ele>323.8333333333333</ele><time>2026-04-23T13:35:43.308Z</time></trkpt><trkpt lat="45.4976017" lon="11.083095"><ele>322.0</ele><time>2026-04-23T13:35:44.309Z</time></trkpt><trkpt lat="45.4975667" lon="11.0830083"><ele>321.0</ele><time>2026-04-23T13:35:45.308Z</time></trkpt><trkpt lat="45.4975383" lon="11.0829183"><ele>320.0</ele><time>2026-04-23T13:35:46.309Z</time></trkpt><trkpt lat="45.4974933" lon="11.0827517"><ele>319.0</ele><time>2026-04-23T13:35:48.309Z</time></trkpt><trkpt lat="45.49745" lon="11.0826067"><ele>318.0</ele><time>2026-04-23T13:35:50.309Z</time></trkpt><trkpt lat="45.49741" lon="11.0824783"><ele>317.0</ele><time>2026-04-23T13:35:52.308Z</time></trkpt><trkpt lat="45.4973383" lon="11.082385"><ele>317.0</ele><time>2026-04-23T13:35:54.308Z</time></trkpt><trkpt lat="45.49727" lon="11.0823483"><ele>317.0</ele><time>2026-04-23T13:35:55.308Z</time></trkpt><trkpt lat="45.49719" lon="11.0822967"><ele>317.0</ele><time>2026-04-23T13:35:56.308Z</time></trkpt><trkpt lat="45.49708" lon="11.0822417"><ele>317.0</ele><time>2026-04-23T13:35:57.309Z</time></trkpt><trkpt lat="45.4969417" lon="11.0821683"><ele>317.0</ele><time>2026-04-23T13:35:58.308Z</time></trkpt><trkpt lat="45.4968133" lon="11.0820867"><ele>315.5</ele><time>2026-04-23T13:35:59.308Z</time></trkpt><trkpt lat="45.4967367" lon="11.0820233"><ele>314.0</ele><time>2026-04-23T13:36:00.308Z</time></trkpt><trkpt lat="45.49666" lon="11.081975"><ele>312.5</ele><time>2026-04-23T13:36:01.308Z</time></trkpt><trkpt lat="45.4965567" lon="11.0819483"><ele>311.0</ele><time>2026-04-23T13:36:03.309Z</time></trkpt><trkpt lat="45.49648" lon="11.08188"><ele>309.5</ele><time>2026-04-23T13:36:05.308Z</time></trkpt><trkpt lat="45.496425" lon="11.0818083"><ele>308.0</ele><time>2026-04-23T13:36:06.308Z</time></trkpt><trkpt lat="45.4963617" lon="11.081705"><ele>307.25</ele><time>2026-04-23T13:36:07.308Z</time></trkpt><trkpt lat="45.496285" lon="11.081585"><ele>306.5</ele><time>2026-04-23T13:36:08.308Z</time></trkpt><trkpt lat="45.4961883" lon="11.081425"><ele>305.75</ele><time>2026-04-23T13:36:09.308Z</time></trkpt><trkpt lat="45.4961017" lon="11.081275"><ele>305.0</ele><time>2026-04-23T13:36:10.308Z</time></trkpt><trkpt lat="45.4960167" lon="11.0811067"><ele>304.5</ele><time>2026-04-23T13:36:11.309Z</time></trkpt><trkpt lat="45.4959567" lon="11.080935"><ele>304.0</ele><time>2026-04-23T13:36:12.308Z</time></trkpt><trkpt lat="45.4958783" lon="11.0807767"><ele>303.5</ele><time>2026-04-23T13:36:13.309Z</time></trkpt><trkpt lat="45.4957883" lon="11.0806383"><ele>303.0</ele><time>2026-04-23T13:36:14.308Z</time></trkpt><trkpt lat="45.4956967" lon="11.0805117"><ele>300.0</ele><time>2026-04-23T13:36:15.308Z</time></trkpt><trkpt lat="45.4955833" lon="11.0804167"><ele>297.0</ele><time>2026-04-23T13:36:16.308Z</time></trkpt><trkpt lat="45.4954817" lon="11.0803033"><ele>294.0</ele><time>2026-04-23T13:36:17.308Z</time></trkpt><trkpt lat="45.4953367" lon="11.0802333"><ele>291.0</ele><time>2026-04-23T13:36:18.308Z</time></trkpt><trkpt lat="45.4952233" lon="11.0801467"><ele>290.0</ele><time>2026-04-23T13:36:19.308Z</time></trkpt><trkpt lat="45.4951033" lon="11.0800617"><ele>289.0</ele><time>2026-04-23T13:36:20.309Z</time></trkpt><trkpt lat="45.4949917" lon="11.0800217"><ele>288.0</ele><time>2026-04-23T13:36:21.308Z</time></trkpt><trkpt lat="45.4948717" lon="11.0799767"><ele>287.0</ele><time>2026-04-23T13:36:22.308Z</time></trkpt><trkpt lat="45.4947383" lon="11.0799483"><ele>287.0</ele><time>2026-04-23T13:36:23.308Z</time></trkpt><trkpt lat="45.4945933" lon="11.0799617"><ele>287.0</ele><time>2026-04-23T13:36:24.308Z</time></trkpt><trkpt lat="45.4944633" lon="11.0799733"><ele>287.0</ele><time>2026-04-23T13:36:25.308Z</time></trkpt><trkpt lat="45.494305" lon="11.0800067"><ele>287.0</ele><time>2026-04-23T13:36:26.308Z</time></trkpt><trkpt lat="45.4941683" lon="11.0800767"><ele>287.6</ele><time>2026-04-23T13:36:27.308Z</time></trkpt><trkpt lat="45.4940533" lon="11.080145"><ele>288.2</ele><time>2026-04-23T13:36:28.308Z</time></trkpt><trkpt lat="45.49395" lon="11.08019"><ele>288.8</ele><time>2026-04-23T13:36:29.308Z</time></trkpt><trkpt lat="45.49385" lon="11.0801867"><ele>289.4</ele><time>2026-04-23T13:36:30.308Z</time></trkpt><trkpt lat="45.4937717" lon="11.0801167"><ele>290.0</ele><time>2026-04-23T13:36:31.308Z</time></trkpt><trkpt lat="45.4937283" lon="11.0800183"><ele>288.2</ele><time>2026-04-23T13:36:32.308Z</time></trkpt><trkpt lat="45.4937183" lon="11.0798783"><ele>286.4</ele><time>2026-04-23T13:36:33.308Z</time></trkpt><trkpt lat="45.4937283" lon="11.079725"><ele>284.6</ele><time>2026-04-23T13:36:34.308Z</time></trkpt><trkpt lat="45.4937467" lon="11.0795633"><ele>282.8</ele><time>2026-04-23T13:36:35.308Z</time></trkpt><trkpt lat="45.4937533" lon="11.0793983"><ele>281.0</ele><time>2026-04-23T13:36:36.308Z</time></trkpt><trkpt lat="45.493745" lon="11.07923"><ele>276.75</ele><time>2026-04-23T13:36:37.308Z</time></trkpt><trkpt lat="45.4936967" lon="11.079075"><ele>272.5</ele><time>2026-04-23T13:36:38.309Z</time></trkpt><trkpt lat="45.4936067" lon="11.078945"><ele>268.25</ele><time>2026-04-23T13:36:39.308Z</time></trkpt><trkpt lat="45.493505" lon="11.078845"><ele>264.0</ele><time>2026-04-23T13:36:40.308Z</time></trkpt><trkpt lat="45.4933817" lon="11.0787583"><ele>264.0</ele><time>2026-04-23T13:36:41.308Z</time></trkpt><trkpt lat="45.4932333" lon="11.0786917"><ele>264.0</ele><time>2026-04-23T13:36:42.308Z</time></trkpt><trkpt lat="45.4930867" lon="11.0786267"><ele>264.0</ele><time>2026-04-23T13:36:43.309Z</time></trkpt><trkpt lat="45.492945" lon="11.07857"><ele>265.5</ele><time>2026-04-23T13:36:44.308Z</time></trkpt><trkpt lat="45.4928117" lon="11.07852"><ele>267.0</ele><time>2026-04-23T13:36:45.308Z</time></trkpt><trkpt lat="45.4926833" lon="11.0784633"><ele>268.5</ele><time>2026-04-23T13:36:46.308Z</time></trkpt><trkpt lat="45.4925533" lon="11.0784083"><ele>270.0</ele><time>2026-04-23T13:36:47.308Z</time></trkpt><trkpt lat="45.4924283" lon="11.07835"><ele>270.0</ele><time>2026-04-23T13:36:48.308Z</time></trkpt><trkpt lat="45.4923017" lon="11.07829"><ele>270.0</ele><time>2026-04-23T13:36:49.308Z</time></trkpt><trkpt lat="45.4921783" lon="11.07823"><ele>270.0</ele><time>2026-04-23T13:36:50.308Z</time></trkpt><trkpt lat="45.4920567" lon="11.0781417"><ele>270.0</ele><time>2026-04-23T13:36:51.308Z</time></trkpt><trkpt lat="45.4919333" lon="11.0780333"><ele>266.6666666666667</ele><time>2026-04-23T13:36:52.308Z</time></trkpt><trkpt lat="45.491795" lon="11.0778967"><ele>263.33333333333337</ele><time>2026-04-23T13:36:53.309Z</time></trkpt><trkpt lat="45.4916633" lon="11.077765"><ele>260.0</ele><time>2026-04-23T13:36:54.308Z</time></trkpt><trkpt lat="45.491545" lon="11.0776267"><ele>260.0</ele><time>2026-04-23T13:36:55.308Z</time></trkpt><trkpt lat="45.491445" lon="11.0774767"><ele>260.0</ele><time>2026-04-23T13:36:56.308Z</time></trkpt><trkpt lat="45.491365" lon="11.0773067"><ele>260.0</ele><time>2026-04-23T13:36:57.308Z</time></trkpt><trkpt lat="45.4912917" lon="11.0771367"><ele>260.0</ele><time>2026-04-23T13:36:58.308Z</time></trkpt><trkpt lat="45.491245" lon="11.0769583"><ele>257.6</ele><time>2026-04-23T13:36:59.309Z</time></trkpt><trkpt lat="45.4912067" lon="11.0767867"><ele>255.2</ele><time>2026-04-23T13:37:00.308Z</time></trkpt><trkpt lat="45.49117" lon="11.07664"><ele>252.8</ele><time>2026-04-23T13:37:01.308Z</time></trkpt><trkpt lat="45.491125" lon="11.0765267"><ele>250.4</ele><time>2026-04-23T13:37:02.309Z</time></trkpt><trkpt lat="45.4910717" lon="11.0764383"><ele>248.0</ele><time>2026-04-23T13:37:03.308Z</time></trkpt><trkpt lat="45.4910117" lon="11.0763717"><ele>245.4</ele><time>2026-04-23T13:37:04.308Z</time></trkpt><trkpt lat="45.4909267" lon="11.0763333"><ele>242.8</ele><time>2026-04-23T13:37:05.308Z</time></trkpt><trkpt lat="45.4908183" lon="11.07633"><ele>240.2</ele><time>2026-04-23T13:37:06.308Z</time></trkpt><trkpt lat="45.49072" lon="11.0763317"><ele>237.6</ele><time>2026-04-23T13:37:07.308Z</time></trkpt><trkpt lat="45.4906233" lon="11.0763167"><ele>235.0</ele><time>2026-04-23T13:37:08.308Z</time></trkpt><trkpt lat="45.4905233" lon="11.0762533"><ele>234.99999999999997</ele><time>2026-04-23T13:37:09.308Z</time></trkpt><trkpt lat="45.4904383" lon="11.07618"><ele>235.0</ele><time>2026-04-23T13:37:10.308Z</time></trkpt><trkpt lat="45.4903733" lon="11.0761183"><ele>235.0</ele><time>2026-04-23T13:37:11.308Z</time></trkpt><trkpt lat="45.4903133" lon="11.0760767"><ele>235.0</ele><time>2026-04-23T13:37:12.309Z</time></trkpt><trkpt lat="45.4902517" lon="11.0760367"><ele>234.99999999999997</ele><time>2026-04-23T13:37:13.308Z</time></trkpt><trkpt lat="45.4901917" lon="11.0759817"><ele>235.0</ele><time>2026-04-23T13:37:14.308Z</time></trkpt><trkpt lat="45.4901233" lon="11.0759133"><ele>233.66666666666666</ele><time>2026-04-23T13:37:15.308Z</time></trkpt><trkpt lat="45.4900467" lon="11.0758517"><ele>232.33333333333331</ele><time>2026-04-23T13:37:16.308Z</time></trkpt><trkpt lat="45.4899733" lon="11.0758133"><ele>231.0</ele><time>2026-04-23T13:37:17.308Z</time></trkpt><trkpt lat="45.489905" lon="11.0757833"><ele>229.66666666666669</ele><time>2026-04-23T13:37:18.309Z</time></trkpt><trkpt lat="45.4898117" lon="11.075755"><ele>228.33333333333334</ele><time>2026-04-23T13:37:20.308Z</time></trkpt><trkpt lat="45.4897467" lon="11.075675"><ele>227.0</ele><time>2026-04-23T13:37:23.308Z</time></trkpt><trkpt lat="45.4898181" lon="11.0756569"><ele>224.39999999999998</ele><time>2026-04-23T13:37:45.383Z</time></trkpt><trkpt lat="45.4898184" lon="11.0755495"><ele>221.79999999999998</ele><time>2026-04-23T13:37:46.389Z</time></trkpt><trkpt lat="45.4897666" lon="11.0754539"><ele>219.2</ele><time>2026-04-23T13:37:47.308Z</time></trkpt><trkpt lat="45.4897283" lon="11.07529"><ele>216.6</ele><time>2026-04-23T13:37:48.309Z</time></trkpt><trkpt lat="45.4896883" lon="11.0751867"><ele>214.0</ele><time>2026-04-23T13:37:49.309Z</time></trkpt><trkpt lat="45.489635" lon="11.075085"><ele>210.99999999999997</ele><time>2026-04-23T13:37:50.308Z</time></trkpt><trkpt lat="45.489585" lon="11.0750017"><ele>208.0</ele><time>2026-04-23T13:37:51.308Z</time></trkpt><trkpt lat="45.4895017" lon="11.0748967"><ele>205.0</ele><time>2026-04-23T13:37:53.309Z</time></trkpt><trkpt lat="45.4894417" lon="11.07483"><ele>202.0</ele><time>2026-04-23T13:37:55.308Z</time></trkpt><trkpt lat="45.48952" lon="11.07486"><ele>198.99999999999997</ele><time>2026-04-23T13:38:07.309Z</time></trkpt><trkpt lat="45.48958" lon="11.07492"><ele>196.0</ele><time>2026-04-23T13:38:09.308Z</time></trkpt><trkpt lat="45.4896467" lon="11.074935"><ele>195.99999999999997</ele><time>2026-04-23T13:38:12.308Z</time></trkpt><trkpt lat="45.4897217" lon="11.0749383"><ele>196.0</ele><time>2026-04-23T13:38:15.309Z</time></trkpt><trkpt lat="45.4897883" lon="11.07487"><ele>196.0</ele><time>2026-04-23T13:38:19.309Z</time></trkpt><trkpt lat="45.4897783" lon="11.0747717"><ele>196.0</ele><time>2026-04-23T13:38:21.308Z</time></trkpt><trkpt lat="45.4897367" lon="11.0747"><ele>195.99999999999997</ele><time>2026-04-23T13:38:22.308Z</time></trkpt><trkpt lat="45.489655" lon="11.0746233"><ele>196.0</ele><time>2026-04-23T13:38:23.309Z</time></trkpt><trkpt lat="45.4895617" lon="11.074515"><ele>195.99999999999997</ele><time>2026-04-23T13:38:25.308Z</time></trkpt><trkpt lat="45.489525" lon="11.074425"><ele>196.0</ele><time>2026-04-23T13:38:27.308Z</time></trkpt><trkpt lat="45.489555" lon="11.0743133"><ele>196.0</ele><time>2026-04-23T13:38:30.308Z</time></trkpt><trkpt lat="45.4896083" lon="11.074195"><ele>196.0</ele><time>2026-04-23T13:38:33.309Z</time></trkpt><trkpt lat="45.4896633" lon="11.074095"><ele>195.99999999999997</ele><time>2026-04-23T13:38:35.308Z</time></trkpt><trkpt lat="45.4897183" lon="11.0740117"><ele>196.0</ele><time>2026-04-23T13:38:37.308Z</time></trkpt><trkpt lat="45.4897667" lon="11.0739483"><ele>192.49999999999997</ele><time>2026-04-23T13:38:39.309Z</time></trkpt><trkpt lat="45.489745" lon="11.07385"><ele>189.0</ele><time>2026-04-23T13:38:42.307Z</time></trkpt><trkpt lat="45.4896833" lon="11.0738"><ele>185.5</ele><time>2026-04-23T13:38:44.307Z</time></trkpt><trkpt lat="45.489645" lon="11.073725"><ele>182.0</ele><time>2026-04-23T13:38:46.308Z</time></trkpt><trkpt lat="45.48975" lon="11.073705"><ele>178.5</ele><time>2026-04-23T13:38:50.307Z</time></trkpt><trkpt lat="45.4898117" lon="11.0737417"><ele>175.0</ele><time>2026-04-23T13:38:51.307Z</time></trkpt><trkpt lat="45.4899133" lon="11.0738317"><ele>175.0</ele><time>2026-04-23T13:38:53.307Z</time></trkpt><trkpt lat="45.4900333" lon="11.07391"><ele>175.0</ele><time>2026-04-23T13:38:55.308Z</time></trkpt><trkpt lat="45.4901433" lon="11.0739617"><ele>175.0</ele><time>2026-04-23T13:38:57.307Z</time></trkpt><trkpt lat="45.49013" lon="11.0738717"><ele>175.0</ele><time>2026-04-23T13:39:02.308Z</time></trkpt><trkpt lat="45.49007" lon="11.073765"><ele>175.0</ele><time>2026-04-23T13:39:04.307Z</time></trkpt><trkpt lat="45.49003" lon="11.07365"><ele>175.0</ele><time>2026-04-23T13:39:06.307Z</time></trkpt><trkpt lat="45.4900033" lon="11.0735533"><ele>175.0</ele><time>2026-04-23T13:39:08.307Z</time></trkpt><trkpt lat="45.4900017" lon="11.0734617"><ele>175.0</ele><time>2026-04-23T13:39:12.307Z</time></trkpt><trkpt lat="45.4901283" lon="11.0734717"><ele>175.0</ele><time>2026-04-23T13:39:15.308Z</time></trkpt><trkpt lat="45.4902133" lon="11.0735233"><ele>175.0</ele><time>2026-04-23T13:39:17.308Z</time></trkpt><trkpt lat="45.49032" lon="11.0735233"><ele>175.0</ele><time>2026-04-23T13:39:19.307Z</time></trkpt><trkpt lat="45.490385" lon="11.0735233"><ele>175.0</ele><time>2026-04-23T13:39:21.307Z</time></trkpt><trkpt lat="45.4904583" lon="11.0735467"><ele>175.0</ele><time>2026-04-23T13:39:23.307Z</time></trkpt><trkpt lat="45.49053" lon="11.0735017"><ele>175.0</ele><time>2026-04-23T13:39:27.307Z</time></trkpt><trkpt lat="45.490525" lon="11.0734"><ele>175.0</ele><time>2026-04-23T13:39:31.307Z</time></trkpt><trkpt lat="45.4904567" lon="11.07335"><ele>175.0</ele><time>2026-04-23T13:39:38.307Z</time></trkpt><trkpt lat="45.4903767" lon="11.073335"><ele>175.0</ele><time>2026-04-23T13:39:41.308Z</time></trkpt><trkpt lat="45.4903183" lon="11.0732483"><ele>174.33333333333334</ele><time>2026-04-23T13:39:44.307Z</time></trkpt><trkpt lat="45.4902667" lon="11.0731817"><ele>173.66666666666669</ele><time>2026-04-23T13:39:46.307Z</time></trkpt><trkpt lat="45.4902117" lon="11.0730833"><ele>173.0</ele><time>2026-04-23T13:39:48.307Z</time></trkpt><trkpt lat="45.4901433" lon="11.0729933"><ele>172.33333333333334</ele><time>2026-04-23T13:39:51.307Z</time></trkpt><trkpt lat="45.4900417" lon="11.0729133"><ele>171.66666666666666</ele><time>2026-04-23T13:39:53.307Z</time></trkpt><trkpt lat="45.48997" lon="11.0728933"><ele>171.0</ele><time>2026-04-23T13:39:56.307Z</time></trkpt><trkpt lat="45.4899083" lon="11.0728433"><ele>171.0</ele><time>2026-04-23T13:39:58.308Z</time></trkpt><trkpt lat="45.4898133" lon="11.0727467"><ele>171.0</ele><time>2026-04-23T13:40:01.307Z</time></trkpt><trkpt lat="45.4897483" lon="11.072695"><ele>171.0</ele><time>2026-04-23T13:40:03.307Z</time></trkpt><trkpt lat="45.48968" lon="11.07268"><ele>171.0</ele><time>2026-04-23T13:40:06.307Z</time></trkpt><trkpt lat="45.489595" lon="11.0726617"><ele>171.0</ele><time>2026-04-23T13:40:09.308Z</time></trkpt><trkpt lat="45.4895217" lon="11.0726617"><ele>171.0</ele><time>2026-04-23T13:40:11.307Z</time></trkpt><trkpt lat="45.4894183" lon="11.0726"><ele>169.83333333333334</ele><time>2026-04-23T13:40:13.307Z</time></trkpt><trkpt lat="45.48935" lon="11.0725467"><ele>168.66666666666666</ele><time>2026-04-23T13:40:14.307Z</time></trkpt><trkpt lat="45.4892867" lon="11.0725067"><ele>167.5</ele><time>2026-04-23T13:40:17.307Z</time></trkpt><trkpt lat="45.4892783" lon="11.0724133"><ele>166.33333333333331</ele><time>2026-04-23T13:40:19.307Z</time></trkpt><trkpt lat="45.4892133" lon="11.0723267"><ele>165.16666666666666</ele><time>2026-04-23T13:40:21.307Z</time></trkpt><trkpt lat="45.489155" lon="11.0722467"><ele>164.0</ele><time>2026-04-23T13:40:23.307Z</time></trkpt><trkpt lat="45.4890933" lon="11.072185"><ele>164.0</ele><time>2026-04-23T13:40:25.307Z</time></trkpt><trkpt lat="45.4890217" lon="11.0721667"><ele>164.0</ele><time>2026-04-23T13:40:27.308Z</time></trkpt><trkpt lat="45.488935" lon="11.0721383"><ele>164.0</ele><time>2026-04-23T13:40:30.307Z</time></trkpt><trkpt lat="45.48884" lon="11.072105"><ele>164.0</ele><time>2026-04-23T13:40:33.307Z</time></trkpt><trkpt lat="45.48875" lon="11.0719967"><ele>164.0</ele><time>2026-04-23T13:40:38.308Z</time></trkpt><trkpt lat="45.4886883" lon="11.0719167"><ele>161.66666666666666</ele><time>2026-04-23T13:40:40.307Z</time></trkpt><trkpt lat="45.488615" lon="11.0718333"><ele>159.33333333333331</ele><time>2026-04-23T13:40:43.307Z</time></trkpt><trkpt lat="45.4885367" lon="11.0717933"><ele>157.0</ele><time>2026-04-23T13:40:44.307Z</time></trkpt><trkpt lat="45.4884733" lon="11.07172"><ele>154.66666666666666</ele><time>2026-04-23T13:40:46.307Z</time></trkpt><trkpt lat="45.4884867" lon="11.07163"><ele>152.33333333333334</ele><time>2026-04-23T13:40:52.307Z</time></trkpt><trkpt lat="45.4884483" lon="11.0715583"><ele>150.0</ele><time>2026-04-23T13:40:53.307Z</time></trkpt><trkpt lat="45.4884217" lon="11.07146"><ele>149.5</ele><time>2026-04-23T13:40:54.307Z</time></trkpt><trkpt lat="45.48838" lon="11.0713417"><ele>149.0</ele><time>2026-04-23T13:40:55.307Z</time></trkpt><trkpt lat="45.48835" lon="11.07124"><ele>148.5</ele><time>2026-04-23T13:40:56.307Z</time></trkpt><trkpt lat="45.4883283" lon="11.0711317"><ele>148.0</ele><time>2026-04-23T13:40:57.307Z</time></trkpt><trkpt lat="45.4883" lon="11.0710033"><ele>147.5</ele><time>2026-04-23T13:40:58.307Z</time></trkpt><trkpt lat="45.4882767" lon="11.070875"><ele>147.0</ele><time>2026-04-23T13:40:59.308Z</time></trkpt><trkpt lat="45.4882567" lon="11.0707683"><ele>146.83333333333334</ele><time>2026-04-23T13:41:00.308Z</time></trkpt><trkpt lat="45.4882333" lon="11.0706567"><ele>146.66666666666666</ele><time>2026-04-23T13:41:01.307Z</time></trkpt><trkpt lat="45.488215" lon="11.07054"><ele>146.5</ele><time>2026-04-23T13:41:02.308Z</time></trkpt><trkpt lat="45.4881917" lon="11.0704233"><ele>146.33333333333331</ele><time>2026-04-23T13:41:03.307Z</time></trkpt><trkpt lat="45.488175" lon="11.0703283"><ele>146.16666666666666</ele><time>2026-04-23T13:41:04.307Z</time></trkpt><trkpt lat="45.4881617" lon="11.0702317"><ele>146.0</ele><time>2026-04-23T13:41:06.307Z</time></trkpt><trkpt lat="45.4881783" lon="11.0701283"><ele>146.0</ele><time>2026-04-23T13:41:12.307Z</time></trkpt><trkpt lat="45.4881583" lon="11.0699617"><ele>146.0</ele><time>2026-04-23T13:41:14.307Z</time></trkpt><trkpt lat="45.4881433" lon="11.0698567"><ele>146.0</ele><time>2026-04-23T13:41:15.307Z</time></trkpt><trkpt lat="45.4881317" lon="11.0697383"><ele>146.0</ele><time>2026-04-23T13:41:16.307Z</time></trkpt><trkpt lat="45.48813" lon="11.0696283"><ele>146.0</ele><time>2026-04-23T13:41:17.308Z</time></trkpt><trkpt lat="45.4881217" lon="11.0694783"><ele>143.75</ele><time>2026-04-23T13:41:18.307Z</time></trkpt><trkpt lat="45.4880867" lon="11.069315"><ele>141.5</ele><time>2026-04-23T13:41:19.307Z</time></trkpt><trkpt lat="45.4880667" lon="11.069175"><ele>139.25</ele><time>2026-04-23T13:41:20.307Z</time></trkpt><trkpt lat="45.48803" lon="11.0689917"><ele>137.0</ele><time>2026-04-23T13:41:21.308Z</time></trkpt><trkpt lat="45.4879933" lon="11.0688033"><ele>136.75</ele><time>2026-04-23T13:41:22.307Z</time></trkpt><trkpt lat="45.4879667" lon="11.0686133"><ele>136.5</ele><time>2026-04-23T13:41:23.307Z</time></trkpt><trkpt lat="45.4879433" lon="11.0684367"><ele>136.25</ele><time>2026-04-23T13:41:24.307Z</time></trkpt><trkpt lat="45.4879183" lon="11.0682417"><ele>136.0</ele><time>2026-04-23T13:41:25.307Z</time></trkpt><trkpt lat="45.4878867" lon="11.0680517"><ele>135.0</ele><time>2026-04-23T13:41:26.307Z</time></trkpt><trkpt lat="45.487835" lon="11.0678733"><ele>134.0</ele><time>2026-04-23T13:41:27.307Z</time></trkpt><trkpt lat="45.4877567" lon="11.0677117"><ele>133.0</ele><time>2026-04-23T13:41:28.307Z</time></trkpt><trkpt lat="45.4876583" lon="11.0675567"><ele>132.0</ele><time>2026-04-23T13:41:29.307Z</time></trkpt><trkpt lat="45.4875233" lon="11.06733"><ele>132.0</ele><time>2026-04-23T13:41:30.307Z</time></trkpt><trkpt lat="45.4873967" lon="11.0671467"><ele>132.0</ele><time>2026-04-23T13:41:31.307Z</time></trkpt><trkpt lat="45.4872867" lon="11.0669733"><ele>132.0</ele><time>2026-04-23T13:41:32.308Z</time></trkpt><trkpt lat="45.4871833" lon="11.0668183"><ele>132.0</ele><time>2026-04-23T13:41:33.307Z</time></trkpt><trkpt lat="45.4871083" lon="11.0666983"><ele>132.0</ele><time>2026-04-23T13:41:34.306Z</time></trkpt><trkpt lat="45.4870417" lon="11.0665917"><ele>132.0</ele><time>2026-04-23T13:41:35.306Z</time></trkpt><trkpt lat="45.48696" lon="11.066545"><ele>132.0</ele><time>2026-04-23T13:41:36.306Z</time></trkpt><trkpt lat="45.48687" lon="11.066515"><ele>132.0</ele><time>2026-04-23T13:41:37.306Z</time></trkpt><trkpt lat="45.4867683" lon="11.0665067"><ele>128.75</ele><time>2026-04-23T13:41:38.306Z</time></trkpt><trkpt lat="45.4866" lon="11.06661"><ele>125.5</ele><time>2026-04-23T13:41:39.306Z</time></trkpt><trkpt lat="45.4864783" lon="11.066685"><ele>122.25</ele><time>2026-04-23T13:41:40.306Z</time></trkpt><trkpt lat="45.4864" lon="11.0667583"><ele>119.0</ele><time>2026-04-23T13:41:41.306Z</time></trkpt><trkpt lat="45.48634" lon="11.066815"><ele>118.0</ele><time>2026-04-23T13:41:42.306Z</time></trkpt><trkpt lat="45.4862483" lon="11.06687"><ele>117.0</ele><time>2026-04-23T13:41:44.306Z</time></trkpt><trkpt lat="45.4861617" lon="11.0667683"><ele>116.0</ele><time>2026-04-23T13:41:45.306Z</time></trkpt><trkpt lat="45.4860517" lon="11.066665"><ele>115.0</ele><time>2026-04-23T13:41:46.306Z</time></trkpt><trkpt lat="45.4859533" lon="11.0665533"><ele>114.25</ele><time>2026-04-23T13:41:47.306Z</time></trkpt><trkpt lat="45.4858383" lon="11.0664683"><ele>113.5</ele><time>2026-04-23T13:41:48.306Z</time></trkpt><trkpt lat="45.4857017" lon="11.06641"><ele>112.75</ele><time>2026-04-23T13:41:49.306Z</time></trkpt><trkpt lat="45.485555" lon="11.0663733"><ele>112.0</ele><time>2026-04-23T13:41:50.306Z</time></trkpt><trkpt lat="45.4854217" lon="11.0663417"><ele>111.19999999999999</ele><time>2026-04-23T13:41:51.306Z</time></trkpt><trkpt lat="45.4853083" lon="11.0663083"><ele>110.39999999999999</ele><time>2026-04-23T13:41:52.306Z</time></trkpt><trkpt lat="45.4852083" lon="11.06628"><ele>109.60000000000001</ele><time>2026-04-23T13:41:53.306Z</time></trkpt><trkpt lat="45.485125" lon="11.06625"><ele>108.80000000000001</ele><time>2026-04-23T13:41:54.306Z</time></trkpt><trkpt lat="45.4850433" lon="11.0662033"><ele>108.0</ele><time>2026-04-23T13:41:55.306Z</time></trkpt><trkpt lat="45.484955" lon="11.0661367"><ele>108.0</ele><time>2026-04-23T13:41:56.306Z</time></trkpt><trkpt lat="45.4848483" lon="11.0660517"><ele>108.0</ele><time>2026-04-23T13:41:57.306Z</time></trkpt><trkpt lat="45.4847467" lon="11.0659517"><ele>108.0</ele><time>2026-04-23T13:41:58.306Z</time></trkpt><trkpt lat="45.4846433" lon="11.0658467"><ele>108.0</ele><time>2026-04-23T13:41:59.306Z</time></trkpt><trkpt lat="45.4845467" lon="11.0657383"><ele>106.75</ele><time>2026-04-23T13:42:00.306Z</time></trkpt><trkpt lat="45.4844717" lon="11.0656317"><ele>105.5</ele><time>2026-04-23T13:42:01.306Z</time></trkpt><trkpt lat="45.4844267" lon="11.0655133"><ele>104.25</ele><time>2026-04-23T13:42:02.306Z</time></trkpt><trkpt lat="45.4843833" lon="11.065355"><ele>103.0</ele><time>2026-04-23T13:42:03.306Z</time></trkpt><trkpt lat="45.4843433" lon="11.0651667"><ele>103.0</ele><time>2026-04-23T13:42:04.306Z</time></trkpt><trkpt lat="45.48429" lon="11.064985"><ele>103.0</ele><time>2026-04-23T13:42:05.306Z</time></trkpt><trkpt lat="45.4842183" lon="11.064805"><ele>103.0</ele><time>2026-04-23T13:42:06.307Z</time></trkpt><trkpt lat="45.4841383" lon="11.064655"><ele>103.0</ele><time>2026-04-23T13:42:07.306Z</time></trkpt><trkpt lat="45.4840667" lon="11.0644983"><ele>102.75</ele><time>2026-04-23T13:42:08.307Z</time></trkpt><trkpt lat="45.4840017" lon="11.064335"><ele>102.5</ele><time>2026-04-23T13:42:09.306Z</time></trkpt><trkpt lat="45.4839333" lon="11.0641733"><ele>102.25</ele><time>2026-04-23T13:42:10.306Z</time></trkpt><trkpt lat="45.4838633" lon="11.0640417"><ele>102.0</ele><time>2026-04-23T13:42:11.306Z</time></trkpt><trkpt lat="45.4838033" lon="11.0639383"><ele>101.0</ele><time>2026-04-23T13:42:12.306Z</time></trkpt><trkpt lat="45.48373" lon="11.0638667"><ele>100.0</ele><time>2026-04-23T13:42:13.307Z</time></trkpt><trkpt lat="45.4836317" lon="11.06382"><ele>99.0</ele><time>2026-04-23T13:42:14.306Z</time></trkpt><trkpt lat="45.483505" lon="11.0637933"><ele>98.0</ele><time>2026-04-23T13:42:15.307Z</time></trkpt><trkpt lat="45.48337" lon="11.063765"><ele>98.0</ele><time>2026-04-23T13:42:16.307Z</time></trkpt><trkpt lat="45.483215" lon="11.0637367"><ele>98.0</ele><time>2026-04-23T13:42:17.306Z</time></trkpt><trkpt lat="45.4830883" lon="11.0637267"><ele>98.0</ele><time>2026-04-23T13:42:18.306Z</time></trkpt><trkpt lat="45.4829683" lon="11.063705"><ele>98.0</ele><time>2026-04-23T13:42:19.306Z</time></trkpt><trkpt lat="45.48285" lon="11.0636767"><ele>97.33333333333333</ele><time>2026-04-23T13:42:20.307Z</time></trkpt><trkpt lat="45.482755" lon="11.0636567"><ele>96.66666666666666</ele><time>2026-04-23T13:42:21.306Z</time></trkpt><trkpt lat="45.4826633" lon="11.0636417"><ele>96.0</ele><time>2026-04-23T13:42:22.306Z</time></trkpt><trkpt lat="45.4825817" lon="11.0636367"><ele>95.33333333333333</ele><time>2026-04-23T13:42:23.306Z</time></trkpt><trkpt lat="45.482505" lon="11.0636317"><ele>94.66666666666666</ele><time>2026-04-23T13:42:24.306Z</time></trkpt><trkpt lat="45.4824183" lon="11.063625"><ele>94.0</ele><time>2026-04-23T13:42:25.307Z</time></trkpt><trkpt lat="45.4823117" lon="11.0636083"><ele>94.0</ele><time>2026-04-23T13:42:27.306Z</time></trkpt><trkpt lat="45.4822633" lon="11.0635467"><ele>94.0</ele><time>2026-04-23T13:42:31.306Z</time></trkpt><trkpt lat="45.48228" lon="11.0633917"><ele>94.0</ele><time>2026-04-23T13:42:33.307Z</time></trkpt><trkpt lat="45.48226" lon="11.06317"><ele>94.0</ele><time>2026-04-23T13:42:34.306Z</time></trkpt><trkpt lat="45.4822567" lon="11.062965"><ele>94.0</ele><time>2026-04-23T13:42:35.306Z</time></trkpt><trkpt lat="45.482275" lon="11.0627467"><ele>94.0</ele><time>2026-04-23T13:42:36.306Z</time></trkpt><trkpt lat="45.4822967" lon="11.0625367"><ele>94.0</ele><time>2026-04-23T13:42:37.306Z</time></trkpt><trkpt lat="45.4822983" lon="11.062325"><ele>93.66666666666666</ele><time>2026-04-23T13:42:38.306Z</time></trkpt><trkpt lat="45.4822833" lon="11.06211"><ele>93.33333333333333</ele><time>2026-04-23T13:42:39.306Z</time></trkpt><trkpt lat="45.482255" lon="11.0619067"><ele>93.0</ele><time>2026-04-23T13:42:40.307Z</time></trkpt><trkpt lat="45.4822133" lon="11.0616917"><ele>92.75</ele><time>2026-04-23T13:42:41.306Z</time></trkpt><trkpt lat="45.4821733" lon="11.06147"><ele>92.5</ele><time>2026-04-23T13:42:42.306Z</time></trkpt><trkpt lat="45.4821467" lon="11.061255"><ele>92.25</ele><time>2026-04-23T13:42:43.306Z</time></trkpt><trkpt lat="45.482115" lon="11.0610667"><ele>92.0</ele><time>2026-04-23T13:42:44.306Z</time></trkpt><trkpt lat="45.4820933" lon="11.0609233"><ele>92.0</ele><time>2026-04-23T13:42:45.306Z</time></trkpt><trkpt lat="45.4820633" lon="11.0608317"><ele>92.0</ele><time>2026-04-23T13:42:46.306Z</time></trkpt><trkpt lat="45.4820017" lon="11.0607217"><ele>92.0</ele><time>2026-04-23T13:42:48.306Z</time></trkpt><trkpt lat="45.4818783" lon="11.0607017"><ele>92.0</ele><time>2026-04-23T13:42:50.306Z</time></trkpt><trkpt lat="45.4817783" lon="11.060695"><ele>92.0</ele><time>2026-04-23T13:42:51.306Z</time></trkpt><trkpt lat="45.4816733" lon="11.0606817"><ele>92.0</ele><time>2026-04-23T13:42:52.307Z</time></trkpt><trkpt lat="45.4815567" lon="11.0606583"><ele>92.0</ele><time>2026-04-23T13:42:53.306Z</time></trkpt><trkpt lat="45.48139" lon="11.0606133"><ele>92.0</ele><time>2026-04-23T13:42:54.306Z</time></trkpt><trkpt lat="45.481225" lon="11.06057"><ele>92.0</ele><time>2026-04-23T13:42:55.306Z</time></trkpt><trkpt lat="45.4810633" lon="11.060535"><ele>92.0</ele><time>2026-04-23T13:42:56.307Z</time></trkpt><trkpt lat="45.480915" lon="11.06051"><ele>92.0</ele><time>2026-04-23T13:42:57.306Z</time></trkpt><trkpt lat="45.480775" lon="11.060475"><ele>92.0</ele><time>2026-04-23T13:42:58.306Z</time></trkpt><trkpt lat="45.4806333" lon="11.060425"><ele>92.0</ele><time>2026-04-23T13:42:59.306Z</time></trkpt><trkpt lat="45.4804933" lon="11.06037"><ele>92.0</ele><time>2026-04-23T13:43:00.306Z</time></trkpt><trkpt lat="45.48036" lon="11.06032"><ele>92.0</ele><time>2026-04-23T13:43:01.306Z</time></trkpt><trkpt lat="45.4802267" lon="11.0602683"><ele>91.75</ele><time>2026-04-23T13:43:02.307Z</time></trkpt><trkpt lat="45.48009" lon="11.0602133"><ele>91.5</ele><time>2026-04-23T13:43:03.306Z</time></trkpt><trkpt lat="45.47996" lon="11.0601533"><ele>91.25</ele><time>2026-04-23T13:43:04.307Z</time></trkpt><trkpt lat="45.479845" lon="11.06009"><ele>91.0</ele><time>2026-04-23T13:43:05.306Z</time></trkpt><trkpt lat="45.479745" lon="11.0600017"><ele>93.4</ele><time>2026-04-23T13:43:06.306Z</time></trkpt><trkpt lat="45.4796583" lon="11.0599083"><ele>95.8</ele><time>2026-04-23T13:43:07.306Z</time></trkpt><trkpt lat="45.479575" lon="11.0598167"><ele>98.2</ele><time>2026-04-23T13:43:08.306Z</time></trkpt><trkpt lat="45.4794933" lon="11.05973"><ele>100.60000000000001</ele><time>2026-04-23T13:43:09.306Z</time></trkpt><trkpt lat="45.4794033" lon="11.0596683"><ele>103.0</ele><time>2026-04-23T13:43:10.306Z</time></trkpt><trkpt lat="45.4793133" lon="11.059605"><ele>103.00000000000001</ele><time>2026-04-23T13:43:11.306Z</time></trkpt><trkpt lat="45.4792283" lon="11.0595483"><ele>103.0</ele><time>2026-04-23T13:43:12.306Z</time></trkpt><trkpt lat="45.4791533" lon="11.0595433"><ele>103.0</ele><time>2026-04-23T13:43:13.306Z</time></trkpt><trkpt lat="45.4790883" lon="11.0595317"><ele>103.0</ele><time>2026-04-23T13:43:14.306Z</time></trkpt><trkpt lat="45.479015" lon="11.0594967"><ele>103.00000000000001</ele><time>2026-04-23T13:43:15.306Z</time></trkpt><trkpt lat="45.4789283" lon="11.0594233"><ele>103.0</ele><time>2026-04-23T13:43:16.306Z</time></trkpt><trkpt lat="45.4788283" lon="11.0593333"><ele>103.75</ele><time>2026-04-23T13:43:17.306Z</time></trkpt><trkpt lat="45.4787317" lon="11.05927"><ele>104.5</ele><time>2026-04-23T13:43:18.306Z</time></trkpt><trkpt lat="45.4786117" lon="11.0591383"><ele>105.25</ele><time>2026-04-23T13:43:19.307Z</time></trkpt><trkpt lat="45.47852" lon="11.0590233"><ele>106.0</ele><time>2026-04-23T13:43:20.306Z</time></trkpt><trkpt lat="45.4784533" lon="11.0589483"><ele>106.00000000000001</ele><time>2026-04-23T13:43:21.306Z</time></trkpt><trkpt lat="45.478385" lon="11.0588917"><ele>106.0</ele><time>2026-04-23T13:43:22.306Z</time></trkpt><trkpt lat="45.47833" lon="11.05881"><ele>106.0</ele><time>2026-04-23T13:43:24.306Z</time></trkpt><trkpt lat="45.4782883" lon="11.0586883"><ele>106.0</ele><time>2026-04-23T13:43:26.306Z</time></trkpt><trkpt lat="45.4782717" lon="11.0585983"><ele>106.00000000000001</ele><time>2026-04-23T13:43:27.306Z</time></trkpt><trkpt lat="45.4782583" lon="11.058505"><ele>106.0</ele><time>2026-04-23T13:43:28.306Z</time></trkpt><trkpt lat="45.4782383" lon="11.058395"><ele>107.4</ele><time>2026-04-23T13:43:29.307Z</time></trkpt><trkpt lat="45.4782083" lon="11.0582717"><ele>108.8</ele><time>2026-04-23T13:43:30.306Z</time></trkpt><trkpt lat="45.478165" lon="11.05816"><ele>110.20000000000002</ele><time>2026-04-23T13:43:31.306Z</time></trkpt><trkpt lat="45.4781217" lon="11.0580417"><ele>111.60000000000001</ele><time>2026-04-23T13:43:32.306Z</time></trkpt><trkpt lat="45.4780617" lon="11.0579183"><ele>113.0</ele><time>2026-04-23T13:43:33.306Z</time></trkpt><trkpt lat="45.4780033" lon="11.05776"><ele>113.0</ele><time>2026-04-23T13:43:34.306Z</time></trkpt><trkpt lat="45.47794" lon="11.0575883"><ele>113.00000000000001</ele><time>2026-04-23T13:43:35.307Z</time></trkpt><trkpt lat="45.47787" lon="11.057425"><ele>113.00000000000001</ele><time>2026-04-23T13:43:36.306Z</time></trkpt><trkpt lat="45.4778333" lon="11.057315"><ele>113.0</ele><time>2026-04-23T13:43:37.306Z</time></trkpt><trkpt lat="45.477805" lon="11.0572183"><ele>113.0</ele><time>2026-04-23T13:43:38.306Z</time></trkpt><trkpt lat="45.4778117" lon="11.05706"><ele>112.49999999999999</ele><time>2026-04-23T13:43:40.306Z</time></trkpt><trkpt lat="45.477815" lon="11.05697"><ele>112.0</ele><time>2026-04-23T13:43:41.306Z</time></trkpt><trkpt lat="45.4778067" lon="11.0568783"><ele>111.5</ele><time>2026-04-23T13:43:42.307Z</time></trkpt><trkpt lat="45.4777867" lon="11.0567717"><ele>111.0</ele><time>2026-04-23T13:43:43.306Z</time></trkpt><trkpt lat="45.47774" lon="11.05664"><ele>110.49999999999999</ele><time>2026-04-23T13:43:44.306Z</time></trkpt><trkpt lat="45.477665" lon="11.0565083"><ele>110.0</ele><time>2026-04-23T13:43:45.306Z</time></trkpt><trkpt lat="45.477615" lon="11.0563883"><ele>112.4</ele><time>2026-04-23T13:43:46.306Z</time></trkpt><trkpt lat="45.477575" lon="11.0562667"><ele>114.8</ele><time>2026-04-23T13:43:47.306Z</time></trkpt><trkpt lat="45.4775517" lon="11.056155"><ele>117.19999999999999</ele><time>2026-04-23T13:43:48.306Z</time></trkpt><trkpt lat="45.4775383" lon="11.0560567"><ele>119.6</ele><time>2026-04-23T13:43:49.306Z</time></trkpt><trkpt lat="45.4776117" lon="11.0559"><ele>122.0</ele><time>2026-04-23T13:43:51.306Z</time></trkpt><trkpt lat="45.4777133" lon="11.0558133"><ele>126.0</ele><time>2026-04-23T13:43:52.306Z</time></trkpt><trkpt lat="45.4778583" lon="11.0557183"><ele>130.0</ele><time>2026-04-23T13:43:53.306Z</time></trkpt><trkpt lat="45.4780317" lon="11.055635"><ele>134.0</ele><time>2026-04-23T13:43:54.307Z</time></trkpt><trkpt lat="45.4782317" lon="11.055565"><ele>136.66666666666666</ele><time>2026-04-23T13:43:55.306Z</time></trkpt><trkpt lat="45.4784017" lon="11.055505"><ele>139.33333333333334</ele><time>2026-04-23T13:43:56.306Z</time></trkpt><trkpt lat="45.47855" lon="11.055425"><ele>142.0</ele><time>2026-04-23T13:43:57.306Z</time></trkpt><trkpt lat="45.478725" lon="11.05535"><ele>143.2</ele><time>2026-04-23T13:43:58.306Z</time></trkpt><trkpt lat="45.4789117" lon="11.0553033"><ele>144.39999999999998</ele><time>2026-04-23T13:43:59.307Z</time></trkpt><trkpt lat="45.479005" lon="11.0552483"><ele>145.60000000000002</ele><time>2026-04-23T13:44:00.306Z</time></trkpt><trkpt lat="45.47909" lon="11.055235"><ele>146.8</ele><time>2026-04-23T13:44:01.306Z</time></trkpt><trkpt lat="45.4791433" lon="11.055295"><ele>148.0</ele><time>2026-04-23T13:44:02.306Z</time></trkpt><trkpt lat="45.4791933" lon="11.05539"><ele>148.0</ele><time>2026-04-23T13:44:03.306Z</time></trkpt><trkpt lat="45.47925" lon="11.055555"><ele>148.0</ele><time>2026-04-23T13:44:04.306Z</time></trkpt><trkpt lat="45.4792933" lon="11.0556983"><ele>148.0</ele><time>2026-04-23T13:44:05.306Z</time></trkpt><trkpt lat="45.4793183" lon="11.055825"><ele>148.0</ele><time>2026-04-23T13:44:06.306Z</time></trkpt><trkpt lat="45.47934" lon="11.0559367"><ele>148.0</ele><time>2026-04-23T13:44:07.306Z</time></trkpt><trkpt lat="45.4793617" lon="11.0560483"><ele>146.66666666666669</ele><time>2026-04-23T13:44:08.307Z</time></trkpt><trkpt lat="45.47939" lon="11.0561467"><ele>145.33333333333334</ele><time>2026-04-23T13:44:09.306Z</time></trkpt><trkpt lat="45.479425" lon="11.0562483"><ele>144.0</ele><time>2026-04-23T13:44:10.306Z</time></trkpt><trkpt lat="45.479465" lon="11.0563467"><ele>142.66666666666666</ele><time>2026-04-23T13:44:11.306Z</time></trkpt><trkpt lat="45.4795067" lon="11.0564433"><ele>141.33333333333331</ele><time>2026-04-23T13:44:12.306Z</time></trkpt><trkpt lat="45.4795433" lon="11.056555"><ele>140.0</ele><time>2026-04-23T13:44:13.306Z</time></trkpt><trkpt lat="45.4795783" lon="11.0566583"><ele>143.0</ele><time>2026-04-23T13:44:14.306Z</time></trkpt><trkpt lat="45.4796467" lon="11.0567767"><ele>146.0</ele><time>2026-04-23T13:44:16.306Z</time></trkpt><trkpt lat="45.4796983" lon="11.0566933"><ele>149.0</ele><time>2026-04-23T13:44:19.306Z</time></trkpt><trkpt lat="45.4796933" lon="11.0564833"><ele>152.0</ele><time>2026-04-23T13:44:21.306Z</time></trkpt><trkpt lat="45.4797017" lon="11.0563483"><ele>155.0</ele><time>2026-04-23T13:44:22.305Z</time></trkpt><trkpt lat="45.4797183" lon="11.0561683"><ele>155.6</ele><time>2026-04-23T13:44:23.305Z</time></trkpt><trkpt lat="45.4797467" lon="11.056015"><ele>156.2</ele><time>2026-04-23T13:44:24.305Z</time></trkpt><trkpt lat="45.4797883" lon="11.055875"><ele>156.8</ele><time>2026-04-23T13:44:25.306Z</time></trkpt><trkpt lat="45.4798533" lon="11.05573"><ele>157.4</ele><time>2026-04-23T13:44:26.306Z</time></trkpt><trkpt lat="45.4799317" lon="11.0556183"><ele>158.0</ele><time>2026-04-23T13:44:27.305Z</time></trkpt><trkpt lat="45.4800133" lon="11.055535"><ele>158.0</ele><time>2026-04-23T13:44:28.305Z</time></trkpt><trkpt lat="45.480075" lon="11.05549"><ele>158.0</ele><time>2026-04-23T13:44:29.305Z</time></trkpt><trkpt lat="45.4801433" lon="11.0554667"><ele>158.0</ele><time>2026-04-23T13:44:30.305Z</time></trkpt><trkpt lat="45.4802233" lon="11.05547"><ele>158.0</ele><time>2026-04-23T13:44:31.305Z</time></trkpt><trkpt lat="45.480325" lon="11.05549"><ele>158.0</ele><time>2026-04-23T13:44:32.306Z</time></trkpt><trkpt lat="45.4804467" lon="11.055515"><ele>158.0</ele><time>2026-04-23T13:44:33.306Z</time></trkpt><trkpt lat="45.48059" lon="11.0555617"><ele>160.0</ele><time>2026-04-23T13:44:34.305Z</time></trkpt><trkpt lat="45.480705" lon="11.0555967"><ele>162.0</ele><time>2026-04-23T13:44:35.305Z</time></trkpt><trkpt lat="45.48079" lon="11.055605"><ele>164.0</ele><time>2026-04-23T13:44:36.305Z</time></trkpt><trkpt lat="45.4808617" lon="11.05558"><ele>166.0</ele><time>2026-04-23T13:44:37.305Z</time></trkpt><trkpt lat="45.4808733" lon="11.0554833"><ele>168.0</ele><time>2026-04-23T13:44:38.305Z</time></trkpt><trkpt lat="45.4808867" lon="11.0553667"><ele>170.0</ele><time>2026-04-23T13:44:39.305Z</time></trkpt><trkpt lat="45.4808733" lon="11.0551733"><ele>172.66666666666666</ele><time>2026-04-23T13:44:40.305Z</time></trkpt><trkpt lat="45.4808667" lon="11.0549383"><ele>175.33333333333334</ele><time>2026-04-23T13:44:41.305Z</time></trkpt><trkpt lat="45.4808767" lon="11.0546883"><ele>178.0</ele><time>2026-04-23T13:44:42.305Z</time></trkpt><trkpt lat="45.4808783" lon="11.0544633"><ele>178.0</ele><time>2026-04-23T13:44:43.305Z</time></trkpt><trkpt lat="45.480885" lon="11.054295"><ele>178.0</ele><time>2026-04-23T13:44:44.306Z</time></trkpt><trkpt lat="45.4809" lon="11.0541917"><ele>178.0</ele><time>2026-04-23T13:44:45.306Z</time></trkpt><trkpt lat="45.4809017" lon="11.054045"><ele>178.0</ele><time>2026-04-23T13:44:47.305Z</time></trkpt><trkpt lat="45.480895" lon="11.0539517"><ele>178.0</ele><time>2026-04-23T13:44:50.306Z</time></trkpt><trkpt lat="45.4808617" lon="11.0538433"><ele>178.0</ele><time>2026-04-23T13:44:52.305Z</time></trkpt><trkpt lat="45.480785" lon="11.0537433"><ele>180.7142857142857</ele><time>2026-04-23T13:44:54.305Z</time></trkpt><trkpt lat="45.4807267" lon="11.0536917"><ele>183.42857142857142</ele><time>2026-04-23T13:44:55.306Z</time></trkpt><trkpt lat="45.480655" lon="11.0536367"><ele>186.14285714285714</ele><time>2026-04-23T13:44:56.305Z</time></trkpt><trkpt lat="45.48059" lon="11.0536"><ele>188.85714285714283</ele><time>2026-04-23T13:44:57.305Z</time></trkpt><trkpt lat="45.48052" lon="11.0535733"><ele>191.57142857142858</ele><time>2026-04-23T13:44:58.306Z</time></trkpt><trkpt lat="45.480455" lon="11.053555"><ele>194.28571428571428</ele><time>2026-04-23T13:44:59.305Z</time></trkpt><trkpt lat="45.4803833" lon="11.0534917"><ele>197.0</ele><time>2026-04-23T13:45:02.306Z</time></trkpt><trkpt lat="45.480405" lon="11.053385"><ele>200.83333333333334</ele><time>2026-04-23T13:45:05.305Z</time></trkpt><trkpt lat="45.480485" lon="11.0532833"><ele>204.66666666666669</ele><time>2026-04-23T13:45:07.305Z</time></trkpt><trkpt lat="45.4805617" lon="11.05321"><ele>208.5</ele><time>2026-04-23T13:45:08.305Z</time></trkpt><trkpt lat="45.4806083" lon="11.053135"><ele>212.33333333333331</ele><time>2026-04-23T13:45:09.305Z</time></trkpt><trkpt lat="45.4806667" lon="11.0530333"><ele>216.16666666666666</ele><time>2026-04-23T13:45:11.305Z</time></trkpt><trkpt lat="45.4805883" lon="11.0530417"><ele>220.0</ele><time>2026-04-23T13:45:18.306Z</time></trkpt><trkpt lat="45.480495" lon="11.0530833"><ele>220.66666666666666</ele><time>2026-04-23T13:45:20.305Z</time></trkpt><trkpt lat="45.4803767" lon="11.053105"><ele>221.33333333333331</ele><time>2026-04-23T13:45:22.305Z</time></trkpt><trkpt lat="45.48031" lon="11.0531233"><ele>222.0</ele><time>2026-04-23T13:45:23.305Z</time></trkpt><trkpt lat="45.4802367" lon="11.05319"><ele>222.66666666666669</ele><time>2026-04-23T13:45:24.306Z</time></trkpt><trkpt lat="45.480145" lon="11.05316"><ele>223.33333333333334</ele><time>2026-04-23T13:45:26.305Z</time></trkpt><trkpt lat="45.4800667" lon="11.0531533"><ele>224.0</ele><time>2026-04-23T13:45:28.305Z</time></trkpt><trkpt lat="45.4799833" lon="11.0531417"><ele>224.00000000000003</ele><time>2026-04-23T13:45:30.305Z</time></trkpt><trkpt lat="45.4799183" lon="11.0531033"><ele>224.0</ele><time>2026-04-23T13:45:33.305Z</time></trkpt><trkpt lat="45.4799467" lon="11.0530217"><ele>224.0</ele><time>2026-04-23T13:45:37.306Z</time></trkpt><trkpt lat="45.479995" lon="11.052955"><ele>224.0</ele><time>2026-04-23T13:45:40.305Z</time></trkpt><trkpt lat="45.4800367" lon="11.0528417"><ele>224.00000000000003</ele><time>2026-04-23T13:45:44.305Z</time></trkpt><trkpt lat="45.4800883" lon="11.0527517"><ele>224.0</ele><time>2026-04-23T13:45:47.305Z</time></trkpt><trkpt lat="45.48015" lon="11.0526633"><ele>224.00000000000003</ele><time>2026-04-23T13:45:50.305Z</time></trkpt><trkpt lat="45.4801983" lon="11.05257"><ele>224.0</ele><time>2026-04-23T13:45:53.305Z</time></trkpt><trkpt lat="45.4802633" lon="11.052525"><ele>224.0</ele><time>2026-04-23T13:45:57.305Z</time></trkpt><trkpt lat="45.4803667" lon="11.05252"><ele>224.0</ele><time>2026-04-23T13:45:59.305Z</time></trkpt><trkpt lat="45.4804567" lon="11.0525083"><ele>224.00000000000003</ele><time>2026-04-23T13:46:00.305Z</time></trkpt><trkpt lat="45.4805283" lon="11.052495"><ele>224.0</ele><time>2026-04-23T13:46:01.305Z</time></trkpt><trkpt lat="45.4806317" lon="11.05251"><ele>223.33333333333334</ele><time>2026-04-23T13:46:03.305Z</time></trkpt><trkpt lat="45.4807167" lon="11.0525133"><ele>222.66666666666669</ele><time>2026-04-23T13:46:05.305Z</time></trkpt><trkpt lat="45.4807917" lon="11.052485"><ele>222.0</ele><time>2026-04-23T13:46:13.305Z</time></trkpt><trkpt lat="45.4808617" lon="11.05245"><ele>221.33333333333331</ele><time>2026-04-23T13:46:16.305Z</time></trkpt><trkpt lat="45.480935" lon="11.0524483"><ele>220.66666666666666</ele><time>2026-04-23T13:46:19.305Z</time></trkpt><trkpt lat="45.4809917" lon="11.05236"><ele>220.0</ele><time>2026-04-23T13:46:25.306Z</time></trkpt><trkpt lat="45.4810483" lon="11.052275"><ele>224.33333333333331</ele><time>2026-04-23T13:46:27.305Z</time></trkpt><trkpt lat="45.4811083" lon="11.0522033"><ele>228.66666666666666</ele><time>2026-04-23T13:46:29.305Z</time></trkpt><trkpt lat="45.4812083" lon="11.0521567"><ele>233.0</ele><time>2026-04-23T13:46:32.305Z</time></trkpt><trkpt lat="45.48126" lon="11.0520983"><ele>237.33333333333331</ele><time>2026-04-23T13:46:34.306Z</time></trkpt><trkpt lat="45.4813067" lon="11.0520333"><ele>241.66666666666666</ele><time>2026-04-23T13:46:36.305Z</time></trkpt><trkpt lat="45.4813567" lon="11.05195"><ele>246.0</ele><time>2026-04-23T13:46:39.305Z</time></trkpt><trkpt lat="45.4814133" lon="11.051885"><ele>247.00000000000003</ele><time>2026-04-23T13:46:43.306Z</time></trkpt><trkpt lat="45.4814517" lon="11.0518083"><ele>248.0</ele><time>2026-04-23T13:46:49.305Z</time></trkpt><trkpt lat="45.481425" lon="11.0517083"><ele>249.00000000000003</ele><time>2026-04-23T13:46:57.306Z</time></trkpt><trkpt lat="45.4814567" lon="11.0516217"><ele>250.00000000000003</ele><time>2026-04-23T13:47:00.305Z</time></trkpt><trkpt lat="45.4814933" lon="11.05153"><ele>251.0</ele><time>2026-04-23T13:47:04.305Z</time></trkpt><trkpt lat="45.481535" lon="11.051445"><ele>252.00000000000003</ele><time>2026-04-23T13:47:08.304Z</time></trkpt><trkpt lat="45.4815917" lon="11.0514017"><ele>253.00000000000003</ele><time>2026-04-23T13:47:11.304Z</time></trkpt><trkpt lat="45.4816633" lon="11.0513183"><ele>256.8333333333333</ele><time>2026-04-23T13:47:15.304Z</time></trkpt><trkpt lat="45.4817217" lon="11.05121"><ele>260.66666666666663</ele><time>2026-04-23T13:47:17.305Z</time></trkpt><trkpt lat="45.48176" lon="11.0511117"><ele>264.5</ele><time>2026-04-23T13:47:19.304Z</time></trkpt><trkpt lat="45.4817717" lon="11.0510133"><ele>268.3333333333333</ele><time>2026-04-23T13:47:23.304Z</time></trkpt><trkpt lat="45.481805" lon="11.0508783"><ele>272.1666666666667</ele><time>2026-04-23T13:47:30.304Z</time></trkpt><trkpt lat="45.4818533" lon="11.0507933"><ele>276.0</ele><time>2026-04-23T13:47:33.304Z</time></trkpt><trkpt lat="45.4818683" lon="11.05066"><ele>277.8</ele><time>2026-04-23T13:47:36.305Z</time></trkpt><trkpt lat="45.4818783" lon="11.050465"><ele>279.6</ele><time>2026-04-23T13:47:38.304Z</time></trkpt><trkpt lat="45.481885" lon="11.0503617"><ele>281.4</ele><time>2026-04-23T13:47:39.305Z</time></trkpt><trkpt lat="45.48187" lon="11.0502067"><ele>283.2</ele><time>2026-04-23T13:47:41.304Z</time></trkpt><trkpt lat="45.481895" lon="11.0500983"><ele>285.0</ele><time>2026-04-23T13:47:43.304Z</time></trkpt><trkpt lat="45.48193" lon="11.050015"><ele>285.0</ele><time>2026-04-23T13:47:47.305Z</time></trkpt><trkpt lat="45.4819917" lon="11.0499833"><ele>285.0</ele><time>2026-04-23T13:47:51.304Z</time></trkpt><trkpt lat="45.4820583" lon="11.049995"><ele>285.0</ele><time>2026-04-23T13:47:53.304Z</time></trkpt><trkpt lat="45.482125" lon="11.05003"><ele>285.0</ele><time>2026-04-23T13:47:55.304Z</time></trkpt><trkpt lat="45.4822033" lon="11.0500583"><ele>285.0</ele><time>2026-04-23T13:47:57.304Z</time></trkpt><trkpt lat="45.4822883" lon="11.050075"><ele>285.0</ele><time>2026-04-23T13:47:59.305Z</time></trkpt><trkpt lat="45.4823583" lon="11.0501"><ele>285.0</ele><time>2026-04-23T13:48:01.304Z</time></trkpt><trkpt lat="45.4824367" lon="11.050125"><ele>287.6666666666667</ele><time>2026-04-23T13:48:03.304Z</time></trkpt><trkpt lat="45.48253" lon="11.05013"><ele>290.3333333333333</ele><time>2026-04-23T13:48:06.304Z</time></trkpt><trkpt lat="45.48257" lon="11.0500333"><ele>293.0</ele><time>2026-04-23T13:48:09.304Z</time></trkpt><trkpt lat="45.482594" lon="11.049919"><ele>295.66666666666663</ele><time>2026-04-23T13:48:12.269Z</time></trkpt><trkpt lat="45.4826664" lon="11.0498653"><ele>298.3333333333333</ele><time>2026-04-23T13:48:15.329Z</time></trkpt><trkpt lat="45.4826809" lon="11.0497687"><ele>301.0</ele><time>2026-04-23T13:48:18.348Z</time></trkpt><trkpt lat="45.4827617" lon="11.04973"><ele>301.0</ele><time>2026-04-23T13:48:23.304Z</time></trkpt><trkpt lat="45.4828" lon="11.049645"><ele>301.0</ele><time>2026-04-23T13:48:26.304Z</time></trkpt><trkpt lat="45.4828367" lon="11.0495567"><ele>301.0</ele><time>2026-04-23T13:48:29.305Z</time></trkpt><trkpt lat="45.4828933" lon="11.04951"><ele>301.0</ele><time>2026-04-23T13:48:34.304Z</time></trkpt><trkpt lat="45.4829533" lon="11.0494817"><ele>301.0</ele><time>2026-04-23T13:48:38.304Z</time></trkpt><trkpt lat="45.4830367" lon="11.0494567"><ele>301.0</ele><time>2026-04-23T13:48:41.305Z</time></trkpt><trkpt lat="45.4831217" lon="11.0494333"><ele>301.0</ele><time>2026-04-23T13:48:44.304Z</time></trkpt><trkpt lat="45.4831917" lon="11.0493767"><ele>302.0</ele><time>2026-04-23T13:48:46.304Z</time></trkpt><trkpt lat="45.4832483" lon="11.0493283"><ele>303.0</ele><time>2026-04-23T13:48:48.305Z</time></trkpt><trkpt lat="45.4833217" lon="11.0492233"><ele>304.0</ele><time>2026-04-23T13:48:50.304Z</time></trkpt><trkpt lat="45.4833867" lon="11.0491517"><ele>305.0</ele><time>2026-04-23T13:48:52.304Z</time></trkpt><trkpt lat="45.4834433" lon="11.0491017"><ele>306.0</ele><time>2026-04-23T13:48:54.304Z</time></trkpt><trkpt lat="45.4834133" lon="11.0492133"><ele>307.0</ele><time>2026-04-23T13:49:01.304Z</time></trkpt><trkpt lat="45.483405" lon="11.0493267"><ele>308.5</ele><time>2026-04-23T13:49:04.304Z</time></trkpt><trkpt lat="45.4834283" lon="11.049425"><ele>310.0</ele><time>2026-04-23T13:49:07.304Z</time></trkpt><trkpt lat="45.4834467" lon="11.0495333"><ele>311.5</ele><time>2026-04-23T13:49:10.304Z</time></trkpt><trkpt lat="45.4833817" lon="11.0495833"><ele>313.0</ele><time>2026-04-23T13:49:13.305Z</time></trkpt><trkpt lat="45.483335" lon="11.049665"><ele>314.5</ele><time>2026-04-23T13:49:16.305Z</time></trkpt><trkpt lat="45.4833383" lon="11.0497867"><ele>316.0</ele><time>2026-04-23T13:49:20.305Z</time></trkpt><trkpt lat="45.483345" lon="11.0499267"><ele>315.16666666666663</ele><time>2026-04-23T13:49:22.305Z</time></trkpt><trkpt lat="45.48336" lon="11.050035"><ele>314.3333333333333</ele><time>2026-04-23T13:49:25.305Z</time></trkpt><trkpt lat="45.4833433" lon="11.0501233"><ele>313.5</ele><time>2026-04-23T13:49:27.305Z</time></trkpt><trkpt lat="45.4833433" lon="11.05023"><ele>312.6666666666667</ele><time>2026-04-23T13:49:30.304Z</time></trkpt><trkpt lat="45.4834217" lon="11.0502667"><ele>311.83333333333337</ele><time>2026-04-23T13:49:36.304Z</time></trkpt><trkpt lat="45.4835117" lon="11.050325"><ele>311.0</ele><time>2026-04-23T13:49:39.304Z</time></trkpt><trkpt lat="45.4835917" lon="11.0503617"><ele>311.0</ele><time>2026-04-23T13:49:41.304Z</time></trkpt><trkpt lat="45.4836983" lon="11.050405"><ele>311.0</ele><time>2026-04-23T13:49:43.304Z</time></trkpt><trkpt lat="45.4837883" lon="11.05045"><ele>311.0</ele><time>2026-04-23T13:49:45.304Z</time></trkpt><trkpt lat="45.4838667" lon="11.0505283"><ele>311.0</ele><time>2026-04-23T13:49:47.304Z</time></trkpt><trkpt lat="45.4839383" lon="11.0507433"><ele>309.6</ele><time>2026-04-23T13:50:03.303Z</time></trkpt><trkpt lat="45.48397" lon="11.0508567"><ele>308.20000000000005</ele><time>2026-04-23T13:50:05.303Z</time></trkpt><trkpt lat="45.4840267" lon="11.0509567"><ele>306.79999999999995</ele><time>2026-04-23T13:50:07.303Z</time></trkpt><trkpt lat="45.4841" lon="11.051085"><ele>305.4</ele><time>2026-04-23T13:50:09.303Z</time></trkpt><trkpt lat="45.4841833" lon="11.0511317"><ele>304.0</ele><time>2026-04-23T13:50:11.303Z</time></trkpt><trkpt lat="45.4842617" lon="11.051135"><ele>304.0</ele><time>2026-04-23T13:50:13.303Z</time></trkpt><trkpt lat="45.4843267" lon="11.0511367"><ele>304.0</ele><time>2026-04-23T13:50:15.303Z</time></trkpt><trkpt lat="45.48442" lon="11.0511367"><ele>304.0</ele><time>2026-04-23T13:50:17.303Z</time></trkpt><trkpt lat="45.4845" lon="11.0511833"><ele>304.0</ele><time>2026-04-23T13:50:19.303Z</time></trkpt><trkpt lat="45.4845867" lon="11.0512017"><ele>304.0</ele><time>2026-04-23T13:50:22.303Z</time></trkpt><trkpt lat="45.4846583" lon="11.051245"><ele>304.0</ele><time>2026-04-23T13:50:24.303Z</time></trkpt><trkpt lat="45.4847283" lon="11.05129"><ele>305.0</ele><time>2026-04-23T13:50:26.303Z</time></trkpt><trkpt lat="45.4848067" lon="11.0513317"><ele>306.0</ele><time>2026-04-23T13:50:28.303Z</time></trkpt><trkpt lat="45.4848767" lon="11.0513517"><ele>307.0</ele><time>2026-04-23T13:50:30.303Z</time></trkpt><trkpt lat="45.48495" lon="11.0513883"><ele>308.0</ele><time>2026-04-23T13:50:32.303Z</time></trkpt><trkpt lat="45.4850467" lon="11.05144"><ele>309.0</ele><time>2026-04-23T13:50:34.303Z</time></trkpt><trkpt lat="45.4851267" lon="11.0514933"><ele>310.0</ele><time>2026-04-23T13:50:36.304Z</time></trkpt><trkpt lat="45.4851917" lon="11.0515317"><ele>310.0</ele><time>2026-04-23T13:50:38.303Z</time></trkpt><trkpt lat="45.485255" lon="11.0515583"><ele>310.0</ele><time>2026-04-23T13:50:41.303Z</time></trkpt><trkpt lat="45.48535" lon="11.0515867"><ele>310.0</ele><time>2026-04-23T13:50:44.303Z</time></trkpt><trkpt lat="45.485425" lon="11.0515917"><ele>310.0</ele><time>2026-04-23T13:50:46.303Z</time></trkpt><trkpt lat="45.4854983" lon="11.0515683"><ele>310.0</ele><time>2026-04-23T13:50:49.303Z</time></trkpt><trkpt lat="45.4855717" lon="11.0515567"><ele>310.0</ele><time>2026-04-23T13:50:51.303Z</time></trkpt><trkpt lat="45.4856567" lon="11.0514983"><ele>305.8</ele><time>2026-04-23T13:50:53.303Z</time></trkpt><trkpt lat="45.4857417" lon="11.0514367"><ele>301.6</ele><time>2026-04-23T13:50:55.304Z</time></trkpt><trkpt lat="45.4857767" lon="11.05135"><ele>297.4</ele><time>2026-04-23T13:50:57.304Z</time></trkpt><trkpt lat="45.4858633" lon="11.0512717"><ele>293.2</ele><time>2026-04-23T13:50:59.303Z</time></trkpt><trkpt lat="45.4859333" lon="11.0511817"><ele>289.0</ele><time>2026-04-23T13:51:01.303Z</time></trkpt><trkpt lat="45.4860217" lon="11.0511017"><ele>289.0</ele><time>2026-04-23T13:51:03.304Z</time></trkpt><trkpt lat="45.4861067" lon="11.0510467"><ele>289.0</ele><time>2026-04-23T13:51:05.303Z</time></trkpt><trkpt lat="45.486175" lon="11.05096"><ele>289.0</ele><time>2026-04-23T13:51:07.303Z</time></trkpt><trkpt lat="45.486225" lon="11.0508833"><ele>289.0</ele><time>2026-04-23T13:51:09.303Z</time></trkpt><trkpt lat="45.4863133" lon="11.05086"><ele>289.0</ele><time>2026-04-23T13:51:11.304Z</time></trkpt><trkpt lat="45.4864033" lon="11.05081"><ele>289.0</ele><time>2026-04-23T13:51:13.303Z</time></trkpt><trkpt lat="45.4864467" lon="11.0507433"><ele>287.0</ele><time>2026-04-23T13:51:15.303Z</time></trkpt><trkpt lat="45.48649" lon="11.0506433"><ele>285.0</ele><time>2026-04-23T13:51:20.303Z</time></trkpt><trkpt lat="45.4865233" lon="11.0505467"><ele>283.0</ele><time>2026-04-23T13:51:25.303Z</time></trkpt><trkpt lat="45.4866133" lon="11.0504717"><ele>281.0</ele><time>2026-04-23T13:51:27.303Z</time></trkpt><trkpt lat="45.4866817" lon="11.050425"><ele>279.0</ele><time>2026-04-23T13:51:29.303Z</time></trkpt><trkpt lat="45.4867433" lon="11.050335"><ele>277.0</ele><time>2026-04-23T13:51:32.303Z</time></trkpt><trkpt lat="45.4867967" lon="11.0502517"><ele>277.0</ele><time>2026-04-23T13:51:34.303Z</time></trkpt><trkpt lat="45.4868483" lon="11.0501783"><ele>277.0</ele><time>2026-04-23T13:51:36.303Z</time></trkpt><trkpt lat="45.48691" lon="11.0500733"><ele>277.0</ele><time>2026-04-23T13:51:39.303Z</time></trkpt><trkpt lat="45.4869467" lon="11.0499867"><ele>277.0</ele><time>2026-04-23T13:51:41.303Z</time></trkpt><trkpt lat="45.486985" lon="11.049875"><ele>277.0</ele><time>2026-04-23T13:51:44.303Z</time></trkpt><trkpt lat="45.4870183" lon="11.0497933"><ele>277.0</ele><time>2026-04-23T13:51:46.303Z</time></trkpt><trkpt lat="45.4870617" lon="11.0497233"><ele>279.8333333333333</ele><time>2026-04-23T13:51:48.303Z</time></trkpt><trkpt lat="45.4870983" lon="11.049615"><ele>282.66666666666663</ele><time>2026-04-23T13:51:51.303Z</time></trkpt><trkpt lat="45.48713" lon="11.0495267"><ele>285.5</ele><time>2026-04-23T13:51:53.303Z</time></trkpt><trkpt lat="45.4871517" lon="11.04943"><ele>288.3333333333333</ele><time>2026-04-23T13:51:55.304Z</time></trkpt><trkpt lat="45.4871933" lon="11.0493133"><ele>291.1666666666667</ele><time>2026-04-23T13:51:58.303Z</time></trkpt><trkpt lat="45.4872267" lon="11.0492167"><ele>294.0</ele><time>2026-04-23T13:52:01.303Z</time></trkpt><trkpt lat="45.4872583" lon="11.0491383"><ele>296.8333333333333</ele><time>2026-04-23T13:52:03.303Z</time></trkpt><trkpt lat="45.4873367" lon="11.0490633"><ele>299.6666666666667</ele><time>2026-04-23T13:52:05.303Z</time></trkpt><trkpt lat="45.4874167" lon="11.0489933"><ele>302.5</ele><time>2026-04-23T13:52:07.303Z</time></trkpt><trkpt lat="45.4874717" lon="11.048915"><ele>305.33333333333337</ele><time>2026-04-23T13:52:09.303Z</time></trkpt><trkpt lat="45.487515" lon="11.04883"><ele>308.1666666666667</ele><time>2026-04-23T13:52:11.303Z</time></trkpt><trkpt lat="45.4875983" lon="11.0487317"><ele>311.0</ele><time>2026-04-23T13:52:13.303Z</time></trkpt><trkpt lat="45.48766" lon="11.0486917"><ele>311.0</ele><time>2026-04-23T13:52:14.303Z</time></trkpt><trkpt lat="45.4876967" lon="11.048615"><ele>311.0</ele><time>2026-04-23T13:52:15.303Z</time></trkpt><trkpt lat="45.4877317" lon="11.048505"><ele>311.0</ele><time>2026-04-23T13:52:16.303Z</time></trkpt><trkpt lat="45.4877633" lon="11.048395"><ele>311.0</ele><time>2026-04-23T13:52:17.303Z</time></trkpt><trkpt lat="45.4877933" lon="11.0482833"><ele>311.0</ele><time>2026-04-23T13:52:18.303Z</time></trkpt><trkpt lat="45.4878117" lon="11.0481817"><ele>311.0</ele><time>2026-04-23T13:52:19.303Z</time></trkpt><trkpt lat="45.4878417" lon="11.0480583"><ele>313.2857142857143</ele><time>2026-04-23T13:52:21.304Z</time></trkpt><trkpt lat="45.4879067" lon="11.048015"><ele>315.5714285714286</ele><time>2026-04-23T13:52:24.303Z</time></trkpt><trkpt lat="45.4879217" lon="11.0481067"><ele>317.8571428571429</ele><time>2026-04-23T13:53:15.303Z</time></trkpt><trkpt lat="45.4879833" lon="11.0481717"><ele>320.1428571428571</ele><time>2026-04-23T13:53:18.302Z</time></trkpt><trkpt lat="45.4880333" lon="11.0482483"><ele>322.42857142857144</ele><time>2026-04-23T13:53:24.302Z</time></trkpt><trkpt lat="45.4881" lon="11.048265"><ele>324.7142857142857</ele><time>2026-04-23T13:53:29.302Z</time></trkpt><trkpt lat="45.4881567" lon="11.0482033"><ele>327.0</ele><time>2026-04-23T13:53:32.302Z</time></trkpt><trkpt lat="45.4882167" lon="11.048175"><ele>327.0</ele><time>2026-04-23T13:53:35.302Z</time></trkpt><trkpt lat="45.4883133" lon="11.0482117"><ele>327.0</ele><time>2026-04-23T13:53:38.302Z</time></trkpt><trkpt lat="45.48839" lon="11.048285"><ele>327.0</ele><time>2026-04-23T13:53:41.302Z</time></trkpt><trkpt lat="45.4884767" lon="11.0483083"><ele>327.0</ele><time>2026-04-23T13:53:44.303Z</time></trkpt><trkpt lat="45.488565" lon="11.0483317"><ele>327.0</ele><time>2026-04-23T13:53:47.303Z</time></trkpt><trkpt lat="45.4886383" lon="11.04832"><ele>327.0</ele><time>2026-04-23T13:53:49.302Z</time></trkpt><trkpt lat="45.4887206" lon="11.0483741"><ele>327.0</ele><time>2026-04-23T13:53:52.386Z</time></trkpt><trkpt lat="45.4887235" lon="11.0484982"><ele>327.0</ele><time>2026-04-23T13:53:54.473Z</time></trkpt><trkpt lat="45.4887278" lon="11.0486156"><ele>327.0</ele><time>2026-04-23T13:53:56.172Z</time></trkpt><trkpt lat="45.4887756" lon="11.0487137"><ele>327.0</ele><time>2026-04-23T13:53:58.369Z</time></trkpt><trkpt lat="45.4888102" lon="11.048831"><ele>327.0</ele><time>2026-04-23T13:54:00.394Z</time></trkpt><trkpt lat="45.4887985" lon="11.0489246"><ele>327.0</ele><time>2026-04-23T13:54:02.302Z</time></trkpt><trkpt lat="45.488842" lon="11.0490042"><ele>330.6666666666667</ele><time>2026-04-23T13:54:04.309Z</time></trkpt><trkpt lat="45.4888853" lon="11.049095"><ele>334.3333333333333</ele><time>2026-04-23T13:54:06.322Z</time></trkpt><trkpt lat="45.4889445" lon="11.0491982"><ele>338.0</ele><time>2026-04-23T13:54:08.302Z</time></trkpt><trkpt lat="45.4889851" lon="11.0492692"><ele>341.66666666666663</ele><time>2026-04-23T13:54:09.302Z</time></trkpt><trkpt lat="45.4890417" lon="11.0493617"><ele>345.3333333333333</ele><time>2026-04-23T13:54:10.302Z</time></trkpt><trkpt lat="45.489095" lon="11.0494333"><ele>349.0</ele><time>2026-04-23T13:54:11.302Z</time></trkpt><trkpt lat="45.4891667" lon="11.0495"><ele>349.0</ele><time>2026-04-23T13:54:12.302Z</time></trkpt><trkpt lat="45.48925" lon="11.049555"><ele>349.0</ele><time>2026-04-23T13:54:13.302Z</time></trkpt><trkpt lat="45.4893467" lon="11.0496167"><ele>349.0</ele><time>2026-04-23T13:54:14.303Z</time></trkpt><trkpt lat="45.4894417" lon="11.04967"><ele>349.0</ele><time>2026-04-23T13:54:15.302Z</time></trkpt><trkpt lat="45.4895333" lon="11.0497083"><ele>349.0</ele><time>2026-04-23T13:54:16.302Z</time></trkpt><trkpt lat="45.4896283" lon="11.0497233"><ele>352.75</ele><time>2026-04-23T13:54:17.302Z</time></trkpt><trkpt lat="45.48972" lon="11.0497117"><ele>356.5</ele><time>2026-04-23T13:54:18.302Z</time></trkpt><trkpt lat="45.489825" lon="11.0496683"><ele>360.25</ele><time>2026-04-23T13:54:19.303Z</time></trkpt><trkpt lat="45.489955" lon="11.0495867"><ele>364.0</ele><time>2026-04-23T13:54:20.302Z</time></trkpt><trkpt lat="45.490095" lon="11.0495033"><ele>364.0</ele><time>2026-04-23T13:54:21.302Z</time></trkpt><trkpt lat="45.4902333" lon="11.0494167"><ele>364.0</ele><time>2026-04-23T13:54:22.302Z</time></trkpt><trkpt lat="45.4903217" lon="11.0493483"><ele>364.0</ele><time>2026-04-23T13:54:23.303Z</time></trkpt><trkpt lat="45.49039" lon="11.0492667"><ele>364.0</ele><time>2026-04-23T13:54:24.302Z</time></trkpt><trkpt lat="45.4904567" lon="11.04918"><ele>364.0</ele><time>2026-04-23T13:54:25.302Z</time></trkpt><trkpt lat="45.4905117" lon="11.0490817"><ele>362.8333333333333</ele><time>2026-04-23T13:54:26.302Z</time></trkpt><trkpt lat="45.4905517" lon="11.0489783"><ele>361.66666666666663</ele><time>2026-04-23T13:54:27.302Z</time></trkpt><trkpt lat="45.4905767" lon="11.0488517"><ele>360.5</ele><time>2026-04-23T13:54:28.302Z</time></trkpt><trkpt lat="45.4905783" lon="11.0487283"><ele>359.3333333333333</ele><time>2026-04-23T13:54:29.302Z</time></trkpt><trkpt lat="45.490575" lon="11.0486317"><ele>358.1666666666667</ele><time>2026-04-23T13:54:30.302Z</time></trkpt><trkpt lat="45.49058" lon="11.0484967"><ele>357.0</ele><time>2026-04-23T13:54:32.302Z</time></trkpt><trkpt lat="45.4906583" lon="11.04852"><ele>357.0</ele><time>2026-04-23T13:54:33.303Z</time></trkpt><trkpt lat="45.4907333" lon="11.0485083"><ele>357.0</ele><time>2026-04-23T13:54:34.302Z</time></trkpt><trkpt lat="45.4908183" lon="11.0484733"><ele>357.0</ele><time>2026-04-23T13:54:35.303Z</time></trkpt><trkpt lat="45.490905" lon="11.048425"><ele>357.0</ele><time>2026-04-23T13:54:36.303Z</time></trkpt><trkpt lat="45.49104" lon="11.0483783"><ele>357.0</ele><time>2026-04-23T13:54:37.302Z</time></trkpt><trkpt lat="45.4911817" lon="11.0483233"><ele>354.0</ele><time>2026-04-23T13:54:38.302Z</time></trkpt><trkpt lat="45.4913" lon="11.0482867"><ele>351.0</ele><time>2026-04-23T13:54:39.303Z</time></trkpt><trkpt lat="45.491405" lon="11.0482683"><ele>348.0</ele><time>2026-04-23T13:54:40.302Z</time></trkpt><trkpt lat="45.491505" lon="11.0482783"><ele>345.0</ele><time>2026-04-23T13:54:41.302Z</time></trkpt><trkpt lat="45.4915833" lon="11.0483217"><ele>342.0</ele><time>2026-04-23T13:54:42.302Z</time></trkpt><trkpt lat="45.4916617" lon="11.04837"><ele>342.0</ele><time>2026-04-23T13:54:43.302Z</time></trkpt><trkpt lat="45.4917633" lon="11.0484467"><ele>342.0</ele><time>2026-04-23T13:54:44.302Z</time></trkpt><trkpt lat="45.4918983" lon="11.0485733"><ele>342.0</ele><time>2026-04-23T13:54:45.302Z</time></trkpt><trkpt lat="45.4920733" lon="11.0487133"><ele>336.6666666666667</ele><time>2026-04-23T13:54:46.302Z</time></trkpt><trkpt lat="45.4922633" lon="11.0488533"><ele>331.33333333333337</ele><time>2026-04-23T13:54:47.302Z</time></trkpt><trkpt lat="45.4924567" lon="11.04899"><ele>326.0</ele><time>2026-04-23T13:54:48.302Z</time></trkpt><trkpt lat="45.49264" lon="11.0491067"><ele>330.0</ele><time>2026-04-23T13:54:49.303Z</time></trkpt><trkpt lat="45.492825" lon="11.04921"><ele>334.0</ele><time>2026-04-23T13:54:50.302Z</time></trkpt><trkpt lat="45.4929933" lon="11.0493117"><ele>338.0</ele><time>2026-04-23T13:54:51.302Z</time></trkpt><trkpt lat="45.4931283" lon="11.0493933"><ele>338.0</ele><time>2026-04-23T13:54:52.302Z</time></trkpt><trkpt lat="45.4932483" lon="11.049455"><ele>338.0</ele><time>2026-04-23T13:54:53.302Z</time></trkpt><trkpt lat="45.493375" lon="11.049495"><ele>338.0</ele><time>2026-04-23T13:54:54.302Z</time></trkpt><trkpt lat="45.4935217" lon="11.0495267"><ele>338.0</ele><time>2026-04-23T13:54:55.302Z</time></trkpt><trkpt lat="45.4936667" lon="11.04958"><ele>337.75</ele><time>2026-04-23T13:54:56.302Z</time></trkpt><trkpt lat="45.4938017" lon="11.0496417"><ele>337.5</ele><time>2026-04-23T13:54:57.303Z</time></trkpt><trkpt lat="45.4939317" lon="11.04968"><ele>337.25</ele><time>2026-04-23T13:54:58.302Z</time></trkpt><trkpt lat="45.4940717" lon="11.0496867"><ele>337.0</ele><time>2026-04-23T13:54:59.303Z</time></trkpt><trkpt lat="45.49421" lon="11.049635"><ele>337.0</ele><time>2026-04-23T13:55:00.302Z</time></trkpt><trkpt lat="45.49436" lon="11.0495833"><ele>337.0</ele><time>2026-04-23T13:55:01.303Z</time></trkpt><trkpt lat="45.494505" lon="11.04951"><ele>337.0</ele><time>2026-04-23T13:55:02.301Z</time></trkpt><trkpt lat="45.494655" lon="11.0494667"><ele>336.75</ele><time>2026-04-23T13:55:03.301Z</time></trkpt><trkpt lat="45.4947883" lon="11.0494333"><ele>336.5</ele><time>2026-04-23T13:55:04.301Z</time></trkpt><trkpt lat="45.494905" lon="11.0494133"><ele>336.25</ele><time>2026-04-23T13:55:05.301Z</time></trkpt><trkpt lat="45.4950533" lon="11.0493767"><ele>336.0</ele><time>2026-04-23T13:55:06.301Z</time></trkpt><trkpt lat="45.4951717" lon="11.0493733"><ele>336.0</ele><time>2026-04-23T13:55:07.301Z</time></trkpt><trkpt lat="45.4952617" lon="11.04936"><ele>336.0</ele><time>2026-04-23T13:55:08.301Z</time></trkpt><trkpt lat="45.4953667" lon="11.04935"><ele>336.0</ele><time>2026-04-23T13:55:09.302Z</time></trkpt><trkpt lat="45.4954767" lon="11.0493683"><ele>336.0</ele><time>2026-04-23T13:55:10.301Z</time></trkpt><trkpt lat="45.495595" lon="11.0494"><ele>336.0</ele><time>2026-04-23T13:55:11.301Z</time></trkpt><trkpt lat="45.49571" lon="11.049435"><ele>336.3333333333333</ele><time>2026-04-23T13:55:12.301Z</time></trkpt><trkpt lat="45.4958183" lon="11.0494533"><ele>336.6666666666667</ele><time>2026-04-23T13:55:13.301Z</time></trkpt><trkpt lat="45.495905" lon="11.0494767"><ele>337.0</ele><time>2026-04-23T13:55:14.301Z</time></trkpt><trkpt lat="45.4959783" lon="11.049495"><ele>337.33333333333337</ele><time>2026-04-23T13:55:15.301Z</time></trkpt><trkpt lat="45.4960233" lon="11.049595"><ele>337.6666666666667</ele><time>2026-04-23T13:55:17.301Z</time></trkpt><trkpt lat="45.496015" lon="11.04969"><ele>338.0</ele><time>2026-04-23T13:55:18.302Z</time></trkpt><trkpt lat="45.4959417" lon="11.04985"><ele>338.33333333333337</ele><time>2026-04-23T13:55:19.301Z</time></trkpt><trkpt lat="45.4958933" lon="11.049965"><ele>338.6666666666667</ele><time>2026-04-23T13:55:20.301Z</time></trkpt><trkpt lat="45.495855" lon="11.05006"><ele>339.0</ele><time>2026-04-23T13:55:21.302Z</time></trkpt><trkpt lat="45.4958217" lon="11.0501433"><ele>339.3333333333333</ele><time>2026-04-23T13:55:22.301Z</time></trkpt><trkpt lat="45.4957833" lon="11.0502417"><ele>339.66666666666663</ele><time>2026-04-23T13:55:24.301Z</time></trkpt><trkpt lat="45.4957917" lon="11.0503517"><ele>340.0</ele><time>2026-04-23T13:55:27.302Z</time></trkpt><trkpt lat="45.4958067" lon="11.0504633"><ele>340.0</ele><time>2026-04-23T13:55:30.301Z</time></trkpt><trkpt lat="45.4958733" lon="11.05053"><ele>340.0</ele><time>2026-04-23T13:55:34.301Z</time></trkpt><trkpt lat="45.4959433" lon="11.0505633"><ele>340.0</ele><time>2026-04-23T13:55:36.301Z</time></trkpt><trkpt lat="45.496055" lon="11.0506017"><ele>340.0</ele><time>2026-04-23T13:55:38.301Z</time></trkpt><trkpt lat="45.4961617" lon="11.0506417"><ele>340.0</ele><time>2026-04-23T13:55:40.301Z</time></trkpt><trkpt lat="45.49626" lon="11.0506867"><ele>340.5</ele><time>2026-04-23T13:55:42.301Z</time></trkpt><trkpt lat="45.4963383" lon="11.0507333"><ele>341.0</ele><time>2026-04-23T13:55:44.301Z</time></trkpt><trkpt lat="45.496435" lon="11.0507683"><ele>341.5</ele><time>2026-04-23T13:55:46.301Z</time></trkpt><trkpt lat="45.4965217" lon="11.0508083"><ele>342.0</ele><time>2026-04-23T13:55:48.301Z</time></trkpt><trkpt lat="45.4965883" lon="11.050815"><ele>342.5</ele><time>2026-04-23T13:55:51.302Z</time></trkpt><trkpt lat="45.496655" lon="11.0508267"><ele>343.0</ele><time>2026-04-23T13:55:53.301Z</time></trkpt><trkpt lat="45.4967217" lon="11.0508667"><ele>343.0</ele><time>2026-04-23T13:55:55.301Z</time></trkpt><trkpt lat="45.4968" lon="11.0509233"><ele>343.0</ele><time>2026-04-23T13:55:58.301Z</time></trkpt><trkpt lat="45.4968717" lon="11.0509633"><ele>343.0</ele><time>2026-04-23T13:56:00.301Z</time></trkpt><trkpt lat="45.4969433" lon="11.05102"><ele>343.0</ele><time>2026-04-23T13:56:02.301Z</time></trkpt><trkpt lat="45.4970317" lon="11.051045"><ele>343.0</ele><time>2026-04-23T13:56:04.301Z</time></trkpt><trkpt lat="45.4971117" lon="11.0511"><ele>343.0</ele><time>2026-04-23T13:56:06.301Z</time></trkpt><trkpt lat="45.4972067" lon="11.051155"><ele>344.66666666666663</ele><time>2026-04-23T13:56:08.301Z</time></trkpt><trkpt lat="45.497295" lon="11.0512167"><ele>346.3333333333333</ele><time>2026-04-23T13:56:10.301Z</time></trkpt><trkpt lat="45.4973767" lon="11.0512467"><ele>348.0</ele><time>2026-04-23T13:56:14.301Z</time></trkpt><trkpt lat="45.4974567" lon="11.05125"><ele>349.6666666666667</ele><time>2026-04-23T13:56:17.301Z</time></trkpt><trkpt lat="45.4975" lon="11.05133"><ele>351.33333333333337</ele><time>2026-04-23T13:56:21.301Z</time></trkpt><trkpt lat="45.4975517" lon="11.0514133"><ele>353.0</ele><time>2026-04-23T13:56:24.302Z</time></trkpt><trkpt lat="45.49756" lon="11.0515367"><ele>349.2</ele><time>2026-04-23T13:56:27.301Z</time></trkpt><trkpt lat="45.4975833" lon="11.0516583"><ele>345.4</ele><time>2026-04-23T13:56:29.301Z</time></trkpt><trkpt lat="45.49759" lon="11.0517767"><ele>341.59999999999997</ele><time>2026-04-23T13:56:31.301Z</time></trkpt><trkpt lat="45.4975867" lon="11.051905"><ele>337.79999999999995</ele><time>2026-04-23T13:56:33.301Z</time></trkpt><trkpt lat="45.4975867" lon="11.0520567"><ele>334.0</ele><time>2026-04-23T13:56:35.301Z</time></trkpt><trkpt lat="45.4975883" lon="11.0521733"><ele>334.0</ele><time>2026-04-23T13:56:37.301Z</time></trkpt><trkpt lat="45.4975967" lon="11.052295"><ele>334.0</ele><time>2026-04-23T13:56:39.301Z</time></trkpt><trkpt lat="45.4976017" lon="11.0524267"><ele>334.0</ele><time>2026-04-23T13:56:41.301Z</time></trkpt><trkpt lat="45.49759" lon="11.0525733"><ele>334.0</ele><time>2026-04-23T13:56:43.301Z</time></trkpt><trkpt lat="45.4976" lon="11.0527117"><ele>334.0</ele><time>2026-04-23T13:56:45.301Z</time></trkpt><trkpt lat="45.4976283" lon="11.0528583"><ele>328.8</ele><time>2026-04-23T13:56:47.301Z</time></trkpt><trkpt lat="45.4976733" lon="11.05301"><ele>323.59999999999997</ele><time>2026-04-23T13:56:49.301Z</time></trkpt><trkpt lat="45.4977433" lon="11.0531417"><ele>318.4</ele><time>2026-04-23T13:56:51.301Z</time></trkpt><trkpt lat="45.4977817" lon="11.05328"><ele>313.2</ele><time>2026-04-23T13:56:53.302Z</time></trkpt><trkpt lat="45.4977733" lon="11.0534317"><ele>308.0</ele><time>2026-04-23T13:56:55.301Z</time></trkpt><trkpt lat="45.497735" lon="11.0535033"><ele>304.1666666666667</ele><time>2026-04-23T13:56:57.301Z</time></trkpt><trkpt lat="45.4977967" lon="11.05358"><ele>300.33333333333337</ele><time>2026-04-23T13:57:04.301Z</time></trkpt><trkpt lat="45.4979017" lon="11.0535667"><ele>296.5</ele><time>2026-04-23T13:57:06.301Z</time></trkpt><trkpt lat="45.4979717" lon="11.05354"><ele>292.6666666666667</ele><time>2026-04-23T13:57:07.301Z</time></trkpt><trkpt lat="45.4980333" lon="11.0535083"><ele>288.8333333333333</ele><time>2026-04-23T13:57:08.301Z</time></trkpt><trkpt lat="45.4981033" lon="11.0534767"><ele>285.0</ele><time>2026-04-23T13:57:09.301Z</time></trkpt><trkpt lat="45.4981683" lon="11.053435"><ele>284.5</ele><time>2026-04-23T13:57:10.301Z</time></trkpt><trkpt lat="45.4982317" lon="11.0533983"><ele>284.0</ele><time>2026-04-23T13:57:11.301Z</time></trkpt><trkpt lat="45.4982917" lon="11.0533583"><ele>283.5</ele><time>2026-04-23T13:57:12.301Z</time></trkpt><trkpt lat="45.4983583" lon="11.0532917"><ele>283.0</ele><time>2026-04-23T13:57:13.301Z</time></trkpt><trkpt lat="45.4984167" lon="11.0532233"><ele>282.5</ele><time>2026-04-23T13:57:14.301Z</time></trkpt><trkpt lat="45.4984983" lon="11.0531"><ele>282.0</ele><time>2026-04-23T13:57:16.301Z</time></trkpt><trkpt lat="45.4985483" lon="11.0530183"><ele>281.6</ele><time>2026-04-23T13:57:17.301Z</time></trkpt><trkpt lat="45.4985983" lon="11.052925"><ele>281.2</ele><time>2026-04-23T13:57:18.302Z</time></trkpt><trkpt lat="45.4986383" lon="11.05282"><ele>280.8</ele><time>2026-04-23T13:57:19.301Z</time></trkpt><trkpt lat="45.49867" lon="11.05265"><ele>280.4</ele><time>2026-04-23T13:57:20.301Z</time></trkpt><trkpt lat="45.498715" lon="11.0525017"><ele>280.0</ele><time>2026-04-23T13:57:21.301Z</time></trkpt><trkpt lat="45.4987767" lon="11.052265"><ele>280.0</ele><time>2026-04-23T13:57:22.301Z</time></trkpt><trkpt lat="45.498845" lon="11.05204"><ele>280.0</ele><time>2026-04-23T13:57:23.301Z</time></trkpt><trkpt lat="45.49892" lon="11.0518233"><ele>280.0</ele><time>2026-04-23T13:57:24.301Z</time></trkpt><trkpt lat="45.4989817" lon="11.05164"><ele>282.4</ele><time>2026-04-23T13:57:25.302Z</time></trkpt><trkpt lat="45.49902" lon="11.0514683"><ele>284.8</ele><time>2026-04-23T13:57:26.301Z</time></trkpt><trkpt lat="45.4990733" lon="11.0513317"><ele>287.2</ele><time>2026-04-23T13:57:27.301Z</time></trkpt><trkpt lat="45.4991167" lon="11.05124"><ele>289.6</ele><time>2026-04-23T13:57:28.302Z</time></trkpt><trkpt lat="45.4991483" lon="11.0511267"><ele>292.0</ele><time>2026-04-23T13:57:29.301Z</time></trkpt><trkpt lat="45.4991883" lon="11.0509767"><ele>292.0</ele><time>2026-04-23T13:57:30.301Z</time></trkpt><trkpt lat="45.49922" lon="11.050805"><ele>292.0</ele><time>2026-04-23T13:57:31.301Z</time></trkpt><trkpt lat="45.4992367" lon="11.0506267"><ele>292.0</ele><time>2026-04-23T13:57:32.301Z</time></trkpt><trkpt lat="45.4992383" lon="11.0504583"><ele>292.0</ele><time>2026-04-23T13:57:33.301Z</time></trkpt><trkpt lat="45.4992533" lon="11.0503083"><ele>293.8</ele><time>2026-04-23T13:57:34.301Z</time></trkpt><trkpt lat="45.4992467" lon="11.0501783"><ele>295.6</ele><time>2026-04-23T13:57:35.301Z</time></trkpt><trkpt lat="45.499245" lon="11.05004"><ele>297.40000000000003</ele><time>2026-04-23T13:57:36.301Z</time></trkpt><trkpt lat="45.4992633" lon="11.0499"><ele>299.2</ele><time>2026-04-23T13:57:37.3Z</time></trkpt><trkpt lat="45.4992733" lon="11.0497567"><ele>301.0</ele><time>2026-04-23T13:57:38.301Z</time></trkpt><trkpt lat="45.4992167" lon="11.049615"><ele>282.0</ele><time>2026-04-23T13:57:39.3Z</time></trkpt><trkpt lat="45.4981033" lon="11.0534767"><ele>282.0</ele><time>2026-04-23T13:57:09.301Z</time></trkpt><trkpt lat="45.4981683" lon="11.053435"><ele>282.0</ele><time>2026-04-23T13:57:10.301Z</time></trkpt><trkpt lat="45.4982317" lon="11.0533983"><ele>282.0</ele><time>2026-04-23T13:57:11.301Z</time></trkpt><trkpt lat="45.4982917" lon="11.0533583"><ele>282.0</ele><time>2026-04-23T13:57:12.301Z</time></trkpt><trkpt lat="45.4983583" lon="11.0532917"><ele>282.0</ele><time>2026-04-23T13:57:13.301Z</time></trkpt><trkpt lat="45.4984167" lon="11.0532233"><ele>282.0</ele><time>2026-04-23T13:57:14.301Z</time></trkpt><trkpt lat="45.4984983" lon="11.0531"><ele>285.8</ele><time>2026-04-23T13:57:16.301Z</time></trkpt><trkpt lat="45.4985483" lon="11.0530183"><ele>289.6</ele><time>2026-04-23T13:57:17.301Z</time></trkpt><trkpt lat="45.4985983" lon="11.052925"><ele>293.40000000000003</ele><time>2026-04-23T13:57:18.302Z</time></trkpt><trkpt lat="45.4986383" lon="11.05282"><ele>297.2</ele><time>2026-04-23T13:57:19.301Z</time></trkpt><trkpt lat="45.49867" lon="11.05265"><ele>301.0</ele><time>2026-04-23T13:57:20.301Z</time></trkpt><trkpt lat="45.498715" lon="11.0525017"><ele>294.0</ele><time>2026-04-23T13:57:21.301Z</time></trkpt><trkpt lat="45.4987767" lon="11.052265"><ele>287.0</ele><time>2026-04-23T13:57:22.301Z</time></trkpt><trkpt lat="45.498845" lon="11.05204"><ele>280.0</ele><time>2026-04-23T13:57:23.301Z</time></trkpt><trkpt lat="45.49892" lon="11.0518233"><ele>280.0</ele><time>2026-04-23T13:57:24.301Z</time></trkpt><trkpt lat="45.4989817" lon="11.05164"><ele>280.0</ele><time>2026-04-23T13:57:25.302Z</time></trkpt><trkpt lat="45.49902" lon="11.0514683"><ele>280.0</ele><time>2026-04-23T13:57:26.301Z</time></trkpt><trkpt lat="45.4990733" lon="11.0513317"><ele>280.0</ele><time>2026-04-23T13:57:27.301Z</time></trkpt><trkpt lat="45.4991167" lon="11.05124"><ele>282.4</ele><time>2026-04-23T13:57:28.302Z</time></trkpt><trkpt lat="45.4991483" lon="11.0511267"><ele>284.8</ele><time>2026-04-23T13:57:29.301Z</time></trkpt><trkpt lat="45.4991883" lon="11.0509767"><ele>287.2</ele><time>2026-04-23T13:57:30.301Z</time></trkpt><trkpt lat="45.49922" lon="11.050805"><ele>289.6</ele><time>2026-04-23T13:57:31.301Z</time></trkpt><trkpt lat="45.4992367" lon="11.0506267"><ele>292.0</ele><time>2026-04-23T13:57:32.301Z</time></trkpt><trkpt lat="45.4992383" lon="11.0504583"><ele>293.8</ele><time>2026-04-23T13:57:33.301Z</time></trkpt><trkpt lat="45.4992533" lon="11.0503083"><ele>295.6</ele><time>2026-04-23T13:57:34.301Z</time></trkpt><trkpt lat="45.4992467" lon="11.0501783"><ele>297.40000000000003</ele><time>2026-04-23T13:57:35.301Z</time></trkpt><trkpt lat="45.499245" lon="11.05004"><ele>299.2</ele><time>2026-04-23T13:57:36.301Z</time></trkpt><trkpt lat="45.4992633" lon="11.0499"><ele>301.0</ele><time>2026-04-23T13:57:37.3Z</time></trkpt><trkpt lat="45.4992733" lon="11.0497567"><ele>302.40000000000003</ele><time>2026-04-23T13:57:38.301Z</time></trkpt><trkpt lat="45.4992167" lon="11.049615"><ele>303.8</ele><time>2026-04-23T13:57:39.3Z</time></trkpt><trkpt lat="45.49919" lon="11.0494783"><ele>305.20000000000005</ele><time>2026-04-23T13:57:40.3Z</time></trkpt><trkpt lat="45.4991733" lon="11.0493517"><ele>306.6</ele><time>2026-04-23T13:57:41.3Z</time></trkpt><trkpt lat="45.4991483" lon="11.0492183"><ele>308.0</ele><time>2026-04-23T13:57:42.3Z</time></trkpt><trkpt lat="45.4991317" lon="11.0490733"><ele>308.5</ele><time>2026-04-23T13:57:43.3Z</time></trkpt><trkpt lat="45.4991433" lon="11.0489167"><ele>309.0</ele><time>2026-04-23T13:57:44.3Z</time></trkpt><trkpt lat="45.4991617" lon="11.0487483"><ele>309.5</ele><time>2026-04-23T13:57:45.3Z</time></trkpt><trkpt lat="45.4991833" lon="11.0485767"><ele>310.0</ele><time>2026-04-23T13:57:46.3Z</time></trkpt><trkpt lat="45.499205" lon="11.0484017"><ele>309.75</ele><time>2026-04-23T13:57:47.3Z</time></trkpt><trkpt lat="45.49923" lon="11.0482267"><ele>309.5</ele><time>2026-04-23T13:57:48.301Z</time></trkpt><trkpt lat="45.499245" lon="11.0480633"><ele>309.25</ele><time>2026-04-23T13:57:49.3Z</time></trkpt><trkpt lat="45.49929" lon="11.0479033"><ele>309.0</ele><time>2026-04-23T13:57:50.301Z</time></trkpt><trkpt lat="45.4993383" lon="11.047755"><ele>309.0</ele><time>2026-04-23T13:57:51.3Z</time></trkpt><trkpt lat="45.4993733" lon="11.0476267"><ele>309.0</ele><time>2026-04-23T13:57:52.3Z</time></trkpt><trkpt lat="45.4993833" lon="11.0475017"><ele>309.0</ele><time>2026-04-23T13:57:53.3Z</time></trkpt><trkpt lat="45.4993883" lon="11.047405"><ele>309.0</ele><time>2026-04-23T13:57:54.3Z</time></trkpt><trkpt lat="45.4994633" lon="11.0472933"><ele>309.0</ele><time>2026-04-23T13:57:56.3Z</time></trkpt><trkpt lat="45.4995183" lon="11.0471317"><ele>307.4</ele><time>2026-04-23T13:57:58.3Z</time></trkpt><trkpt lat="45.49958" lon="11.0470267"><ele>305.79999999999995</ele><time>2026-04-23T13:57:59.3Z</time></trkpt><trkpt lat="45.499655" lon="11.0469133"><ele>304.20000000000005</ele><time>2026-04-23T13:58:00.3Z</time></trkpt><trkpt lat="45.4997333" lon="11.0467983"><ele>302.6</ele><time>2026-04-23T13:58:01.301Z</time></trkpt><trkpt lat="45.4998133" lon="11.0466883"><ele>301.0</ele><time>2026-04-23T13:58:02.3Z</time></trkpt><trkpt lat="45.4999017" lon="11.0465833"><ele>300.40000000000003</ele><time>2026-04-23T13:58:03.3Z</time></trkpt><trkpt lat="45.4999883" lon="11.0464783"><ele>299.8</ele><time>2026-04-23T13:58:04.3Z</time></trkpt><trkpt lat="45.5000867" lon="11.0463883"><ele>299.20000000000005</ele><time>2026-04-23T13:58:05.301Z</time></trkpt><trkpt lat="45.5001533" lon="11.0463067"><ele>298.6</ele><time>2026-04-23T13:58:06.301Z</time></trkpt><trkpt lat="45.500225" lon="11.046215"><ele>298.0</ele><time>2026-04-23T13:58:07.3Z</time></trkpt><trkpt lat="45.5002433" lon="11.0461067"><ele>298.0</ele><time>2026-04-23T13:58:08.3Z</time></trkpt><trkpt lat="45.5002567" lon="11.0460183"><ele>298.0</ele><time>2026-04-23T13:58:09.3Z</time></trkpt><trkpt lat="45.50026" lon="11.0459183"><ele>298.0</ele><time>2026-04-23T13:58:10.3Z</time></trkpt><trkpt lat="45.500235" lon="11.04582"><ele>298.0</ele><time>2026-04-23T13:58:11.3Z</time></trkpt><trkpt lat="45.500145" lon="11.0456967"><ele>298.0</ele><time>2026-04-23T13:58:12.3Z</time></trkpt><trkpt lat="45.5000817" lon="11.0455783"><ele>298.0</ele><time>2026-04-23T13:58:13.3Z</time></trkpt><trkpt lat="45.5000317" lon="11.0454533"><ele>298.16666666666663</ele><time>2026-04-23T13:58:14.3Z</time></trkpt><trkpt lat="45.5" lon="11.0453217"><ele>298.3333333333333</ele><time>2026-04-23T13:58:15.3Z</time></trkpt><trkpt lat="45.49998" lon="11.04519"><ele>298.5</ele><time>2026-04-23T13:58:16.3Z</time></trkpt><trkpt lat="45.4999683" lon="11.04507"><ele>298.6666666666667</ele><time>2026-04-23T13:58:17.3Z</time></trkpt><trkpt lat="45.4999567" lon="11.0449533"><ele>298.83333333333337</ele><time>2026-04-23T13:58:18.3Z</time></trkpt><trkpt lat="45.4999567" lon="11.0448317"><ele>299.0</ele><time>2026-04-23T13:58:19.301Z</time></trkpt><trkpt lat="45.49997" lon="11.0447"><ele>299.0</ele><time>2026-04-23T13:58:20.301Z</time></trkpt><trkpt lat="45.4999967" lon="11.0445617"><ele>299.0</ele><time>2026-04-23T13:58:21.301Z</time></trkpt><trkpt lat="45.5000217" lon="11.0444283"><ele>299.0</ele><time>2026-04-23T13:58:22.3Z</time></trkpt><trkpt lat="45.5000517" lon="11.0443017"><ele>299.0</ele><time>2026-04-23T13:58:23.3Z</time></trkpt><trkpt lat="45.50009" lon="11.044135"><ele>299.0</ele><time>2026-04-23T13:58:24.3Z</time></trkpt><trkpt lat="45.5001233" lon="11.0439517"><ele>299.0</ele><time>2026-04-23T13:58:25.301Z</time></trkpt><trkpt lat="45.5001567" lon="11.0437633"><ele>299.0</ele><time>2026-04-23T13:58:26.3Z</time></trkpt><trkpt lat="45.5001867" lon="11.043575"><ele>299.0</ele><time>2026-04-23T13:58:27.3Z</time></trkpt><trkpt lat="45.5002067" lon="11.043415"><ele>299.0</ele><time>2026-04-23T13:58:28.3Z</time></trkpt><trkpt lat="45.5002233" lon="11.0432517"><ele>298.0</ele><time>2026-04-23T13:58:29.301Z</time></trkpt><trkpt lat="45.500225" lon="11.0430917"><ele>297.0</ele><time>2026-04-23T13:58:30.3Z</time></trkpt><trkpt lat="45.5002233" lon="11.0429533"><ele>296.0</ele><time>2026-04-23T13:58:31.3Z</time></trkpt><trkpt lat="45.5002033" lon="11.0428233"><ele>295.0</ele><time>2026-04-23T13:58:32.3Z</time></trkpt><trkpt lat="45.500175" lon="11.0427017"><ele>294.0</ele><time>2026-04-23T13:58:33.3Z</time></trkpt><trkpt lat="45.5001517" lon="11.0425883"><ele>294.0</ele><time>2026-04-23T13:58:34.3Z</time></trkpt><trkpt lat="45.50014" lon="11.0424667"><ele>294.0</ele><time>2026-04-23T13:58:35.301Z</time></trkpt><trkpt lat="45.5001433" lon="11.042335"><ele>294.0</ele><time>2026-04-23T13:58:36.3Z</time></trkpt><trkpt lat="45.5001567" lon="11.0422017"><ele>294.0</ele><time>2026-04-23T13:58:37.3Z</time></trkpt><trkpt lat="45.5001733" lon="11.0420617"><ele>294.0</ele><time>2026-04-23T13:58:38.3Z</time></trkpt><trkpt lat="45.5002033" lon="11.0419083"><ele>292.4</ele><time>2026-04-23T13:58:39.3Z</time></trkpt><trkpt lat="45.5002333" lon="11.0417667"><ele>290.79999999999995</ele><time>2026-04-23T13:58:40.3Z</time></trkpt><trkpt lat="45.5002617" lon="11.041635"><ele>289.20000000000005</ele><time>2026-04-23T13:58:41.3Z</time></trkpt><trkpt lat="45.500305" lon="11.0415033"><ele>287.6</ele><time>2026-04-23T13:58:42.301Z</time></trkpt><trkpt lat="45.500345" lon="11.0413483"><ele>286.0</ele><time>2026-04-23T13:58:43.3Z</time></trkpt><trkpt lat="45.50039" lon="11.04122"><ele>284.2</ele><time>2026-04-23T13:58:44.3Z</time></trkpt><trkpt lat="45.50046" lon="11.04113"><ele>282.40000000000003</ele><time>2026-04-23T13:58:45.3Z</time></trkpt><trkpt lat="45.5005533" lon="11.0410483"><ele>280.6</ele><time>2026-04-23T13:58:46.301Z</time></trkpt><trkpt lat="45.5006567" lon="11.0409533"><ele>278.8</ele><time>2026-04-23T13:58:47.3Z</time></trkpt><trkpt lat="45.5007567" lon="11.04086"><ele>277.0</ele><time>2026-04-23T13:58:48.3Z</time></trkpt><trkpt lat="45.500855" lon="11.0407817"><ele>277.0</ele><time>2026-04-23T13:58:49.3Z</time></trkpt><trkpt lat="45.500945" lon="11.0407283"><ele>277.0</ele><time>2026-04-23T13:58:50.3Z</time></trkpt><trkpt lat="45.5010067" lon="11.0406567"><ele>277.0</ele><time>2026-04-23T13:58:51.3Z</time></trkpt><trkpt lat="45.5010617" lon="11.0405933"><ele>277.0</ele><time>2026-04-23T13:58:52.301Z</time></trkpt><trkpt lat="45.5011033" lon="11.0404817"><ele>277.0</ele><time>2026-04-23T13:58:54.3Z</time></trkpt><trkpt lat="45.5011317" lon="11.0403867"><ele>277.0</ele><time>2026-04-23T13:58:56.3Z</time></trkpt><trkpt lat="45.5011833" lon="11.040225"><ele>277.0</ele><time>2026-04-23T13:58:58.3Z</time></trkpt><trkpt lat="45.5012417" lon="11.0401083"><ele>277.0</ele><time>2026-04-23T13:58:59.3Z</time></trkpt><trkpt lat="45.501315" lon="11.0399517"><ele>277.0</ele><time>2026-04-23T13:59:00.3Z</time></trkpt><trkpt lat="45.5013833" lon="11.0397683"><ele>277.0</ele><time>2026-04-23T13:59:01.3Z</time></trkpt><trkpt lat="45.5014433" lon="11.03959"><ele>279.25</ele><time>2026-04-23T13:59:02.3Z</time></trkpt><trkpt lat="45.501515" lon="11.039415"><ele>281.5</ele><time>2026-04-23T13:59:03.3Z</time></trkpt><trkpt lat="45.5015883" lon="11.0392517"><ele>283.75</ele><time>2026-04-23T13:59:04.301Z</time></trkpt><trkpt lat="45.5016567" lon="11.039095"><ele>286.0</ele><time>2026-04-23T13:59:05.3Z</time></trkpt><trkpt lat="45.501715" lon="11.03894"><ele>286.0</ele><time>2026-04-23T13:59:06.3Z</time></trkpt><trkpt lat="45.5017633" lon="11.03883"><ele>286.0</ele><time>2026-04-23T13:59:07.3Z</time></trkpt><trkpt lat="45.5018133" lon="11.038745"><ele>286.0</ele><time>2026-04-23T13:59:08.3Z</time></trkpt><trkpt lat="45.5018667" lon="11.038675"><ele>286.0</ele><time>2026-04-23T13:59:09.3Z</time></trkpt><trkpt lat="45.5019967" lon="11.03863"><ele>286.0</ele><time>2026-04-23T13:59:11.3Z</time></trkpt><trkpt lat="45.5020983" lon="11.03872"><ele>284.75</ele><time>2026-04-23T13:59:12.3Z</time></trkpt><trkpt lat="45.502195" lon="11.0387867"><ele>283.5</ele><time>2026-04-23T13:59:13.301Z</time></trkpt><trkpt lat="45.50231" lon="11.03888"><ele>282.25</ele><time>2026-04-23T13:59:14.3Z</time></trkpt><trkpt lat="45.50243" lon="11.0389867"><ele>281.0</ele><time>2026-04-23T13:59:15.3Z</time></trkpt><trkpt lat="45.502565" lon="11.039095"><ele>282.5</ele><time>2026-04-23T13:59:16.3Z</time></trkpt><trkpt lat="45.5027067" lon="11.0391733"><ele>284.0</ele><time>2026-04-23T13:59:17.3Z</time></trkpt><trkpt lat="45.5028217" lon="11.03924"><ele>285.5</ele><time>2026-04-23T13:59:18.301Z</time></trkpt><trkpt lat="45.5029167" lon="11.039315"><ele>287.0</ele><time>2026-04-23T13:59:19.3Z</time></trkpt><trkpt lat="45.50299" lon="11.0394267"><ele>287.0</ele><time>2026-04-23T13:59:20.3Z</time></trkpt><trkpt lat="45.5030483" lon="11.0395783"><ele>287.0</ele><time>2026-04-23T13:59:21.301Z</time></trkpt><trkpt lat="45.5031033" lon="11.03974"><ele>287.0</ele><time>2026-04-23T13:59:22.3Z</time></trkpt><trkpt lat="45.5031617" lon="11.03993"><ele>287.0</ele><time>2026-04-23T13:59:23.3Z</time></trkpt><trkpt lat="45.5032367" lon="11.0401433"><ele>289.6666666666667</ele><time>2026-04-23T13:59:24.3Z</time></trkpt><trkpt lat="45.5033017" lon="11.0403"><ele>292.33333333333337</ele><time>2026-04-23T13:59:25.3Z</time></trkpt><trkpt lat="45.5033533" lon="11.040425"><ele>295.0</ele><time>2026-04-23T13:59:26.3Z</time></trkpt><trkpt lat="45.5034" lon="11.0405117"><ele>297.6666666666667</ele><time>2026-04-23T13:59:27.301Z</time></trkpt><trkpt lat="45.50345" lon="11.0405767"><ele>300.3333333333333</ele><time>2026-04-23T13:59:28.3Z</time></trkpt><trkpt lat="45.50351" lon="11.0406083"><ele>303.0</ele><time>2026-04-23T13:59:29.3Z</time></trkpt><trkpt lat="45.503585" lon="11.0405833"><ele>303.0</ele><time>2026-04-23T13:59:30.301Z</time></trkpt><trkpt lat="45.5036817" lon="11.0404067"><ele>303.0</ele><time>2026-04-23T13:59:31.3Z</time></trkpt><trkpt lat="45.503785" lon="11.0403083"><ele>303.0</ele><time>2026-04-23T13:59:32.3Z</time></trkpt><trkpt lat="45.5039017" lon="11.040195"><ele>303.0</ele><time>2026-04-23T13:59:33.3Z</time></trkpt><trkpt lat="45.50402" lon="11.04011"><ele>303.5</ele><time>2026-04-23T13:59:34.3Z</time></trkpt><trkpt lat="45.5041583" lon="11.040045"><ele>304.0</ele><time>2026-04-23T13:59:35.301Z</time></trkpt><trkpt lat="45.5042867" lon="11.0399767"><ele>304.5</ele><time>2026-04-23T13:59:36.3Z</time></trkpt><trkpt lat="45.504395" lon="11.0398967"><ele>305.0</ele><time>2026-04-23T13:59:37.301Z</time></trkpt><trkpt lat="45.5045133" lon="11.0398083"><ele>305.0</ele><time>2026-04-23T13:59:38.301Z</time></trkpt><trkpt lat="45.5046283" lon="11.039705"><ele>305.0</ele><time>2026-04-23T13:59:39.3Z</time></trkpt><trkpt lat="45.504765" lon="11.0396"><ele>305.0</ele><time>2026-04-23T13:59:40.3Z</time></trkpt><trkpt lat="45.50488" lon="11.0394983"><ele>305.0</ele><time>2026-04-23T13:59:41.301Z</time></trkpt><trkpt lat="45.5049933" lon="11.0394"><ele>305.0</ele><time>2026-04-23T13:59:42.3Z</time></trkpt><trkpt lat="45.5051083" lon="11.03928"><ele>305.0</ele><time>2026-04-23T13:59:43.3Z</time></trkpt><trkpt lat="45.50524" lon="11.0391817"><ele>305.0</ele><time>2026-04-23T13:59:44.3Z</time></trkpt><trkpt lat="45.5053683" lon="11.0390917"><ele>305.0</ele><time>2026-04-23T13:59:45.301Z</time></trkpt><trkpt lat="45.5054933" lon="11.0390117"><ele>303.2</ele><time>2026-04-23T13:59:46.3Z</time></trkpt><trkpt lat="45.5056367" lon="11.03896"><ele>301.4</ele><time>2026-04-23T13:59:47.3Z</time></trkpt><trkpt lat="45.5057367" lon="11.038895"><ele>299.6</ele><time>2026-04-23T13:59:48.3Z</time></trkpt><trkpt lat="45.5058217" lon="11.038855"><ele>297.8</ele><time>2026-04-23T13:59:49.3Z</time></trkpt><trkpt lat="45.5058983" lon="11.0388783"><ele>296.0</ele><time>2026-04-23T13:59:52.3Z</time></trkpt><trkpt lat="45.505915" lon="11.03897"><ele>296.0</ele><time>2026-04-23T13:59:54.301Z</time></trkpt><trkpt lat="45.5059483" lon="11.0390667"><ele>296.0</ele><time>2026-04-23T13:59:57.3Z</time></trkpt><trkpt lat="45.5059283" lon="11.039155"><ele>296.0</ele><time>2026-04-23T13:59:59.3Z</time></trkpt><trkpt lat="45.5058933" lon="11.0392717"><ele>296.0</ele><time>2026-04-23T14:00:01.3Z</time></trkpt><trkpt lat="45.5058483" lon="11.039345"><ele>296.0</ele><time>2026-04-23T14:00:02.3Z</time></trkpt><trkpt lat="45.50578" lon="11.0394717"><ele>296.0</ele><time>2026-04-23T14:00:04.3Z</time></trkpt><trkpt lat="45.50575" lon="11.0395767"><ele>300.5</ele><time>2026-04-23T14:00:06.3Z</time></trkpt><trkpt lat="45.5057467" lon="11.039685"><ele>305.0</ele><time>2026-04-23T14:00:09.3Z</time></trkpt><trkpt lat="45.5057817" lon="11.039785"><ele>309.5</ele><time>2026-04-23T14:00:11.301Z</time></trkpt><trkpt lat="45.5057833" lon="11.0398933"><ele>314.0</ele><time>2026-04-23T14:00:14.299Z</time></trkpt><trkpt lat="45.5057733" lon="11.039995"><ele>318.5</ele><time>2026-04-23T14:00:17.299Z</time></trkpt><trkpt lat="45.5057417" lon="11.0401217"><ele>323.0</ele><time>2026-04-23T14:00:19.299Z</time></trkpt><trkpt lat="45.5056933" lon="11.0402667"><ele>327.79999999999995</ele><time>2026-04-23T14:00:21.299Z</time></trkpt><trkpt lat="45.50563" lon="11.040385"><ele>332.6</ele><time>2026-04-23T14:00:23.299Z</time></trkpt><trkpt lat="45.5055583" lon="11.0405117"><ele>337.4</ele><time>2026-04-23T14:00:25.3Z</time></trkpt><trkpt lat="45.505495" lon="11.0406417"><ele>342.20000000000005</ele><time>2026-04-23T14:00:27.299Z</time></trkpt><trkpt lat="45.5054567" lon="11.0407367"><ele>347.0</ele><time>2026-04-23T14:00:29.3Z</time></trkpt><trkpt lat="45.5054383" lon="11.040845"><ele>348.5714285714286</ele><time>2026-04-23T14:00:32.299Z</time></trkpt><trkpt lat="45.5054417" lon="11.0409517"><ele>350.1428571428571</ele><time>2026-04-23T14:00:39.299Z</time></trkpt><trkpt lat="45.5054117" lon="11.04106"><ele>351.7142857142857</ele><time>2026-04-23T14:00:42.299Z</time></trkpt><trkpt lat="45.5054033" lon="11.041155"><ele>353.28571428571433</ele><time>2026-04-23T14:00:45.299Z</time></trkpt><trkpt lat="45.50537" lon="11.041255"><ele>354.8571428571429</ele><time>2026-04-23T14:00:48.3Z</time></trkpt><trkpt lat="45.5053767" lon="11.0413533"><ele>356.42857142857144</ele><time>2026-04-23T14:00:50.3Z</time></trkpt><trkpt lat="45.5053567" lon="11.0414567"><ele>358.0</ele><time>2026-04-23T14:00:54.299Z</time></trkpt><trkpt lat="45.505375" lon="11.0416983"><ele>367.0</ele><time>2026-04-23T14:01:40.3Z</time></trkpt><trkpt lat="45.5054417" lon="11.0417633"><ele>376.0</ele><time>2026-04-23T14:02:32.299Z</time></trkpt><trkpt lat="45.5055167" lon="11.041915"><ele>385.0</ele><time>2026-04-23T14:02:47.298Z</time></trkpt><trkpt lat="45.505555" lon="11.0420383"><ele>394.0</ele><time>2026-04-23T14:02:53.298Z</time></trkpt><trkpt lat="45.5055683" lon="11.0421333"><ele>403.0</ele><time>2026-04-23T14:03:12.298Z</time></trkpt><trkpt lat="45.505645" lon="11.042205"><ele>403.00000000000006</ele><time>2026-04-23T14:11:10.295Z</time></trkpt><trkpt lat="45.50558" lon="11.0422417"><ele>403.0</ele><time>2026-04-23T14:12:02.295Z</time></trkpt><trkpt lat="45.5055433" lon="11.04234"><ele>403.0</ele><time>2026-04-23T14:12:04.295Z</time></trkpt><trkpt lat="45.5055433" lon="11.0424683"><ele>403.0</ele><time>2026-04-23T14:12:06.295Z</time></trkpt><trkpt lat="45.5055333" lon="11.0425983"><ele>403.00000000000006</ele><time>2026-04-23T14:12:08.296Z</time></trkpt><trkpt lat="45.505495" lon="11.0426967"><ele>403.0</ele><time>2026-04-23T14:12:10.295Z</time></trkpt><trkpt lat="45.50547" lon="11.042785"><ele>405.50000000000006</ele><time>2026-04-23T14:12:13.295Z</time></trkpt><trkpt lat="45.50549" lon="11.0428933"><ele>408.0</ele><time>2026-04-23T14:12:16.295Z</time></trkpt><trkpt lat="45.505485" lon="11.04301"><ele>410.5</ele><time>2026-04-23T14:12:20.295Z</time></trkpt><trkpt lat="45.5054617" lon="11.043145"><ele>413.0</ele><time>2026-04-23T14:12:22.295Z</time></trkpt><trkpt lat="45.5054467" lon="11.043255"><ele>415.50000000000006</ele><time>2026-04-23T14:12:24.295Z</time></trkpt><trkpt lat="45.5054317" lon="11.0433767"><ele>418.0</ele><time>2026-04-23T14:12:26.295Z</time></trkpt><trkpt lat="45.505425" lon="11.0435417"><ele>419.2</ele><time>2026-04-23T14:12:28.295Z</time></trkpt><trkpt lat="45.5054367" lon="11.043685"><ele>420.4</ele><time>2026-04-23T14:12:30.295Z</time></trkpt><trkpt lat="45.5054717" lon="11.0438333"><ele>421.59999999999997</ele><time>2026-04-23T14:12:32.295Z</time></trkpt><trkpt lat="45.50548" lon="11.0439917"><ele>422.79999999999995</ele><time>2026-04-23T14:12:34.295Z</time></trkpt><trkpt lat="45.5054733" lon="11.0440817"><ele>424.0</ele><time>2026-04-23T14:12:35.295Z</time></trkpt><trkpt lat="45.505465" lon="11.0441917"><ele>424.5</ele><time>2026-04-23T14:12:36.295Z</time></trkpt><trkpt lat="45.5054483" lon="11.044335"><ele>425.0</ele><time>2026-04-23T14:12:37.295Z</time></trkpt><trkpt lat="45.5054333" lon="11.0444917"><ele>425.5</ele><time>2026-04-23T14:12:38.295Z</time></trkpt><trkpt lat="45.5054033" lon="11.0447317"><ele>426.0</ele><time>2026-04-23T14:12:39.295Z</time></trkpt><trkpt lat="45.5053983" lon="11.0449183"><ele>426.3333333333333</ele><time>2026-04-23T14:12:40.295Z</time></trkpt><trkpt lat="45.5054033" lon="11.0450417"><ele>426.66666666666663</ele><time>2026-04-23T14:12:41.296Z</time></trkpt><trkpt lat="45.5054283" lon="11.045155"><ele>427.0</ele><time>2026-04-23T14:12:42.295Z</time></trkpt><trkpt lat="45.5054467" lon="11.0452667"><ele>427.3333333333333</ele><time>2026-04-23T14:12:43.296Z</time></trkpt><trkpt lat="45.5054617" lon="11.0453833"><ele>427.66666666666663</ele><time>2026-04-23T14:12:44.296Z</time></trkpt><trkpt lat="45.5054817" lon="11.0455033"><ele>428.0</ele><time>2026-04-23T14:12:45.295Z</time></trkpt><trkpt lat="45.5055067" lon="11.0456333"><ele>428.0</ele><time>2026-04-23T14:12:46.295Z</time></trkpt><trkpt lat="45.5055517" lon="11.0457483"><ele>427.99999999999994</ele><time>2026-04-23T14:12:47.295Z</time></trkpt><trkpt lat="45.505585" lon="11.045875"><ele>427.99999999999994</ele><time>2026-04-23T14:12:48.295Z</time></trkpt><trkpt lat="45.5056367" lon="11.04602"><ele>428.0</ele><time>2026-04-23T14:12:49.295Z</time></trkpt><trkpt lat="45.50568" lon="11.0461833"><ele>428.0</ele><time>2026-04-23T14:12:50.295Z</time></trkpt><trkpt lat="45.5057317" lon="11.0463517"><ele>428.5</ele><time>2026-04-23T14:12:51.296Z</time></trkpt><trkpt lat="45.50578" lon="11.0464883"><ele>429.0</ele><time>2026-04-23T14:12:52.295Z</time></trkpt><trkpt lat="45.5058267" lon="11.0466683"><ele>429.5</ele><time>2026-04-23T14:12:53.295Z</time></trkpt><trkpt lat="45.5058467" lon="11.0468483"><ele>430.0</ele><time>2026-04-23T14:12:54.295Z</time></trkpt><trkpt lat="45.50588" lon="11.04703"><ele>429.0</ele><time>2026-04-23T14:12:55.295Z</time></trkpt><trkpt lat="45.50592" lon="11.0472017"><ele>428.0</ele><time>2026-04-23T14:12:56.295Z</time></trkpt><trkpt lat="45.5059533" lon="11.047375"><ele>427.0</ele><time>2026-04-23T14:12:57.295Z</time></trkpt><trkpt lat="45.5059767" lon="11.0475417"><ele>426.0</ele><time>2026-04-23T14:12:58.295Z</time></trkpt><trkpt lat="45.50598" lon="11.04774"><ele>424.20000000000005</ele><time>2026-04-23T14:12:59.295Z</time></trkpt><trkpt lat="45.505995" lon="11.0478967"><ele>422.40000000000003</ele><time>2026-04-23T14:13:00.296Z</time></trkpt><trkpt lat="45.50601" lon="11.0480367"><ele>420.6</ele><time>2026-04-23T14:13:01.295Z</time></trkpt><trkpt lat="45.506025" lon="11.0481767"><ele>418.8</ele><time>2026-04-23T14:13:02.295Z</time></trkpt><trkpt lat="45.506015" lon="11.04831"><ele>417.0</ele><time>2026-04-23T14:13:03.295Z</time></trkpt><trkpt lat="45.50599" lon="11.04843"><ele>415.5</ele><time>2026-04-23T14:13:04.296Z</time></trkpt><trkpt lat="45.5059933" lon="11.0485467"><ele>414.0</ele><time>2026-04-23T14:13:05.295Z</time></trkpt><trkpt lat="45.505995" lon="11.0486667"><ele>412.5</ele><time>2026-04-23T14:13:06.295Z</time></trkpt><trkpt lat="45.506005" lon="11.0487883"><ele>411.0</ele><time>2026-04-23T14:13:07.295Z</time></trkpt><trkpt lat="45.5060417" lon="11.0489283"><ele>409.5</ele><time>2026-04-23T14:13:09.295Z</time></trkpt><trkpt lat="45.5060317" lon="11.0490433"><ele>408.0</ele><time>2026-04-23T14:13:11.295Z</time></trkpt><trkpt lat="45.50599" lon="11.049135"><ele>406.1666666666667</ele><time>2026-04-23T14:13:14.295Z</time></trkpt><trkpt lat="45.5059117" lon="11.0491283"><ele>404.33333333333337</ele><time>2026-04-23T14:13:17.295Z</time></trkpt><trkpt lat="45.5058367" lon="11.0491383"><ele>402.5</ele><time>2026-04-23T14:13:19.295Z</time></trkpt><trkpt lat="45.5057917" lon="11.0492267"><ele>400.6666666666667</ele><time>2026-04-23T14:13:22.296Z</time></trkpt><trkpt lat="45.505805" lon="11.0493417"><ele>398.83333333333337</ele><time>2026-04-23T14:13:25.296Z</time></trkpt><trkpt lat="45.5058283" lon="11.049455"><ele>397.0</ele><time>2026-04-23T14:13:29.295Z</time></trkpt><trkpt lat="45.50584" lon="11.04955"><ele>397.00000000000006</ele><time>2026-04-23T14:13:32.295Z</time></trkpt><trkpt lat="45.5058533" lon="11.0496583"><ele>397.0</ele><time>2026-04-23T14:13:35.294Z</time></trkpt><trkpt lat="45.505915" lon="11.049735"><ele>397.0</ele><time>2026-04-23T14:13:38.294Z</time></trkpt><trkpt lat="45.5059733" lon="11.0498367"><ele>397.0</ele><time>2026-04-23T14:13:41.294Z</time></trkpt><trkpt lat="45.5059967" lon="11.04995"><ele>397.00000000000006</ele><time>2026-04-23T14:13:46.295Z</time></trkpt><trkpt lat="45.5060017" lon="11.05006"><ele>397.0</ele><time>2026-04-23T14:13:49.294Z</time></trkpt><trkpt lat="45.506065" lon="11.0501683"><ele>393.83333333333337</ele><time>2026-04-23T14:13:53.294Z</time></trkpt><trkpt lat="45.5061417" lon="11.0502233"><ele>390.6666666666667</ele><time>2026-04-23T14:13:55.294Z</time></trkpt><trkpt lat="45.50623" lon="11.050265"><ele>387.5</ele><time>2026-04-23T14:13:57.294Z</time></trkpt><trkpt lat="45.5062983" lon="11.0502767"><ele>384.33333333333337</ele><time>2026-04-23T14:14:00.294Z</time></trkpt><trkpt lat="45.5063733" lon="11.0502933"><ele>381.1666666666667</ele><time>2026-04-23T14:14:03.294Z</time></trkpt><trkpt lat="45.5063617" lon="11.050405"><ele>378.0</ele><time>2026-04-23T14:14:08.294Z</time></trkpt><trkpt lat="45.50632" lon="11.0505033"><ele>375.79999999999995</ele><time>2026-04-23T14:14:12.294Z</time></trkpt><trkpt lat="45.5063133" lon="11.05061"><ele>373.6</ele><time>2026-04-23T14:14:15.294Z</time></trkpt><trkpt lat="45.5063867" lon="11.0507217"><ele>371.4</ele><time>2026-04-23T14:14:18.294Z</time></trkpt><trkpt lat="45.5065117" lon="11.0507533"><ele>369.20000000000005</ele><time>2026-04-23T14:14:23.294Z</time></trkpt><trkpt lat="45.5065917" lon="11.0507033"><ele>367.0</ele><time>2026-04-23T14:14:25.295Z</time></trkpt><trkpt lat="45.506665" lon="11.0506417"><ele>367.0</ele><time>2026-04-23T14:14:27.295Z</time></trkpt><trkpt lat="45.5067433" lon="11.0506217"><ele>367.0</ele><time>2026-04-23T14:14:29.294Z</time></trkpt><trkpt lat="45.5068683" lon="11.0505933"><ele>367.0</ele><time>2026-04-23T14:14:31.294Z</time></trkpt><trkpt lat="45.5069683" lon="11.0505933"><ele>367.0</ele><time>2026-04-23T14:14:32.294Z</time></trkpt><trkpt lat="45.5070767" lon="11.0505283"><ele>367.0</ele><time>2026-04-23T14:14:34.294Z</time></trkpt><trkpt lat="45.50713" lon="11.0504617"><ele>361.6</ele><time>2026-04-23T14:14:35.294Z</time></trkpt><trkpt lat="45.5071783" lon="11.0503967"><ele>356.20000000000005</ele><time>2026-04-23T14:14:36.295Z</time></trkpt><trkpt lat="45.507215" lon="11.0503167"><ele>350.8</ele><time>2026-04-23T14:14:37.294Z</time></trkpt><trkpt lat="45.50727" lon="11.0501967"><ele>345.4</ele><time>2026-04-23T14:14:39.295Z</time></trkpt><trkpt lat="45.5073167" lon="11.050125"><ele>340.0</ele><time>2026-04-23T14:14:42.294Z</time></trkpt><trkpt lat="45.5072367" lon="11.0503217"><ele>340.0</ele><time>2026-04-23T14:14:47.294Z</time></trkpt><trkpt lat="45.5071783" lon="11.0504483"><ele>340.0</ele><time>2026-04-23T14:14:48.294Z</time></trkpt><trkpt lat="45.5071367" lon="11.0505617"><ele>340.0</ele><time>2026-04-23T14:14:49.294Z</time></trkpt><trkpt lat="45.5070817" lon="11.05067"><ele>340.0</ele><time>2026-04-23T14:14:50.294Z</time></trkpt><trkpt lat="45.5070483" lon="11.0507833"><ele>340.0</ele><time>2026-04-23T14:14:51.294Z</time></trkpt><trkpt lat="45.507" lon="11.0508833"><ele>341.2</ele><time>2026-04-23T14:14:52.294Z</time></trkpt><trkpt lat="45.506945" lon="11.05099"><ele>342.4</ele><time>2026-04-23T14:14:53.294Z</time></trkpt><trkpt lat="45.5068833" lon="11.0510883"><ele>343.6</ele><time>2026-04-23T14:14:54.294Z</time></trkpt><trkpt lat="45.5068117" lon="11.0511983"><ele>344.8</ele><time>2026-04-23T14:14:55.294Z</time></trkpt><trkpt lat="45.5067417" lon="11.0513"><ele>346.0</ele><time>2026-04-23T14:14:56.295Z</time></trkpt><trkpt lat="45.5066783" lon="11.0513967"><ele>346.0</ele><time>2026-04-23T14:14:57.294Z</time></trkpt><trkpt lat="45.50664" lon="11.0514833"><ele>346.0</ele><time>2026-04-23T14:14:58.294Z</time></trkpt><trkpt lat="45.5066067" lon="11.05156"><ele>346.0</ele><time>2026-04-23T14:14:59.294Z</time></trkpt><trkpt lat="45.50655" lon="11.0516917"><ele>346.0</ele><time>2026-04-23T14:15:01.294Z</time></trkpt><trkpt lat="45.5065283" lon="11.0517767"><ele>346.0</ele><time>2026-04-23T14:15:04.294Z</time></trkpt><trkpt lat="45.50662" lon="11.0517433"><ele>346.0</ele><time>2026-04-23T14:15:08.294Z</time></trkpt><trkpt lat="45.5066767" lon="11.0516833"><ele>346.0</ele><time>2026-04-23T14:15:09.294Z</time></trkpt><trkpt lat="45.5067333" lon="11.0516383"><ele>346.0</ele><time>2026-04-23T14:15:10.294Z</time></trkpt><trkpt lat="45.5067983" lon="11.0515683"><ele>346.0</ele><time>2026-04-23T14:15:12.294Z</time></trkpt><trkpt lat="45.5068667" lon="11.0514867"><ele>346.0</ele><time>2026-04-23T14:15:14.294Z</time></trkpt><trkpt lat="45.5070117" lon="11.0514033"><ele>346.0</ele><time>2026-04-23T14:15:16.295Z</time></trkpt><trkpt lat="45.5071033" lon="11.0513283"><ele>341.5</ele><time>2026-04-23T14:15:17.294Z</time></trkpt><trkpt lat="45.50718" lon="11.0512433"><ele>337.0</ele><time>2026-04-23T14:15:18.294Z</time></trkpt><trkpt lat="45.5072717" lon="11.051195"><ele>332.5</ele><time>2026-04-23T14:15:19.295Z</time></trkpt><trkpt lat="45.5073383" lon="11.0511533"><ele>328.0</ele><time>2026-04-23T14:15:20.295Z</time></trkpt><trkpt lat="45.5074067" lon="11.051125"><ele>323.5</ele><time>2026-04-23T14:15:21.294Z</time></trkpt><trkpt lat="45.5075133" lon="11.0510867"><ele>319.0</ele><time>2026-04-23T14:15:23.294Z</time></trkpt><trkpt lat="45.5075717" lon="11.0510333"><ele>319.0</ele><time>2026-04-23T14:15:26.294Z</time></trkpt><trkpt lat="45.5076283" lon="11.050985"><ele>319.0</ele><time>2026-04-23T14:15:28.295Z</time></trkpt><trkpt lat="45.507705" lon="11.0509567"><ele>319.0</ele><time>2026-04-23T14:15:31.294Z</time></trkpt><trkpt lat="45.507745" lon="11.0510317"><ele>319.0</ele><time>2026-04-23T14:15:33.295Z</time></trkpt><trkpt lat="45.5078283" lon="11.0511217"><ele>319.0</ele><time>2026-04-23T14:15:36.294Z</time></trkpt><trkpt lat="45.5079317" lon="11.0512"><ele>319.0</ele><time>2026-04-23T14:15:38.294Z</time></trkpt><trkpt lat="45.5079933" lon="11.0512283"><ele>319.6</ele><time>2026-04-23T14:15:39.294Z</time></trkpt><trkpt lat="45.5080867" lon="11.051275"><ele>320.2</ele><time>2026-04-23T14:15:41.295Z</time></trkpt><trkpt lat="45.5081383" lon="11.0512183"><ele>320.8</ele><time>2026-04-23T14:15:42.294Z</time></trkpt><trkpt lat="45.5082217" lon="11.0512083"><ele>321.40000000000003</ele><time>2026-04-23T14:15:44.294Z</time></trkpt><trkpt lat="45.5083283" lon="11.0511633"><ele>322.0</ele><time>2026-04-23T14:15:46.294Z</time></trkpt><trkpt lat="45.5084283" lon="11.0511383"><ele>322.0</ele><time>2026-04-23T14:15:48.294Z</time></trkpt><trkpt lat="45.5085467" lon="11.05111"><ele>322.0</ele><time>2026-04-23T14:15:50.294Z</time></trkpt><trkpt lat="45.5086217" lon="11.0511133"><ele>322.0</ele><time>2026-04-23T14:15:51.294Z</time></trkpt><trkpt lat="45.50873" lon="11.0510767"><ele>322.0</ele><time>2026-04-23T14:15:53.294Z</time></trkpt><trkpt lat="45.5087933" lon="11.0510567"><ele>322.0</ele><time>2026-04-23T14:15:54.294Z</time></trkpt><trkpt lat="45.5088117" lon="11.0509383"><ele>322.0</ele><time>2026-04-23T14:15:56.294Z</time></trkpt><trkpt lat="45.508835" lon="11.0508417"><ele>322.0</ele><time>2026-04-23T14:15:58.293Z</time></trkpt><trkpt lat="45.5088833" lon="11.050775"><ele>322.0</ele><time>2026-04-23T14:16:00.294Z</time></trkpt><trkpt lat="45.5089533" lon="11.0507983"><ele>322.0</ele><time>2026-04-23T14:16:03.293Z</time></trkpt><trkpt lat="45.5089933" lon="11.0508867"><ele>322.0</ele><time>2026-04-23T14:16:06.294Z</time></trkpt><trkpt lat="45.5090983" lon="11.0509333"><ele>322.0</ele><time>2026-04-23T14:16:09.293Z</time></trkpt><trkpt lat="45.5091867" lon="11.050945"><ele>322.0</ele><time>2026-04-23T14:16:11.293Z</time></trkpt><trkpt lat="45.50927" lon="11.0509917"><ele>322.0</ele><time>2026-04-23T14:16:12.293Z</time></trkpt><trkpt lat="45.509365" lon="11.05106"><ele>322.0</ele><time>2026-04-23T14:16:14.293Z</time></trkpt><trkpt lat="45.5094433" lon="11.0511067"><ele>322.0</ele><time>2026-04-23T14:16:15.293Z</time></trkpt><trkpt lat="45.5094033" lon="11.051265"><ele>322.0</ele><time>2026-04-23T14:16:18.293Z</time></trkpt><trkpt lat="45.5093217" lon="11.0514"><ele>322.0</ele><time>2026-04-23T14:16:20.293Z</time></trkpt><trkpt lat="45.5092567" lon="11.0514633"><ele>322.0</ele><time>2026-04-23T14:16:21.293Z</time></trkpt><trkpt lat="45.5091983" lon="11.0515183"><ele>322.0</ele><time>2026-04-23T14:16:22.293Z</time></trkpt><trkpt lat="45.5091483" lon="11.0515733"><ele>322.0</ele><time>2026-04-23T14:16:23.293Z</time></trkpt><trkpt lat="45.50909" lon="11.0517267"><ele>322.0</ele><time>2026-04-23T14:16:25.293Z</time></trkpt><trkpt lat="45.5090767" lon="11.0518167"><ele>322.0</ele><time>2026-04-23T14:16:26.294Z</time></trkpt><trkpt lat="45.5090583" lon="11.0519717"><ele>322.0</ele><time>2026-04-23T14:16:28.293Z</time></trkpt><trkpt lat="45.50904" lon="11.05213"><ele>322.0</ele><time>2026-04-23T14:16:30.293Z</time></trkpt><trkpt lat="45.50903" lon="11.0522933"><ele>322.0</ele><time>2026-04-23T14:16:32.293Z</time></trkpt><trkpt lat="45.509" lon="11.0524067"><ele>322.0</ele><time>2026-04-23T14:16:33.293Z</time></trkpt><trkpt lat="45.5089767" lon="11.05252"><ele>322.0</ele><time>2026-04-23T14:16:34.293Z</time></trkpt><trkpt lat="45.5089533" lon="11.052635"><ele>322.8333333333333</ele><time>2026-04-23T14:16:35.293Z</time></trkpt><trkpt lat="45.508925" lon="11.0527567"><ele>323.66666666666663</ele><time>2026-04-23T14:16:36.293Z</time></trkpt><trkpt lat="45.5089017" lon="11.0528817"><ele>324.5</ele><time>2026-04-23T14:16:37.293Z</time></trkpt><trkpt lat="45.5088967" lon="11.0529833"><ele>325.3333333333333</ele><time>2026-04-23T14:16:38.293Z</time></trkpt><trkpt lat="45.5088567" lon="11.0530933"><ele>326.1666666666667</ele><time>2026-04-23T14:16:39.293Z</time></trkpt><trkpt lat="45.5088033" lon="11.053205"><ele>327.0</ele><time>2026-04-23T14:16:40.293Z</time></trkpt><trkpt lat="45.5087617" lon="11.0533183"><ele>321.8333333333333</ele><time>2026-04-23T14:16:41.293Z</time></trkpt><trkpt lat="45.50868" lon="11.0534133"><ele>316.6666666666667</ele><time>2026-04-23T14:16:42.294Z</time></trkpt><trkpt lat="45.5086667" lon="11.053515"><ele>311.5</ele><time>2026-04-23T14:16:43.293Z</time></trkpt><trkpt lat="45.5086433" lon="11.0536267"><ele>306.33333333333337</ele><time>2026-04-23T14:16:44.293Z</time></trkpt><trkpt lat="45.5085983" lon="11.0537517"><ele>301.1666666666667</ele><time>2026-04-23T14:16:45.293Z</time></trkpt><trkpt lat="45.508575" lon="11.0538483"><ele>296.0</ele><time>2026-04-23T14:16:46.293Z</time></trkpt><trkpt lat="45.5085217" lon="11.054005"><ele>298.1666666666667</ele><time>2026-04-23T14:16:47.293Z</time></trkpt><trkpt lat="45.5084967" lon="11.054125"><ele>300.33333333333337</ele><time>2026-04-23T14:16:48.294Z</time></trkpt><trkpt lat="45.50848" lon="11.054255"><ele>302.5</ele><time>2026-04-23T14:16:49.293Z</time></trkpt><trkpt lat="45.5084633" lon="11.0543617"><ele>304.6666666666667</ele><time>2026-04-23T14:16:50.293Z</time></trkpt><trkpt lat="45.5084617" lon="11.0544733"><ele>306.8333333333333</ele><time>2026-04-23T14:16:51.293Z</time></trkpt><trkpt lat="45.50846" lon="11.0545633"><ele>309.0</ele><time>2026-04-23T14:16:52.294Z</time></trkpt><trkpt lat="45.50849" lon="11.0546733"><ele>309.00000000000006</ele><time>2026-04-23T14:16:54.293Z</time></trkpt><trkpt lat="45.5085617" lon="11.054645"><ele>309.0</ele><time>2026-04-23T14:16:56.294Z</time></trkpt><trkpt lat="45.5086267" lon="11.054625"><ele>309.0</ele><time>2026-04-23T14:16:58.293Z</time></trkpt><trkpt lat="45.5086967" lon="11.0545483"><ele>309.0</ele><time>2026-04-23T14:17:01.293Z</time></trkpt><trkpt lat="45.508755" lon="11.0545067"><ele>309.0</ele><time>2026-04-23T14:17:05.294Z</time></trkpt><trkpt lat="45.50882" lon="11.0545717"><ele>309.00000000000006</ele><time>2026-04-23T14:17:08.294Z</time></trkpt><trkpt lat="45.5088933" lon="11.054555"><ele>309.0</ele><time>2026-04-23T14:17:11.293Z</time></trkpt><trkpt lat="45.509025" lon="11.054555"><ele>314.3333333333333</ele><time>2026-04-23T14:17:31.293Z</time></trkpt><trkpt lat="45.5090883" lon="11.0545367"><ele>319.6666666666667</ele><time>2026-04-23T14:17:37.293Z</time></trkpt><trkpt lat="45.5091583" lon="11.054515"><ele>325.0</ele><time>2026-04-23T14:17:43.293Z</time></trkpt><trkpt lat="45.5092817" lon="11.0544467"><ele>330.33333333333337</ele><time>2026-04-23T14:17:56.293Z</time></trkpt><trkpt lat="45.5093567" lon="11.054425"><ele>335.6666666666667</ele><time>2026-04-23T14:18:01.293Z</time></trkpt><trkpt lat="45.5094233" lon="11.0543667"><ele>341.0</ele><time>2026-04-23T14:18:04.293Z</time></trkpt><trkpt lat="45.5095067" lon="11.0543333"><ele>341.0</ele><time>2026-04-23T14:18:06.293Z</time></trkpt><trkpt lat="45.50957" lon="11.0543783"><ele>341.0</ele><time>2026-04-23T14:18:10.293Z</time></trkpt><trkpt lat="45.5096417" lon="11.0544083"><ele>341.0</ele><time>2026-04-23T14:18:13.293Z</time></trkpt><trkpt lat="45.509705" lon="11.05439"><ele>341.0</ele><time>2026-04-23T14:18:19.293Z</time></trkpt><trkpt lat="45.5097683" lon="11.0544333"><ele>341.0</ele><time>2026-04-23T14:18:22.294Z</time></trkpt><trkpt lat="45.5098233" lon="11.0545183"><ele>341.0</ele><time>2026-04-23T14:18:24.293Z</time></trkpt><trkpt lat="45.5099033" lon="11.0545783"><ele>345.5</ele><time>2026-04-23T14:18:26.293Z</time></trkpt><trkpt lat="45.5099783" lon="11.0545883"><ele>350.0</ele><time>2026-04-23T14:18:28.293Z</time></trkpt><trkpt lat="45.5100367" lon="11.0545467"><ele>354.5</ele><time>2026-04-23T14:18:30.294Z</time></trkpt><trkpt lat="45.5100967" lon="11.0544817"><ele>359.0</ele><time>2026-04-23T14:18:33.293Z</time></trkpt><trkpt lat="45.5101767" lon="11.0544967"><ele>363.5</ele><time>2026-04-23T14:18:36.292Z</time></trkpt><trkpt lat="45.510245" lon="11.0545083"><ele>368.0</ele><time>2026-04-23T14:18:38.292Z</time></trkpt><trkpt lat="45.51033" lon="11.0545517"><ele>368.0</ele><time>2026-04-23T14:18:41.292Z</time></trkpt><trkpt lat="45.5104067" lon="11.0545717"><ele>368.0</ele><time>2026-04-23T14:18:44.292Z</time></trkpt><trkpt lat="45.5104633" lon="11.0546217"><ele>368.0</ele><time>2026-04-23T14:18:46.293Z</time></trkpt><trkpt lat="45.5105533" lon="11.054675"><ele>368.0</ele><time>2026-04-23T14:18:48.292Z</time></trkpt><trkpt lat="45.5106267" lon="11.0547167"><ele>368.0</ele><time>2026-04-23T14:18:50.292Z</time></trkpt><trkpt lat="45.5107017" lon="11.0546717"><ele>368.0</ele><time>2026-04-23T14:18:53.292Z</time></trkpt><trkpt lat="45.510765" lon="11.0545983"><ele>371.1666666666667</ele><time>2026-04-23T14:18:56.293Z</time></trkpt><trkpt lat="45.510835" lon="11.05452"><ele>374.33333333333337</ele><time>2026-04-23T14:18:59.292Z</time></trkpt><trkpt lat="45.5109017" lon="11.0545533"><ele>377.5</ele><time>2026-04-23T14:19:01.292Z</time></trkpt><trkpt lat="45.5109383" lon="11.0546517"><ele>380.6666666666667</ele><time>2026-04-23T14:19:03.292Z</time></trkpt><trkpt lat="45.5109283" lon="11.0547483"><ele>383.8333333333333</ele><time>2026-04-23T14:19:04.292Z</time></trkpt><trkpt lat="45.510955" lon="11.0548633"><ele>387.0</ele><time>2026-04-23T14:19:06.293Z</time></trkpt><trkpt lat="45.5109833" lon="11.0549833"><ele>387.0</ele><time>2026-04-23T14:19:09.292Z</time></trkpt><trkpt lat="45.5110367" lon="11.0550833"><ele>387.0</ele><time>2026-04-23T14:19:11.292Z</time></trkpt><trkpt lat="45.51113" lon="11.0552267"><ele>387.0</ele><time>2026-04-23T14:19:13.293Z</time></trkpt><trkpt lat="45.51118" lon="11.0553067"><ele>387.0</ele><time>2026-04-23T14:19:14.293Z</time></trkpt><trkpt lat="45.5112317" lon="11.0553833"><ele>387.0</ele><time>2026-04-23T14:19:15.292Z</time></trkpt><trkpt lat="45.5113133" lon="11.0555367"><ele>388.8333333333333</ele><time>2026-04-23T14:19:17.292Z</time></trkpt><trkpt lat="45.5113717" lon="11.0556283"><ele>390.66666666666663</ele><time>2026-04-23T14:19:18.292Z</time></trkpt><trkpt lat="45.5114233" lon="11.0557167"><ele>392.5</ele><time>2026-04-23T14:19:19.292Z</time></trkpt><trkpt lat="45.5114817" lon="11.0558183"><ele>394.3333333333333</ele><time>2026-04-23T14:19:20.292Z</time></trkpt><trkpt lat="45.51153" lon="11.0559067"><ele>396.16666666666663</ele><time>2026-04-23T14:19:21.292Z</time></trkpt><trkpt lat="45.5115867" lon="11.055995"><ele>398.0</ele><time>2026-04-23T14:19:22.292Z</time></trkpt><trkpt lat="45.5116433" lon="11.0560717"><ele>397.99999999999994</ele><time>2026-04-23T14:19:23.292Z</time></trkpt><trkpt lat="45.51171" lon="11.0561733"><ele>398.0</ele><time>2026-04-23T14:19:24.292Z</time></trkpt><trkpt lat="45.511775" lon="11.0562633"><ele>398.0</ele><time>2026-04-23T14:19:25.292Z</time></trkpt><trkpt lat="45.5118283" lon="11.0563433"><ele>398.0</ele><time>2026-04-23T14:19:26.292Z</time></trkpt><trkpt lat="45.5118833" lon="11.056415"><ele>397.99999999999994</ele><time>2026-04-23T14:19:27.292Z</time></trkpt><trkpt lat="45.51194" lon="11.0564767"><ele>398.0</ele><time>2026-04-23T14:19:28.292Z</time></trkpt><trkpt lat="45.5119933" lon="11.0565333"><ele>397.99999999999994</ele><time>2026-04-23T14:19:29.292Z</time></trkpt><trkpt lat="45.5120467" lon="11.056585"><ele>398.0</ele><time>2026-04-23T14:19:30.292Z</time></trkpt><trkpt lat="45.5120917" lon="11.0566517"><ele>398.0</ele><time>2026-04-23T14:19:31.293Z</time></trkpt><trkpt lat="45.51217" lon="11.0567467"><ele>398.0</ele><time>2026-04-23T14:19:33.293Z</time></trkpt><trkpt lat="45.5122217" lon="11.05687"><ele>397.99999999999994</ele><time>2026-04-23T14:20:05.292Z</time></trkpt><trkpt lat="45.5122883" lon="11.05691"><ele>398.0</ele><time>2026-04-23T14:20:07.292Z</time></trkpt><trkpt lat="45.5123617" lon="11.0569767"><ele>399.49999999999994</ele><time>2026-04-23T14:20:09.292Z</time></trkpt><trkpt lat="45.5124217" lon="11.0570333"><ele>401.0</ele><time>2026-04-23T14:20:10.292Z</time></trkpt><trkpt lat="45.512485" lon="11.057085"><ele>402.5</ele><time>2026-04-23T14:20:11.293Z</time></trkpt><trkpt lat="45.5125517" lon="11.05712"><ele>404.0</ele><time>2026-04-23T14:20:12.292Z</time></trkpt><trkpt lat="45.5126183" lon="11.0571833"><ele>405.49999999999994</ele><time>2026-04-23T14:20:13.292Z</time></trkpt><trkpt lat="45.5126817" lon="11.0572433"><ele>407.0</ele><time>2026-04-23T14:20:14.292Z</time></trkpt><trkpt lat="45.5127433" lon="11.0573133"><ele>406.99999999999994</ele><time>2026-04-23T14:20:15.292Z</time></trkpt><trkpt lat="45.5128" lon="11.0573733"><ele>407.0</ele><time>2026-04-23T14:20:16.293Z</time></trkpt><trkpt lat="45.5128667" lon="11.057405"><ele>407.0</ele><time>2026-04-23T14:20:17.292Z</time></trkpt><trkpt lat="45.5129467" lon="11.05746"><ele>407.0</ele><time>2026-04-23T14:20:18.292Z</time></trkpt><trkpt lat="45.513025" lon="11.0575167"><ele>406.99999999999994</ele><time>2026-04-23T14:20:19.292Z</time></trkpt><trkpt lat="45.513115" lon="11.0575617"><ele>407.0</ele><time>2026-04-23T14:20:20.292Z</time></trkpt><trkpt lat="45.5132033" lon="11.0576033"><ele>408.40000000000003</ele><time>2026-04-23T14:20:21.292Z</time></trkpt><trkpt lat="45.5132767" lon="11.0576317"><ele>409.8</ele><time>2026-04-23T14:20:22.292Z</time></trkpt><trkpt lat="45.5133717" lon="11.0577417"><ele>411.2</ele><time>2026-04-23T14:20:24.292Z</time></trkpt><trkpt lat="45.5134567" lon="11.057815"><ele>412.6</ele><time>2026-04-23T14:20:26.292Z</time></trkpt><trkpt lat="45.5135267" lon="11.0577817"><ele>414.0</ele><time>2026-04-23T14:20:28.292Z</time></trkpt><trkpt lat="45.5135967" lon="11.0576733"><ele>414.0</ele><time>2026-04-23T14:20:30.293Z</time></trkpt><trkpt lat="45.5136783" lon="11.0575967"><ele>414.0</ele><time>2026-04-23T14:20:32.293Z</time></trkpt><trkpt lat="45.51375" lon="11.0575233"><ele>414.0</ele><time>2026-04-23T14:20:34.292Z</time></trkpt><trkpt lat="45.5137833" lon="11.0574233"><ele>414.0</ele><time>2026-04-23T14:20:36.292Z</time></trkpt><trkpt lat="45.5138467" lon="11.0572733"><ele>414.0</ele><time>2026-04-23T14:20:38.293Z</time></trkpt><trkpt lat="45.5138867" lon="11.05719"><ele>416.28571428571433</ele><time>2026-04-23T14:20:39.292Z</time></trkpt><trkpt lat="45.5139317" lon="11.05711"><ele>418.57142857142856</ele><time>2026-04-23T14:20:40.292Z</time></trkpt><trkpt lat="45.5139733" lon="11.057035"><ele>420.8571428571429</ele><time>2026-04-23T14:20:41.292Z</time></trkpt><trkpt lat="45.5140167" lon="11.0569683"><ele>423.14285714285717</ele><time>2026-04-23T14:20:42.292Z</time></trkpt><trkpt lat="45.5140483" lon="11.0568883"><ele>425.42857142857144</ele><time>2026-04-23T14:20:43.292Z</time></trkpt><trkpt lat="45.5140833" lon="11.05678"><ele>427.7142857142857</ele><time>2026-04-23T14:20:44.293Z</time></trkpt><trkpt lat="45.51414" lon="11.056665"><ele>430.0</ele><time>2026-04-23T14:20:45.292Z</time></trkpt><trkpt lat="45.51423" lon="11.0565517"><ele>432.0</ele><time>2026-04-23T14:20:46.292Z</time></trkpt><trkpt lat="45.51433" lon="11.0564517"><ele>434.0</ele><time>2026-04-23T14:20:47.292Z</time></trkpt><trkpt lat="45.51437" lon="11.0563467"><ele>436.0</ele><time>2026-04-23T14:20:48.292Z</time></trkpt><trkpt lat="45.5144133" lon="11.056225"><ele>438.0</ele><time>2026-04-23T14:20:49.292Z</time></trkpt><trkpt lat="45.5144867" lon="11.0561283"><ele>440.0</ele><time>2026-04-23T14:20:50.293Z</time></trkpt><trkpt lat="45.5145633" lon="11.0560217"><ele>440.4</ele><time>2026-04-23T14:20:51.292Z</time></trkpt><trkpt lat="45.514635" lon="11.0559067"><ele>440.8</ele><time>2026-04-23T14:20:52.292Z</time></trkpt><trkpt lat="45.5147033" lon="11.055785"><ele>441.20000000000005</ele><time>2026-04-23T14:20:53.292Z</time></trkpt><trkpt lat="45.51477" lon="11.0556667"><ele>441.6</ele><time>2026-04-23T14:20:54.292Z</time></trkpt><trkpt lat="45.51485" lon="11.0555583"><ele>442.0</ele><time>2026-04-23T14:20:55.292Z</time></trkpt><trkpt lat="45.51489" lon="11.0554433"><ele>442.0</ele><time>2026-04-23T14:20:56.292Z</time></trkpt><trkpt lat="45.514955" lon="11.055325"><ele>442.00000000000006</ele><time>2026-04-23T14:20:57.292Z</time></trkpt><trkpt lat="45.5150067" lon="11.0551933"><ele>442.00000000000006</ele><time>2026-04-23T14:20:58.292Z</time></trkpt><trkpt lat="45.5150633" lon="11.05506"><ele>442.0</ele><time>2026-04-23T14:20:59.292Z</time></trkpt><trkpt lat="45.5151183" lon="11.05492"><ele>442.0</ele><time>2026-04-23T14:21:00.292Z</time></trkpt><trkpt lat="45.51518" lon="11.0547933"><ele>443.5</ele><time>2026-04-23T14:21:01.292Z</time></trkpt><trkpt lat="45.5152317" lon="11.0546467"><ele>445.0</ele><time>2026-04-23T14:21:02.292Z</time></trkpt><trkpt lat="45.5152933" lon="11.0544983"><ele>446.5</ele><time>2026-04-23T14:21:03.292Z</time></trkpt><trkpt lat="45.515345" lon="11.05434"><ele>448.0</ele><time>2026-04-23T14:21:04.292Z</time></trkpt><trkpt lat="45.5153833" lon="11.054185"><ele>448.00000000000006</ele><time>2026-04-23T14:21:05.292Z</time></trkpt><trkpt lat="45.51539" lon="11.0540933"><ele>448.0</ele><time>2026-04-23T14:21:06.292Z</time></trkpt><trkpt lat="45.5154467" lon="11.053935"><ele>448.0</ele><time>2026-04-23T14:21:08.293Z</time></trkpt><trkpt lat="45.5155067" lon="11.05388"><ele>448.0</ele><time>2026-04-23T14:21:09.291Z</time></trkpt><trkpt lat="45.5155733" lon="11.05381"><ele>448.00000000000006</ele><time>2026-04-23T14:21:10.292Z</time></trkpt><trkpt lat="45.51565" lon="11.0537383"><ele>448.0</ele><time>2026-04-23T14:21:11.291Z</time></trkpt><trkpt lat="45.5157317" lon="11.0536433"><ele>448.0</ele><time>2026-04-23T14:21:12.292Z</time></trkpt><trkpt lat="45.515815" lon="11.053535"><ele>447.99999999999994</ele><time>2026-04-23T14:21:13.291Z</time></trkpt><trkpt lat="45.5159" lon="11.0534317"><ele>447.99999999999994</ele><time>2026-04-23T14:21:14.291Z</time></trkpt><trkpt lat="45.51598" lon="11.053335"><ele>448.0</ele><time>2026-04-23T14:21:15.291Z</time></trkpt><trkpt lat="45.5160617" lon="11.0532383"><ele>448.0</ele><time>2026-04-23T14:21:16.291Z</time></trkpt><trkpt lat="45.51615" lon="11.05313"><ele>450.0</ele><time>2026-04-23T14:21:17.291Z</time></trkpt><trkpt lat="45.5162433" lon="11.0530183"><ele>452.0</ele><time>2026-04-23T14:21:18.291Z</time></trkpt><trkpt lat="45.51636" lon="11.0529"><ele>454.0</ele><time>2026-04-23T14:21:19.291Z</time></trkpt><trkpt lat="45.516475" lon="11.0527767"><ele>456.0</ele><time>2026-04-23T14:21:20.291Z</time></trkpt><trkpt lat="45.516585" lon="11.0526717"><ele>456.0</ele><time>2026-04-23T14:21:21.291Z</time></trkpt><trkpt lat="45.5166933" lon="11.0526017"><ele>456.0</ele><time>2026-04-23T14:21:22.291Z</time></trkpt><trkpt lat="45.51678" lon="11.0525283"><ele>456.0</ele><time>2026-04-23T14:21:23.292Z</time></trkpt><trkpt lat="45.5168533" lon="11.0524667"><ele>456.0</ele><time>2026-04-23T14:21:24.291Z</time></trkpt><trkpt lat="45.5169367" lon="11.0523767"><ele>456.0</ele><time>2026-04-23T14:21:25.291Z</time></trkpt><trkpt lat="45.5170017" lon="11.052295"><ele>456.5</ele><time>2026-04-23T14:21:26.291Z</time></trkpt><trkpt lat="45.517065" lon="11.0522317"><ele>457.0</ele><time>2026-04-23T14:21:27.292Z</time></trkpt><trkpt lat="45.51718" lon="11.0521167"><ele>457.5</ele><time>2026-04-23T14:21:29.291Z</time></trkpt><trkpt lat="45.51725" lon="11.0520933"><ele>458.0</ele><time>2026-04-23T14:21:30.291Z</time></trkpt><trkpt lat="45.5173233" lon="11.0520883"><ele>458.5</ele><time>2026-04-23T14:21:31.291Z</time></trkpt><trkpt lat="45.5174033" lon="11.0520783"><ele>459.0</ele><time>2026-04-23T14:21:32.291Z</time></trkpt><trkpt lat="45.5174817" lon="11.052075"><ele>460.6666666666667</ele><time>2026-04-23T14:21:33.291Z</time></trkpt><trkpt lat="45.5175467" lon="11.0520567"><ele>462.33333333333337</ele><time>2026-04-23T14:21:34.291Z</time></trkpt><trkpt lat="45.5176133" lon="11.0520217"><ele>464.0</ele><time>2026-04-23T14:21:35.291Z</time></trkpt><trkpt lat="45.5176733" lon="11.051895"><ele>465.6666666666667</ele><time>2026-04-23T14:21:37.291Z</time></trkpt><trkpt lat="45.51773" lon="11.0517567"><ele>467.33333333333337</ele><time>2026-04-23T14:21:39.291Z</time></trkpt><trkpt lat="45.5177667" lon="11.0516483"><ele>469.0</ele><time>2026-04-23T14:21:40.291Z</time></trkpt><trkpt lat="45.5178233" lon="11.0515767"><ele>471.2</ele><time>2026-04-23T14:21:41.291Z</time></trkpt><trkpt lat="45.5179083" lon="11.05149"><ele>473.4</ele><time>2026-04-23T14:21:42.291Z</time></trkpt><trkpt lat="45.517995" lon="11.051405"><ele>475.6</ele><time>2026-04-23T14:21:43.292Z</time></trkpt><trkpt lat="45.5180867" lon="11.0513383"><ele>477.8</ele><time>2026-04-23T14:21:44.291Z</time></trkpt><trkpt lat="45.5181633" lon="11.0512833"><ele>480.0</ele><time>2026-04-23T14:21:45.291Z</time></trkpt><trkpt lat="45.5182317" lon="11.051245"><ele>480.0</ele><time>2026-04-23T14:21:46.291Z</time></trkpt><trkpt lat="45.5183017" lon="11.05122"><ele>480.0</ele><time>2026-04-23T14:21:47.291Z</time></trkpt><trkpt lat="45.5183933" lon="11.0511883"><ele>480.0</ele><time>2026-04-23T14:21:48.291Z</time></trkpt><trkpt lat="45.51854" lon="11.051185"><ele>480.0</ele><time>2026-04-23T14:21:49.291Z</time></trkpt><trkpt lat="45.5186683" lon="11.05117"><ele>480.0</ele><time>2026-04-23T14:21:50.291Z</time></trkpt><trkpt lat="45.5187983" lon="11.0511583"><ele>479.0</ele><time>2026-04-23T14:21:51.291Z</time></trkpt><trkpt lat="45.518925" lon="11.0511367"><ele>478.0</ele><time>2026-04-23T14:21:52.291Z</time></trkpt><trkpt lat="45.5190567" lon="11.0511283"><ele>477.0</ele><time>2026-04-23T14:21:53.291Z</time></trkpt><trkpt lat="45.519195" lon="11.051125"><ele>476.0</ele><time>2026-04-23T14:21:54.291Z</time></trkpt><trkpt lat="45.5193317" lon="11.0511083"><ele>476.0</ele><time>2026-04-23T14:21:55.292Z</time></trkpt><trkpt lat="45.5194633" lon="11.0510683"><ele>476.0</ele><time>2026-04-23T14:21:56.291Z</time></trkpt><trkpt lat="45.5195883" lon="11.05102"><ele>476.0</ele><time>2026-04-23T14:21:57.291Z</time></trkpt><trkpt lat="45.5197117" lon="11.0509717"><ele>476.0</ele><time>2026-04-23T14:21:58.291Z</time></trkpt><trkpt lat="45.5198367" lon="11.0509117"><ele>475.5</ele><time>2026-04-23T14:21:59.292Z</time></trkpt><trkpt lat="45.5199567" lon="11.050865"><ele>475.0</ele><time>2026-04-23T14:22:00.291Z</time></trkpt><trkpt lat="45.5200667" lon="11.050785"><ele>474.5</ele><time>2026-04-23T14:22:01.291Z</time></trkpt><trkpt lat="45.520195" lon="11.05075"><ele>474.0</ele><time>2026-04-23T14:22:02.291Z</time></trkpt><trkpt lat="45.520315" lon="11.0507367"><ele>470.25</ele><time>2026-04-23T14:22:03.291Z</time></trkpt><trkpt lat="45.520445" lon="11.0506917"><ele>466.5</ele><time>2026-04-23T14:22:04.291Z</time></trkpt><trkpt lat="45.52057" lon="11.0506533"><ele>462.75</ele><time>2026-04-23T14:22:05.291Z</time></trkpt><trkpt lat="45.5207033" lon="11.050625"><ele>459.0</ele><time>2026-04-23T14:22:06.291Z</time></trkpt><trkpt lat="45.5208217" lon="11.050595"><ele>459.0</ele><time>2026-04-23T14:22:07.291Z</time></trkpt><trkpt lat="45.5209483" lon="11.0505433"><ele>459.0</ele><time>2026-04-23T14:22:08.292Z</time></trkpt><trkpt lat="45.52105" lon="11.0504867"><ele>459.0</ele><time>2026-04-23T14:22:09.291Z</time></trkpt><trkpt lat="45.5211717" lon="11.0504717"><ele>459.0</ele><time>2026-04-23T14:22:10.291Z</time></trkpt><trkpt lat="45.5213083" lon="11.050485"><ele>459.66666666666663</ele><time>2026-04-23T14:22:11.292Z</time></trkpt><trkpt lat="45.5214433" lon="11.0504983"><ele>460.3333333333333</ele><time>2026-04-23T14:22:12.292Z</time></trkpt><trkpt lat="45.5216083" lon="11.05055"><ele>461.0</ele><time>2026-04-23T14:22:13.291Z</time></trkpt><trkpt lat="45.5217683" lon="11.0505617"><ele>461.0</ele><time>2026-04-23T14:22:14.291Z</time></trkpt><trkpt lat="45.521905" lon="11.0505833"><ele>461.0</ele><time>2026-04-23T14:22:15.291Z</time></trkpt><trkpt lat="45.5220367" lon="11.0506267"><ele>461.0</ele><time>2026-04-23T14:22:16.291Z</time></trkpt><trkpt lat="45.5221667" lon="11.0507033"><ele>461.0</ele><time>2026-04-23T14:22:17.291Z</time></trkpt><trkpt lat="45.522305" lon="11.0507483"><ele>461.5</ele><time>2026-04-23T14:22:18.291Z</time></trkpt><trkpt lat="45.52241" lon="11.0508333"><ele>462.0</ele><time>2026-04-23T14:22:19.292Z</time></trkpt><trkpt lat="45.522525" lon="11.0508833"><ele>462.5</ele><time>2026-04-23T14:22:20.292Z</time></trkpt><trkpt lat="45.5226317" lon="11.05092"><ele>463.0</ele><time>2026-04-23T14:22:21.291Z</time></trkpt><trkpt lat="45.522765" lon="11.0509517"><ele>462.33333333333337</ele><time>2026-04-23T14:22:22.291Z</time></trkpt><trkpt lat="45.52291" lon="11.05094"><ele>461.66666666666663</ele><time>2026-04-23T14:22:23.292Z</time></trkpt><trkpt lat="45.5230633" lon="11.0509183"><ele>461.0</ele><time>2026-04-23T14:22:24.291Z</time></trkpt><trkpt lat="45.5232133" lon="11.0508733"><ele>461.0</ele><time>2026-04-23T14:22:25.291Z</time></trkpt><trkpt lat="45.5233633" lon="11.0508083"><ele>461.0</ele><time>2026-04-23T14:22:26.292Z</time></trkpt><trkpt lat="45.5235167" lon="11.05075"><ele>461.0</ele><time>2026-04-23T14:22:27.291Z</time></trkpt><trkpt lat="45.5236483" lon="11.0506933"><ele>462.25</ele><time>2026-04-23T14:22:28.292Z</time></trkpt><trkpt lat="45.5237617" lon="11.0506383"><ele>463.5</ele><time>2026-04-23T14:22:29.291Z</time></trkpt><trkpt lat="45.5238983" lon="11.0506"><ele>464.75</ele><time>2026-04-23T14:22:30.291Z</time></trkpt><trkpt lat="45.5240167" lon="11.0505817"><ele>466.0</ele><time>2026-04-23T14:22:31.291Z</time></trkpt><trkpt lat="45.5240933" lon="11.0505467"><ele>466.0</ele><time>2026-04-23T14:22:32.291Z</time></trkpt><trkpt lat="45.5241867" lon="11.0505933"><ele>466.0</ele><time>2026-04-23T14:22:34.291Z</time></trkpt><trkpt lat="45.5242767" lon="11.0507567"><ele>466.0</ele><time>2026-04-23T14:22:36.291Z</time></trkpt><trkpt lat="45.5243667" lon="11.0509117"><ele>466.0</ele><time>2026-04-23T14:22:37.291Z</time></trkpt><trkpt lat="45.52449" lon="11.05103"><ele>466.6666666666667</ele><time>2026-04-23T14:22:38.291Z</time></trkpt><trkpt lat="45.52463" lon="11.051135"><ele>467.33333333333337</ele><time>2026-04-23T14:22:39.291Z</time></trkpt><trkpt lat="45.5247633" lon="11.0512183"><ele>468.0</ele><time>2026-04-23T14:22:40.291Z</time></trkpt><trkpt lat="45.5249033" lon="11.0513233"><ele>468.0</ele><time>2026-04-23T14:22:41.291Z</time></trkpt><trkpt lat="45.5250517" lon="11.051415"><ele>468.0</ele><time>2026-04-23T14:22:42.291Z</time></trkpt><trkpt lat="45.5251933" lon="11.051505"><ele>468.0</ele><time>2026-04-23T14:22:43.291Z</time></trkpt><trkpt lat="45.525355" lon="11.0516217"><ele>465.75</ele><time>2026-04-23T14:22:44.291Z</time></trkpt><trkpt lat="45.5254833" lon="11.0517433"><ele>463.5</ele><time>2026-04-23T14:22:45.291Z</time></trkpt><trkpt lat="45.5255983" lon="11.0518217"><ele>461.25</ele><time>2026-04-23T14:22:46.291Z</time></trkpt><trkpt lat="45.5257267" lon="11.0519033"><ele>459.0</ele><time>2026-04-23T14:22:47.291Z</time></trkpt><trkpt lat="45.5258767" lon="11.05195"><ele>459.0</ele><time>2026-04-23T14:22:48.291Z</time></trkpt><trkpt lat="45.52603" lon="11.0520083"><ele>459.0</ele><time>2026-04-23T14:22:49.291Z</time></trkpt><trkpt lat="45.52619" lon="11.052075"><ele>459.0</ele><time>2026-04-23T14:22:50.291Z</time></trkpt><trkpt lat="45.5263533" lon="11.0521583"><ele>460.66666666666663</ele><time>2026-04-23T14:22:51.291Z</time></trkpt><trkpt lat="45.5265017" lon="11.0522417"><ele>462.3333333333333</ele><time>2026-04-23T14:22:52.291Z</time></trkpt><trkpt lat="45.5266217" lon="11.0523717"><ele>464.0</ele><time>2026-04-23T14:22:53.291Z</time></trkpt><trkpt lat="45.526745" lon="11.0525"><ele>461.0</ele><time>2026-04-23T14:22:54.292Z</time></trkpt><trkpt lat="45.5268633" lon="11.0526267"><ele>458.0</ele><time>2026-04-23T14:22:55.291Z</time></trkpt><trkpt lat="45.5269567" lon="11.05276"><ele>455.0</ele><time>2026-04-23T14:22:56.291Z</time></trkpt><trkpt lat="45.5270367" lon="11.0528833"><ele>452.0</ele><time>2026-04-23T14:22:57.291Z</time></trkpt><trkpt lat="45.5270867" lon="11.05302"><ele>451.99999999999994</ele><time>2026-04-23T14:22:58.291Z</time></trkpt><trkpt lat="45.5271267" lon="11.0531117"><ele>452.0</ele><time>2026-04-23T14:22:59.291Z</time></trkpt><trkpt lat="45.5271267" lon="11.0532233"><ele>452.0</ele><time>2026-04-23T14:23:00.291Z</time></trkpt><trkpt lat="45.527115" lon="11.0533217"><ele>452.0</ele><time>2026-04-23T14:23:01.291Z</time></trkpt><trkpt lat="45.52708" lon="11.053405"><ele>451.99999999999994</ele><time>2026-04-23T14:23:02.291Z</time></trkpt><trkpt lat="45.52701" lon="11.0534883"><ele>452.0</ele><time>2026-04-23T14:23:03.291Z</time></trkpt><trkpt lat="45.52685" lon="11.0536333"><ele>445.66666666666663</ele><time>2026-04-23T14:23:05.291Z</time></trkpt><trkpt lat="45.5266483" lon="11.0536967"><ele>439.33333333333337</ele><time>2026-04-23T14:23:06.291Z</time></trkpt><trkpt lat="45.5265067" lon="11.0537817"><ele>433.0</ele><time>2026-04-23T14:23:07.291Z</time></trkpt><trkpt lat="45.5263833" lon="11.0538833"><ele>433.0</ele><time>2026-04-23T14:23:08.292Z</time></trkpt><trkpt lat="45.5262583" lon="11.0539933"><ele>433.0</ele><time>2026-04-23T14:23:09.291Z</time></trkpt><trkpt lat="45.5261217" lon="11.0540983"><ele>433.0</ele><time>2026-04-23T14:23:10.292Z</time></trkpt><trkpt lat="45.5259833" lon="11.0541633"><ele>433.0</ele><time>2026-04-23T14:23:11.291Z</time></trkpt><trkpt lat="45.525885" lon="11.054225"><ele>434.2</ele><time>2026-04-23T14:23:12.291Z</time></trkpt><trkpt lat="45.52581" lon="11.0542717"><ele>435.4</ele><time>2026-04-23T14:23:13.291Z</time></trkpt><trkpt lat="45.525735" lon="11.0542933"><ele>436.59999999999997</ele><time>2026-04-23T14:23:14.291Z</time></trkpt><trkpt lat="45.5257" lon="11.0544233"><ele>437.79999999999995</ele><time>2026-04-23T14:23:16.292Z</time></trkpt><trkpt lat="45.52576" lon="11.0545433"><ele>439.0</ele><time>2026-04-23T14:23:17.291Z</time></trkpt><trkpt lat="45.5258117" lon="11.0546633"><ele>439.0</ele><time>2026-04-23T14:23:18.291Z</time></trkpt><trkpt lat="45.5258733" lon="11.054785"><ele>439.0</ele><time>2026-04-23T14:23:19.291Z</time></trkpt><trkpt lat="45.5259517" lon="11.05489"><ele>439.0</ele><time>2026-04-23T14:23:20.291Z</time></trkpt><trkpt lat="45.526055" lon="11.05497"><ele>439.0</ele><time>2026-04-23T14:23:21.291Z</time></trkpt><trkpt lat="45.5261383" lon="11.0550483"><ele>439.0</ele><time>2026-04-23T14:23:22.292Z</time></trkpt><trkpt lat="45.52621" lon="11.0551483"><ele>443.6</ele><time>2026-04-23T14:23:23.291Z</time></trkpt><trkpt lat="45.5262767" lon="11.055295"><ele>448.2</ele><time>2026-04-23T14:23:24.291Z</time></trkpt><trkpt lat="45.52631" lon="11.055435"><ele>452.80000000000007</ele><time>2026-04-23T14:23:25.292Z</time></trkpt><trkpt lat="45.5263317" lon="11.0555567"><ele>457.40000000000003</ele><time>2026-04-23T14:23:26.291Z</time></trkpt><trkpt lat="45.5263433" lon="11.0556783"><ele>462.0</ele><time>2026-04-23T14:23:27.291Z</time></trkpt><trkpt lat="45.526355" lon="11.0557817"><ele>463.0</ele><time>2026-04-23T14:23:28.291Z</time></trkpt><trkpt lat="45.5263217" lon="11.0559117"><ele>464.00000000000006</ele><time>2026-04-23T14:23:30.291Z</time></trkpt><trkpt lat="45.5262583" lon="11.0559433"><ele>465.00000000000006</ele><time>2026-04-23T14:23:31.291Z</time></trkpt><trkpt lat="45.5261667" lon="11.0559617"><ele>466.0</ele><time>2026-04-23T14:23:32.291Z</time></trkpt><trkpt lat="45.5259867" lon="11.0559"><ele>467.0</ele><time>2026-04-23T14:23:33.292Z</time></trkpt><trkpt lat="45.52585" lon="11.0558983"><ele>465.40000000000003</ele><time>2026-04-23T14:23:34.291Z</time></trkpt><trkpt lat="45.5257467" lon="11.0559117"><ele>463.80000000000007</ele><time>2026-04-23T14:23:35.291Z</time></trkpt><trkpt lat="45.5256417" lon="11.055895"><ele>462.2</ele><time>2026-04-23T14:23:36.292Z</time></trkpt><trkpt lat="45.5255383" lon="11.0558633"><ele>460.6</ele><time>2026-04-23T14:23:37.291Z</time></trkpt><trkpt lat="45.5254267" lon="11.0558383"><ele>459.0</ele><time>2026-04-23T14:23:38.291Z</time></trkpt><trkpt lat="45.5253217" lon="11.05584"><ele>459.0</ele><time>2026-04-23T14:23:39.291Z</time></trkpt><trkpt lat="45.5252167" lon="11.0558483"><ele>459.0</ele><time>2026-04-23T14:23:40.291Z</time></trkpt><trkpt lat="45.525115" lon="11.0558433"><ele>459.0</ele><time>2026-04-23T14:23:41.291Z</time></trkpt><trkpt lat="45.5250233" lon="11.0558117"><ele>459.0</ele><time>2026-04-23T14:23:42.292Z</time></trkpt><trkpt lat="45.5249317" lon="11.0557517"><ele>459.0</ele><time>2026-04-23T14:23:43.291Z</time></trkpt><trkpt lat="45.5248383" lon="11.0556983"><ele>458.2</ele><time>2026-04-23T14:23:44.292Z</time></trkpt><trkpt lat="45.5247417" lon="11.05567"><ele>457.4</ele><time>2026-04-23T14:23:45.291Z</time></trkpt><trkpt lat="45.524645" lon="11.0556817"><ele>456.6</ele><time>2026-04-23T14:23:46.291Z</time></trkpt><trkpt lat="45.524545" lon="11.0557283"><ele>455.8</ele><time>2026-04-23T14:23:47.291Z</time></trkpt><trkpt lat="45.5244517" lon="11.055775"><ele>455.0</ele><time>2026-04-23T14:23:48.291Z</time></trkpt><trkpt lat="45.5243683" lon="11.055825"><ele>455.0</ele><time>2026-04-23T14:23:49.29Z</time></trkpt><trkpt lat="45.524285" lon="11.0558983"><ele>455.0</ele><time>2026-04-23T14:23:50.291Z</time></trkpt><trkpt lat="45.5241967" lon="11.0559783"><ele>455.0</ele><time>2026-04-23T14:23:51.29Z</time></trkpt><trkpt lat="45.5241217" lon="11.0560883"><ele>455.0</ele><time>2026-04-23T14:23:52.29Z</time></trkpt><trkpt lat="45.5240333" lon="11.0562233"><ele>455.0</ele><time>2026-04-23T14:23:53.29Z</time></trkpt><trkpt lat="45.5239517" lon="11.05632"><ele>455.0</ele><time>2026-04-23T14:23:54.29Z</time></trkpt><trkpt lat="45.52386" lon="11.0563933"><ele>455.0</ele><time>2026-04-23T14:23:55.29Z</time></trkpt><trkpt lat="45.523775" lon="11.0564783"><ele>455.0</ele><time>2026-04-23T14:23:56.291Z</time></trkpt><trkpt lat="45.52369" lon="11.0565533"><ele>455.0</ele><time>2026-04-23T14:23:57.29Z</time></trkpt><trkpt lat="45.523625" lon="11.0566367"><ele>455.0</ele><time>2026-04-23T14:23:58.29Z</time></trkpt><trkpt lat="45.5235717" lon="11.0567433"><ele>453.99999999999994</ele><time>2026-04-23T14:23:59.29Z</time></trkpt><trkpt lat="45.52353" lon="11.0568283"><ele>453.0</ele><time>2026-04-23T14:24:00.29Z</time></trkpt><trkpt lat="45.52349" lon="11.0569317"><ele>452.0</ele><time>2026-04-23T14:24:01.29Z</time></trkpt><trkpt lat="45.5234583" lon="11.05704"><ele>451.0</ele><time>2026-04-23T14:24:02.29Z</time></trkpt><trkpt lat="45.52345" lon="11.05715"><ele>449.99999999999994</ele><time>2026-04-23T14:24:03.29Z</time></trkpt><trkpt lat="45.52346" lon="11.057255"><ele>449.0</ele><time>2026-04-23T14:24:04.291Z</time></trkpt><trkpt lat="45.523465" lon="11.0573617"><ele>450.2</ele><time>2026-04-23T14:24:05.29Z</time></trkpt><trkpt lat="45.523455" lon="11.05749"><ele>451.4</ele><time>2026-04-23T14:24:06.29Z</time></trkpt><trkpt lat="45.52345" lon="11.0576133"><ele>452.6</ele><time>2026-04-23T14:24:07.29Z</time></trkpt><trkpt lat="45.523445" lon="11.05775"><ele>453.8</ele><time>2026-04-23T14:24:08.29Z</time></trkpt><trkpt lat="45.523435" lon="11.057895"><ele>455.0</ele><time>2026-04-23T14:24:09.29Z</time></trkpt><trkpt lat="45.5234133" lon="11.05806"><ele>455.0</ele><time>2026-04-23T14:24:10.29Z</time></trkpt><trkpt lat="45.5234167" lon="11.05822"><ele>455.0</ele><time>2026-04-23T14:24:11.29Z</time></trkpt><trkpt lat="45.5234483" lon="11.058385"><ele>455.0</ele><time>2026-04-23T14:24:12.29Z</time></trkpt><trkpt lat="45.52347" lon="11.058535"><ele>455.0</ele><time>2026-04-23T14:24:13.29Z</time></trkpt><trkpt lat="45.5235233" lon="11.058685"><ele>454.8</ele><time>2026-04-23T14:24:14.29Z</time></trkpt><trkpt lat="45.52358" lon="11.058815"><ele>454.6</ele><time>2026-04-23T14:24:15.29Z</time></trkpt><trkpt lat="45.5236317" lon="11.0589417"><ele>454.4</ele><time>2026-04-23T14:24:16.29Z</time></trkpt><trkpt lat="45.5236767" lon="11.059065"><ele>454.2</ele><time>2026-04-23T14:24:17.29Z</time></trkpt><trkpt lat="45.5237067" lon="11.0591833"><ele>454.0</ele><time>2026-04-23T14:24:18.29Z</time></trkpt><trkpt lat="45.523725" lon="11.0592867"><ele>454.0</ele><time>2026-04-23T14:24:19.291Z</time></trkpt><trkpt lat="45.523685" lon="11.05938"><ele>454.0</ele><time>2026-04-23T14:24:21.291Z</time></trkpt><trkpt lat="45.5236017" lon="11.0594333"><ele>454.0</ele><time>2026-04-23T14:24:23.291Z</time></trkpt><trkpt lat="45.523485" lon="11.0594233"><ele>454.0</ele><time>2026-04-23T14:24:24.29Z</time></trkpt><trkpt lat="45.5233883" lon="11.0594633"><ele>454.0</ele><time>2026-04-23T14:24:25.29Z</time></trkpt><trkpt lat="45.52328" lon="11.0595233"><ele>454.0</ele><time>2026-04-23T14:24:26.29Z</time></trkpt><trkpt lat="45.5231833" lon="11.0595917"><ele>454.0</ele><time>2026-04-23T14:24:27.29Z</time></trkpt><trkpt lat="45.523065" lon="11.0596833"><ele>454.0</ele><time>2026-04-23T14:24:28.291Z</time></trkpt><trkpt lat="45.522995" lon="11.05982"><ele>454.0</ele><time>2026-04-23T14:24:29.29Z</time></trkpt><trkpt lat="45.522905" lon="11.0599517"><ele>452.2</ele><time>2026-04-23T14:24:30.291Z</time></trkpt><trkpt lat="45.522835" lon="11.0600967"><ele>450.4</ele><time>2026-04-23T14:24:31.29Z</time></trkpt><trkpt lat="45.5227767" lon="11.0602317"><ele>448.6</ele><time>2026-04-23T14:24:32.291Z</time></trkpt><trkpt lat="45.5227167" lon="11.06035"><ele>446.8</ele><time>2026-04-23T14:24:33.29Z</time></trkpt><trkpt lat="45.5226433" lon="11.0604567"><ele>445.0</ele><time>2026-04-23T14:24:34.29Z</time></trkpt><trkpt lat="45.52257" lon="11.06056"><ele>445.0</ele><time>2026-04-23T14:24:35.29Z</time></trkpt><trkpt lat="45.5224967" lon="11.060665"><ele>445.0</ele><time>2026-04-23T14:24:36.29Z</time></trkpt><trkpt lat="45.5224067" lon="11.0607567"><ele>445.0</ele><time>2026-04-23T14:24:37.29Z</time></trkpt><trkpt lat="45.5223017" lon="11.0608233"><ele>445.0</ele><time>2026-04-23T14:24:38.291Z</time></trkpt><trkpt lat="45.5222017" lon="11.0609067"><ele>445.0</ele><time>2026-04-23T14:24:39.291Z</time></trkpt><trkpt lat="45.52212" lon="11.06099"><ele>443.00000000000006</ele><time>2026-04-23T14:24:40.29Z</time></trkpt><trkpt lat="45.5220633" lon="11.061075"><ele>441.0</ele><time>2026-04-23T14:24:41.29Z</time></trkpt><trkpt lat="45.521995" lon="11.061155"><ele>439.0</ele><time>2026-04-23T14:24:42.29Z</time></trkpt><trkpt lat="45.5219433" lon="11.0612383"><ele>437.0</ele><time>2026-04-23T14:24:43.29Z</time></trkpt><trkpt lat="45.5218717" lon="11.06133"><ele>435.00000000000006</ele><time>2026-04-23T14:24:44.291Z</time></trkpt><trkpt lat="45.5218017" lon="11.0614017"><ele>433.0</ele><time>2026-04-23T14:24:45.29Z</time></trkpt><trkpt lat="45.5217467" lon="11.0614817"><ele>433.00000000000006</ele><time>2026-04-23T14:24:46.29Z</time></trkpt><trkpt lat="45.5217117" lon="11.0615567"><ele>433.0</ele><time>2026-04-23T14:24:47.29Z</time></trkpt><trkpt lat="45.5216733" lon="11.0616333"><ele>433.0</ele><time>2026-04-23T14:24:48.29Z</time></trkpt><trkpt lat="45.5216517" lon="11.0617267"><ele>433.0</ele><time>2026-04-23T14:24:49.291Z</time></trkpt><trkpt lat="45.5215733" lon="11.06183"><ele>433.00000000000006</ele><time>2026-04-23T14:24:51.29Z</time></trkpt><trkpt lat="45.521515" lon="11.061865"><ele>433.0</ele><time>2026-04-23T14:24:53.29Z</time></trkpt><trkpt lat="45.5214983" lon="11.0617467"><ele>433.0</ele><time>2026-04-23T14:24:57.291Z</time></trkpt><trkpt lat="45.52153" lon="11.0616183"><ele>432.99999999999994</ele><time>2026-04-23T14:24:59.29Z</time></trkpt><trkpt lat="45.5215783" lon="11.0614883"><ele>432.99999999999994</ele><time>2026-04-23T14:25:01.29Z</time></trkpt><trkpt lat="45.521615" lon="11.0614033"><ele>433.0</ele><time>2026-04-23T14:25:03.29Z</time></trkpt><trkpt lat="45.5216483" lon="11.0612833"><ele>433.0</ele><time>2026-04-23T14:25:05.29Z</time></trkpt><trkpt lat="45.521685" lon="11.0611633"><ele>433.00000000000006</ele><time>2026-04-23T14:25:07.29Z</time></trkpt><trkpt lat="45.521725" lon="11.0610367"><ele>433.0</ele><time>2026-04-23T14:25:09.291Z</time></trkpt><trkpt lat="45.52175" lon="11.060905"><ele>433.0</ele><time>2026-04-23T14:25:11.29Z</time></trkpt><trkpt lat="45.5217633" lon="11.0608117"><ele>433.0</ele><time>2026-04-23T14:25:13.29Z</time></trkpt><trkpt lat="45.521735" lon="11.0606917"><ele>433.00000000000006</ele><time>2026-04-23T14:25:15.29Z</time></trkpt><trkpt lat="45.5217167" lon="11.0605517"><ele>433.0</ele><time>2026-04-23T14:25:17.29Z</time></trkpt><trkpt lat="45.52173" lon="11.0603983"><ele>431.0</ele><time>2026-04-23T14:25:19.29Z</time></trkpt><trkpt lat="45.5217383" lon="11.0602383"><ele>428.99999999999994</ele><time>2026-04-23T14:25:21.291Z</time></trkpt><trkpt lat="45.5217767" lon="11.06009"><ele>427.0</ele><time>2026-04-23T14:25:23.29Z</time></trkpt><trkpt lat="45.521795" lon="11.059925"><ele>425.0</ele><time>2026-04-23T14:25:25.29Z</time></trkpt><trkpt lat="45.5217917" lon="11.0598283"><ele>423.0</ele><time>2026-04-23T14:25:26.29Z</time></trkpt><trkpt lat="45.5217933" lon="11.0597367"><ele>421.4</ele><time>2026-04-23T14:25:27.291Z</time></trkpt><trkpt lat="45.5218267" lon="11.0595783"><ele>419.79999999999995</ele><time>2026-04-23T14:25:29.29Z</time></trkpt><trkpt lat="45.5218633" lon="11.05944"><ele>418.2</ele><time>2026-04-23T14:25:31.29Z</time></trkpt><trkpt lat="45.5219183" lon="11.05933"><ele>416.6</ele><time>2026-04-23T14:25:33.29Z</time></trkpt><trkpt lat="45.5219717" lon="11.0592233"><ele>415.0</ele><time>2026-04-23T14:25:35.29Z</time></trkpt><trkpt lat="45.5220767" lon="11.059165"><ele>413.2</ele><time>2026-04-23T14:25:37.29Z</time></trkpt><trkpt lat="45.5221433" lon="11.059095"><ele>411.4</ele><time>2026-04-23T14:25:39.29Z</time></trkpt><trkpt lat="45.5222" lon="11.0590383"><ele>409.6</ele><time>2026-04-23T14:25:41.29Z</time></trkpt><trkpt lat="45.522195" lon="11.0589283"><ele>407.8</ele><time>2026-04-23T14:25:43.29Z</time></trkpt><trkpt lat="45.52217" lon="11.0588083"><ele>406.0</ele><time>2026-04-23T14:25:45.29Z</time></trkpt><trkpt lat="45.522035" lon="11.0587583"><ele>406.0</ele><time>2026-04-23T14:25:49.291Z</time></trkpt><trkpt lat="45.5219017" lon="11.0586883"><ele>406.0</ele><time>2026-04-23T14:25:51.29Z</time></trkpt><trkpt lat="45.52181" lon="11.0586667"><ele>406.0</ele><time>2026-04-23T14:25:52.29Z</time></trkpt><trkpt lat="45.5217383" lon="11.0586617"><ele>406.0</ele><time>2026-04-23T14:25:53.29Z</time></trkpt><trkpt lat="45.5216383" lon="11.0587083"><ele>406.0</ele><time>2026-04-23T14:25:55.29Z</time></trkpt><trkpt lat="45.5215383" lon="11.0587833"><ele>406.00000000000006</ele><time>2026-04-23T14:25:57.29Z</time></trkpt><trkpt lat="45.5214267" lon="11.05884"><ele>406.0</ele><time>2026-04-23T14:25:59.29Z</time></trkpt><trkpt lat="45.5213633" lon="11.0588567"><ele>406.0</ele><time>2026-04-23T14:26:00.29Z</time></trkpt><trkpt lat="45.5212967" lon="11.05889"><ele>406.0</ele><time>2026-04-23T14:26:01.29Z</time></trkpt><trkpt lat="45.52121" lon="11.0589633"><ele>406.00000000000006</ele><time>2026-04-23T14:26:03.29Z</time></trkpt><trkpt lat="45.5211483" lon="11.0590183"><ele>406.0</ele><time>2026-04-23T14:26:04.29Z</time></trkpt><trkpt lat="45.521065" lon="11.0590867"><ele>403.33333333333337</ele><time>2026-04-23T14:26:06.29Z</time></trkpt><trkpt lat="45.520995" lon="11.059165"><ele>400.6666666666667</ele><time>2026-04-23T14:26:08.29Z</time></trkpt><trkpt lat="45.5209417" lon="11.0592317"><ele>398.0</ele><time>2026-04-23T14:26:10.29Z</time></trkpt><trkpt lat="45.5209017" lon="11.0593433"><ele>395.33333333333337</ele><time>2026-04-23T14:26:12.29Z</time></trkpt><trkpt lat="45.52085" lon="11.05942"><ele>392.6666666666667</ele><time>2026-04-23T14:26:15.291Z</time></trkpt><trkpt lat="45.5207817" lon="11.0594567"><ele>390.0</ele><time>2026-04-23T14:26:23.29Z</time></trkpt><trkpt lat="45.520705" lon="11.0595083"><ele>390.0</ele><time>2026-04-23T14:26:25.29Z</time></trkpt><trkpt lat="45.5206283" lon="11.0595917"><ele>390.0</ele><time>2026-04-23T14:26:27.291Z</time></trkpt><trkpt lat="45.52056" lon="11.0597"><ele>390.0</ele><time>2026-04-23T14:26:29.29Z</time></trkpt><trkpt lat="45.520485" lon="11.0598867"><ele>390.0</ele><time>2026-04-23T14:26:31.29Z</time></trkpt><trkpt lat="45.52045" lon="11.0600017"><ele>390.0</ele><time>2026-04-23T14:26:32.29Z</time></trkpt><trkpt lat="45.5204067" lon="11.0601217"><ele>388.1428571428571</ele><time>2026-04-23T14:26:34.29Z</time></trkpt><trkpt lat="45.5203467" lon="11.0602233"><ele>386.2857142857143</ele><time>2026-04-23T14:26:36.291Z</time></trkpt><trkpt lat="45.520315" lon="11.0603017"><ele>384.42857142857144</ele><time>2026-04-23T14:26:38.29Z</time></trkpt><trkpt lat="45.5202917" lon="11.060395"><ele>382.57142857142856</ele><time>2026-04-23T14:26:40.29Z</time></trkpt><trkpt lat="45.5202483" lon="11.060475"><ele>380.7142857142857</ele><time>2026-04-23T14:26:42.289Z</time></trkpt><trkpt lat="45.520195" lon="11.060525"><ele>378.85714285714283</ele><time>2026-04-23T14:26:43.289Z</time></trkpt><trkpt lat="45.5201417" lon="11.06062"><ele>377.0</ele><time>2026-04-23T14:26:45.289Z</time></trkpt><trkpt lat="45.520115" lon="11.0607617"><ele>374.8</ele><time>2026-04-23T14:26:47.289Z</time></trkpt><trkpt lat="45.5200767" lon="11.0608883"><ele>372.6</ele><time>2026-04-23T14:26:49.289Z</time></trkpt><trkpt lat="45.520045" lon="11.0610333"><ele>370.40000000000003</ele><time>2026-04-23T14:26:51.289Z</time></trkpt><trkpt lat="45.5200117" lon="11.06111"><ele>368.20000000000005</ele><time>2026-04-23T14:26:52.29Z</time></trkpt><trkpt lat="45.5199667" lon="11.0611883"><ele>366.0</ele><time>2026-04-23T14:26:53.289Z</time></trkpt><trkpt lat="45.51989" lon="11.0613133"><ele>366.0</ele><time>2026-04-23T14:26:55.289Z</time></trkpt><trkpt lat="45.5198717" lon="11.06141"><ele>366.0</ele><time>2026-04-23T14:26:57.289Z</time></trkpt><trkpt lat="45.5198017" lon="11.0615"><ele>366.0</ele><time>2026-04-23T14:26:59.29Z</time></trkpt><trkpt lat="45.5197583" lon="11.0615783"><ele>366.0</ele><time>2026-04-23T14:27:01.289Z</time></trkpt><trkpt lat="45.519715" lon="11.0616517"><ele>366.0</ele><time>2026-04-23T14:27:02.29Z</time></trkpt><trkpt lat="45.5196717" lon="11.0618083"><ele>366.0</ele><time>2026-04-23T14:27:22.289Z</time></trkpt><trkpt lat="45.5196317" lon="11.0618933"><ele>366.6666666666667</ele><time>2026-04-23T14:27:45.289Z</time></trkpt><trkpt lat="45.519575" lon="11.0619433"><ele>367.3333333333333</ele><time>2026-04-23T14:27:54.29Z</time></trkpt><trkpt lat="45.5195367" lon="11.0620733"><ele>368.0</ele><time>2026-04-23T14:28:03.289Z</time></trkpt><trkpt lat="45.5194733" lon="11.062135"><ele>368.66666666666663</ele><time>2026-04-23T14:28:11.289Z</time></trkpt><trkpt lat="45.5194333" lon="11.0622467"><ele>369.3333333333333</ele><time>2026-04-23T14:28:14.289Z</time></trkpt><trkpt lat="45.5193783" lon="11.0623467"><ele>370.0</ele><time>2026-04-23T14:28:17.29Z</time></trkpt><trkpt lat="45.5193067" lon="11.0624233"><ele>366.0</ele><time>2026-04-23T14:28:19.29Z</time></trkpt><trkpt lat="45.519255" lon="11.0625283"><ele>362.0</ele><time>2026-04-23T14:28:21.289Z</time></trkpt><trkpt lat="45.519195" lon="11.0626183"><ele>358.0</ele><time>2026-04-23T14:28:23.289Z</time></trkpt><trkpt lat="45.5191017" lon="11.0626333"><ele>354.0</ele><time>2026-04-23T14:28:25.289Z</time></trkpt><trkpt lat="45.5190133" lon="11.062595"><ele>350.0</ele><time>2026-04-23T14:28:27.289Z</time></trkpt><trkpt lat="45.5189333" lon="11.06256"><ele>346.0</ele><time>2026-04-23T14:28:29.29Z</time></trkpt><trkpt lat="45.5188533" lon="11.06257"><ele>346.0</ele><time>2026-04-23T14:28:31.289Z</time></trkpt><trkpt lat="45.5187733" lon="11.0625783"><ele>346.0</ele><time>2026-04-23T14:28:34.29Z</time></trkpt><trkpt lat="45.518695" lon="11.0626233"><ele>346.0</ele><time>2026-04-23T14:28:37.289Z</time></trkpt><trkpt lat="45.518635" lon="11.0626633"><ele>346.0</ele><time>2026-04-23T14:28:39.289Z</time></trkpt><trkpt lat="45.5185783" lon="11.0627283"><ele>346.0</ele><time>2026-04-23T14:28:42.289Z</time></trkpt><trkpt lat="45.5185183" lon="11.0627733"><ele>346.0</ele><time>2026-04-23T14:28:44.289Z</time></trkpt><trkpt lat="45.5184433" lon="11.0628417"><ele>340.3333333333333</ele><time>2026-04-23T14:28:47.289Z</time></trkpt><trkpt lat="45.5183933" lon="11.0629033"><ele>334.66666666666663</ele><time>2026-04-23T14:28:50.29Z</time></trkpt><trkpt lat="45.51831" lon="11.0629683"><ele>329.0</ele><time>2026-04-23T14:28:53.289Z</time></trkpt><trkpt lat="45.5182433" lon="11.0630567"><ele>323.3333333333333</ele><time>2026-04-23T14:28:56.289Z</time></trkpt><trkpt lat="45.5181617" lon="11.063075"><ele>317.6666666666667</ele><time>2026-04-23T14:28:59.289Z</time></trkpt><trkpt lat="45.5180933" lon="11.063115"><ele>312.0</ele><time>2026-04-23T14:29:02.289Z</time></trkpt><trkpt lat="45.5180333" lon="11.0631433"><ele>312.0</ele><time>2026-04-23T14:29:05.289Z</time></trkpt><trkpt lat="45.517975" lon="11.0631983"><ele>312.0</ele><time>2026-04-23T14:29:08.289Z</time></trkpt><trkpt lat="45.5179233" lon="11.0632533"><ele>312.0</ele><time>2026-04-23T14:29:10.29Z</time></trkpt><trkpt lat="45.5178567" lon="11.0633067"><ele>312.0</ele><time>2026-04-23T14:29:13.289Z</time></trkpt><trkpt lat="45.5177967" lon="11.063355"><ele>312.0</ele><time>2026-04-23T14:29:16.29Z</time></trkpt><trkpt lat="45.5177117" lon="11.06343"><ele>312.0</ele><time>2026-04-23T14:29:19.289Z</time></trkpt><trkpt lat="45.517655" lon="11.0634717"><ele>312.0</ele><time>2026-04-23T14:29:21.289Z</time></trkpt><trkpt lat="45.5175867" lon="11.06353"><ele>307.3333333333333</ele><time>2026-04-23T14:29:23.29Z</time></trkpt><trkpt lat="45.5175" lon="11.063605"><ele>302.6666666666667</ele><time>2026-04-23T14:29:25.289Z</time></trkpt><trkpt lat="45.5174367" lon="11.0636683"><ele>298.0</ele><time>2026-04-23T14:29:26.288Z</time></trkpt><trkpt lat="45.5173567" lon="11.0637267"><ele>293.33333333333337</ele><time>2026-04-23T14:29:27.288Z</time></trkpt><trkpt lat="45.5172817" lon="11.0637767"><ele>288.6666666666667</ele><time>2026-04-23T14:29:28.288Z</time></trkpt><trkpt lat="45.51722" lon="11.06383"><ele>284.0</ele><time>2026-04-23T14:29:29.288Z</time></trkpt><trkpt lat="45.51717" lon="11.0638917"><ele>284.0</ele><time>2026-04-23T14:29:30.288Z</time></trkpt><trkpt lat="45.517095" lon="11.0640283"><ele>284.0</ele><time>2026-04-23T14:29:32.288Z</time></trkpt><trkpt lat="45.5170367" lon="11.0640967"><ele>284.0</ele><time>2026-04-23T14:29:34.288Z</time></trkpt><trkpt lat="45.5169617" lon="11.0641367"><ele>284.0</ele><time>2026-04-23T14:29:37.288Z</time></trkpt><trkpt lat="45.516885" lon="11.064145"><ele>284.0</ele><time>2026-04-23T14:29:40.289Z</time></trkpt><trkpt lat="45.516805" lon="11.064145"><ele>284.0</ele><time>2026-04-23T14:29:47.288Z</time></trkpt><trkpt lat="45.5167383" lon="11.064205"><ele>281.4</ele><time>2026-04-23T14:29:50.288Z</time></trkpt><trkpt lat="45.5166683" lon="11.0642633"><ele>278.79999999999995</ele><time>2026-04-23T14:29:52.288Z</time></trkpt><trkpt lat="45.5166017" lon="11.0642817"><ele>276.20000000000005</ele><time>2026-04-23T14:29:57.288Z</time></trkpt><trkpt lat="45.5164783" lon="11.0641483"><ele>273.6</ele><time>2026-04-23T14:30:10.288Z</time></trkpt><trkpt lat="45.5164017" lon="11.0641067"><ele>271.0</ele><time>2026-04-23T14:30:13.289Z</time></trkpt><trkpt lat="45.516325" lon="11.06412"><ele>269.66666666666663</ele><time>2026-04-23T14:30:16.288Z</time></trkpt><trkpt lat="45.51624" lon="11.0641767"><ele>268.3333333333333</ele><time>2026-04-23T14:30:19.288Z</time></trkpt><trkpt lat="45.5161517" lon="11.0641583"><ele>267.0</ele><time>2026-04-23T14:30:22.288Z</time></trkpt><trkpt lat="45.5160867" lon="11.06413"><ele>265.6666666666667</ele><time>2026-04-23T14:30:24.288Z</time></trkpt><trkpt lat="45.516005" lon="11.0641383"><ele>264.33333333333337</ele><time>2026-04-23T14:30:27.289Z</time></trkpt><trkpt lat="45.51593" lon="11.064185"><ele>263.0</ele><time>2026-04-23T14:30:30.288Z</time></trkpt><trkpt lat="45.5158217" lon="11.064175"><ele>259.57142857142856</ele><time>2026-04-23T14:30:41.289Z</time></trkpt><trkpt lat="45.5157433" lon="11.0641917"><ele>256.1428571428571</ele><time>2026-04-23T14:30:45.288Z</time></trkpt><trkpt lat="45.51568" lon="11.06423"><ele>252.71428571428572</ele><time>2026-04-23T14:30:47.288Z</time></trkpt><trkpt lat="45.5156117" lon="11.0642217"><ele>249.28571428571428</ele><time>2026-04-23T14:30:51.288Z</time></trkpt><trkpt lat="45.51554" lon="11.0642117"><ele>245.85714285714286</ele><time>2026-04-23T14:30:54.288Z</time></trkpt><trkpt lat="45.5154633" lon="11.0642067"><ele>242.42857142857144</ele><time>2026-04-23T14:30:58.288Z</time></trkpt><trkpt lat="45.51539" lon="11.0641983"><ele>239.00000000000003</ele><time>2026-04-23T14:31:02.288Z</time></trkpt><trkpt lat="45.515295" lon="11.0642083"><ele>235.79999999999998</ele><time>2026-04-23T14:31:04.288Z</time></trkpt><trkpt lat="45.515225" lon="11.0642633"><ele>232.59999999999997</ele><time>2026-04-23T14:31:07.288Z</time></trkpt><trkpt lat="45.5151717" lon="11.0643517"><ele>229.4</ele><time>2026-04-23T14:31:09.288Z</time></trkpt><trkpt lat="45.5151683" lon="11.0645067"><ele>226.2</ele><time>2026-04-23T14:31:11.288Z</time></trkpt><trkpt lat="45.5151983" lon="11.0647433"><ele>223.0</ele><time>2026-04-23T14:31:13.288Z</time></trkpt><trkpt lat="45.515205" lon="11.0648933"><ele>221.0</ele><time>2026-04-23T14:31:14.288Z</time></trkpt><trkpt lat="45.5152283" lon="11.0650967"><ele>219.0</ele><time>2026-04-23T14:31:15.288Z</time></trkpt><trkpt lat="45.5152533" lon="11.0652867"><ele>217.0</ele><time>2026-04-23T14:31:16.288Z</time></trkpt><trkpt lat="45.5152617" lon="11.06541"><ele>215.0</ele><time>2026-04-23T14:31:17.288Z</time></trkpt><trkpt lat="45.5152683" lon="11.0655183"><ele>213.0</ele><time>2026-04-23T14:31:18.288Z</time></trkpt><trkpt lat="45.5152733" lon="11.0656383"><ele>213.0</ele><time>2026-04-23T14:31:19.289Z</time></trkpt><trkpt lat="45.515285" lon="11.0657367"><ele>213.0</ele><time>2026-04-23T14:31:20.288Z</time></trkpt><trkpt lat="45.5153267" lon="11.0658483"><ele>213.0</ele><time>2026-04-23T14:31:21.288Z</time></trkpt><trkpt lat="45.5153567" lon="11.0659483"><ele>213.0</ele><time>2026-04-23T14:31:22.288Z</time></trkpt><trkpt lat="45.5154083" lon="11.0661183"><ele>213.0</ele><time>2026-04-23T14:31:24.288Z</time></trkpt><trkpt lat="45.5154533" lon="11.0661817"><ele>213.0</ele><time>2026-04-23T14:31:25.289Z</time></trkpt><trkpt lat="45.5155117" lon="11.0662883"><ele>213.33333333333334</ele><time>2026-04-23T14:31:27.289Z</time></trkpt><trkpt lat="45.5155417" lon="11.0664033"><ele>213.66666666666669</ele><time>2026-04-23T14:31:29.288Z</time></trkpt><trkpt lat="45.5154417" lon="11.066465"><ele>214.0</ele><time>2026-04-23T14:31:31.288Z</time></trkpt><trkpt lat="45.515375" lon="11.0664767"><ele>214.33333333333334</ele><time>2026-04-23T14:31:32.288Z</time></trkpt><trkpt lat="45.5152933" lon="11.0664933"><ele>214.66666666666669</ele><time>2026-04-23T14:31:34.288Z</time></trkpt><trkpt lat="45.5152233" lon="11.0664533"><ele>215.0</ele><time>2026-04-23T14:31:36.288Z</time></trkpt><trkpt lat="45.515125" lon="11.0663933"><ele>212.66666666666669</ele><time>2026-04-23T14:31:38.288Z</time></trkpt><trkpt lat="45.5150533" lon="11.0663517"><ele>210.33333333333334</ele><time>2026-04-23T14:31:40.288Z</time></trkpt><trkpt lat="45.5149967" lon="11.0663033"><ele>208.0</ele><time>2026-04-23T14:31:42.288Z</time></trkpt><trkpt lat="45.5149883" lon="11.0664267"><ele>205.66666666666669</ele><time>2026-04-23T14:31:50.288Z</time></trkpt><trkpt lat="45.5150017" lon="11.06653"><ele>203.33333333333334</ele><time>2026-04-23T14:31:52.288Z</time></trkpt><trkpt lat="45.5149933" lon="11.0666217"><ele>201.0</ele><time>2026-04-23T14:31:54.289Z</time></trkpt><trkpt lat="45.5149367" lon="11.0667117"><ele>198.20000000000002</ele><time>2026-04-23T14:31:56.288Z</time></trkpt><trkpt lat="45.514885" lon="11.0667717"><ele>195.4</ele><time>2026-04-23T14:31:58.288Z</time></trkpt><trkpt lat="45.51478" lon="11.0667883"><ele>192.6</ele><time>2026-04-23T14:32:00.288Z</time></trkpt><trkpt lat="45.5146967" lon="11.066825"><ele>189.8</ele><time>2026-04-23T14:32:01.288Z</time></trkpt><trkpt lat="45.5146" lon="11.0668867"><ele>187.0</ele><time>2026-04-23T14:32:02.287Z</time></trkpt><trkpt lat="45.51445" lon="11.0669733"><ele>185.2</ele><time>2026-04-23T14:32:03.287Z</time></trkpt><trkpt lat="45.5143533" lon="11.067"><ele>183.39999999999998</ele><time>2026-04-23T14:32:04.287Z</time></trkpt><trkpt lat="45.51424" lon="11.06702"><ele>181.60000000000002</ele><time>2026-04-23T14:32:05.287Z</time></trkpt><trkpt lat="45.5141183" lon="11.0670517"><ele>179.8</ele><time>2026-04-23T14:32:06.287Z</time></trkpt><trkpt lat="45.514015" lon="11.0670733"><ele>178.0</ele><time>2026-04-23T14:32:07.287Z</time></trkpt><trkpt lat="45.5139167" lon="11.0671033"><ele>178.0</ele><time>2026-04-23T14:32:08.288Z</time></trkpt><trkpt lat="45.51383" lon="11.067135"><ele>178.0</ele><time>2026-04-23T14:32:09.287Z</time></trkpt><trkpt lat="45.5137267" lon="11.0671917"><ele>178.0</ele><time>2026-04-23T14:32:10.287Z</time></trkpt><trkpt lat="45.5136467" lon="11.0672317"><ele>178.0</ele><time>2026-04-23T14:32:11.287Z</time></trkpt><trkpt lat="45.51359" lon="11.067275"><ele>178.0</ele><time>2026-04-23T14:32:12.287Z</time></trkpt><trkpt lat="45.5135033" lon="11.0673167"><ele>178.0</ele><time>2026-04-23T14:32:14.287Z</time></trkpt><trkpt lat="45.5134367" lon="11.06733"><ele>178.0</ele><time>2026-04-23T14:32:17.287Z</time></trkpt><trkpt lat="45.51356" lon="11.06729"><ele>178.0</ele><time>2026-04-23T14:32:19.287Z</time></trkpt><trkpt lat="45.5136867" lon="11.06724"><ele>178.0</ele><time>2026-04-23T14:32:21.287Z</time></trkpt><trkpt lat="45.51376" lon="11.06719"><ele>178.0</ele><time>2026-04-23T14:32:22.287Z</time></trkpt><trkpt lat="45.5138333" lon="11.0671433"><ele>178.0</ele><time>2026-04-23T14:32:24.287Z</time></trkpt><trkpt lat="45.5137267" lon="11.0671067"><ele>177.2</ele><time>2026-04-23T14:32:28.287Z</time></trkpt><trkpt lat="45.5136133" lon="11.067125"><ele>176.4</ele><time>2026-04-23T14:32:29.287Z</time></trkpt><trkpt lat="45.51352" lon="11.067125"><ele>175.6</ele><time>2026-04-23T14:32:30.287Z</time></trkpt><trkpt lat="45.5134033" lon="11.0671267"><ele>174.79999999999998</ele><time>2026-04-23T14:32:31.288Z</time></trkpt><trkpt lat="45.51331" lon="11.0671017"><ele>174.0</ele><time>2026-04-23T14:32:32.288Z</time></trkpt><trkpt lat="45.5132117" lon="11.0670767"><ele>174.0</ele><time>2026-04-23T14:32:33.288Z</time></trkpt><trkpt lat="45.5131117" lon="11.0670433"><ele>174.0</ele><time>2026-04-23T14:32:34.287Z</time></trkpt><trkpt lat="45.5129933" lon="11.0669833"><ele>174.0</ele><time>2026-04-23T14:32:35.287Z</time></trkpt><trkpt lat="45.512895" lon="11.0669067"><ele>174.0</ele><time>2026-04-23T14:32:36.288Z</time></trkpt><trkpt lat="45.5127883" lon="11.066815"><ele>173.25</ele><time>2026-04-23T14:32:37.287Z</time></trkpt><trkpt lat="45.5126817" lon="11.0666967"><ele>172.5</ele><time>2026-04-23T14:32:38.287Z</time></trkpt><trkpt lat="45.5125983" lon="11.0665967"><ele>171.75</ele><time>2026-04-23T14:32:39.288Z</time></trkpt><trkpt lat="45.5125133" lon="11.0664967"><ele>171.0</ele><time>2026-04-23T14:32:40.287Z</time></trkpt><trkpt lat="45.51243" lon="11.0663867"><ele>172.5</ele><time>2026-04-23T14:32:41.287Z</time></trkpt><trkpt lat="45.5123517" lon="11.0662667"><ele>174.0</ele><time>2026-04-23T14:32:42.287Z</time></trkpt><trkpt lat="45.51228" lon="11.0661417"><ele>175.5</ele><time>2026-04-23T14:32:43.288Z</time></trkpt><trkpt lat="45.5122317" lon="11.06602"><ele>177.0</ele><time>2026-04-23T14:32:44.287Z</time></trkpt><trkpt lat="45.5121483" lon="11.065875"><ele>180.0</ele><time>2026-04-23T14:32:45.287Z</time></trkpt><trkpt lat="45.5121" lon="11.0657367"><ele>183.0</ele><time>2026-04-23T14:32:46.287Z</time></trkpt><trkpt lat="45.5120333" lon="11.0656033"><ele>186.0</ele><time>2026-04-23T14:32:47.287Z</time></trkpt><trkpt lat="45.5119417" lon="11.0654783"><ele>189.0</ele><time>2026-04-23T14:32:48.287Z</time></trkpt><trkpt lat="45.511845" lon="11.0653733"><ele>189.0</ele><time>2026-04-23T14:32:49.287Z</time></trkpt><trkpt lat="45.5117867" lon="11.065235"><ele>189.0</ele><time>2026-04-23T14:32:50.288Z</time></trkpt><trkpt lat="45.51174" lon="11.06514"><ele>189.0</ele><time>2026-04-23T14:32:51.287Z</time></trkpt><trkpt lat="45.511675" lon="11.0650683"><ele>189.0</ele><time>2026-04-23T14:32:52.287Z</time></trkpt><trkpt lat="45.511605" lon="11.0650017"><ele>189.0</ele><time>2026-04-23T14:32:53.287Z</time></trkpt><trkpt lat="45.5115333" lon="11.064935"><ele>189.0</ele><time>2026-04-23T14:32:54.288Z</time></trkpt><trkpt lat="45.511435" lon="11.064905"><ele>194.6</ele><time>2026-04-23T14:32:55.287Z</time></trkpt><trkpt lat="45.5113283" lon="11.0648867"><ele>200.2</ele><time>2026-04-23T14:32:56.287Z</time></trkpt><trkpt lat="45.511225" lon="11.064885"><ele>205.79999999999998</ele><time>2026-04-23T14:32:57.287Z</time></trkpt><trkpt lat="45.5111133" lon="11.0648917"><ele>211.39999999999998</ele><time>2026-04-23T14:32:58.288Z</time></trkpt><trkpt lat="45.5110133" lon="11.0648867"><ele>217.0</ele><time>2026-04-23T14:32:59.287Z</time></trkpt><trkpt lat="45.510915" lon="11.0648667"><ele>217.0</ele><time>2026-04-23T14:33:00.287Z</time></trkpt><trkpt lat="45.510815" lon="11.064835"><ele>217.0</ele><time>2026-04-23T14:33:01.287Z</time></trkpt><trkpt lat="45.5107083" lon="11.0648167"><ele>217.0</ele><time>2026-04-23T14:33:02.287Z</time></trkpt><trkpt lat="45.5106017" lon="11.0647983"><ele>217.0</ele><time>2026-04-23T14:33:03.287Z</time></trkpt><trkpt lat="45.510485" lon="11.0647783"><ele>217.0</ele><time>2026-04-23T14:33:04.287Z</time></trkpt><trkpt lat="45.51036" lon="11.0647933"><ele>211.75</ele><time>2026-04-23T14:33:05.287Z</time></trkpt><trkpt lat="45.5102283" lon="11.0648033"><ele>206.5</ele><time>2026-04-23T14:33:06.288Z</time></trkpt><trkpt lat="45.5101133" lon="11.0647917"><ele>201.25</ele><time>2026-04-23T14:33:07.287Z</time></trkpt><trkpt lat="45.5100017" lon="11.06475"><ele>196.0</ele><time>2026-04-23T14:33:08.287Z</time></trkpt><trkpt lat="45.5098883" lon="11.0647"><ele>196.0</ele><time>2026-04-23T14:33:09.287Z</time></trkpt><trkpt lat="45.5097683" lon="11.0646433"><ele>196.0</ele><time>2026-04-23T14:33:10.288Z</time></trkpt><trkpt lat="45.509655" lon="11.0646017"><ele>196.0</ele><time>2026-04-23T14:33:11.287Z</time></trkpt><trkpt lat="45.50953" lon="11.064585"><ele>196.0</ele><time>2026-04-23T14:33:12.287Z</time></trkpt><trkpt lat="45.5094233" lon="11.0645667"><ele>192.25</ele><time>2026-04-23T14:33:13.287Z</time></trkpt><trkpt lat="45.5093167" lon="11.0645367"><ele>188.5</ele><time>2026-04-23T14:33:14.287Z</time></trkpt><trkpt lat="45.509205" lon="11.0645117"><ele>184.75</ele><time>2026-04-23T14:33:15.288Z</time></trkpt><trkpt lat="45.5090783" lon="11.06452"><ele>181.0</ele><time>2026-04-23T14:33:16.288Z</time></trkpt><trkpt lat="45.5089717" lon="11.0645067"><ele>181.0</ele><time>2026-04-23T14:33:17.288Z</time></trkpt><trkpt lat="45.5088633" lon="11.0645"><ele>181.0</ele><time>2026-04-23T14:33:18.287Z</time></trkpt><trkpt lat="45.508745" lon="11.064485"><ele>181.0</ele><time>2026-04-23T14:33:19.287Z</time></trkpt><trkpt lat="45.50862" lon="11.0644683"><ele>181.0</ele><time>2026-04-23T14:33:20.287Z</time></trkpt><trkpt lat="45.5085067" lon="11.06444"><ele>178.20000000000002</ele><time>2026-04-23T14:33:21.287Z</time></trkpt><trkpt lat="45.5083983" lon="11.0644067"><ele>175.4</ele><time>2026-04-23T14:33:22.287Z</time></trkpt><trkpt lat="45.5082933" lon="11.064385"><ele>172.6</ele><time>2026-04-23T14:33:23.287Z</time></trkpt><trkpt lat="45.5081767" lon="11.0643583"><ele>169.8</ele><time>2026-04-23T14:33:24.287Z</time></trkpt><trkpt lat="45.5080767" lon="11.0642983"><ele>167.0</ele><time>2026-04-23T14:33:25.287Z</time></trkpt><trkpt lat="45.5079717" lon="11.0642267"><ele>167.39999999999998</ele><time>2026-04-23T14:33:26.287Z</time></trkpt><trkpt lat="45.5078683" lon="11.0641433"><ele>167.79999999999998</ele><time>2026-04-23T14:33:27.287Z</time></trkpt><trkpt lat="45.5077783" lon="11.064065"><ele>168.2</ele><time>2026-04-23T14:33:28.287Z</time></trkpt><trkpt lat="45.5076883" lon="11.063985"><ele>168.6</ele><time>2026-04-23T14:33:29.287Z</time></trkpt><trkpt lat="45.507595" lon="11.0638883"><ele>169.0</ele><time>2026-04-23T14:33:30.287Z</time></trkpt><trkpt lat="45.5074917" lon="11.063815"><ele>169.0</ele><time>2026-04-23T14:33:31.287Z</time></trkpt><trkpt lat="45.50742" lon="11.0637367"><ele>169.0</ele><time>2026-04-23T14:33:32.287Z</time></trkpt><trkpt lat="45.5073433" lon="11.063665"><ele>169.0</ele><time>2026-04-23T14:33:33.287Z</time></trkpt><trkpt lat="45.507245" lon="11.0636133"><ele>169.0</ele><time>2026-04-23T14:33:34.288Z</time></trkpt><trkpt lat="45.5071433" lon="11.0635633"><ele>169.0</ele><time>2026-04-23T14:33:35.287Z</time></trkpt><trkpt lat="45.5070383" lon="11.06353"><ele>165.25</ele><time>2026-04-23T14:33:36.288Z</time></trkpt><trkpt lat="45.5069267" lon="11.063495"><ele>161.5</ele><time>2026-04-23T14:33:37.288Z</time></trkpt><trkpt lat="45.506815" lon="11.06343"><ele>157.75</ele><time>2026-04-23T14:33:38.287Z</time></trkpt><trkpt lat="45.506705" lon="11.063365"><ele>154.0</ele><time>2026-04-23T14:33:39.287Z</time></trkpt><trkpt lat="45.5065983" lon="11.063295"><ele>153.8</ele><time>2026-04-23T14:33:40.287Z</time></trkpt><trkpt lat="45.5064867" lon="11.06323"><ele>153.60000000000002</ele><time>2026-04-23T14:33:41.287Z</time></trkpt><trkpt lat="45.5063883" lon="11.0631633"><ele>153.4</ele><time>2026-04-23T14:33:42.287Z</time></trkpt><trkpt lat="45.50629" lon="11.0631"><ele>153.20000000000002</ele><time>2026-04-23T14:33:43.287Z</time></trkpt><trkpt lat="45.5061983" lon="11.06304"><ele>153.0</ele><time>2026-04-23T14:33:44.287Z</time></trkpt><trkpt lat="45.506095" lon="11.0629817"><ele>153.0</ele><time>2026-04-23T14:33:45.287Z</time></trkpt><trkpt lat="45.5059883" lon="11.062925"><ele>153.0</ele><time>2026-04-23T14:33:46.287Z</time></trkpt><trkpt lat="45.505885" lon="11.062855"><ele>153.0</ele><time>2026-04-23T14:33:47.288Z</time></trkpt><trkpt lat="45.50578" lon="11.06278"><ele>153.0</ele><time>2026-04-23T14:33:48.287Z</time></trkpt><trkpt lat="45.5056683" lon="11.06271"><ele>153.0</ele><time>2026-04-23T14:33:49.287Z</time></trkpt><trkpt lat="45.5055583" lon="11.0626467"><ele>153.0</ele><time>2026-04-23T14:33:50.287Z</time></trkpt><trkpt lat="45.5054483" lon="11.0625883"><ele>153.0</ele><time>2026-04-23T14:33:51.287Z</time></trkpt><trkpt lat="45.5053367" lon="11.062535"><ele>153.0</ele><time>2026-04-23T14:33:52.287Z</time></trkpt><trkpt lat="45.50524" lon="11.06248"><ele>152.0</ele><time>2026-04-23T14:33:53.288Z</time></trkpt><trkpt lat="45.5051367" lon="11.0624267"><ele>151.0</ele><time>2026-04-23T14:33:54.288Z</time></trkpt><trkpt lat="45.5050283" lon="11.0623767"><ele>150.0</ele><time>2026-04-23T14:33:55.287Z</time></trkpt><trkpt lat="45.5049167" lon="11.06232"><ele>149.0</ele><time>2026-04-23T14:33:56.287Z</time></trkpt><trkpt lat="45.5047967" lon="11.0622617"><ele>149.0</ele><time>2026-04-23T14:33:57.287Z</time></trkpt><trkpt lat="45.5046917" lon="11.0621933"><ele>149.0</ele><time>2026-04-23T14:33:58.287Z</time></trkpt><trkpt lat="45.504585" lon="11.0621433"><ele>149.0</ele><time>2026-04-23T14:33:59.287Z</time></trkpt><trkpt lat="45.50447" lon="11.0621033"><ele>149.0</ele><time>2026-04-23T14:34:00.287Z</time></trkpt><trkpt lat="45.5043583" lon="11.062075"><ele>148.0</ele><time>2026-04-23T14:34:01.287Z</time></trkpt><trkpt lat="45.5042433" lon="11.0620367"><ele>147.0</ele><time>2026-04-23T14:34:02.287Z</time></trkpt><trkpt lat="45.5041167" lon="11.0619833"><ele>146.0</ele><time>2026-04-23T14:34:03.287Z</time></trkpt><trkpt lat="45.504005" lon="11.06195"><ele>145.0</ele><time>2026-04-23T14:34:04.287Z</time></trkpt><trkpt lat="45.50389" lon="11.0619067"><ele>145.0</ele><time>2026-04-23T14:34:05.287Z</time></trkpt><trkpt lat="45.5037767" lon="11.0618567"><ele>145.0</ele><time>2026-04-23T14:34:06.287Z</time></trkpt><trkpt lat="45.50366" lon="11.0618183"><ele>145.0</ele><time>2026-04-23T14:34:07.288Z</time></trkpt><trkpt lat="45.5035417" lon="11.0617667"><ele>145.0</ele><time>2026-04-23T14:34:08.288Z</time></trkpt><trkpt lat="45.50342" lon="11.0617233"><ele>145.0</ele><time>2026-04-23T14:34:09.287Z</time></trkpt><trkpt lat="45.50331" lon="11.06167"><ele>145.0</ele><time>2026-04-23T14:34:10.287Z</time></trkpt><trkpt lat="45.5032017" lon="11.061625"><ele>145.0</ele><time>2026-04-23T14:34:11.287Z</time></trkpt><trkpt lat="45.503095" lon="11.0615883"><ele>145.0</ele><time>2026-04-23T14:34:12.287Z</time></trkpt><trkpt lat="45.5030017" lon="11.0615483"><ele>145.0</ele><time>2026-04-23T14:34:13.288Z</time></trkpt><trkpt lat="45.5029233" lon="11.0615067"><ele>144.33333333333334</ele><time>2026-04-23T14:34:14.287Z</time></trkpt><trkpt lat="45.5028483" lon="11.0614533"><ele>143.66666666666669</ele><time>2026-04-23T14:34:15.287Z</time></trkpt><trkpt lat="45.5027767" lon="11.0613933"><ele>143.0</ele><time>2026-04-23T14:34:16.287Z</time></trkpt><trkpt lat="45.5027233" lon="11.0613133"><ele>142.33333333333334</ele><time>2026-04-23T14:34:17.287Z</time></trkpt><trkpt lat="45.5026867" lon="11.0612"><ele>141.66666666666666</ele><time>2026-04-23T14:34:18.287Z</time></trkpt><trkpt lat="45.50269" lon="11.061035"><ele>141.0</ele><time>2026-04-23T14:34:19.287Z</time></trkpt><trkpt lat="45.50271" lon="11.0608883"><ele>141.5</ele><time>2026-04-23T14:34:20.287Z</time></trkpt><trkpt lat="45.50273" lon="11.06078"><ele>142.0</ele><time>2026-04-23T14:34:21.287Z</time></trkpt><trkpt lat="45.502755" lon="11.06068"><ele>142.5</ele><time>2026-04-23T14:34:22.287Z</time></trkpt><trkpt lat="45.502845" lon="11.0606"><ele>143.0</ele><time>2026-04-23T14:34:24.287Z</time></trkpt><trkpt lat="45.5029183" lon="11.0606083"><ele>143.5</ele><time>2026-04-23T14:34:25.287Z</time></trkpt><trkpt lat="45.5029917" lon="11.0606267"><ele>144.0</ele><time>2026-04-23T14:34:26.287Z</time></trkpt><trkpt lat="45.5030517" lon="11.0606633"><ele>144.5</ele><time>2026-04-23T14:34:27.288Z</time></trkpt><trkpt lat="45.5031433" lon="11.06068"><ele>145.0</ele><time>2026-04-23T14:34:29.287Z</time></trkpt><trkpt lat="45.5032283" lon="11.06066"><ele>145.5</ele><time>2026-04-23T14:34:31.287Z</time></trkpt><trkpt lat="45.5032967" lon="11.06061"><ele>146.0</ele><time>2026-04-23T14:34:32.287Z</time></trkpt><trkpt lat="45.5033583" lon="11.0605433"><ele>146.5</ele><time>2026-04-23T14:34:33.287Z</time></trkpt><trkpt lat="45.50341" lon="11.0604533"><ele>147.0</ele><time>2026-04-23T14:34:34.287Z</time></trkpt><trkpt lat="45.503405" lon="11.06033"><ele>147.0</ele><time>2026-04-23T14:34:35.287Z</time></trkpt><trkpt lat="45.5034183" lon="11.0602017"><ele>147.0</ele><time>2026-04-23T14:34:36.287Z</time></trkpt><trkpt lat="45.50345" lon="11.0600783"><ele>147.0</ele><time>2026-04-23T14:34:37.287Z</time></trkpt><trkpt lat="45.5034883" lon="11.0599433"><ele>147.0</ele><time>2026-04-23T14:34:38.287Z</time></trkpt><trkpt lat="45.50353" lon="11.05979"><ele>147.0</ele><time>2026-04-23T14:34:39.288Z</time></trkpt><trkpt lat="45.5035833" lon="11.0596383"><ele>148.5</ele><time>2026-04-23T14:34:40.287Z</time></trkpt><trkpt lat="45.5036367" lon="11.0594967"><ele>150.0</ele><time>2026-04-23T14:34:41.287Z</time></trkpt><trkpt lat="45.5036983" lon="11.0593517"><ele>151.5</ele><time>2026-04-23T14:34:42.287Z</time></trkpt><trkpt lat="45.5037517" lon="11.0591667"><ele>153.0</ele><time>2026-04-23T14:34:43.288Z</time></trkpt><trkpt lat="45.503795" lon="11.0590283"><ele>155.60000000000002</ele><time>2026-04-23T14:34:44.288Z</time></trkpt><trkpt lat="45.5038267" lon="11.0589167"><ele>158.20000000000002</ele><time>2026-04-23T14:34:45.288Z</time></trkpt><trkpt lat="45.5038783" lon="11.0587883"><ele>160.8</ele><time>2026-04-23T14:34:47.287Z</time></trkpt><trkpt lat="45.5039717" lon="11.0587533"><ele>163.4</ele><time>2026-04-23T14:34:49.287Z</time></trkpt><trkpt lat="45.5040317" lon="11.058815"><ele>166.0</ele><time>2026-04-23T14:34:50.287Z</time></trkpt><trkpt lat="45.50416" lon="11.059015"><ele>166.0</ele><time>2026-04-23T14:34:51.286Z</time></trkpt><trkpt lat="45.5042317" lon="11.0591483"><ele>166.0</ele><time>2026-04-23T14:34:52.287Z</time></trkpt><trkpt lat="45.5042767" lon="11.059275"><ele>166.0</ele><time>2026-04-23T14:34:53.286Z</time></trkpt><trkpt lat="45.5043317" lon="11.05935"><ele>166.0</ele><time>2026-04-23T14:34:54.287Z</time></trkpt><trkpt lat="45.5044" lon="11.0592333"><ele>166.0</ele><time>2026-04-23T14:34:57.287Z</time></trkpt><trkpt lat="45.5044217" lon="11.0591117"><ele>166.0</ele><time>2026-04-23T14:34:58.286Z</time></trkpt><trkpt lat="45.5044467" lon="11.0590083"><ele>166.0</ele><time>2026-04-23T14:34:59.286Z</time></trkpt><trkpt lat="45.5045233" lon="11.0589217"><ele>166.0</ele><time>2026-04-23T14:35:01.286Z</time></trkpt><trkpt lat="45.5046533" lon="11.0589183"><ele>166.0</ele><time>2026-04-23T14:35:03.286Z</time></trkpt><trkpt lat="45.5047367" lon="11.0589033"><ele>166.0</ele><time>2026-04-23T14:35:05.286Z</time></trkpt><trkpt lat="45.50478" lon="11.0588233"><ele>168.0</ele><time>2026-04-23T14:35:09.286Z</time></trkpt><trkpt lat="45.5048083" lon="11.058935"><ele>170.0</ele><time>2026-04-23T14:35:19.286Z</time></trkpt><trkpt lat="45.5048617" lon="11.0590183"><ele>172.0</ele><time>2026-04-23T14:35:23.286Z</time></trkpt><trkpt lat="45.504925" lon="11.0590317"><ele>174.0</ele><time>2026-04-23T14:35:25.286Z</time></trkpt><trkpt lat="45.50494" lon="11.059155"><ele>176.0</ele><time>2026-04-23T14:35:28.286Z</time></trkpt><trkpt lat="45.5049683" lon="11.0592367"><ele>178.0</ele><time>2026-04-23T14:35:31.286Z</time></trkpt><trkpt lat="45.5049917" lon="11.0593217"><ele>180.0</ele><time>2026-04-23T14:35:39.287Z</time></trkpt><trkpt lat="45.50505" lon="11.0594217"><ele>180.0</ele><time>2026-04-23T14:35:42.286Z</time></trkpt><trkpt lat="45.5051133" lon="11.0594517"><ele>180.0</ele><time>2026-04-23T14:35:44.286Z</time></trkpt><trkpt lat="45.50519" lon="11.0594317"><ele>180.0</ele><time>2026-04-23T14:35:46.286Z</time></trkpt><trkpt lat="45.5052567" lon="11.059375"><ele>180.0</ele><time>2026-04-23T14:35:48.286Z</time></trkpt><trkpt lat="45.5053033" lon="11.0593117"><ele>180.0</ele><time>2026-04-23T14:35:51.286Z</time></trkpt><trkpt lat="45.5053717" lon="11.05934"><ele>180.0</ele><time>2026-04-23T14:35:54.286Z</time></trkpt><trkpt lat="45.505445" lon="11.0593233"><ele>180.0</ele><time>2026-04-23T14:35:57.286Z</time></trkpt><trkpt lat="45.505505" lon="11.0592633"><ele>185.16666666666666</ele><time>2026-04-23T14:36:00.286Z</time></trkpt><trkpt lat="45.5055583" lon="11.0592117"><ele>190.33333333333331</ele><time>2026-04-23T14:36:07.286Z</time></trkpt><trkpt lat="45.5055783" lon="11.0591167"><ele>195.5</ele><time>2026-04-23T14:36:10.286Z</time></trkpt><trkpt lat="45.5056117" lon="11.0590283"><ele>200.66666666666666</ele><time>2026-04-23T14:36:13.286Z</time></trkpt><trkpt lat="45.5056883" lon="11.0589583"><ele>205.83333333333331</ele><time>2026-04-23T14:36:15.286Z</time></trkpt><trkpt lat="45.5057767" lon="11.058895"><ele>211.0</ele><time>2026-04-23T14:36:17.286Z</time></trkpt><trkpt lat="45.5058633" lon="11.0588917"><ele>211.83333333333331</ele><time>2026-04-23T14:36:20.286Z</time></trkpt><trkpt lat="45.50594" lon="11.0588633"><ele>212.66666666666666</ele><time>2026-04-23T14:36:24.286Z</time></trkpt><trkpt lat="45.5059917" lon="11.0587967"><ele>213.5</ele><time>2026-04-23T14:36:35.286Z</time></trkpt><trkpt lat="45.5060033" lon="11.0586817"><ele>214.33333333333331</ele><time>2026-04-23T14:36:39.287Z</time></trkpt><trkpt lat="45.5060583" lon="11.0586017"><ele>215.16666666666666</ele><time>2026-04-23T14:36:41.286Z</time></trkpt><trkpt lat="45.5061367" lon="11.0585817"><ele>216.0</ele><time>2026-04-23T14:36:45.286Z</time></trkpt><trkpt lat="45.506225" lon="11.058605"><ele>223.0</ele><time>2026-04-23T14:36:48.287Z</time></trkpt><trkpt lat="45.5063017" lon="11.058705"><ele>230.0</ele><time>2026-04-23T14:36:51.287Z</time></trkpt><trkpt lat="45.506365" lon="11.0587767"><ele>237.0</ele><time>2026-04-23T14:36:53.286Z</time></trkpt><trkpt lat="45.5064467" lon="11.0588133"><ele>244.0</ele><time>2026-04-23T14:36:55.286Z</time></trkpt><trkpt lat="45.5065067" lon="11.0588467"><ele>251.0</ele><time>2026-04-23T14:36:57.286Z</time></trkpt><trkpt lat="45.5065717" lon="11.0588167"><ele>258.0</ele><time>2026-04-23T14:36:59.286Z</time></trkpt><trkpt lat="45.5066367" lon="11.0588233"><ele>258.0</ele><time>2026-04-23T14:37:03.286Z</time></trkpt><trkpt lat="45.5067017" lon="11.0588333"><ele>258.0</ele><time>2026-04-23T14:37:08.286Z</time></trkpt><trkpt lat="45.506685" lon="11.0587417"><ele>258.0</ele><time>2026-04-23T14:37:13.286Z</time></trkpt><trkpt lat="45.50672" lon="11.0586167"><ele>258.0</ele><time>2026-04-23T14:37:19.286Z</time></trkpt><trkpt lat="45.506785" lon="11.058555"><ele>258.0</ele><time>2026-04-23T14:37:22.286Z</time></trkpt><trkpt lat="45.5068533" lon="11.0585283"><ele>258.0</ele><time>2026-04-23T14:37:25.286Z</time></trkpt><trkpt lat="45.5069517" lon="11.05859"><ele>258.0</ele><time>2026-04-23T14:37:42.286Z</time></trkpt><trkpt lat="45.5070667" lon="11.0586283"><ele>258.0</ele><time>2026-04-23T14:37:53.285Z</time></trkpt><trkpt lat="45.5071217" lon="11.0585783"><ele>258.0</ele><time>2026-04-23T14:37:56.285Z</time></trkpt><trkpt lat="45.5071933" lon="11.05854"><ele>258.0</ele><time>2026-04-23T14:38:00.285Z</time></trkpt><trkpt lat="45.5072633" lon="11.05855"><ele>258.0</ele><time>2026-04-23T14:38:10.285Z</time></trkpt><trkpt lat="45.5073567" lon="11.058585"><ele>258.0</ele><time>2026-04-23T14:38:23.285Z</time></trkpt><trkpt lat="45.5073683" lon="11.0586883"><ele>264.0</ele><time>2026-04-23T14:38:27.285Z</time></trkpt><trkpt lat="45.50747" lon="11.058655"><ele>270.0</ele><time>2026-04-23T14:38:45.285Z</time></trkpt><trkpt lat="45.5075667" lon="11.05866"><ele>276.0</ele><time>2026-04-23T14:38:51.285Z</time></trkpt><trkpt lat="45.5076517" lon="11.058555"><ele>282.0</ele><time>2026-04-23T14:38:58.286Z</time></trkpt><trkpt lat="45.507705" lon="11.0584983"><ele>288.0</ele><time>2026-04-23T14:39:01.285Z</time></trkpt><trkpt lat="45.5077667" lon="11.058475"><ele>294.0</ele><time>2026-04-23T14:39:06.285Z</time></trkpt><trkpt lat="45.5078367" lon="11.0585267"><ele>298.3333333333333</ele><time>2026-04-23T14:39:09.285Z</time></trkpt><trkpt lat="45.5079133" lon="11.058545"><ele>302.6666666666667</ele><time>2026-04-23T14:39:12.285Z</time></trkpt><trkpt lat="45.5079667" lon="11.0586133"><ele>307.0</ele><time>2026-04-23T14:39:14.285Z</time></trkpt><trkpt lat="45.5080317" lon="11.0586117"><ele>311.33333333333337</ele><time>2026-04-23T14:39:17.286Z</time></trkpt><trkpt lat="45.5081133" lon="11.0586467"><ele>315.6666666666667</ele><time>2026-04-23T14:39:21.285Z</time></trkpt><trkpt lat="45.5081417" lon="11.0587583"><ele>320.0</ele><time>2026-04-23T14:39:24.285Z</time></trkpt><trkpt lat="45.5081783" lon="11.058855"><ele>320.0</ele><time>2026-04-23T14:39:27.285Z</time></trkpt><trkpt lat="45.5082617" lon="11.0588933"><ele>320.0</ele><time>2026-04-23T14:39:30.286Z</time></trkpt><trkpt lat="45.5083333" lon="11.0589067"><ele>320.0</ele><time>2026-04-23T14:39:34.286Z</time></trkpt><trkpt lat="45.5084" lon="11.0589017"><ele>320.0</ele><time>2026-04-23T14:39:37.285Z</time></trkpt><trkpt lat="45.50849" lon="11.0589383"><ele>320.0</ele><time>2026-04-23T14:39:39.285Z</time></trkpt><trkpt lat="45.50855" lon="11.0590067"><ele>320.0</ele><time>2026-04-23T14:39:41.285Z</time></trkpt><trkpt lat="45.5085483" lon="11.059135"><ele>321.83333333333337</ele><time>2026-04-23T14:39:43.285Z</time></trkpt><trkpt lat="45.5085667" lon="11.0592267"><ele>323.6666666666667</ele><time>2026-04-23T14:39:45.285Z</time></trkpt><trkpt lat="45.5085533" lon="11.0593367"><ele>325.5</ele><time>2026-04-23T14:39:47.285Z</time></trkpt><trkpt lat="45.50861" lon="11.0594567"><ele>327.3333333333333</ele><time>2026-04-23T14:39:53.285Z</time></trkpt><trkpt lat="45.5087067" lon="11.0594917"><ele>329.16666666666663</ele><time>2026-04-23T14:39:56.285Z</time></trkpt><trkpt lat="45.50878" lon="11.059535"><ele>331.0</ele><time>2026-04-23T14:39:59.285Z</time></trkpt><trkpt lat="45.5088467" lon="11.0595483"><ele>334.66666666666663</ele><time>2026-04-23T14:40:02.285Z</time></trkpt><trkpt lat="45.5089267" lon="11.0595517"><ele>338.3333333333333</ele><time>2026-04-23T14:40:04.285Z</time></trkpt><trkpt lat="45.50901" lon="11.059565"><ele>342.0</ele><time>2026-04-23T14:40:06.286Z</time></trkpt><trkpt lat="45.5090967" lon="11.0596217"><ele>345.6666666666667</ele><time>2026-04-23T14:40:09.285Z</time></trkpt><trkpt lat="45.509175" lon="11.0596467"><ele>349.33333333333337</ele><time>2026-04-23T14:40:12.285Z</time></trkpt><trkpt lat="45.5092517" lon="11.0596483"><ele>353.0</ele><time>2026-04-23T14:40:15.284Z</time></trkpt><trkpt lat="45.509315" lon="11.0596467"><ele>353.0</ele><time>2026-04-23T14:40:17.284Z</time></trkpt><trkpt lat="45.5093883" lon="11.05965"><ele>353.0</ele><time>2026-04-23T14:40:20.284Z</time></trkpt><trkpt lat="45.5094767" lon="11.0596683"><ele>353.0</ele><time>2026-04-23T14:40:22.284Z</time></trkpt><trkpt lat="45.509575" lon="11.059725"><ele>353.0</ele><time>2026-04-23T14:40:24.285Z</time></trkpt><trkpt lat="45.5096617" lon="11.0597683"><ele>353.0</ele><time>2026-04-23T14:40:26.284Z</time></trkpt><trkpt lat="45.509745" lon="11.0597883"><ele>353.0</ele><time>2026-04-23T14:40:28.284Z</time></trkpt><trkpt lat="45.5098133" lon="11.0597783"><ele>354.6666666666667</ele><time>2026-04-23T14:40:30.285Z</time></trkpt><trkpt lat="45.5099067" lon="11.05978"><ele>356.33333333333337</ele><time>2026-04-23T14:40:32.285Z</time></trkpt><trkpt lat="45.509985" lon="11.0597867"><ele>358.0</ele><time>2026-04-23T14:40:34.284Z</time></trkpt><trkpt lat="45.51006" lon="11.0597767"><ele>359.6666666666667</ele><time>2026-04-23T14:40:36.284Z</time></trkpt><trkpt lat="45.51015" lon="11.0598067"><ele>361.3333333333333</ele><time>2026-04-23T14:40:38.284Z</time></trkpt><trkpt lat="45.5102033" lon="11.05986"><ele>363.0</ele><time>2026-04-23T14:40:40.284Z</time></trkpt><trkpt lat="45.5103017" lon="11.059925"><ele>364.1666666666667</ele><time>2026-04-23T14:40:43.284Z</time></trkpt><trkpt lat="45.510375" lon="11.0599817"><ele>365.3333333333333</ele><time>2026-04-23T14:40:45.284Z</time></trkpt><trkpt lat="45.5104433" lon="11.059975"><ele>366.5</ele><time>2026-04-23T14:40:48.285Z</time></trkpt><trkpt lat="45.5105167" lon="11.0599817"><ele>367.66666666666663</ele><time>2026-04-23T14:40:50.284Z</time></trkpt><trkpt lat="45.5105733" lon="11.060025"><ele>368.8333333333333</ele><time>2026-04-23T14:40:51.284Z</time></trkpt><trkpt lat="45.5106467" lon="11.0600683"><ele>370.0</ele><time>2026-04-23T14:40:52.285Z</time></trkpt><trkpt lat="45.51073" lon="11.06013"><ele>372.0</ele><time>2026-04-23T14:40:53.284Z</time></trkpt><trkpt lat="45.5108083" lon="11.0601717"><ele>374.0</ele><time>2026-04-23T14:40:55.284Z</time></trkpt><trkpt lat="45.5108767" lon="11.0601883"><ele>376.0</ele><time>2026-04-23T14:40:57.284Z</time></trkpt><trkpt lat="45.5109933" lon="11.06008"><ele>378.0</ele><time>2026-04-23T14:41:56.284Z</time></trkpt><trkpt lat="45.5110967" lon="11.0601467"><ele>380.0</ele><time>2026-04-23T14:47:54.282Z</time></trkpt><trkpt lat="45.5112033" lon="11.0601867"><ele>380.4</ele><time>2026-04-23T14:47:56.282Z</time></trkpt><trkpt lat="45.511265" lon="11.0602067"><ele>380.8</ele><time>2026-04-23T14:47:57.283Z</time></trkpt><trkpt lat="45.5113817" lon="11.0602717"><ele>381.20000000000005</ele><time>2026-04-23T14:47:59.282Z</time></trkpt><trkpt lat="45.5114783" lon="11.0603017"><ele>381.6</ele><time>2026-04-23T14:48:01.282Z</time></trkpt><trkpt lat="45.5115817" lon="11.060265"><ele>382.0</ele><time>2026-04-23T14:48:03.282Z</time></trkpt><trkpt lat="45.5117017" lon="11.06023"><ele>382.0</ele><time>2026-04-23T14:48:05.282Z</time></trkpt><trkpt lat="45.5117833" lon="11.06022"><ele>382.0</ele><time>2026-04-23T14:48:06.282Z</time></trkpt><trkpt lat="45.5118767" lon="11.0602233"><ele>382.0</ele><time>2026-04-23T14:48:07.282Z</time></trkpt><trkpt lat="45.5119733" lon="11.0602267"><ele>382.0</ele><time>2026-04-23T14:48:08.282Z</time></trkpt><trkpt lat="45.512065" lon="11.060245"><ele>382.0</ele><time>2026-04-23T14:48:09.282Z</time></trkpt><trkpt lat="45.5121433" lon="11.060275"><ele>382.0</ele><time>2026-04-23T14:48:10.282Z</time></trkpt><trkpt lat="45.51227" lon="11.06029"><ele>383.16666666666663</ele><time>2026-04-23T14:48:11.282Z</time></trkpt><trkpt lat="45.5123367" lon="11.060325"><ele>384.3333333333333</ele><time>2026-04-23T14:48:12.282Z</time></trkpt><trkpt lat="45.5124133" lon="11.0603433"><ele>385.5</ele><time>2026-04-23T14:48:13.282Z</time></trkpt><trkpt lat="45.512505" lon="11.0603617"><ele>386.66666666666663</ele><time>2026-04-23T14:48:15.282Z</time></trkpt><trkpt lat="45.5125817" lon="11.0603367"><ele>387.8333333333333</ele><time>2026-04-23T14:48:18.282Z</time></trkpt><trkpt lat="45.5126833" lon="11.060315"><ele>389.0</ele><time>2026-04-23T14:48:19.282Z</time></trkpt><trkpt lat="45.5127683" lon="11.060295"><ele>388.99999999999994</ele><time>2026-04-23T14:48:20.282Z</time></trkpt><trkpt lat="45.5128317" lon="11.0602833"><ele>389.0</ele><time>2026-04-23T14:48:21.282Z</time></trkpt><trkpt lat="45.5129017" lon="11.0602967"><ele>389.0</ele><time>2026-04-23T14:48:23.283Z</time></trkpt><trkpt lat="45.5129917" lon="11.0602667"><ele>389.0</ele><time>2026-04-23T14:48:25.282Z</time></trkpt><trkpt lat="45.5130567" lon="11.0602267"><ele>388.99999999999994</ele><time>2026-04-23T14:48:26.282Z</time></trkpt><trkpt lat="45.51312" lon="11.0601583"><ele>389.0</ele><time>2026-04-23T14:48:27.282Z</time></trkpt><trkpt lat="45.5131317" lon="11.06005"><ele>389.66666666666663</ele><time>2026-04-23T14:48:29.281Z</time></trkpt><trkpt lat="45.513185" lon="11.0599733"><ele>390.3333333333333</ele><time>2026-04-23T14:48:30.281Z</time></trkpt><trkpt lat="45.513225" lon="11.0598383"><ele>391.0</ele><time>2026-04-23T14:48:31.281Z</time></trkpt><trkpt lat="45.513255" lon="11.0596633"><ele>391.66666666666663</ele><time>2026-04-23T14:48:32.281Z</time></trkpt><trkpt lat="45.5132883" lon="11.0595683"><ele>392.3333333333333</ele><time>2026-04-23T14:48:33.281Z</time></trkpt><trkpt lat="45.5133067" lon="11.059475"><ele>393.0</ele><time>2026-04-23T14:48:34.281Z</time></trkpt><trkpt lat="45.51333" lon="11.0593233"><ele>393.4</ele><time>2026-04-23T14:48:35.281Z</time></trkpt><trkpt lat="45.5133483" lon="11.0591867"><ele>393.79999999999995</ele><time>2026-04-23T14:48:36.281Z</time></trkpt><trkpt lat="45.5133467" lon="11.0590617"><ele>394.2</ele><time>2026-04-23T14:48:37.281Z</time></trkpt><trkpt lat="45.5133767" lon="11.058905"><ele>394.6</ele><time>2026-04-23T14:48:38.281Z</time></trkpt><trkpt lat="45.5133867" lon="11.0587717"><ele>395.0</ele><time>2026-04-23T14:48:39.281Z</time></trkpt><trkpt lat="45.5133917" lon="11.0586467"><ele>395.66666666666663</ele><time>2026-04-23T14:48:40.281Z</time></trkpt><trkpt lat="45.513375" lon="11.0585433"><ele>396.3333333333333</ele><time>2026-04-23T14:48:41.281Z</time></trkpt><trkpt lat="45.5133483" lon="11.0584333"><ele>397.0</ele><time>2026-04-23T14:48:42.281Z</time></trkpt><trkpt lat="45.513325" lon="11.0583183"><ele>397.66666666666663</ele><time>2026-04-23T14:48:43.281Z</time></trkpt><trkpt lat="45.51331" lon="11.0582133"><ele>398.3333333333333</ele><time>2026-04-23T14:48:44.282Z</time></trkpt><trkpt lat="45.5132967" lon="11.058095"><ele>399.0</ele><time>2026-04-23T14:48:45.282Z</time></trkpt><trkpt lat="45.513285" lon="11.0580017"><ele>402.0</ele><time>2026-04-23T14:48:46.281Z</time></trkpt><trkpt lat="45.513235" lon="11.0578767"><ele>405.0</ele><time>2026-04-23T14:48:47.281Z</time></trkpt><trkpt lat="45.5132" lon="11.05772"><ele>408.0</ele><time>2026-04-23T14:48:49.281Z</time></trkpt><trkpt lat="45.5131133" lon="11.0576033"><ele>411.0</ele><time>2026-04-23T14:48:51.282Z</time></trkpt><trkpt lat="45.5130367" lon="11.0576"><ele>414.0</ele><time>2026-04-23T14:48:52.282Z</time></trkpt><trkpt lat="45.5129317" lon="11.0576083"><ele>411.0</ele><time>2026-04-23T14:48:54.281Z</time></trkpt><trkpt lat="45.5128483" lon="11.05761"><ele>408.0</ele><time>2026-04-23T14:48:58.282Z</time></trkpt><trkpt lat="45.5127867" lon="11.0575783"><ele>405.0</ele><time>2026-04-23T14:49:00.282Z</time></trkpt><trkpt lat="45.5127133" lon="11.05757"><ele>402.0</ele><time>2026-04-23T14:49:03.281Z</time></trkpt><trkpt lat="45.5126667" lon="11.0574967"><ele>399.0</ele><time>2026-04-23T14:49:06.281Z</time></trkpt><trkpt lat="45.5127367" lon="11.0575133"><ele>396.0</ele><time>2026-04-23T14:49:15.281Z</time></trkpt><trkpt lat="45.5128567" lon="11.057575"><ele>397.8333333333333</ele><time>2026-04-23T14:49:17.281Z</time></trkpt><trkpt lat="45.51296" lon="11.0576217"><ele>399.66666666666663</ele><time>2026-04-23T14:49:19.281Z</time></trkpt><trkpt lat="45.5129517" lon="11.0575267"><ele>401.5</ele><time>2026-04-23T14:49:26.281Z</time></trkpt><trkpt lat="45.51291" lon="11.0574033"><ele>403.3333333333333</ele><time>2026-04-23T14:49:29.281Z</time></trkpt><trkpt lat="45.5128983" lon="11.0573133"><ele>405.16666666666663</ele><time>2026-04-23T14:49:31.281Z</time></trkpt><trkpt lat="45.51296" lon="11.0572383"><ele>407.0</ele><time>2026-04-23T14:49:35.282Z</time></trkpt><trkpt lat="45.5130633" lon="11.057275"><ele>410.8</ele><time>2026-04-23T14:49:37.281Z</time></trkpt><trkpt lat="45.5131583" lon="11.0572783"><ele>414.6</ele><time>2026-04-23T14:49:39.281Z</time></trkpt><trkpt lat="45.5132467" lon="11.0572933"><ele>418.40000000000003</ele><time>2026-04-23T14:49:41.281Z</time></trkpt><trkpt lat="45.5133367" lon="11.05731"><ele>422.20000000000005</ele><time>2026-04-23T14:49:43.282Z</time></trkpt><trkpt lat="45.5134233" lon="11.0573333"><ele>426.0</ele><time>2026-04-23T14:49:45.282Z</time></trkpt><trkpt lat="45.51351" lon="11.05737"><ele>426.0</ele><time>2026-04-23T14:49:47.281Z</time></trkpt><trkpt lat="45.5135933" lon="11.0573933"><ele>426.0</ele><time>2026-04-23T14:49:50.281Z</time></trkpt><trkpt lat="45.5136633" lon="11.0573617"><ele>426.0</ele><time>2026-04-23T14:49:52.281Z</time></trkpt><trkpt lat="45.5137417" lon="11.0573733"><ele>426.0</ele><time>2026-04-23T14:49:55.281Z</time></trkpt><trkpt lat="45.513765" lon="11.0574733"><ele>426.0</ele><time>2026-04-23T14:49:58.281Z</time></trkpt><trkpt lat="45.513705" lon="11.0575267"><ele>426.0</ele><time>2026-04-23T14:50:00.282Z</time></trkpt><trkpt lat="45.51365" lon="11.0576167"><ele>423.0</ele><time>2026-04-23T14:50:02.281Z</time></trkpt><trkpt lat="45.51359" lon="11.0577517"><ele>420.0</ele><time>2026-04-23T14:50:04.281Z</time></trkpt><trkpt lat="45.5135133" lon="11.057865"><ele>417.0</ele><time>2026-04-23T14:50:06.281Z</time></trkpt><trkpt lat="45.5134117" lon="11.0579483"><ele>414.0</ele><time>2026-04-23T14:50:08.281Z</time></trkpt><trkpt lat="45.5132917" lon="11.0579467"><ele>414.00000000000006</ele><time>2026-04-23T14:50:10.282Z</time></trkpt><trkpt lat="45.5132283" lon="11.0579467"><ele>414.0</ele><time>2026-04-23T14:50:11.281Z</time></trkpt><trkpt lat="45.5131633" lon="11.0579267"><ele>414.0</ele><time>2026-04-23T14:50:12.281Z</time></trkpt><trkpt lat="45.5130983" lon="11.0579083"><ele>414.0</ele><time>2026-04-23T14:50:13.281Z</time></trkpt><trkpt lat="45.5130283" lon="11.0578517"><ele>414.0</ele><time>2026-04-23T14:50:14.281Z</time></trkpt><trkpt lat="45.5129567" lon="11.0578017"><ele>414.00000000000006</ele><time>2026-04-23T14:50:15.281Z</time></trkpt><trkpt lat="45.5128883" lon="11.0577517"><ele>414.0</ele><time>2026-04-23T14:50:16.281Z</time></trkpt><trkpt lat="45.5128217" lon="11.0576983"><ele>413.00000000000006</ele><time>2026-04-23T14:50:17.281Z</time></trkpt><trkpt lat="45.5127567" lon="11.0576333"><ele>412.0</ele><time>2026-04-23T14:50:18.281Z</time></trkpt><trkpt lat="45.512695" lon="11.0575733"><ele>411.0</ele><time>2026-04-23T14:50:19.281Z</time></trkpt><trkpt lat="45.5126383" lon="11.0575167"><ele>410.0</ele><time>2026-04-23T14:50:20.282Z</time></trkpt><trkpt lat="45.5125983" lon="11.0574467"><ele>409.0</ele><time>2026-04-23T14:50:21.281Z</time></trkpt><trkpt lat="45.5125433" lon="11.0573883"><ele>408.00000000000006</ele><time>2026-04-23T14:50:22.281Z</time></trkpt><trkpt lat="45.5124867" lon="11.0573083"><ele>407.0</ele><time>2026-04-23T14:50:23.281Z</time></trkpt><trkpt lat="45.5124067" lon="11.0571783"><ele>407.0</ele><time>2026-04-23T14:50:24.281Z</time></trkpt><trkpt lat="45.5123433" lon="11.05706"><ele>407.0</ele><time>2026-04-23T14:50:25.282Z</time></trkpt><trkpt lat="45.5122817" lon="11.0569633"><ele>407.0</ele><time>2026-04-23T14:50:26.281Z</time></trkpt><trkpt lat="45.5122267" lon="11.0568767"><ele>407.0</ele><time>2026-04-23T14:50:27.281Z</time></trkpt><trkpt lat="45.5121683" lon="11.0567967"><ele>407.0</ele><time>2026-04-23T14:50:28.281Z</time></trkpt><trkpt lat="45.51209" lon="11.0567"><ele>405.49999999999994</ele><time>2026-04-23T14:50:29.282Z</time></trkpt><trkpt lat="45.51202" lon="11.0566183"><ele>404.0</ele><time>2026-04-23T14:50:30.281Z</time></trkpt><trkpt lat="45.5119583" lon="11.0565317"><ele>402.5</ele><time>2026-04-23T14:50:31.281Z</time></trkpt><trkpt lat="45.5118867" lon="11.0564633"><ele>401.0</ele><time>2026-04-23T14:50:32.281Z</time></trkpt><trkpt lat="45.5118133" lon="11.0563933"><ele>399.49999999999994</ele><time>2026-04-23T14:50:33.281Z</time></trkpt><trkpt lat="45.5117467" lon="11.0563133"><ele>398.0</ele><time>2026-04-23T14:50:34.281Z</time></trkpt><trkpt lat="45.51168" lon="11.05622"><ele>398.0</ele><time>2026-04-23T14:50:35.282Z</time></trkpt><trkpt lat="45.511575" lon="11.0561"><ele>398.0</ele><time>2026-04-23T14:50:36.281Z</time></trkpt><trkpt lat="45.511495" lon="11.0560033"><ele>398.0</ele><time>2026-04-23T14:50:37.281Z</time></trkpt><trkpt lat="45.5114233" lon="11.055905"><ele>398.0</ele><time>2026-04-23T14:50:38.281Z</time></trkpt><trkpt lat="45.51136" lon="11.05583"><ele>398.0</ele><time>2026-04-23T14:50:39.281Z</time></trkpt><trkpt lat="45.51129" lon="11.0557433"><ele>395.79999999999995</ele><time>2026-04-23T14:50:40.281Z</time></trkpt><trkpt lat="45.5111867" lon="11.0556283"><ele>393.6</ele><time>2026-04-23T14:50:41.281Z</time></trkpt><trkpt lat="45.5111" lon="11.0555317"><ele>391.4</ele><time>2026-04-23T14:50:42.281Z</time></trkpt><trkpt lat="45.51104" lon="11.0554283"><ele>389.20000000000005</ele><time>2026-04-23T14:50:43.281Z</time></trkpt><trkpt lat="45.5110167" lon="11.0553217"><ele>387.0</ele><time>2026-04-23T14:50:44.281Z</time></trkpt><trkpt lat="45.5109733" lon="11.05524"><ele>387.0</ele><time>2026-04-23T14:50:45.281Z</time></trkpt><trkpt lat="45.5109067" lon="11.055075"><ele>387.0</ele><time>2026-04-23T14:50:47.281Z</time></trkpt><trkpt lat="45.51087" lon="11.0549867"><ele>387.0</ele><time>2026-04-23T14:50:48.281Z</time></trkpt><trkpt lat="45.5108083" lon="11.05483"><ele>387.0</ele><time>2026-04-23T14:50:50.281Z</time></trkpt><trkpt lat="45.5107617" lon="11.0546817"><ele>387.0</ele><time>2026-04-23T14:50:52.281Z</time></trkpt><trkpt lat="45.5107033" lon="11.0545633"><ele>388.0</ele><time>2026-04-23T14:50:54.281Z</time></trkpt><trkpt lat="45.5106633" lon="11.0546667"><ele>389.0</ele><time>2026-04-23T14:50:59.281Z</time></trkpt><trkpt lat="45.5106383" lon="11.0547667"><ele>390.0</ele><time>2026-04-23T14:51:02.282Z</time></trkpt><trkpt lat="45.5105617" lon="11.0547533"><ele>391.0</ele><time>2026-04-23T14:51:04.282Z</time></trkpt><trkpt lat="45.510455" lon="11.05468"><ele>392.0</ele><time>2026-04-23T14:51:06.281Z</time></trkpt><trkpt lat="45.5103667" lon="11.05467"><ele>393.0</ele><time>2026-04-23T14:51:08.281Z</time></trkpt><trkpt lat="45.51029" lon="11.054635"><ele>388.8333333333333</ele><time>2026-04-23T14:51:10.281Z</time></trkpt><trkpt lat="45.5102067" lon="11.0546333"><ele>384.6666666666667</ele><time>2026-04-23T14:51:12.282Z</time></trkpt><trkpt lat="45.51014" lon="11.05463"><ele>380.5</ele><time>2026-04-23T14:51:14.28Z</time></trkpt><trkpt lat="45.5100533" lon="11.0546233"><ele>376.33333333333337</ele><time>2026-04-23T14:51:16.281Z</time></trkpt><trkpt lat="45.50999" lon="11.0546733"><ele>372.1666666666667</ele><time>2026-04-23T14:51:18.28Z</time></trkpt><trkpt lat="45.5099133" lon="11.0547333"><ele>368.0</ele><time>2026-04-23T14:51:20.28Z</time></trkpt><trkpt lat="45.5098583" lon="11.054645"><ele>368.0</ele><time>2026-04-23T14:51:23.28Z</time></trkpt><trkpt lat="45.50983" lon="11.0545367"><ele>368.0</ele><time>2026-04-23T14:51:26.28Z</time></trkpt><trkpt lat="45.5097667" lon="11.0545083"><ele>368.0</ele><time>2026-04-23T14:51:29.28Z</time></trkpt><trkpt lat="45.509705" lon="11.05449"><ele>368.0</ele><time>2026-04-23T14:51:31.281Z</time></trkpt><trkpt lat="45.5096367" lon="11.054455"><ele>368.0</ele><time>2026-04-23T14:51:33.28Z</time></trkpt><trkpt lat="45.5095583" lon="11.0544433"><ele>368.0</ele><time>2026-04-23T14:51:36.28Z</time></trkpt><trkpt lat="45.50948" lon="11.0544917"><ele>368.0</ele><time>2026-04-23T14:51:39.28Z</time></trkpt><trkpt lat="45.50941" lon="11.05452"><ele>363.5</ele><time>2026-04-23T14:51:42.281Z</time></trkpt><trkpt lat="45.5093502" lon="11.0545692"><ele>359.0</ele><time>2026-04-23T14:51:47.359Z</time></trkpt><trkpt lat="45.5092838" lon="11.0545745"><ele>354.5</ele><time>2026-04-23T14:51:50.379Z</time></trkpt><trkpt lat="45.5092236" lon="11.0545069"><ele>350.0</ele><time>2026-04-23T14:51:54.305Z</time></trkpt><trkpt lat="45.5091675" lon="11.054465"><ele>345.5</ele><time>2026-04-23T14:51:56.318Z</time></trkpt><trkpt lat="45.5090828" lon="11.0544422"><ele>341.0</ele><time>2026-04-23T14:52:00.345Z</time></trkpt><trkpt lat="45.5089876" lon="11.0544407"><ele>341.0</ele><time>2026-04-23T14:52:03.396Z</time></trkpt><trkpt lat="45.5089236" lon="11.0545165"><ele>341.0</ele><time>2026-04-23T14:52:05.378Z</time></trkpt><trkpt lat="45.5088615" lon="11.054543"><ele>341.0</ele><time>2026-04-23T14:52:07.357Z</time></trkpt><trkpt lat="45.5087889" lon="11.0545001"><ele>341.0</ele><time>2026-04-23T14:52:10.311Z</time></trkpt><trkpt lat="45.5087065" lon="11.0545158"><ele>341.0</ele><time>2026-04-23T14:52:13.236Z</time></trkpt><trkpt lat="45.5086448" lon="11.0545431"><ele>341.0</ele><time>2026-04-23T14:52:15.396Z</time></trkpt><trkpt lat="45.5085842" lon="11.0544936"><ele>341.0</ele><time>2026-04-23T14:52:18.282Z</time></trkpt><trkpt lat="45.5085917" lon="11.0543877"><ele>338.75</ele><time>2026-04-23T14:52:21.384Z</time></trkpt><trkpt lat="45.5086152" lon="11.054261"><ele>336.5</ele><time>2026-04-23T14:52:23.297Z</time></trkpt><trkpt lat="45.5086489" lon="11.0541299"><ele>334.25</ele><time>2026-04-23T14:52:24.303Z</time></trkpt><trkpt lat="45.50872" lon="11.053885"><ele>332.0</ele><time>2026-04-23T14:52:25.28Z</time></trkpt><trkpt lat="45.50875" lon="11.0537817"><ele>332.0</ele><time>2026-04-23T14:52:26.28Z</time></trkpt><trkpt lat="45.5087883" lon="11.0536817"><ele>332.0</ele><time>2026-04-23T14:52:27.28Z</time></trkpt><trkpt lat="45.5088283" lon="11.053605"><ele>332.0</ele><time>2026-04-23T14:52:28.28Z</time></trkpt><trkpt lat="45.5088667" lon="11.05352"><ele>332.0</ele><time>2026-04-23T14:52:29.281Z</time></trkpt><trkpt lat="45.5088967" lon="11.05342"><ele>332.0</ele><time>2026-04-23T14:52:30.28Z</time></trkpt><trkpt lat="45.5089333" lon="11.0533183"><ele>332.0</ele><time>2026-04-23T14:52:31.28Z</time></trkpt><trkpt lat="45.508975" lon="11.0532133"><ele>331.0</ele><time>2026-04-23T14:52:32.28Z</time></trkpt><trkpt lat="45.5090133" lon="11.053085"><ele>330.0</ele><time>2026-04-23T14:52:33.28Z</time></trkpt><trkpt lat="45.5090383" lon="11.0529517"><ele>329.0</ele><time>2026-04-23T14:52:34.28Z</time></trkpt><trkpt lat="45.5090817" lon="11.05282"><ele>328.0</ele><time>2026-04-23T14:52:35.28Z</time></trkpt><trkpt lat="45.50912" lon="11.0527"><ele>327.0</ele><time>2026-04-23T14:52:36.28Z</time></trkpt><trkpt lat="45.509145" lon="11.0525467"><ele>326.0</ele><time>2026-04-23T14:52:37.28Z</time></trkpt><trkpt lat="45.5091683" lon="11.0523983"><ele>325.0</ele><time>2026-04-23T14:52:38.28Z</time></trkpt><trkpt lat="45.509195" lon="11.0522517"><ele>324.0</ele><time>2026-04-23T14:52:39.28Z</time></trkpt><trkpt lat="45.509205" lon="11.052085"><ele>323.0</ele><time>2026-04-23T14:52:40.28Z</time></trkpt><trkpt lat="45.5092133" lon="11.0519417"><ele>322.0</ele><time>2026-04-23T14:52:41.28Z</time></trkpt><trkpt lat="45.5092283" lon="11.0518083"><ele>322.0</ele><time>2026-04-23T14:52:42.28Z</time></trkpt><trkpt lat="45.509255" lon="11.0516967"><ele>322.0</ele><time>2026-04-23T14:52:43.281Z</time></trkpt><trkpt lat="45.5093333" lon="11.0517017"><ele>322.0</ele><time>2026-04-23T14:52:44.28Z</time></trkpt><trkpt lat="45.50943" lon="11.0516217"><ele>322.0</ele><time>2026-04-23T14:52:46.28Z</time></trkpt><trkpt lat="45.5094767" lon="11.051555"><ele>322.0</ele><time>2026-04-23T14:52:47.28Z</time></trkpt><trkpt lat="45.5095217" lon="11.0514767"><ele>322.0</ele><time>2026-04-23T14:52:48.28Z</time></trkpt><trkpt lat="45.5095717" lon="11.0513967"><ele>322.0</ele><time>2026-04-23T14:52:49.28Z</time></trkpt><trkpt lat="45.5096167" lon="11.0513317"><ele>322.0</ele><time>2026-04-23T14:52:50.28Z</time></trkpt><trkpt lat="45.5096467" lon="11.05121"><ele>322.0</ele><time>2026-04-23T14:52:52.28Z</time></trkpt><trkpt lat="45.5095883" lon="11.051045"><ele>322.0</ele><time>2026-04-23T14:52:53.28Z</time></trkpt><trkpt lat="45.5095717" lon="11.0509367"><ele>322.0</ele><time>2026-04-23T14:52:56.28Z</time></trkpt><trkpt lat="45.509505" lon="11.050875"><ele>322.0</ele><time>2026-04-23T14:52:58.28Z</time></trkpt><trkpt lat="45.5094283" lon="11.0508267"><ele>322.0</ele><time>2026-04-23T14:53:00.28Z</time></trkpt><trkpt lat="45.5093183" lon="11.0508233"><ele>322.0</ele><time>2026-04-23T14:53:05.28Z</time></trkpt><trkpt lat="45.5090983" lon="11.0508617"><ele>322.0</ele><time>2026-04-23T14:53:15.28Z</time></trkpt><trkpt lat="45.5089717" lon="11.0508767"><ele>322.0</ele><time>2026-04-23T14:53:17.281Z</time></trkpt><trkpt lat="45.5088717" lon="11.0509333"><ele>322.0</ele><time>2026-04-23T14:53:19.28Z</time></trkpt><trkpt lat="45.5087667" lon="11.0509917"><ele>322.0</ele><time>2026-04-23T14:53:21.28Z</time></trkpt><trkpt lat="45.5086667" lon="11.0510233"><ele>322.0</ele><time>2026-04-23T14:53:23.28Z</time></trkpt><trkpt lat="45.5085867" lon="11.0510383"><ele>322.0</ele><time>2026-04-23T14:53:25.281Z</time></trkpt><trkpt lat="45.5085017" lon="11.051085"><ele>322.0</ele><time>2026-04-23T14:53:27.281Z</time></trkpt><trkpt lat="45.5084383" lon="11.0511117"><ele>322.0</ele><time>2026-04-23T14:53:28.281Z</time></trkpt><trkpt lat="45.5083417" lon="11.0511583"><ele>322.0</ele><time>2026-04-23T14:53:30.28Z</time></trkpt><trkpt lat="45.50824" lon="11.0511967"><ele>322.0</ele><time>2026-04-23T14:53:32.281Z</time></trkpt><trkpt lat="45.5081717" lon="11.05122"><ele>322.0</ele><time>2026-04-23T14:53:33.28Z</time></trkpt><trkpt lat="45.50807" lon="11.0512133"><ele>322.0</ele><time>2026-04-23T14:53:35.28Z</time></trkpt><trkpt lat="45.5079533" lon="11.05116"><ele>321.40000000000003</ele><time>2026-04-23T14:53:37.28Z</time></trkpt><trkpt lat="45.50785" lon="11.051075"><ele>320.8</ele><time>2026-04-23T14:53:39.28Z</time></trkpt><trkpt lat="45.507785" lon="11.0509917"><ele>320.2</ele><time>2026-04-23T14:53:41.28Z</time></trkpt><trkpt lat="45.5077283" lon="11.0509233"><ele>319.6</ele><time>2026-04-23T14:53:43.28Z</time></trkpt><trkpt lat="45.5076583" lon="11.0508483"><ele>319.0</ele><time>2026-04-23T14:53:45.281Z</time></trkpt><trkpt lat="45.5075883" lon="11.0507667"><ele>319.0</ele><time>2026-04-23T14:53:48.28Z</time></trkpt><trkpt lat="45.5075533" lon="11.0508783"><ele>319.0</ele><time>2026-04-23T14:53:50.28Z</time></trkpt><trkpt lat="45.507535" lon="11.0509767"><ele>319.0</ele><time>2026-04-23T14:53:52.28Z</time></trkpt><trkpt lat="45.50746" lon="11.0510167"><ele>319.0</ele><time>2026-04-23T14:53:54.28Z</time></trkpt><trkpt lat="45.5073433" lon="11.0510633"><ele>319.0</ele><time>2026-04-23T14:53:56.281Z</time></trkpt><trkpt lat="45.50721" lon="11.0511283"><ele>319.0</ele><time>2026-04-23T14:53:58.279Z</time></trkpt><trkpt lat="45.5071483" lon="11.0511517"><ele>319.0</ele><time>2026-04-23T14:53:59.279Z</time></trkpt><trkpt lat="45.5070917" lon="11.0511967"><ele>319.0</ele><time>2026-04-23T14:54:00.279Z</time></trkpt><trkpt lat="45.5070183" lon="11.0512533"><ele>319.0</ele><time>2026-04-23T14:54:01.279Z</time></trkpt><trkpt lat="45.5069617" lon="11.0512983"><ele>319.0</ele><time>2026-04-23T14:54:02.28Z</time></trkpt><trkpt lat="45.5068983" lon="11.0513267"><ele>319.0</ele><time>2026-04-23T14:54:03.279Z</time></trkpt><trkpt lat="45.5068283" lon="11.0513783"><ele>319.0</ele><time>2026-04-23T14:54:04.279Z</time></trkpt><trkpt lat="45.5066983" lon="11.0515267"><ele>318.25</ele><time>2026-04-23T14:54:05.279Z</time></trkpt><trkpt lat="45.5065967" lon="11.0515983"><ele>317.5</ele><time>2026-04-23T14:54:06.28Z</time></trkpt><trkpt lat="45.50647" lon="11.0517217"><ele>316.75</ele><time>2026-04-23T14:54:07.279Z</time></trkpt><trkpt lat="45.5063283" lon="11.0518733"><ele>316.0</ele><time>2026-04-23T14:54:08.279Z</time></trkpt><trkpt lat="45.5062267" lon="11.0519133"><ele>317.5</ele><time>2026-04-23T14:54:09.279Z</time></trkpt><trkpt lat="45.50613" lon="11.0519433"><ele>319.0</ele><time>2026-04-23T14:54:10.279Z</time></trkpt><trkpt lat="45.50603" lon="11.0519683"><ele>320.5</ele><time>2026-04-23T14:54:11.279Z</time></trkpt><trkpt lat="45.5059317" lon="11.0519933"><ele>322.0</ele><time>2026-04-23T14:54:12.279Z</time></trkpt><trkpt lat="45.5058633" lon="11.0520133"><ele>323.5</ele><time>2026-04-23T14:54:13.279Z</time></trkpt><trkpt lat="45.5057983" lon="11.052015"><ele>325.0</ele><time>2026-04-23T14:54:14.279Z</time></trkpt><trkpt lat="45.50573" lon="11.0519933"><ele>325.0</ele><time>2026-04-23T14:54:15.279Z</time></trkpt><trkpt lat="45.505645" lon="11.0519717"><ele>325.0</ele><time>2026-04-23T14:54:16.279Z</time></trkpt><trkpt lat="45.5055533" lon="11.0519367"><ele>325.0</ele><time>2026-04-23T14:54:17.28Z</time></trkpt><trkpt lat="45.50547" lon="11.051915"><ele>325.0</ele><time>2026-04-23T14:54:18.279Z</time></trkpt><trkpt lat="45.5053983" lon="11.0518867"><ele>325.0</ele><time>2026-04-23T14:54:19.279Z</time></trkpt><trkpt lat="45.5053183" lon="11.0518717"><ele>325.0</ele><time>2026-04-23T14:54:20.279Z</time></trkpt><trkpt lat="45.5052467" lon="11.051845"><ele>324.6</ele><time>2026-04-23T14:54:21.279Z</time></trkpt><trkpt lat="45.505125" lon="11.0517983"><ele>324.2</ele><time>2026-04-23T14:54:23.279Z</time></trkpt><trkpt lat="45.50506" lon="11.0517467"><ele>323.79999999999995</ele><time>2026-04-23T14:54:25.279Z</time></trkpt><trkpt lat="45.504975" lon="11.0517"><ele>323.4</ele><time>2026-04-23T14:54:27.279Z</time></trkpt><trkpt lat="45.5049067" lon="11.051765"><ele>323.0</ele><time>2026-04-23T14:54:29.279Z</time></trkpt><trkpt lat="45.50484" lon="11.05186"><ele>323.0</ele><time>2026-04-23T14:54:30.279Z</time></trkpt><trkpt lat="45.504765" lon="11.052005"><ele>323.0</ele><time>2026-04-23T14:54:31.279Z</time></trkpt><trkpt lat="45.5047133" lon="11.0521"><ele>323.0</ele><time>2026-04-23T14:54:32.279Z</time></trkpt><trkpt lat="45.5046233" lon="11.0522917"><ele>323.0</ele><time>2026-04-23T14:54:33.279Z</time></trkpt><trkpt lat="45.5045583" lon="11.05242"><ele>323.25</ele><time>2026-04-23T14:54:34.279Z</time></trkpt><trkpt lat="45.50448" lon="11.0525567"><ele>323.5</ele><time>2026-04-23T14:54:35.279Z</time></trkpt><trkpt lat="45.5043983" lon="11.0526667"><ele>323.75</ele><time>2026-04-23T14:54:36.279Z</time></trkpt><trkpt lat="45.5043017" lon="11.052845"><ele>324.0</ele><time>2026-04-23T14:54:37.28Z</time></trkpt><trkpt lat="45.5042267" lon="11.0529467"><ele>324.0</ele><time>2026-04-23T14:54:38.279Z</time></trkpt><trkpt lat="45.5041467" lon="11.0530667"><ele>324.0</ele><time>2026-04-23T14:54:39.279Z</time></trkpt><trkpt lat="45.5040733" lon="11.0531483"><ele>324.0</ele><time>2026-04-23T14:54:40.279Z</time></trkpt><trkpt lat="45.5040217" lon="11.0532017"><ele>324.0</ele><time>2026-04-23T14:54:41.28Z</time></trkpt><trkpt lat="45.5039267" lon="11.0532783"><ele>324.0</ele><time>2026-04-23T14:54:42.279Z</time></trkpt><trkpt lat="45.5038" lon="11.0533783"><ele>323.5</ele><time>2026-04-23T14:54:43.279Z</time></trkpt><trkpt lat="45.5037133" lon="11.053435"><ele>323.0</ele><time>2026-04-23T14:54:44.279Z</time></trkpt><trkpt lat="45.5036417" lon="11.0534583"><ele>322.5</ele><time>2026-04-23T14:54:45.279Z</time></trkpt><trkpt lat="45.5035617" lon="11.05349"><ele>322.0</ele><time>2026-04-23T14:54:46.279Z</time></trkpt><trkpt lat="45.50348" lon="11.0535167"><ele>321.5</ele><time>2026-04-23T14:54:47.279Z</time></trkpt><trkpt lat="45.503405" lon="11.0535467"><ele>321.0</ele><time>2026-04-23T14:54:48.279Z</time></trkpt><trkpt lat="45.50333" lon="11.0535533"><ele>321.0</ele><time>2026-04-23T14:54:49.279Z</time></trkpt><trkpt lat="45.5032033" lon="11.0535717"><ele>321.0</ele><time>2026-04-23T14:54:51.279Z</time></trkpt><trkpt lat="45.5031183" lon="11.05361"><ele>321.0</ele><time>2026-04-23T14:54:52.279Z</time></trkpt><trkpt lat="45.5030283" lon="11.0536233"><ele>321.0</ele><time>2026-04-23T14:54:53.279Z</time></trkpt><trkpt lat="45.5029467" lon="11.053635"><ele>321.0</ele><time>2026-04-23T14:54:54.279Z</time></trkpt><trkpt lat="45.5028767" lon="11.0536233"><ele>320.1428571428571</ele><time>2026-04-23T14:54:55.279Z</time></trkpt><trkpt lat="45.502805" lon="11.053595"><ele>319.2857142857143</ele><time>2026-04-23T14:54:56.279Z</time></trkpt><trkpt lat="45.5027367" lon="11.0535483"><ele>318.42857142857144</ele><time>2026-04-23T14:54:57.28Z</time></trkpt><trkpt lat="45.50268" lon="11.0534883"><ele>317.57142857142856</ele><time>2026-04-23T14:54:58.279Z</time></trkpt><trkpt lat="45.50263" lon="11.053425"><ele>316.7142857142857</ele><time>2026-04-23T14:54:59.28Z</time></trkpt><trkpt lat="45.5026317" lon="11.0533183"><ele>315.85714285714283</ele><time>2026-04-23T14:55:00.279Z</time></trkpt><trkpt lat="45.5026317" lon="11.0531983"><ele>315.0</ele><time>2026-04-23T14:55:01.28Z</time></trkpt><trkpt lat="45.5025967" lon="11.0530583"><ele>318.0</ele><time>2026-04-23T14:55:02.279Z</time></trkpt><trkpt lat="45.50254" lon="11.0529317"><ele>321.0</ele><time>2026-04-23T14:55:03.279Z</time></trkpt><trkpt lat="45.5024733" lon="11.05281"><ele>324.0</ele><time>2026-04-23T14:55:04.279Z</time></trkpt><trkpt lat="45.5023967" lon="11.0526567"><ele>327.0</ele><time>2026-04-23T14:55:05.279Z</time></trkpt><trkpt lat="45.5023017" lon="11.05248"><ele>331.0</ele><time>2026-04-23T14:55:06.279Z</time></trkpt><trkpt lat="45.5021933" lon="11.05228"><ele>335.0</ele><time>2026-04-23T14:55:07.279Z</time></trkpt><trkpt lat="45.5021267" lon="11.0520867"><ele>339.0</ele><time>2026-04-23T14:55:08.279Z</time></trkpt><trkpt lat="45.5020533" lon="11.05189"><ele>330.6666666666667</ele><time>2026-04-23T14:55:09.28Z</time></trkpt><trkpt lat="45.5019833" lon="11.05166"><ele>322.33333333333337</ele><time>2026-04-23T14:55:10.279Z</time></trkpt><trkpt lat="45.5019233" lon="11.0514517"><ele>314.0</ele><time>2026-04-23T14:55:11.279Z</time></trkpt><trkpt lat="45.5018833" lon="11.0512667"><ele>314.0</ele><time>2026-04-23T14:55:12.279Z</time></trkpt><trkpt lat="45.5018533" lon="11.051095"><ele>314.0</ele><time>2026-04-23T14:55:13.279Z</time></trkpt><trkpt lat="45.5018667" lon="11.0509233"><ele>314.0</ele><time>2026-04-23T14:55:14.279Z</time></trkpt><trkpt lat="45.5019017" lon="11.0507517"><ele>314.0</ele><time>2026-04-23T14:55:15.279Z</time></trkpt><trkpt lat="45.5019017" lon="11.0506217"><ele>313.33333333333337</ele><time>2026-04-23T14:55:16.279Z</time></trkpt><trkpt lat="45.5019083" lon="11.05049"><ele>312.6666666666667</ele><time>2026-04-23T14:55:17.28Z</time></trkpt><trkpt lat="45.5019217" lon="11.0503583"><ele>312.0</ele><time>2026-04-23T14:55:18.279Z</time></trkpt><trkpt lat="45.5019067" lon="11.0502417"><ele>311.3333333333333</ele><time>2026-04-23T14:55:19.279Z</time></trkpt><trkpt lat="45.5019067" lon="11.0501367"><ele>310.66666666666663</ele><time>2026-04-23T14:55:20.28Z</time></trkpt><trkpt lat="45.501905" lon="11.0500367"><ele>310.0</ele><time>2026-04-23T14:55:21.279Z</time></trkpt><trkpt lat="45.5018933" lon="11.0498967"><ele>310.0</ele><time>2026-04-23T14:55:23.279Z</time></trkpt><trkpt lat="45.501805" lon="11.0499283"><ele>310.0</ele><time>2026-04-23T14:55:26.279Z</time></trkpt><trkpt lat="45.5017383" lon="11.0500183"><ele>310.0</ele><time>2026-04-23T14:55:27.279Z</time></trkpt><trkpt lat="45.5016567" lon="11.05007"><ele>310.0</ele><time>2026-04-23T14:55:28.279Z</time></trkpt><trkpt lat="45.50161" lon="11.0501767"><ele>310.0</ele><time>2026-04-23T14:55:29.279Z</time></trkpt><trkpt lat="45.501555" lon="11.0502367"><ele>310.0</ele><time>2026-04-23T14:55:30.279Z</time></trkpt><trkpt lat="45.5015033" lon="11.0503183"><ele>310.0</ele><time>2026-04-23T14:55:31.279Z</time></trkpt><trkpt lat="45.5014617" lon="11.0503933"><ele>310.0</ele><time>2026-04-23T14:55:32.28Z</time></trkpt><trkpt lat="45.50142" lon="11.0505267"><ele>310.0</ele><time>2026-04-23T14:55:34.279Z</time></trkpt><trkpt lat="45.501395" lon="11.0504067"><ele>310.0</ele><time>2026-04-23T14:55:39.279Z</time></trkpt><trkpt lat="45.5013867" lon="11.0503067"><ele>310.0</ele><time>2026-04-23T14:55:40.28Z</time></trkpt><trkpt lat="45.50138" lon="11.0501883"><ele>310.0</ele><time>2026-04-23T14:55:42.279Z</time></trkpt><trkpt lat="45.501385" lon="11.0500333"><ele>307.4</ele><time>2026-04-23T14:55:44.279Z</time></trkpt><trkpt lat="45.5013817" lon="11.0498783"><ele>304.8</ele><time>2026-04-23T14:55:46.28Z</time></trkpt><trkpt lat="45.5013733" lon="11.0497167"><ele>302.2</ele><time>2026-04-23T14:55:48.279Z</time></trkpt><trkpt lat="45.5013817" lon="11.0495533"><ele>299.6</ele><time>2026-04-23T14:55:50.28Z</time></trkpt><trkpt lat="45.5013917" lon="11.0494133"><ele>297.0</ele><time>2026-04-23T14:55:52.279Z</time></trkpt><trkpt lat="45.501395" lon="11.0493083"><ele>297.0</ele><time>2026-04-23T14:55:53.279Z</time></trkpt><trkpt lat="45.5014033" lon="11.0491983"><ele>297.0</ele><time>2026-04-23T14:55:54.279Z</time></trkpt><trkpt lat="45.5014017" lon="11.0490833"><ele>297.0</ele><time>2026-04-23T14:55:55.279Z</time></trkpt><trkpt lat="45.5014083" lon="11.0489817"><ele>297.0</ele><time>2026-04-23T14:55:56.28Z</time></trkpt><trkpt lat="45.5014383" lon="11.0488883"><ele>297.0</ele><time>2026-04-23T14:55:57.279Z</time></trkpt><trkpt lat="45.50149" lon="11.048775"><ele>297.0</ele><time>2026-04-23T14:55:59.28Z</time></trkpt><trkpt lat="45.5015567" lon="11.0486333"><ele>294.8333333333333</ele><time>2026-04-23T14:56:01.28Z</time></trkpt><trkpt lat="45.5015733" lon="11.0485433"><ele>292.6666666666667</ele><time>2026-04-23T14:56:02.279Z</time></trkpt><trkpt lat="45.501555" lon="11.0484283"><ele>290.5</ele><time>2026-04-23T14:56:04.279Z</time></trkpt><trkpt lat="45.50149" lon="11.04836"><ele>288.33333333333337</ele><time>2026-04-23T14:56:08.279Z</time></trkpt><trkpt lat="45.5014183" lon="11.0484133"><ele>286.1666666666667</ele><time>2026-04-23T14:56:10.279Z</time></trkpt><trkpt lat="45.5013117" lon="11.0484617"><ele>284.0</ele><time>2026-04-23T14:56:12.279Z</time></trkpt><trkpt lat="45.5012" lon="11.04854"><ele>282.5</ele><time>2026-04-23T14:56:14.279Z</time></trkpt><trkpt lat="45.5011317" lon="11.0486683"><ele>281.0</ele><time>2026-04-23T14:56:16.279Z</time></trkpt><trkpt lat="45.50108" lon="11.0487283"><ele>279.5</ele><time>2026-04-23T14:56:17.279Z</time></trkpt><trkpt lat="45.50102" lon="11.04882"><ele>278.0</ele><time>2026-04-23T14:56:19.279Z</time></trkpt><trkpt lat="45.50095" lon="11.0488383"><ele>276.5</ele><time>2026-04-23T14:56:25.279Z</time></trkpt><trkpt lat="45.5008783" lon="11.0488833"><ele>275.0</ele><time>2026-04-23T14:56:36.28Z</time></trkpt><trkpt lat="45.50085" lon="11.04897"><ele>275.0</ele><time>2026-04-23T14:56:38.28Z</time></trkpt><trkpt lat="45.5007783" lon="11.0490683"><ele>275.0</ele><time>2026-04-23T14:56:40.279Z</time></trkpt><trkpt lat="45.500725" lon="11.0491717"><ele>275.0</ele><time>2026-04-23T14:56:42.279Z</time></trkpt><trkpt lat="45.5006767" lon="11.0492783"><ele>275.0</ele><time>2026-04-23T14:56:45.279Z</time></trkpt><trkpt lat="45.5006667" lon="11.0493783"><ele>275.0</ele><time>2026-04-23T14:56:47.278Z</time></trkpt><trkpt lat="45.5006733" lon="11.049495"><ele>275.0</ele><time>2026-04-23T14:56:49.278Z</time></trkpt><trkpt lat="45.5006883" lon="11.0496283"><ele>274.8</ele><time>2026-04-23T14:56:51.278Z</time></trkpt><trkpt lat="45.5006433" lon="11.04976"><ele>274.6</ele><time>2026-04-23T14:56:53.278Z</time></trkpt><trkpt lat="45.500585" lon="11.0499033"><ele>274.4</ele><time>2026-04-23T14:56:55.278Z</time></trkpt><trkpt lat="45.5005433" lon="11.05002"><ele>274.2</ele><time>2026-04-23T14:56:57.278Z</time></trkpt><trkpt lat="45.500495" lon="11.05015"><ele>274.0</ele><time>2026-04-23T14:56:59.278Z</time></trkpt><trkpt lat="45.50045" lon="11.05027"><ele>274.0</ele><time>2026-04-23T14:57:01.279Z</time></trkpt><trkpt lat="45.5004367" lon="11.050365"><ele>274.0</ele><time>2026-04-23T14:57:03.278Z</time></trkpt><trkpt lat="45.5004567" lon="11.0504683"><ele>274.0</ele><time>2026-04-23T14:57:05.279Z</time></trkpt><trkpt lat="45.5004467" lon="11.0505817"><ele>274.0</ele><time>2026-04-23T14:57:07.278Z</time></trkpt><trkpt lat="45.5004267" lon="11.0507233"><ele>274.0</ele><time>2026-04-23T14:57:09.278Z</time></trkpt><trkpt lat="45.5004" lon="11.050905"><ele>271.2</ele><time>2026-04-23T14:57:11.278Z</time></trkpt><trkpt lat="45.5003867" lon="11.0509967"><ele>268.4</ele><time>2026-04-23T14:57:12.278Z</time></trkpt><trkpt lat="45.5003717" lon="11.0511433"><ele>265.6</ele><time>2026-04-23T14:57:14.278Z</time></trkpt><trkpt lat="45.5003817" lon="11.051375"><ele>262.8</ele><time>2026-04-23T14:57:16.279Z</time></trkpt><trkpt lat="45.5003783" lon="11.051495"><ele>260.0</ele><time>2026-04-23T14:57:17.278Z</time></trkpt><trkpt lat="45.50038" lon="11.0516033"><ele>258.33333333333337</ele><time>2026-04-23T14:57:18.278Z</time></trkpt><trkpt lat="45.5003917" lon="11.0517217"><ele>256.6666666666667</ele><time>2026-04-23T14:57:19.278Z</time></trkpt><trkpt lat="45.5004033" lon="11.0518283"><ele>255.0</ele><time>2026-04-23T14:57:20.278Z</time></trkpt><trkpt lat="45.500415" lon="11.0519417"><ele>253.33333333333331</ele><time>2026-04-23T14:57:22.278Z</time></trkpt><trkpt lat="45.5004617" lon="11.0520233"><ele>251.66666666666666</ele><time>2026-04-23T14:57:25.279Z</time></trkpt><trkpt lat="45.5004583" lon="11.0521483"><ele>250.0</ele><time>2026-04-23T14:57:28.278Z</time></trkpt><trkpt lat="45.50046" lon="11.0522767"><ele>248.16666666666666</ele><time>2026-04-23T14:57:31.279Z</time></trkpt><trkpt lat="45.5004617" lon="11.0523767"><ele>246.33333333333331</ele><time>2026-04-23T14:57:34.279Z</time></trkpt><trkpt lat="45.5004067" lon="11.052535"><ele>244.5</ele><time>2026-04-23T14:57:43.278Z</time></trkpt><trkpt lat="45.5003283" lon="11.0526317"><ele>242.66666666666669</ele><time>2026-04-23T14:57:54.278Z</time></trkpt><trkpt lat="45.50031" lon="11.0527283"><ele>240.83333333333334</ele><time>2026-04-23T14:57:58.278Z</time></trkpt><trkpt lat="45.5002917" lon="11.05284"><ele>239.0</ele><time>2026-04-23T14:58:01.278Z</time></trkpt><trkpt lat="45.5002533" lon="11.0529283"><ele>239.00000000000003</ele><time>2026-04-23T14:58:04.278Z</time></trkpt><trkpt lat="45.50023" lon="11.0530733"><ele>239.0</ele><time>2026-04-23T14:58:07.278Z</time></trkpt><trkpt lat="45.50024" lon="11.0531867"><ele>239.0</ele><time>2026-04-23T14:58:09.278Z</time></trkpt><trkpt lat="45.5002617" lon="11.053315"><ele>239.0</ele><time>2026-04-23T14:58:11.278Z</time></trkpt><trkpt lat="45.50032" lon="11.053415"><ele>239.00000000000003</ele><time>2026-04-23T14:58:13.279Z</time></trkpt><trkpt lat="45.5003683" lon="11.0534733"><ele>239.0</ele><time>2026-04-23T14:58:15.278Z</time></trkpt><trkpt lat="45.5004183" lon="11.0535533"><ele>236.66666666666669</ele><time>2026-04-23T14:58:19.279Z</time></trkpt><trkpt lat="45.500415" lon="11.0536783"><ele>234.33333333333334</ele><time>2026-04-23T14:58:22.278Z</time></trkpt><trkpt lat="45.5003783" lon="11.053785"><ele>232.0</ele><time>2026-04-23T14:58:24.278Z</time></trkpt><trkpt lat="45.5003333" lon="11.0538883"><ele>229.66666666666669</ele><time>2026-04-23T14:58:26.278Z</time></trkpt><trkpt lat="45.500295" lon="11.05396"><ele>227.33333333333334</ele><time>2026-04-23T14:58:28.278Z</time></trkpt><trkpt lat="45.5002333" lon="11.054075"><ele>225.0</ele><time>2026-04-23T14:58:32.278Z</time></trkpt><trkpt lat="45.5002333" lon="11.054185"><ele>223.33333333333334</ele><time>2026-04-23T14:58:35.278Z</time></trkpt><trkpt lat="45.50022" lon="11.0542983"><ele>221.66666666666669</ele><time>2026-04-23T14:58:40.278Z</time></trkpt><trkpt lat="45.50017" lon="11.054465"><ele>220.0</ele><time>2026-04-23T14:58:42.278Z</time></trkpt><trkpt lat="45.5001617" lon="11.05457"><ele>218.33333333333334</ele><time>2026-04-23T14:58:45.279Z</time></trkpt><trkpt lat="45.5001317" lon="11.054665"><ele>216.66666666666669</ele><time>2026-04-23T14:58:50.278Z</time></trkpt><trkpt lat="45.500145" lon="11.054775"><ele>215.0</ele><time>2026-04-23T14:58:58.278Z</time></trkpt><trkpt lat="45.500115" lon="11.0549"><ele>213.14285714285714</ele><time>2026-04-23T14:59:01.279Z</time></trkpt><trkpt lat="45.500085" lon="11.0549867"><ele>211.2857142857143</ele><time>2026-04-23T14:59:05.278Z</time></trkpt><trkpt lat="45.50004" lon="11.0550717"><ele>209.42857142857144</ele><time>2026-04-23T14:59:08.278Z</time></trkpt><trkpt lat="45.50001" lon="11.055165"><ele>207.57142857142856</ele><time>2026-04-23T14:59:11.278Z</time></trkpt><trkpt lat="45.499975" lon="11.055245"><ele>205.71428571428572</ele><time>2026-04-23T14:59:13.278Z</time></trkpt><trkpt lat="45.499935" lon="11.0553183"><ele>203.85714285714286</ele><time>2026-04-23T14:59:15.278Z</time></trkpt><trkpt lat="45.4998983" lon="11.055395"><ele>202.0</ele><time>2026-04-23T14:59:17.278Z</time></trkpt><trkpt lat="45.4998567" lon="11.0555083"><ele>201.99999999999997</ele><time>2026-04-23T14:59:20.278Z</time></trkpt><trkpt lat="45.4998467" lon="11.0556083"><ele>202.0</ele><time>2026-04-23T14:59:22.278Z</time></trkpt><trkpt lat="45.4998567" lon="11.0557133"><ele>202.0</ele><time>2026-04-23T14:59:29.279Z</time></trkpt><trkpt lat="45.499825" lon="11.0558367"><ele>202.0</ele><time>2026-04-23T14:59:33.278Z</time></trkpt><trkpt lat="45.4998233" lon="11.0559483"><ele>201.99999999999997</ele><time>2026-04-23T14:59:37.277Z</time></trkpt><trkpt lat="45.4998083" lon="11.05607"><ele>202.0</ele><time>2026-04-23T14:59:40.277Z</time></trkpt><trkpt lat="45.49981" lon="11.0562033"><ele>198.8</ele><time>2026-04-23T14:59:42.278Z</time></trkpt><trkpt lat="45.499785" lon="11.056365"><ele>195.6</ele><time>2026-04-23T14:59:44.277Z</time></trkpt><trkpt lat="45.4997417" lon="11.0565017"><ele>192.4</ele><time>2026-04-23T14:59:45.277Z</time></trkpt><trkpt lat="45.4997" lon="11.0565967"><ele>189.20000000000002</ele><time>2026-04-23T14:59:46.277Z</time></trkpt><trkpt lat="45.4996333" lon="11.0567317"><ele>186.0</ele><time>2026-04-23T14:59:47.277Z</time></trkpt><trkpt lat="45.49958" lon="11.0568617"><ele>182.0</ele><time>2026-04-23T14:59:48.277Z</time></trkpt><trkpt lat="45.4995167" lon="11.0569367"><ele>178.0</ele><time>2026-04-23T14:59:49.277Z</time></trkpt><trkpt lat="45.49945" lon="11.0569867"><ele>174.0</ele><time>2026-04-23T14:59:50.277Z</time></trkpt><trkpt lat="45.4993867" lon="11.05705"><ele>170.0</ele><time>2026-04-23T14:59:51.277Z</time></trkpt><trkpt lat="45.4993133" lon="11.0571517"><ele>166.0</ele><time>2026-04-23T14:59:52.277Z</time></trkpt><trkpt lat="45.4992383" lon="11.0572333"><ele>162.0</ele><time>2026-04-23T14:59:53.278Z</time></trkpt><trkpt lat="45.49916" lon="11.0573417"><ele>162.0</ele><time>2026-04-23T14:59:54.277Z</time></trkpt><trkpt lat="45.4990917" lon="11.0574417"><ele>162.0</ele><time>2026-04-23T14:59:55.277Z</time></trkpt><trkpt lat="45.4990333" lon="11.0575417"><ele>162.0</ele><time>2026-04-23T14:59:56.277Z</time></trkpt><trkpt lat="45.4989833" lon="11.057635"><ele>162.0</ele><time>2026-04-23T14:59:57.277Z</time></trkpt><trkpt lat="45.4989483" lon="11.05772"><ele>162.0</ele><time>2026-04-23T14:59:58.278Z</time></trkpt><trkpt lat="45.49892" lon="11.0578083"><ele>162.0</ele><time>2026-04-23T14:59:59.277Z</time></trkpt><trkpt lat="45.498885" lon="11.0579317"><ele>159.0</ele><time>2026-04-23T15:00:00.277Z</time></trkpt><trkpt lat="45.498865" lon="11.05806"><ele>156.0</ele><time>2026-04-23T15:00:01.277Z</time></trkpt><trkpt lat="45.4988367" lon="11.0582133"><ele>153.0</ele><time>2026-04-23T15:00:02.277Z</time></trkpt><trkpt lat="45.498805" lon="11.0583733"><ele>150.0</ele><time>2026-04-23T15:00:03.277Z</time></trkpt><trkpt lat="45.498775" lon="11.0585233"><ele>147.0</ele><time>2026-04-23T15:00:04.277Z</time></trkpt><trkpt lat="45.4987583" lon="11.05866"><ele>145.2</ele><time>2026-04-23T15:00:05.278Z</time></trkpt><trkpt lat="45.4987717" lon="11.0587867"><ele>143.39999999999998</ele><time>2026-04-23T15:00:06.278Z</time></trkpt><trkpt lat="45.49878" lon="11.05893"><ele>141.60000000000002</ele><time>2026-04-23T15:00:07.277Z</time></trkpt><trkpt lat="45.4987833" lon="11.05906"><ele>139.8</ele><time>2026-04-23T15:00:08.278Z</time></trkpt><trkpt lat="45.4988067" lon="11.0591617"><ele>138.0</ele><time>2026-04-23T15:00:09.277Z</time></trkpt><trkpt lat="45.4988317" lon="11.059305"><ele>137.42857142857144</ele><time>2026-04-23T15:00:11.277Z</time></trkpt><trkpt lat="45.4987767" lon="11.0593533"><ele>136.85714285714286</ele><time>2026-04-23T15:00:14.277Z</time></trkpt><trkpt lat="45.4987117" lon="11.0593583"><ele>136.28571428571428</ele><time>2026-04-23T15:00:16.277Z</time></trkpt><trkpt lat="45.4986483" lon="11.059375"><ele>135.71428571428572</ele><time>2026-04-23T15:00:18.277Z</time></trkpt><trkpt lat="45.49857" lon="11.05936"><ele>135.14285714285714</ele><time>2026-04-23T15:00:20.277Z</time></trkpt><trkpt lat="45.4985033" lon="11.0593333"><ele>134.57142857142858</ele><time>2026-04-23T15:00:22.278Z</time></trkpt><trkpt lat="45.4984283" lon="11.0593217"><ele>134.0</ele><time>2026-04-23T15:00:24.278Z</time></trkpt><trkpt lat="45.4983067" lon="11.0593"><ele>133.4</ele><time>2026-04-23T15:00:26.277Z</time></trkpt><trkpt lat="45.49819" lon="11.0592617"><ele>132.8</ele><time>2026-04-23T15:00:28.278Z</time></trkpt><trkpt lat="45.4980933" lon="11.0592333"><ele>132.2</ele><time>2026-04-23T15:00:30.277Z</time></trkpt><trkpt lat="45.49802" lon="11.0591967"><ele>131.6</ele><time>2026-04-23T15:00:32.277Z</time></trkpt><trkpt lat="45.4979567" lon="11.05921"><ele>131.0</ele><time>2026-04-23T15:00:36.277Z</time></trkpt><trkpt lat="45.4978733" lon="11.0592583"><ele>130.2</ele><time>2026-04-23T15:00:39.277Z</time></trkpt><trkpt lat="45.497795" lon="11.059255"><ele>129.39999999999998</ele><time>2026-04-23T15:00:40.277Z</time></trkpt><trkpt lat="45.4976667" lon="11.0592283"><ele>128.6</ele><time>2026-04-23T15:00:41.277Z</time></trkpt><trkpt lat="45.49756" lon="11.05922"><ele>127.8</ele><time>2026-04-23T15:00:42.277Z</time></trkpt><trkpt lat="45.497455" lon="11.05921"><ele>127.0</ele><time>2026-04-23T15:00:43.277Z</time></trkpt><trkpt lat="45.4973367" lon="11.0592083"><ele>127.0</ele><time>2026-04-23T15:00:44.277Z</time></trkpt><trkpt lat="45.497235" lon="11.0592083"><ele>126.99999999999999</ele><time>2026-04-23T15:00:45.277Z</time></trkpt><trkpt lat="45.497135" lon="11.0592183"><ele>126.99999999999999</ele><time>2026-04-23T15:00:46.277Z</time></trkpt><trkpt lat="45.4970433" lon="11.05921"><ele>127.0</ele><time>2026-04-23T15:00:47.277Z</time></trkpt><trkpt lat="45.4969533" lon="11.0591883"><ele>127.0</ele><time>2026-04-23T15:00:48.277Z</time></trkpt><trkpt lat="45.4968567" lon="11.05916"><ele>127.6</ele><time>2026-04-23T15:00:49.277Z</time></trkpt><trkpt lat="45.496775" lon="11.059115"><ele>128.2</ele><time>2026-04-23T15:00:50.277Z</time></trkpt><trkpt lat="45.4966817" lon="11.0590633"><ele>128.8</ele><time>2026-04-23T15:00:51.277Z</time></trkpt><trkpt lat="45.496585" lon="11.059015"><ele>129.4</ele><time>2026-04-23T15:00:52.277Z</time></trkpt><trkpt lat="45.4964867" lon="11.0589833"><ele>130.0</ele><time>2026-04-23T15:00:53.278Z</time></trkpt><trkpt lat="45.496385" lon="11.0589767"><ele>130.0</ele><time>2026-04-23T15:00:54.278Z</time></trkpt><trkpt lat="45.4962933" lon="11.0589933"><ele>130.0</ele><time>2026-04-23T15:00:55.277Z</time></trkpt><trkpt lat="45.4962" lon="11.0590217"><ele>130.0</ele><time>2026-04-23T15:00:56.277Z</time></trkpt><trkpt lat="45.4961083" lon="11.0590517"><ele>130.0</ele><time>2026-04-23T15:00:57.277Z</time></trkpt><trkpt lat="45.4960117" lon="11.059105"><ele>130.0</ele><time>2026-04-23T15:00:58.277Z</time></trkpt><trkpt lat="45.495905" lon="11.05915"><ele>128.4</ele><time>2026-04-23T15:00:59.277Z</time></trkpt><trkpt lat="45.4958017" lon="11.0591967"><ele>126.8</ele><time>2026-04-23T15:01:00.277Z</time></trkpt><trkpt lat="45.4957" lon="11.059225"><ele>125.19999999999999</ele><time>2026-04-23T15:01:01.278Z</time></trkpt><trkpt lat="45.4955917" lon="11.059245"><ele>123.6</ele><time>2026-04-23T15:01:02.278Z</time></trkpt><trkpt lat="45.4954833" lon="11.059265"><ele>122.0</ele><time>2026-04-23T15:01:03.277Z</time></trkpt><trkpt lat="45.49538" lon="11.05927"><ele>121.83333333333333</ele><time>2026-04-23T15:01:04.277Z</time></trkpt><trkpt lat="45.4952883" lon="11.0592733"><ele>121.66666666666666</ele><time>2026-04-23T15:01:05.278Z</time></trkpt><trkpt lat="45.4952" lon="11.0592733"><ele>121.5</ele><time>2026-04-23T15:01:06.277Z</time></trkpt><trkpt lat="45.495115" lon="11.059265"><ele>121.33333333333334</ele><time>2026-04-23T15:01:07.277Z</time></trkpt><trkpt lat="45.495035" lon="11.0592683"><ele>121.16666666666667</ele><time>2026-04-23T15:01:08.277Z</time></trkpt><trkpt lat="45.494955" lon="11.0592717"><ele>121.0</ele><time>2026-04-23T15:01:09.277Z</time></trkpt><trkpt lat="45.494875" lon="11.0592783"><ele>121.00000000000001</ele><time>2026-04-23T15:01:10.277Z</time></trkpt><trkpt lat="45.4947883" lon="11.05929"><ele>121.0</ele><time>2026-04-23T15:01:11.278Z</time></trkpt><trkpt lat="45.49471" lon="11.0592983"><ele>121.0</ele><time>2026-04-23T15:01:12.277Z</time></trkpt><trkpt lat="45.4946333" lon="11.0593"><ele>121.0</ele><time>2026-04-23T15:01:13.277Z</time></trkpt><trkpt lat="45.4945583" lon="11.0593033"><ele>121.00000000000001</ele><time>2026-04-23T15:01:14.277Z</time></trkpt><trkpt lat="45.4944483" lon="11.05935"><ele>121.0</ele><time>2026-04-23T15:01:16.277Z</time></trkpt><trkpt lat="45.4945183" lon="11.05946"><ele>121.00000000000001</ele><time>2026-04-23T15:01:19.277Z</time></trkpt><trkpt lat="45.49459" lon="11.0595083"><ele>121.0</ele><time>2026-04-23T15:01:20.277Z</time></trkpt><trkpt lat="45.4946567" lon="11.0595417"><ele>121.0</ele><time>2026-04-23T15:01:21.277Z</time></trkpt><trkpt lat="45.4947483" lon="11.0596233"><ele>121.0</ele><time>2026-04-23T15:01:23.277Z</time></trkpt><trkpt lat="45.4947817" lon="11.0597583"><ele>121.00000000000001</ele><time>2026-04-23T15:01:25.278Z</time></trkpt><trkpt lat="45.4947933" lon="11.0598483"><ele>121.0</ele><time>2026-04-23T15:01:26.277Z</time></trkpt><trkpt lat="45.494815" lon="11.05995"><ele>121.33333333333334</ele><time>2026-04-23T15:01:27.277Z</time></trkpt><trkpt lat="45.4948517" lon="11.0600283"><ele>121.66666666666667</ele><time>2026-04-23T15:01:28.277Z</time></trkpt><trkpt lat="45.4948917" lon="11.0601067"><ele>122.0</ele><time>2026-04-23T15:01:29.278Z</time></trkpt><trkpt lat="45.4949517" lon="11.0602767"><ele>122.33333333333334</ele><time>2026-04-23T15:01:31.277Z</time></trkpt><trkpt lat="45.4949783" lon="11.0603617"><ele>122.66666666666667</ele><time>2026-04-23T15:01:32.277Z</time></trkpt><trkpt lat="45.4949833" lon="11.0604733"><ele>123.0</ele><time>2026-04-23T15:01:34.277Z</time></trkpt><trkpt lat="45.4949467" lon="11.0605833"><ele>123.0</ele><time>2026-04-23T15:01:36.277Z</time></trkpt><trkpt lat="45.4948817" lon="11.06072"><ele>123.0</ele><time>2026-04-23T15:01:38.277Z</time></trkpt><trkpt lat="45.4948517" lon="11.0608333"><ele>123.0</ele><time>2026-04-23T15:01:39.277Z</time></trkpt><trkpt lat="45.4948183" lon="11.060925"><ele>123.0</ele><time>2026-04-23T15:01:40.277Z</time></trkpt><trkpt lat="45.4948067" lon="11.06103"><ele>123.0</ele><time>2026-04-23T15:01:41.277Z</time></trkpt><trkpt lat="45.4948" lon="11.0611217"><ele>123.0</ele><time>2026-04-23T15:01:42.277Z</time></trkpt><trkpt lat="45.4948083" lon="11.0612367"><ele>123.33333333333333</ele><time>2026-04-23T15:01:43.277Z</time></trkpt><trkpt lat="45.49481" lon="11.0613467"><ele>123.66666666666666</ele><time>2026-04-23T15:01:44.277Z</time></trkpt><trkpt lat="45.4948233" lon="11.0614617"><ele>124.0</ele><time>2026-04-23T15:01:45.278Z</time></trkpt><trkpt lat="45.494835" lon="11.0615883"><ele>124.33333333333333</ele><time>2026-04-23T15:01:46.277Z</time></trkpt><trkpt lat="45.494855" lon="11.0617067"><ele>124.66666666666666</ele><time>2026-04-23T15:01:47.277Z</time></trkpt><trkpt lat="45.4948633" lon="11.06184"><ele>125.0</ele><time>2026-04-23T15:01:48.277Z</time></trkpt><trkpt lat="45.49487" lon="11.06196"><ele>125.66666666666666</ele><time>2026-04-23T15:01:49.277Z</time></trkpt><trkpt lat="45.49492" lon="11.0621133"><ele>126.33333333333333</ele><time>2026-04-23T15:01:51.277Z</time></trkpt><trkpt lat="45.49496" lon="11.0621867"><ele>127.0</ele><time>2026-04-23T15:01:52.277Z</time></trkpt><trkpt lat="45.4949933" lon="11.0622667"><ele>127.66666666666666</ele><time>2026-04-23T15:01:53.277Z</time></trkpt><trkpt lat="45.4950467" lon="11.0623533"><ele>128.33333333333334</ele><time>2026-04-23T15:01:54.277Z</time></trkpt><trkpt lat="45.4951133" lon="11.0624567"><ele>129.0</ele><time>2026-04-23T15:01:55.277Z</time></trkpt><trkpt lat="45.4951617" lon="11.0625583"><ele>129.8</ele><time>2026-04-23T15:01:56.277Z</time></trkpt><trkpt lat="45.4951983" lon="11.0626367"><ele>130.60000000000002</ele><time>2026-04-23T15:01:57.277Z</time></trkpt><trkpt lat="45.4952683" lon="11.0627517"><ele>131.4</ele><time>2026-04-23T15:01:58.277Z</time></trkpt><trkpt lat="45.4953417" lon="11.0628783"><ele>132.20000000000002</ele><time>2026-04-23T15:01:59.277Z</time></trkpt><trkpt lat="45.4954583" lon="11.0630133"><ele>133.0</ele><time>2026-04-23T15:02:00.277Z</time></trkpt><trkpt lat="45.4955333" lon="11.0631583"><ele>133.0</ele><time>2026-04-23T15:02:01.277Z</time></trkpt><trkpt lat="45.4956133" lon="11.063245"><ele>133.0</ele><time>2026-04-23T15:02:02.277Z</time></trkpt><trkpt lat="45.4957017" lon="11.063345"><ele>133.0</ele><time>2026-04-23T15:02:03.277Z</time></trkpt><trkpt lat="45.4957617" lon="11.063425"><ele>133.0</ele><time>2026-04-23T15:02:04.277Z</time></trkpt><trkpt lat="45.495815" lon="11.0635017"><ele>133.0</ele><time>2026-04-23T15:02:05.277Z</time></trkpt><trkpt lat="45.49588" lon="11.0635533"><ele>133.0</ele><time>2026-04-23T15:02:07.277Z</time></trkpt><trkpt lat="45.4959417" lon="11.0634583"><ele>136.0</ele><time>2026-04-23T15:02:11.277Z</time></trkpt><trkpt lat="45.4960033" lon="11.06343"><ele>139.0</ele><time>2026-04-23T15:02:12.277Z</time></trkpt><trkpt lat="45.4960667" lon="11.06343"><ele>142.0</ele><time>2026-04-23T15:02:16.276Z</time></trkpt><trkpt lat="45.49614" lon="11.0634717"><ele>145.0</ele><time>2026-04-23T15:02:20.277Z</time></trkpt><trkpt lat="45.496215" lon="11.0634433"><ele>148.0</ele><time>2026-04-23T15:02:23.276Z</time></trkpt><trkpt lat="45.496275" lon="11.063475"><ele>151.0</ele><time>2026-04-23T15:02:25.277Z</time></trkpt><trkpt lat="45.49637" lon="11.0634983"><ele>154.0</ele><time>2026-04-23T15:02:31.276Z</time></trkpt><trkpt lat="45.496445" lon="11.063545"><ele>155.33333333333334</ele><time>2026-04-23T15:02:33.276Z</time></trkpt><trkpt lat="45.496515" lon="11.0635983"><ele>156.66666666666669</ele><time>2026-04-23T15:02:35.277Z</time></trkpt><trkpt lat="45.4965933" lon="11.0636283"><ele>158.0</ele><time>2026-04-23T15:02:37.276Z</time></trkpt><trkpt lat="45.49669" lon="11.063645"><ele>159.33333333333334</ele><time>2026-04-23T15:02:39.276Z</time></trkpt><trkpt lat="45.4967817" lon="11.0636633"><ele>160.66666666666666</ele><time>2026-04-23T15:02:41.276Z</time></trkpt><trkpt lat="45.4968633" lon="11.0636733"><ele>162.0</ele><time>2026-04-23T15:02:43.276Z</time></trkpt><trkpt lat="45.4969267" lon="11.0636933"><ele>162.0</ele><time>2026-04-23T15:02:45.277Z</time></trkpt><trkpt lat="45.49703" lon="11.0637083"><ele>162.0</ele><time>2026-04-23T15:02:47.277Z</time></trkpt><trkpt lat="45.497095" lon="11.0637133"><ele>162.0</ele><time>2026-04-23T15:02:48.276Z</time></trkpt><trkpt lat="45.4972117" lon="11.0637483"><ele>162.0</ele><time>2026-04-23T15:02:50.276Z</time></trkpt><trkpt lat="45.4973017" lon="11.06372"><ele>162.0</ele><time>2026-04-23T15:02:52.276Z</time></trkpt><trkpt lat="45.4974033" lon="11.0637733"><ele>165.0</ele><time>2026-04-23T15:02:54.276Z</time></trkpt><trkpt lat="45.497525" lon="11.0638033"><ele>168.0</ele><time>2026-04-23T15:02:56.277Z</time></trkpt><trkpt lat="45.497615" lon="11.06387"><ele>171.0</ele><time>2026-04-23T15:02:58.276Z</time></trkpt><trkpt lat="45.4977133" lon="11.0639183"><ele>174.0</ele><time>2026-04-23T15:03:00.276Z</time></trkpt><trkpt lat="45.497805" lon="11.06397"><ele>177.0</ele><time>2026-04-23T15:03:02.276Z</time></trkpt><trkpt lat="45.4979267" lon="11.0640267"><ele>177.83333333333334</ele><time>2026-04-23T15:03:04.276Z</time></trkpt><trkpt lat="45.497995" lon="11.0640467"><ele>178.66666666666666</ele><time>2026-04-23T15:03:05.277Z</time></trkpt><trkpt lat="45.498065" lon="11.0640667"><ele>179.5</ele><time>2026-04-23T15:03:06.276Z</time></trkpt><trkpt lat="45.49814" lon="11.0640717"><ele>180.33333333333331</ele><time>2026-04-23T15:03:07.276Z</time></trkpt><trkpt lat="45.498225" lon="11.0641017"><ele>181.16666666666666</ele><time>2026-04-23T15:03:08.276Z</time></trkpt><trkpt lat="45.498295" lon="11.064135"><ele>182.0</ele><time>2026-04-23T15:03:09.276Z</time></trkpt><trkpt lat="45.4983717" lon="11.0641783"><ele>187.5</ele><time>2026-04-23T15:03:10.276Z</time></trkpt><trkpt lat="45.4984433" lon="11.0642083"><ele>193.0</ele><time>2026-04-23T15:03:11.277Z</time></trkpt><trkpt lat="45.49851" lon="11.0642217"><ele>198.5</ele><time>2026-04-23T15:03:12.276Z</time></trkpt><trkpt lat="45.4986117" lon="11.0642833"><ele>204.0</ele><time>2026-04-23T15:03:14.276Z</time></trkpt><trkpt lat="45.4986933" lon="11.064275"><ele>209.50000000000003</ele><time>2026-04-23T15:03:16.277Z</time></trkpt><trkpt lat="45.4987633" lon="11.06427"><ele>215.0</ele><time>2026-04-23T15:03:18.276Z</time></trkpt><trkpt lat="45.4988367" lon="11.064235"><ele>218.0</ele><time>2026-04-23T15:03:20.277Z</time></trkpt><trkpt lat="45.4989233" lon="11.0641033"><ele>221.0</ele><time>2026-04-23T15:03:32.276Z</time></trkpt><trkpt lat="45.4989983" lon="11.06409"><ele>224.0</ele><time>2026-04-23T15:03:36.276Z</time></trkpt><trkpt lat="45.4990383" lon="11.0641767"><ele>227.0</ele><time>2026-04-23T15:03:40.277Z</time></trkpt><trkpt lat="45.4990567" lon="11.06429"><ele>230.0</ele><time>2026-04-23T15:03:44.277Z</time></trkpt><trkpt lat="45.4990717" lon="11.0644233"><ele>230.00000000000003</ele><time>2026-04-23T15:03:47.276Z</time></trkpt><trkpt lat="45.4990983" lon="11.064535"><ele>230.0</ele><time>2026-04-23T15:03:50.276Z</time></trkpt><trkpt lat="45.4990783" lon="11.06463"><ele>230.0</ele><time>2026-04-23T15:03:52.276Z</time></trkpt><trkpt lat="45.4990633" lon="11.0647533"><ele>230.0</ele><time>2026-04-23T15:03:55.276Z</time></trkpt><trkpt lat="45.4990683" lon="11.064885"><ele>230.00000000000003</ele><time>2026-04-23T15:03:58.276Z</time></trkpt><trkpt lat="45.4990883" lon="11.0650133"><ele>230.0</ele><time>2026-04-23T15:04:01.277Z</time></trkpt><trkpt lat="45.4990867" lon="11.0651117"><ele>232.85714285714283</ele><time>2026-04-23T15:04:03.276Z</time></trkpt><trkpt lat="45.4991" lon="11.065205"><ele>235.71428571428572</ele><time>2026-04-23T15:04:05.276Z</time></trkpt><trkpt lat="45.49912" lon="11.0652967"><ele>238.57142857142856</ele><time>2026-04-23T15:04:07.276Z</time></trkpt><trkpt lat="45.4991433" lon="11.06539"><ele>241.42857142857142</ele><time>2026-04-23T15:04:09.276Z</time></trkpt><trkpt lat="45.4991467" lon="11.065485"><ele>244.28571428571428</ele><time>2026-04-23T15:04:12.276Z</time></trkpt><trkpt lat="45.4991333" lon="11.0656183"><ele>247.14285714285714</ele><time>2026-04-23T15:04:15.276Z</time></trkpt><trkpt lat="45.4991283" lon="11.0657117"><ele>250.0</ele><time>2026-04-23T15:04:17.276Z</time></trkpt><trkpt lat="45.4991217" lon="11.06581"><ele>252.99999999999997</ele><time>2026-04-23T15:04:19.277Z</time></trkpt><trkpt lat="45.4991317" lon="11.0659283"><ele>256.0</ele><time>2026-04-23T15:04:22.276Z</time></trkpt><trkpt lat="45.499175" lon="11.0660333"><ele>259.0</ele><time>2026-04-23T15:04:24.276Z</time></trkpt><trkpt lat="45.499185" lon="11.06613"><ele>262.0</ele><time>2026-04-23T15:04:26.276Z</time></trkpt><trkpt lat="45.499205" lon="11.066255"><ele>265.0</ele><time>2026-04-23T15:04:28.276Z</time></trkpt><trkpt lat="45.4992333" lon="11.066355"><ele>268.0</ele><time>2026-04-23T15:04:30.276Z</time></trkpt><trkpt lat="45.49927" lon="11.0664717"><ele>268.0</ele><time>2026-04-23T15:04:32.276Z</time></trkpt><trkpt lat="45.4993033" lon="11.0665783"><ele>268.0</ele><time>2026-04-23T15:04:35.276Z</time></trkpt><trkpt lat="45.49936" lon="11.0666433"><ele>268.0</ele><time>2026-04-23T15:04:41.276Z</time></trkpt><trkpt lat="45.4993533" lon="11.0667467"><ele>268.0</ele><time>2026-04-23T15:04:45.277Z</time></trkpt><trkpt lat="45.49932" lon="11.0668567"><ele>268.0</ele><time>2026-04-23T15:04:49.276Z</time></trkpt><trkpt lat="45.499295" lon="11.0669533"><ele>268.0</ele><time>2026-04-23T15:04:52.276Z</time></trkpt><trkpt lat="45.49928" lon="11.0670683"><ele>270.3333333333333</ele><time>2026-04-23T15:04:55.275Z</time></trkpt><trkpt lat="45.49927" lon="11.06718"><ele>272.66666666666663</ele><time>2026-04-23T15:04:58.275Z</time></trkpt><trkpt lat="45.4992733" lon="11.0672983"><ele>275.0</ele><time>2026-04-23T15:05:01.275Z</time></trkpt><trkpt lat="45.4992433" lon="11.067405"><ele>277.3333333333333</ele><time>2026-04-23T15:05:04.276Z</time></trkpt><trkpt lat="45.4992167" lon="11.067495"><ele>279.6666666666667</ele><time>2026-04-23T15:05:06.276Z</time></trkpt><trkpt lat="45.4991967" lon="11.06763"><ele>282.0</ele><time>2026-04-23T15:05:08.275Z</time></trkpt><trkpt lat="45.4992283" lon="11.0677533"><ele>284.0</ele><time>2026-04-23T15:05:11.275Z</time></trkpt><trkpt lat="45.4992467" lon="11.06787"><ele>286.0</ele><time>2026-04-23T15:05:13.275Z</time></trkpt><trkpt lat="45.499295" lon="11.0679683"><ele>288.0</ele><time>2026-04-23T15:05:15.275Z</time></trkpt><trkpt lat="45.4992917" lon="11.0680883"><ele>290.0</ele><time>2026-04-23T15:05:18.275Z</time></trkpt><trkpt lat="45.4993217" lon="11.0681883"><ele>292.0</ele><time>2026-04-23T15:05:20.275Z</time></trkpt><trkpt lat="45.4993067" lon="11.0683133"><ele>294.0</ele><time>2026-04-23T15:05:23.276Z</time></trkpt><trkpt lat="45.4992817" lon="11.0683983"><ele>295.3333333333333</ele><time>2026-04-23T15:05:25.275Z</time></trkpt><trkpt lat="45.4992583" lon="11.06849"><ele>296.6666666666667</ele><time>2026-04-23T15:05:27.275Z</time></trkpt><trkpt lat="45.4992967" lon="11.06867"><ele>298.0</ele><time>2026-04-23T15:05:30.275Z</time></trkpt><trkpt lat="45.4993017" lon="11.0687633"><ele>299.33333333333337</ele><time>2026-04-23T15:05:31.276Z</time></trkpt><trkpt lat="45.499325" lon="11.0689"><ele>300.6666666666667</ele><time>2026-04-23T15:05:33.276Z</time></trkpt><trkpt lat="45.499325" lon="11.0690167"><ele>302.0</ele><time>2026-04-23T15:05:35.275Z</time></trkpt><trkpt lat="45.4993217" lon="11.0691367"><ele>302.6</ele><time>2026-04-23T15:05:38.275Z</time></trkpt><trkpt lat="45.4993333" lon="11.06923"><ele>303.2</ele><time>2026-04-23T15:05:40.275Z</time></trkpt><trkpt lat="45.4993617" lon="11.0693583"><ele>303.8</ele><time>2026-04-23T15:05:44.276Z</time></trkpt><trkpt lat="45.49937" lon="11.069525"><ele>304.4</ele><time>2026-04-23T15:05:46.276Z</time></trkpt><trkpt lat="45.4993383" lon="11.0696467"><ele>305.0</ele><time>2026-04-23T15:05:48.275Z</time></trkpt><trkpt lat="45.4992783" lon="11.0698267"><ele>306.0</ele><time>2026-04-23T15:05:50.275Z</time></trkpt><trkpt lat="45.4992683" lon="11.0699917"><ele>307.0</ele><time>2026-04-23T15:05:52.275Z</time></trkpt><trkpt lat="45.499285" lon="11.0701333"><ele>308.0</ele><time>2026-04-23T15:05:53.275Z</time></trkpt><trkpt lat="45.499295" lon="11.0702433"><ele>309.0</ele><time>2026-04-23T15:05:54.275Z</time></trkpt><trkpt lat="45.49931" lon="11.0703733"><ele>310.0</ele><time>2026-04-23T15:05:55.275Z</time></trkpt><trkpt lat="45.4993467" lon="11.070475"><ele>310.0</ele><time>2026-04-23T15:05:56.276Z</time></trkpt><trkpt lat="45.49939" lon="11.0705867"><ele>310.0</ele><time>2026-04-23T15:05:57.275Z</time></trkpt><trkpt lat="45.4994367" lon="11.0707417"><ele>310.0</ele><time>2026-04-23T15:05:58.275Z</time></trkpt><trkpt lat="45.499485" lon="11.07094"><ele>310.0</ele><time>2026-04-23T15:05:59.276Z</time></trkpt><trkpt lat="45.4995117" lon="11.0711017"><ele>310.75</ele><time>2026-04-23T15:06:00.275Z</time></trkpt><trkpt lat="45.49956" lon="11.0712633"><ele>311.5</ele><time>2026-04-23T15:06:01.275Z</time></trkpt><trkpt lat="45.4996017" lon="11.0714033"><ele>312.25</ele><time>2026-04-23T15:06:02.275Z</time></trkpt><trkpt lat="45.49969" lon="11.071515"><ele>313.0</ele><time>2026-04-23T15:06:03.275Z</time></trkpt><trkpt lat="45.4997467" lon="11.0716467"><ele>314.75</ele><time>2026-04-23T15:06:04.276Z</time></trkpt><trkpt lat="45.4998033" lon="11.07178"><ele>316.5</ele><time>2026-04-23T15:06:05.275Z</time></trkpt><trkpt lat="45.499845" lon="11.0719483"><ele>318.25</ele><time>2026-04-23T15:06:06.275Z</time></trkpt><trkpt lat="45.4998733" lon="11.0721383"><ele>320.0</ele><time>2026-04-23T15:06:07.275Z</time></trkpt><trkpt lat="45.499905" lon="11.0723617"><ele>321.5</ele><time>2026-04-23T15:06:08.275Z</time></trkpt><trkpt lat="45.5000033" lon="11.0725667"><ele>323.0</ele><time>2026-04-23T15:06:09.275Z</time></trkpt><trkpt lat="45.50006" lon="11.07275"><ele>324.5</ele><time>2026-04-23T15:06:10.275Z</time></trkpt><trkpt lat="45.50011" lon="11.0729233"><ele>326.0</ele><time>2026-04-23T15:06:11.275Z</time></trkpt><trkpt lat="45.5001483" lon="11.0730733"><ele>326.0</ele><time>2026-04-23T15:06:12.275Z</time></trkpt><trkpt lat="45.5001883" lon="11.073205"><ele>326.0</ele><time>2026-04-23T15:06:13.275Z</time></trkpt><trkpt lat="45.5002183" lon="11.0733017"><ele>326.0</ele><time>2026-04-23T15:06:14.275Z</time></trkpt><trkpt lat="45.500245" lon="11.0733967"><ele>326.0</ele><time>2026-04-23T15:06:15.275Z</time></trkpt><trkpt lat="45.50028" lon="11.0734883"><ele>326.0</ele><time>2026-04-23T15:06:16.275Z</time></trkpt><trkpt lat="45.5003217" lon="11.0736283"><ele>326.0</ele><time>2026-04-23T15:06:18.275Z</time></trkpt><trkpt lat="45.5003567" lon="11.073745"><ele>328.0</ele><time>2026-04-23T15:06:20.275Z</time></trkpt><trkpt lat="45.5003417" lon="11.0738333"><ele>330.0</ele><time>2026-04-23T15:06:22.275Z</time></trkpt><trkpt lat="45.5003333" lon="11.073925"><ele>332.0</ele><time>2026-04-23T15:06:25.275Z</time></trkpt><trkpt lat="45.49931" lon="11.0703733"><ele>329.20000000000005</ele><time>2026-04-23T15:05:55.275Z</time></trkpt><trkpt lat="45.4993467" lon="11.070475"><ele>326.40000000000003</ele><time>2026-04-23T15:05:56.276Z</time></trkpt><trkpt lat="45.49939" lon="11.0705867"><ele>323.6</ele><time>2026-04-23T15:05:57.275Z</time></trkpt><trkpt lat="45.4994367" lon="11.0707417"><ele>320.8</ele><time>2026-04-23T15:05:58.275Z</time></trkpt><trkpt lat="45.499485" lon="11.07094"><ele>318.0</ele><time>2026-04-23T15:05:59.276Z</time></trkpt><trkpt lat="45.4995117" lon="11.0711017"><ele>318.0</ele><time>2026-04-23T15:06:00.275Z</time></trkpt><trkpt lat="45.49956" lon="11.0712633"><ele>318.0</ele><time>2026-04-23T15:06:01.275Z</time></trkpt><trkpt lat="45.4996017" lon="11.0714033"><ele>318.0</ele><time>2026-04-23T15:06:02.275Z</time></trkpt><trkpt lat="45.49969" lon="11.071515"><ele>318.0</ele><time>2026-04-23T15:06:03.275Z</time></trkpt><trkpt lat="45.4997467" lon="11.0716467"><ele>318.5</ele><time>2026-04-23T15:06:04.276Z</time></trkpt><trkpt lat="45.4998033" lon="11.07178"><ele>319.0</ele><time>2026-04-23T15:06:05.275Z</time></trkpt><trkpt lat="45.499845" lon="11.0719483"><ele>319.5</ele><time>2026-04-23T15:06:06.275Z</time></trkpt><trkpt lat="45.4998733" lon="11.0721383"><ele>320.0</ele><time>2026-04-23T15:06:07.275Z</time></trkpt><trkpt lat="45.499905" lon="11.0723617"><ele>321.5</ele><time>2026-04-23T15:06:08.275Z</time></trkpt><trkpt lat="45.5000033" lon="11.0725667"><ele>323.0</ele><time>2026-04-23T15:06:09.275Z</time></trkpt><trkpt lat="45.50006" lon="11.07275"><ele>324.5</ele><time>2026-04-23T15:06:10.275Z</time></trkpt><trkpt lat="45.50011" lon="11.0729233"><ele>326.0</ele><time>2026-04-23T15:06:11.275Z</time></trkpt><trkpt lat="45.5001483" lon="11.0730733"><ele>326.0</ele><time>2026-04-23T15:06:12.275Z</time></trkpt><trkpt lat="45.5001883" lon="11.073205"><ele>326.0</ele><time>2026-04-23T15:06:13.275Z</time></trkpt><trkpt lat="45.5002183" lon="11.0733017"><ele>326.0</ele><time>2026-04-23T15:06:14.275Z</time></trkpt><trkpt lat="45.500245" lon="11.0733967"><ele>326.0</ele><time>2026-04-23T15:06:15.275Z</time></trkpt><trkpt lat="45.50028" lon="11.0734883"><ele>326.0</ele><time>2026-04-23T15:06:16.275Z</time></trkpt><trkpt lat="45.5003217" lon="11.0736283"><ele>326.0</ele><time>2026-04-23T15:06:18.275Z</time></trkpt><trkpt lat="45.5003567" lon="11.073745"><ele>327.0</ele><time>2026-04-23T15:06:20.275Z</time></trkpt><trkpt lat="45.5003417" lon="11.0738333"><ele>328.0</ele><time>2026-04-23T15:06:22.275Z</time></trkpt><trkpt lat="45.5003333" lon="11.073925"><ele>329.0</ele><time>2026-04-23T15:06:25.275Z</time></trkpt><trkpt lat="45.5003417" lon="11.07402"><ele>330.0</ele><time>2026-04-23T15:06:29.276Z</time></trkpt><trkpt lat="45.5003283" lon="11.07413"><ele>331.0</ele><time>2026-04-23T15:06:37.275Z</time></trkpt><trkpt lat="45.5004417" lon="11.0741417"><ele>332.0</ele><time>2026-04-23T15:06:45.275Z</time></trkpt><trkpt lat="45.5004833" lon="11.0742367"><ele>332.6666666666667</ele><time>2026-04-23T15:06:47.275Z</time></trkpt><trkpt lat="45.5004967" lon="11.0743283"><ele>333.33333333333337</ele><time>2026-04-23T15:06:48.275Z</time></trkpt><trkpt lat="45.5005067" lon="11.0744683"><ele>334.0</ele><time>2026-04-23T15:06:49.275Z</time></trkpt><trkpt lat="45.50047" lon="11.074625"><ele>334.6666666666667</ele><time>2026-04-23T15:06:50.276Z</time></trkpt><trkpt lat="45.500475" lon="11.0747483"><ele>335.3333333333333</ele><time>2026-04-23T15:06:51.275Z</time></trkpt><trkpt lat="45.50049" lon="11.0748583"><ele>336.0</ele><time>2026-04-23T15:06:52.275Z</time></trkpt><trkpt lat="45.5005117" lon="11.07499"><ele>336.20000000000005</ele><time>2026-04-23T15:06:53.275Z</time></trkpt><trkpt lat="45.5005417" lon="11.07513"><ele>336.40000000000003</ele><time>2026-04-23T15:06:54.275Z</time></trkpt><trkpt lat="45.5005833" lon="11.0752783"><ele>336.6</ele><time>2026-04-23T15:06:55.275Z</time></trkpt><trkpt lat="45.50064" lon="11.0754283"><ele>336.8</ele><time>2026-04-23T15:06:56.276Z</time></trkpt><trkpt lat="45.500695" lon="11.0755633"><ele>337.0</ele><time>2026-04-23T15:06:57.276Z</time></trkpt><trkpt lat="45.5007267" lon="11.0756867"><ele>336.66666666666663</ele><time>2026-04-23T15:06:58.275Z</time></trkpt><trkpt lat="45.5007383" lon="11.0758083"><ele>336.3333333333333</ele><time>2026-04-23T15:06:59.275Z</time></trkpt><trkpt lat="45.50074" lon="11.0759217"><ele>336.0</ele><time>2026-04-23T15:07:00.275Z</time></trkpt><trkpt lat="45.5007383" lon="11.0760317"><ele>335.6666666666667</ele><time>2026-04-23T15:07:01.275Z</time></trkpt><trkpt lat="45.5007267" lon="11.0761517"><ele>335.33333333333337</ele><time>2026-04-23T15:07:02.275Z</time></trkpt><trkpt lat="45.500705" lon="11.0762517"><ele>335.0</ele><time>2026-04-23T15:07:03.276Z</time></trkpt><trkpt lat="45.5006883" lon="11.0763967"><ele>335.0</ele><time>2026-04-23T15:07:05.275Z</time></trkpt><trkpt lat="45.5007683" lon="11.0763517"><ele>335.0</ele><time>2026-04-23T15:07:09.275Z</time></trkpt><trkpt lat="45.500825" lon="11.0762467"><ele>335.0</ele><time>2026-04-23T15:07:10.275Z</time></trkpt><trkpt lat="45.5008883" lon="11.07616"><ele>335.0</ele><time>2026-04-23T15:07:11.275Z</time></trkpt><trkpt lat="45.5009483" lon="11.0760917"><ele>335.0</ele><time>2026-04-23T15:07:12.275Z</time></trkpt><trkpt lat="45.501025" lon="11.0760367"><ele>335.0</ele><time>2026-04-23T15:07:13.275Z</time></trkpt><trkpt lat="45.501145" lon="11.076"><ele>335.0</ele><time>2026-04-23T15:07:14.275Z</time></trkpt><trkpt lat="45.5012433" lon="11.0759883"><ele>335.0</ele><time>2026-04-23T15:07:15.275Z</time></trkpt><trkpt lat="45.5014517" lon="11.0760433"><ele>335.0</ele><time>2026-04-23T15:07:16.275Z</time></trkpt><trkpt lat="45.5015717" lon="11.0760683"><ele>335.0</ele><time>2026-04-23T15:07:17.275Z</time></trkpt><trkpt lat="45.5016717" lon="11.076105"><ele>337.2</ele><time>2026-04-23T15:07:18.275Z</time></trkpt><trkpt lat="45.5017467" lon="11.07611"><ele>339.4</ele><time>2026-04-23T15:07:19.275Z</time></trkpt><trkpt lat="45.5018467" lon="11.0760867"><ele>341.6</ele><time>2026-04-23T15:07:21.275Z</time></trkpt><trkpt lat="45.5018533" lon="11.0759633"><ele>343.8</ele><time>2026-04-23T15:07:24.275Z</time></trkpt><trkpt lat="45.5017617" lon="11.075845"><ele>346.0</ele><time>2026-04-23T15:07:25.275Z</time></trkpt><trkpt lat="45.5016417" lon="11.0756967"><ele>347.75</ele><time>2026-04-23T15:07:26.275Z</time></trkpt><trkpt lat="45.5015417" lon="11.0755483"><ele>349.5</ele><time>2026-04-23T15:07:27.276Z</time></trkpt><trkpt lat="45.501455" lon="11.0754033"><ele>351.25</ele><time>2026-04-23T15:07:28.276Z</time></trkpt><trkpt lat="45.5013833" lon="11.07528"><ele>353.0</ele><time>2026-04-23T15:07:29.276Z</time></trkpt><trkpt lat="45.5013283" lon="11.0751783"><ele>353.0</ele><time>2026-04-23T15:07:30.276Z</time></trkpt><trkpt lat="45.5013017" lon="11.0750817"><ele>353.0</ele><time>2026-04-23T15:07:31.275Z</time></trkpt><trkpt lat="45.501275" lon="11.0749767"><ele>353.0</ele><time>2026-04-23T15:07:32.274Z</time></trkpt><trkpt lat="45.50125" lon="11.0748833"><ele>353.0</ele><time>2026-04-23T15:07:33.274Z</time></trkpt><trkpt lat="45.50124" lon="11.0747817"><ele>353.0</ele><time>2026-04-23T15:07:34.274Z</time></trkpt><trkpt lat="45.5012717" lon="11.074695"><ele>353.0</ele><time>2026-04-23T15:07:35.274Z</time></trkpt><trkpt lat="45.5013633" lon="11.07462"><ele>353.79999999999995</ele><time>2026-04-23T15:07:37.274Z</time></trkpt><trkpt lat="45.5014667" lon="11.07459"><ele>354.6</ele><time>2026-04-23T15:07:39.274Z</time></trkpt><trkpt lat="45.50158" lon="11.07463"><ele>355.4</ele><time>2026-04-23T15:07:40.274Z</time></trkpt><trkpt lat="45.50169" lon="11.0746433"><ele>356.20000000000005</ele><time>2026-04-23T15:07:41.274Z</time></trkpt><trkpt lat="45.50178" lon="11.0746467"><ele>357.0</ele><time>2026-04-23T15:07:42.274Z</time></trkpt><trkpt lat="45.501865" lon="11.07466"><ele>357.0</ele><time>2026-04-23T15:07:43.274Z</time></trkpt><trkpt lat="45.501925" lon="11.0746967"><ele>357.0</ele><time>2026-04-23T15:07:44.274Z</time></trkpt><trkpt lat="45.5019883" lon="11.07473"><ele>357.0</ele><time>2026-04-23T15:07:45.274Z</time></trkpt><trkpt lat="45.5020583" lon="11.0747717"><ele>357.0</ele><time>2026-04-23T15:07:46.274Z</time></trkpt><trkpt lat="45.5021433" lon="11.074815"><ele>357.0</ele><time>2026-04-23T15:07:47.274Z</time></trkpt><trkpt lat="45.502225" lon="11.07485"><ele>357.0</ele><time>2026-04-23T15:07:48.274Z</time></trkpt><trkpt lat="45.5022983" lon="11.0748883"><ele>359.8</ele><time>2026-04-23T15:07:49.274Z</time></trkpt><trkpt lat="45.50239" lon="11.0749517"><ele>362.6</ele><time>2026-04-23T15:07:50.274Z</time></trkpt><trkpt lat="45.5024783" lon="11.0750017"><ele>365.40000000000003</ele><time>2026-04-23T15:07:51.274Z</time></trkpt><trkpt lat="45.50255" lon="11.0750567"><ele>368.20000000000005</ele><time>2026-04-23T15:07:52.274Z</time></trkpt><trkpt lat="45.502615" lon="11.075095"><ele>371.0</ele><time>2026-04-23T15:07:53.274Z</time></trkpt><trkpt lat="45.5027167" lon="11.0751"><ele>371.0</ele><time>2026-04-23T15:07:55.275Z</time></trkpt><trkpt lat="45.50275" lon="11.0749967"><ele>371.0</ele><time>2026-04-23T15:07:58.274Z</time></trkpt><trkpt lat="45.502695" lon="11.0748933"><ele>371.0</ele><time>2026-04-23T15:07:59.274Z</time></trkpt><trkpt lat="45.5026667" lon="11.0748033"><ele>371.0</ele><time>2026-04-23T15:08:00.275Z</time></trkpt><trkpt lat="45.50256" lon="11.0746317"><ele>371.0</ele><time>2026-04-23T15:08:01.274Z</time></trkpt><trkpt lat="45.50253" lon="11.0745083"><ele>370.5</ele><time>2026-04-23T15:08:02.274Z</time></trkpt><trkpt lat="45.5025083" lon="11.0744133"><ele>370.0</ele><time>2026-04-23T15:08:03.274Z</time></trkpt><trkpt lat="45.5024717" lon="11.07433"><ele>369.5</ele><time>2026-04-23T15:08:04.274Z</time></trkpt><trkpt lat="45.5024933" lon="11.0741783"><ele>369.0</ele><time>2026-04-23T15:08:06.275Z</time></trkpt><trkpt lat="45.5025217" lon="11.07409"><ele>368.5</ele><time>2026-04-23T15:08:08.274Z</time></trkpt><trkpt lat="45.5025233" lon="11.073965"><ele>368.0</ele><time>2026-04-23T15:08:10.274Z</time></trkpt><trkpt lat="45.50253" lon="11.0738317"><ele>368.0</ele><time>2026-04-23T15:08:12.274Z</time></trkpt><trkpt lat="45.50258" lon="11.073775"><ele>368.0</ele><time>2026-04-23T15:08:15.274Z</time></trkpt><trkpt lat="45.5027067" lon="11.07389"><ele>368.0</ele><time>2026-04-23T15:08:17.274Z</time></trkpt><trkpt lat="45.5027867" lon="11.0739367"><ele>368.0</ele><time>2026-04-23T15:08:18.274Z</time></trkpt><trkpt lat="45.502885" lon="11.0740033"><ele>368.0</ele><time>2026-04-23T15:08:19.274Z</time></trkpt><trkpt lat="45.5029867" lon="11.0740817"><ele>373.0</ele><time>2026-04-23T15:08:20.274Z</time></trkpt><trkpt lat="45.5031" lon="11.0741467"><ele>378.0</ele><time>2026-04-23T15:08:21.274Z</time></trkpt><trkpt lat="45.5032167" lon="11.0742017"><ele>383.0</ele><time>2026-04-23T15:08:22.274Z</time></trkpt><trkpt lat="45.5033367" lon="11.074245"><ele>388.0</ele><time>2026-04-23T15:08:23.274Z</time></trkpt><trkpt lat="45.5034367" lon="11.074265"><ele>388.00000000000006</ele><time>2026-04-23T15:08:24.274Z</time></trkpt><trkpt lat="45.5035383" lon="11.0742733"><ele>388.0</ele><time>2026-04-23T15:08:25.274Z</time></trkpt><trkpt lat="45.5036367" lon="11.0742883"><ele>388.0</ele><time>2026-04-23T15:08:26.274Z</time></trkpt><trkpt lat="45.5037217" lon="11.0743217"><ele>388.0</ele><time>2026-04-23T15:08:27.274Z</time></trkpt><trkpt lat="45.503795" lon="11.0743533"><ele>388.00000000000006</ele><time>2026-04-23T15:08:28.275Z</time></trkpt><trkpt lat="45.50387" lon="11.0744033"><ele>388.0</ele><time>2026-04-23T15:08:29.274Z</time></trkpt><trkpt lat="45.503935" lon="11.0745033"><ele>388.0</ele><time>2026-04-23T15:08:30.274Z</time></trkpt><trkpt lat="45.5039933" lon="11.0746167"><ele>388.0</ele><time>2026-04-23T15:08:31.274Z</time></trkpt><trkpt lat="45.50402" lon="11.0747433"><ele>388.0</ele><time>2026-04-23T15:08:32.274Z</time></trkpt><trkpt lat="45.5039967" lon="11.0749017"><ele>388.0</ele><time>2026-04-23T15:08:33.274Z</time></trkpt><trkpt lat="45.5039967" lon="11.0750033"><ele>388.0</ele><time>2026-04-23T15:08:34.275Z</time></trkpt><trkpt lat="45.50401" lon="11.0751783"><ele>389.33333333333337</ele><time>2026-04-23T15:08:36.275Z</time></trkpt><trkpt lat="45.5040267" lon="11.0752867"><ele>390.6666666666667</ele><time>2026-04-23T15:08:39.274Z</time></trkpt><trkpt lat="45.5040467" lon="11.0753933"><ele>392.0</ele><time>2026-04-23T15:08:44.274Z</time></trkpt><trkpt lat="45.504085" lon="11.075485"><ele>393.33333333333337</ele><time>2026-04-23T15:08:46.274Z</time></trkpt><trkpt lat="45.5041183" lon="11.0756233"><ele>394.6666666666667</ele><time>2026-04-23T15:08:48.274Z</time></trkpt><trkpt lat="45.5041367" lon="11.0757267"><ele>396.0</ele><time>2026-04-23T15:08:49.274Z</time></trkpt><trkpt lat="45.5041583" lon="11.075845"><ele>396.6666666666667</ele><time>2026-04-23T15:08:50.274Z</time></trkpt><trkpt lat="45.5041767" lon="11.07596"><ele>397.33333333333337</ele><time>2026-04-23T15:08:51.274Z</time></trkpt><trkpt lat="45.504185" lon="11.07608"><ele>398.0</ele><time>2026-04-23T15:08:52.274Z</time></trkpt><trkpt lat="45.5042017" lon="11.076195"><ele>398.6666666666667</ele><time>2026-04-23T15:08:53.274Z</time></trkpt><trkpt lat="45.50421" lon="11.0763083"><ele>399.33333333333337</ele><time>2026-04-23T15:08:54.274Z</time></trkpt><trkpt lat="45.5042167" lon="11.07642"><ele>400.0</ele><time>2026-04-23T15:08:55.274Z</time></trkpt><trkpt lat="45.5042383" lon="11.07654"><ele>399.8</ele><time>2026-04-23T15:08:56.274Z</time></trkpt><trkpt lat="45.5042567" lon="11.07666"><ele>399.6</ele><time>2026-04-23T15:08:57.274Z</time></trkpt><trkpt lat="45.5042717" lon="11.076775"><ele>399.4</ele><time>2026-04-23T15:08:58.274Z</time></trkpt><trkpt lat="45.504285" lon="11.07691"><ele>399.2</ele><time>2026-04-23T15:08:59.274Z</time></trkpt><trkpt lat="45.5042867" lon="11.0770417"><ele>399.0</ele><time>2026-04-23T15:09:00.275Z</time></trkpt><trkpt lat="45.5042833" lon="11.077185"><ele>399.0</ele><time>2026-04-23T15:09:01.274Z</time></trkpt><trkpt lat="45.5042667" lon="11.0773433"><ele>399.0</ele><time>2026-04-23T15:09:02.275Z</time></trkpt><trkpt lat="45.50425" lon="11.0775"><ele>399.0</ele><time>2026-04-23T15:09:03.275Z</time></trkpt><trkpt lat="45.504215" lon="11.077685"><ele>399.0</ele><time>2026-04-23T15:09:04.274Z</time></trkpt><trkpt lat="45.504185" lon="11.0778333"><ele>399.3333333333333</ele><time>2026-04-23T15:09:05.274Z</time></trkpt><trkpt lat="45.5041817" lon="11.0779483"><ele>399.66666666666663</ele><time>2026-04-23T15:09:06.274Z</time></trkpt><trkpt lat="45.5042" lon="11.0780617"><ele>400.0</ele><time>2026-04-23T15:09:07.274Z</time></trkpt><trkpt lat="45.5042383" lon="11.07817"><ele>400.3333333333333</ele><time>2026-04-23T15:09:08.274Z</time></trkpt><trkpt lat="45.5042617" lon="11.07827"><ele>400.66666666666663</ele><time>2026-04-23T15:09:09.274Z</time></trkpt><trkpt lat="45.5042767" lon="11.07843"><ele>401.0</ele><time>2026-04-23T15:09:11.274Z</time></trkpt><trkpt lat="45.504275" lon="11.0785283"><ele>401.5</ele><time>2026-04-23T15:09:12.274Z</time></trkpt><trkpt lat="45.5042567" lon="11.07867"><ele>402.0</ele><time>2026-04-23T15:09:13.274Z</time></trkpt><trkpt lat="45.5042133" lon="11.078855"><ele>402.5</ele><time>2026-04-23T15:09:14.274Z</time></trkpt><trkpt lat="45.5041717" lon="11.079025"><ele>403.0</ele><time>2026-04-23T15:09:15.274Z</time></trkpt><trkpt lat="45.5041417" lon="11.0791617"><ele>404.1666666666667</ele><time>2026-04-23T15:09:16.274Z</time></trkpt><trkpt lat="45.5041533" lon="11.0792717"><ele>405.33333333333337</ele><time>2026-04-23T15:09:18.274Z</time></trkpt><trkpt lat="45.5041583" lon="11.07938"><ele>406.5</ele><time>2026-04-23T15:09:19.274Z</time></trkpt><trkpt lat="45.5041817" lon="11.0794933"><ele>407.66666666666663</ele><time>2026-04-23T15:09:20.274Z</time></trkpt><trkpt lat="45.5042033" lon="11.0796017"><ele>408.8333333333333</ele><time>2026-04-23T15:09:21.274Z</time></trkpt><trkpt lat="45.50422" lon="11.0797"><ele>410.0</ele><time>2026-04-23T15:09:22.274Z</time></trkpt><trkpt lat="45.504285" lon="11.0798283"><ele>411.4</ele><time>2026-04-23T15:09:24.274Z</time></trkpt><trkpt lat="45.504345" lon="11.0799717"><ele>412.8</ele><time>2026-04-23T15:09:26.274Z</time></trkpt><trkpt lat="45.50435" lon="11.080085"><ele>414.20000000000005</ele><time>2026-04-23T15:09:28.274Z</time></trkpt><trkpt lat="45.504285" lon="11.0802417"><ele>415.6</ele><time>2026-04-23T15:09:45.274Z</time></trkpt><trkpt lat="45.50427" lon="11.0803783"><ele>417.0</ele><time>2026-04-23T15:09:46.274Z</time></trkpt><trkpt lat="45.50426" lon="11.0805333"><ele>417.0</ele><time>2026-04-23T15:09:47.275Z</time></trkpt><trkpt lat="45.504245" lon="11.08075"><ele>417.0</ele><time>2026-04-23T15:09:48.274Z</time></trkpt><trkpt lat="45.504235" lon="11.080975"><ele>417.0</ele><time>2026-04-23T15:09:49.274Z</time></trkpt><trkpt lat="45.5042183" lon="11.08121"><ele>418.33333333333337</ele><time>2026-04-23T15:09:50.274Z</time></trkpt><trkpt lat="45.5042083" lon="11.0814667"><ele>419.6666666666667</ele><time>2026-04-23T15:09:51.274Z</time></trkpt><trkpt lat="45.5041983" lon="11.08169"><ele>421.0</ele><time>2026-04-23T15:09:52.274Z</time></trkpt><trkpt lat="45.50423" lon="11.0818467"><ele>423.0</ele><time>2026-04-23T15:09:53.274Z</time></trkpt><trkpt lat="45.504275" lon="11.0819783"><ele>425.0</ele><time>2026-04-23T15:09:54.274Z</time></trkpt><trkpt lat="45.5043467" lon="11.0820933"><ele>427.0</ele><time>2026-04-23T15:09:55.274Z</time></trkpt><trkpt lat="45.5044717" lon="11.08221"><ele>429.0</ele><time>2026-04-23T15:09:56.274Z</time></trkpt><trkpt lat="45.5045733" lon="11.0823583"><ele>429.75</ele><time>2026-04-23T15:09:57.274Z</time></trkpt><trkpt lat="45.5046767" lon="11.0825333"><ele>430.5</ele><time>2026-04-23T15:09:58.274Z</time></trkpt><trkpt lat="45.5047617" lon="11.082695"><ele>431.25</ele><time>2026-04-23T15:09:59.274Z</time></trkpt><trkpt lat="45.5048417" lon="11.0827967"><ele>432.0</ele><time>2026-04-23T15:10:00.275Z</time></trkpt><trkpt lat="45.5049267" lon="11.0829033"><ele>432.0</ele><time>2026-04-23T15:10:01.275Z</time></trkpt><trkpt lat="45.5049867" lon="11.08298"><ele>432.0</ele><time>2026-04-23T15:10:02.274Z</time></trkpt><trkpt lat="45.505015" lon="11.083075"><ele>432.0</ele><time>2026-04-23T15:10:03.274Z</time></trkpt><trkpt lat="45.5050233" lon="11.08319"><ele>432.0</ele><time>2026-04-23T15:10:04.274Z</time></trkpt><trkpt lat="45.5050183" lon="11.083285"><ele>432.0</ele><time>2026-04-23T15:10:05.274Z</time></trkpt><trkpt lat="45.5049967" lon="11.0834117"><ele>432.0</ele><time>2026-04-23T15:10:06.274Z</time></trkpt><trkpt lat="45.5049667" lon="11.0835183"><ele>434.25</ele><time>2026-04-23T15:10:07.274Z</time></trkpt><trkpt lat="45.5048983" lon="11.0836417"><ele>436.5</ele><time>2026-04-23T15:10:08.274Z</time></trkpt><trkpt lat="45.504855" lon="11.0838"><ele>438.75</ele><time>2026-04-23T15:10:09.274Z</time></trkpt><trkpt lat="45.5048033" lon="11.08397"><ele>441.0</ele><time>2026-04-23T15:10:10.274Z</time></trkpt><trkpt lat="45.504775" lon="11.084145"><ele>442.33333333333337</ele><time>2026-04-23T15:10:11.274Z</time></trkpt><trkpt lat="45.50476" lon="11.0843433"><ele>443.6666666666667</ele><time>2026-04-23T15:10:12.274Z</time></trkpt><trkpt lat="45.504765" lon="11.0845783"><ele>445.0</ele><time>2026-04-23T15:10:13.275Z</time></trkpt><trkpt lat="45.504775" lon="11.0848317"><ele>447.5</ele><time>2026-04-23T15:10:14.274Z</time></trkpt><trkpt lat="45.5048067" lon="11.0850717"><ele>450.0</ele><time>2026-04-23T15:10:15.274Z</time></trkpt><trkpt lat="45.5048333" lon="11.085275"><ele>452.5</ele><time>2026-04-23T15:10:16.273Z</time></trkpt><trkpt lat="45.5048333" lon="11.0854533"><ele>455.0</ele><time>2026-04-23T15:10:17.273Z</time></trkpt><trkpt lat="45.50482" lon="11.0856267"><ele>455.0</ele><time>2026-04-23T15:10:18.273Z</time></trkpt><trkpt lat="45.504715" lon="11.08576"><ele>455.0</ele><time>2026-04-23T15:10:19.273Z</time></trkpt><trkpt lat="45.5046417" lon="11.08588"><ele>455.0</ele><time>2026-04-23T15:10:20.273Z</time></trkpt><trkpt lat="45.504575" lon="11.0860183"><ele>455.0</ele><time>2026-04-23T15:10:21.273Z</time></trkpt><trkpt lat="45.504465" lon="11.0861683"><ele>457.25</ele><time>2026-04-23T15:10:22.273Z</time></trkpt><trkpt lat="45.5044167" lon="11.08635"><ele>459.5</ele><time>2026-04-23T15:10:23.273Z</time></trkpt><trkpt lat="45.5043817" lon="11.0865767"><ele>461.75</ele><time>2026-04-23T15:10:24.273Z</time></trkpt><trkpt lat="45.5043817" lon="11.0867717"><ele>464.0</ele><time>2026-04-23T15:10:25.274Z</time></trkpt><trkpt lat="45.5043483" lon="11.0869833"><ele>466.25</ele><time>2026-04-23T15:10:26.273Z</time></trkpt><trkpt lat="45.50434" lon="11.0871767"><ele>468.5</ele><time>2026-04-23T15:10:27.273Z</time></trkpt><trkpt lat="45.50434" lon="11.087335"><ele>470.75</ele><time>2026-04-23T15:10:28.273Z</time></trkpt><trkpt lat="45.5043717" lon="11.0874883"><ele>473.0</ele><time>2026-04-23T15:10:29.273Z</time></trkpt><trkpt lat="45.504435" lon="11.0876367"><ele>476.0</ele><time>2026-04-23T15:10:30.273Z</time></trkpt><trkpt lat="45.5045083" lon="11.0877983"><ele>479.0</ele><time>2026-04-23T15:10:31.273Z</time></trkpt><trkpt lat="45.5045817" lon="11.0879767"><ele>482.0</ele><time>2026-04-23T15:10:32.273Z</time></trkpt><trkpt lat="45.5046533" lon="11.0881567"><ele>485.0</ele><time>2026-04-23T15:10:33.273Z</time></trkpt><trkpt lat="45.5047317" lon="11.0883367"><ele>487.49999999999994</ele><time>2026-04-23T15:10:34.273Z</time></trkpt><trkpt lat="45.5048267" lon="11.0884567"><ele>490.0</ele><time>2026-04-23T15:10:35.273Z</time></trkpt><trkpt lat="45.5048817" lon="11.0885633"><ele>492.5</ele><time>2026-04-23T15:10:36.273Z</time></trkpt><trkpt lat="45.5049233" lon="11.0886517"><ele>495.0</ele><time>2026-04-23T15:10:37.273Z</time></trkpt><trkpt lat="45.50496" lon="11.0887317"><ele>497.49999999999994</ele><time>2026-04-23T15:10:38.273Z</time></trkpt><trkpt lat="45.5049617" lon="11.0888333"><ele>500.0</ele><time>2026-04-23T15:10:40.273Z</time></trkpt><trkpt lat="45.5048233" lon="11.0887583"><ele>499.99999999999994</ele><time>2026-04-23T15:10:41.273Z</time></trkpt><trkpt lat="45.5047317" lon="11.0887783"><ele>500.0</ele><time>2026-04-23T15:10:42.273Z</time></trkpt><trkpt lat="45.50465" lon="11.0888183"><ele>500.0</ele><time>2026-04-23T15:10:43.273Z</time></trkpt><trkpt lat="45.5045817" lon="11.0888667"><ele>500.0</ele><time>2026-04-23T15:10:44.273Z</time></trkpt><trkpt lat="45.5045267" lon="11.08894"><ele>499.99999999999994</ele><time>2026-04-23T15:10:45.273Z</time></trkpt><trkpt lat="45.5044833" lon="11.0890367"><ele>500.0</ele><time>2026-04-23T15:10:46.274Z</time></trkpt><trkpt lat="45.5044483" lon="11.08912"><ele>502.16666666666663</ele><time>2026-04-23T15:10:47.274Z</time></trkpt><trkpt lat="45.504455" lon="11.0892583"><ele>504.3333333333333</ele><time>2026-04-23T15:10:48.273Z</time></trkpt><trkpt lat="45.504465" lon="11.08944"><ele>506.5</ele><time>2026-04-23T15:10:50.274Z</time></trkpt><trkpt lat="45.5044867" lon="11.089535"><ele>508.66666666666663</ele><time>2026-04-23T15:10:51.273Z</time></trkpt><trkpt lat="45.5045317" lon="11.089605"><ele>510.8333333333333</ele><time>2026-04-23T15:10:52.274Z</time></trkpt><trkpt lat="45.5045833" lon="11.0896617"><ele>513.0</ele><time>2026-04-23T15:10:53.273Z</time></trkpt><trkpt lat="45.5046633" lon="11.0897183"><ele>513.7142857142858</ele><time>2026-04-23T15:10:54.273Z</time></trkpt><trkpt lat="45.504725" lon="11.0897667"><ele>514.4285714285714</ele><time>2026-04-23T15:10:55.273Z</time></trkpt><trkpt lat="45.5047817" lon="11.0898183"><ele>515.1428571428571</ele><time>2026-04-23T15:10:56.273Z</time></trkpt><trkpt lat="45.504825" lon="11.0898867"><ele>515.8571428571429</ele><time>2026-04-23T15:10:57.273Z</time></trkpt><trkpt lat="45.5048617" lon="11.089965"><ele>516.5714285714286</ele><time>2026-04-23T15:10:58.274Z</time></trkpt><trkpt lat="45.5048917" lon="11.090065"><ele>517.2857142857143</ele><time>2026-04-23T15:10:59.274Z</time></trkpt><trkpt lat="45.50491" lon="11.0901833"><ele>518.0</ele><time>2026-04-23T15:11:00.273Z</time></trkpt><trkpt lat="45.504925" lon="11.0903"><ele>520.75</ele><time>2026-04-23T15:11:01.273Z</time></trkpt><trkpt lat="45.5049283" lon="11.0904417"><ele>523.5</ele><time>2026-04-23T15:11:02.273Z</time></trkpt><trkpt lat="45.5049333" lon="11.0905633"><ele>526.25</ele><time>2026-04-23T15:11:03.273Z</time></trkpt><trkpt lat="45.5049117" lon="11.0907283"><ele>529.0</ele><time>2026-04-23T15:11:04.273Z</time></trkpt><trkpt lat="45.5048183" lon="11.0909883"><ele>500.0</ele><time>2026-04-23T15:11:05.273Z</time></trkpt><trkpt lat="45.5048267" lon="11.0884567"><ele>500.0</ele><time>2026-04-23T15:10:35.273Z</time></trkpt><trkpt lat="45.5048817" lon="11.0885633"><ele>500.0</ele><time>2026-04-23T15:10:36.273Z</time></trkpt><trkpt lat="45.5049233" lon="11.0886517"><ele>500.0</ele><time>2026-04-23T15:10:37.273Z</time></trkpt><trkpt lat="45.50496" lon="11.0887317"><ele>500.0</ele><time>2026-04-23T15:10:38.273Z</time></trkpt><trkpt lat="45.5049617" lon="11.0888333"><ele>500.0</ele><time>2026-04-23T15:10:40.273Z</time></trkpt><trkpt lat="45.5048233" lon="11.0887583"><ele>499.99999999999994</ele><time>2026-04-23T15:10:41.273Z</time></trkpt><trkpt lat="45.5047317" lon="11.0887783"><ele>500.0</ele><time>2026-04-23T15:10:42.273Z</time></trkpt><trkpt lat="45.50465" lon="11.0888183"><ele>500.0</ele><time>2026-04-23T15:10:43.273Z</time></trkpt><trkpt lat="45.5045817" lon="11.0888667"><ele>500.0</ele><time>2026-04-23T15:10:44.273Z</time></trkpt><trkpt lat="45.5045267" lon="11.08894"><ele>499.99999999999994</ele><time>2026-04-23T15:10:45.273Z</time></trkpt><trkpt lat="45.5044833" lon="11.0890367"><ele>500.0</ele><time>2026-04-23T15:10:46.274Z</time></trkpt><trkpt lat="45.5044483" lon="11.08912"><ele>502.16666666666663</ele><time>2026-04-23T15:10:47.274Z</time></trkpt><trkpt lat="45.504455" lon="11.0892583"><ele>504.3333333333333</ele><time>2026-04-23T15:10:48.273Z</time></trkpt><trkpt lat="45.504465" lon="11.08944"><ele>506.5</ele><time>2026-04-23T15:10:50.274Z</time></trkpt><trkpt lat="45.5044867" lon="11.089535"><ele>508.66666666666663</ele><time>2026-04-23T15:10:51.273Z</time></trkpt><trkpt lat="45.5045317" lon="11.089605"><ele>510.8333333333333</ele><time>2026-04-23T15:10:52.274Z</time></trkpt><trkpt lat="45.5045833" lon="11.0896617"><ele>513.0</ele><time>2026-04-23T15:10:53.273Z</time></trkpt><trkpt lat="45.5046633" lon="11.0897183"><ele>513.7142857142858</ele><time>2026-04-23T15:10:54.273Z</time></trkpt><trkpt lat="45.504725" lon="11.0897667"><ele>514.4285714285714</ele><time>2026-04-23T15:10:55.273Z</time></trkpt><trkpt lat="45.5047817" lon="11.0898183"><ele>515.1428571428571</ele><time>2026-04-23T15:10:56.273Z</time></trkpt><trkpt lat="45.504825" lon="11.0898867"><ele>515.8571428571429</ele><time>2026-04-23T15:10:57.273Z</time></trkpt><trkpt lat="45.5048617" lon="11.089965"><ele>516.5714285714286</ele><time>2026-04-23T15:10:58.274Z</time></trkpt><trkpt lat="45.5048917" lon="11.090065"><ele>517.2857142857143</ele><time>2026-04-23T15:10:59.274Z</time></trkpt><trkpt lat="45.50491" lon="11.0901833"><ele>518.0</ele><time>2026-04-23T15:11:00.273Z</time></trkpt><trkpt lat="45.504925" lon="11.0903"><ele>520.75</ele><time>2026-04-23T15:11:01.273Z</time></trkpt><trkpt lat="45.5049283" lon="11.0904417"><ele>523.5</ele><time>2026-04-23T15:11:02.273Z</time></trkpt><trkpt lat="45.5049333" lon="11.0905633"><ele>526.25</ele><time>2026-04-23T15:11:03.273Z</time></trkpt><trkpt lat="45.5049117" lon="11.0907283"><ele>529.0</ele><time>2026-04-23T15:11:04.273Z</time></trkpt><trkpt lat="45.5048183" lon="11.0909883"><ele>531.3333333333334</ele><time>2026-04-23T15:11:05.273Z</time></trkpt><trkpt lat="45.5047383" lon="11.09125"><ele>533.6666666666666</ele><time>2026-04-23T15:11:06.273Z</time></trkpt><trkpt lat="45.50468" lon="11.0914967"><ele>536.0</ele><time>2026-04-23T15:11:07.273Z</time></trkpt><trkpt lat="45.50465" lon="11.0917333"><ele>537.0</ele><time>2026-04-23T15:11:08.274Z</time></trkpt><trkpt lat="45.50459" lon="11.0919867"><ele>538.0</ele><time>2026-04-23T15:11:09.273Z</time></trkpt><trkpt lat="45.5045267" lon="11.09223"><ele>539.0</ele><time>2026-04-23T15:11:10.273Z</time></trkpt><trkpt lat="45.5044733" lon="11.0924433"><ele>541.0</ele><time>2026-04-23T15:11:11.273Z</time></trkpt><trkpt lat="45.5044517" lon="11.0926667"><ele>543.0</ele><time>2026-04-23T15:11:12.273Z</time></trkpt><trkpt lat="45.504445" lon="11.092915"><ele>545.0</ele><time>2026-04-23T15:11:13.273Z</time></trkpt><trkpt lat="45.5044367" lon="11.09318"><ele>547.0</ele><time>2026-04-23T15:11:14.273Z</time></trkpt><trkpt lat="45.5044317" lon="11.0934267"><ele>549.0</ele><time>2026-04-23T15:11:15.273Z</time></trkpt><trkpt lat="45.50444" lon="11.0936533"><ele>551.0</ele><time>2026-04-23T15:11:16.273Z</time></trkpt><trkpt lat="45.504455" lon="11.09385"><ele>551.0</ele><time>2026-04-23T15:11:17.274Z</time></trkpt><trkpt lat="45.504465" lon="11.0940033"><ele>551.0</ele><time>2026-04-23T15:11:18.273Z</time></trkpt><trkpt lat="45.5044717" lon="11.0941133"><ele>551.0</ele><time>2026-04-23T15:11:19.273Z</time></trkpt><trkpt lat="45.5045317" lon="11.0942467"><ele>551.0</ele><time>2026-04-23T15:11:21.273Z</time></trkpt><trkpt lat="45.5046217" lon="11.0943517"><ele>551.0</ele><time>2026-04-23T15:11:23.273Z</time></trkpt><trkpt lat="45.5046767" lon="11.0945133"><ele>552.0</ele><time>2026-04-23T15:11:25.273Z</time></trkpt><trkpt lat="45.5046983" lon="11.094625"><ele>553.0</ele><time>2026-04-23T15:11:26.273Z</time></trkpt><trkpt lat="45.5047117" lon="11.0947517"><ele>554.0</ele><time>2026-04-23T15:11:27.273Z</time></trkpt><trkpt lat="45.5047367" lon="11.09492"><ele>555.0</ele><time>2026-04-23T15:11:28.273Z</time></trkpt><trkpt lat="45.5047933" lon="11.09515"><ele>556.6666666666666</ele><time>2026-04-23T15:11:29.273Z</time></trkpt><trkpt lat="45.50484" lon="11.095355"><ele>558.3333333333333</ele><time>2026-04-23T15:11:30.273Z</time></trkpt><trkpt lat="45.5049317" lon="11.0956033"><ele>560.0</ele><time>2026-04-23T15:11:31.273Z</time></trkpt><trkpt lat="45.504975" lon="11.0958033"><ele>562.0</ele><time>2026-04-23T15:11:32.274Z</time></trkpt><trkpt lat="45.5050233" lon="11.095995"><ele>564.0</ele><time>2026-04-23T15:11:33.273Z</time></trkpt><trkpt lat="45.5050967" lon="11.0961767"><ele>566.0</ele><time>2026-04-23T15:11:34.273Z</time></trkpt><trkpt lat="45.5051817" lon="11.09636"><ele>568.0</ele><time>2026-04-23T15:11:35.273Z</time></trkpt><trkpt lat="45.5052333" lon="11.09649"><ele>568.1999999999999</ele><time>2026-04-23T15:11:36.273Z</time></trkpt><trkpt lat="45.50529" lon="11.0965867"><ele>568.4</ele><time>2026-04-23T15:11:37.273Z</time></trkpt><trkpt lat="45.5053533" lon="11.09666"><ele>568.5999999999999</ele><time>2026-04-23T15:11:38.273Z</time></trkpt><trkpt lat="45.5054283" lon="11.096705"><ele>568.8</ele><time>2026-04-23T15:11:39.274Z</time></trkpt><trkpt lat="45.5055217" lon="11.0966333"><ele>569.0</ele><time>2026-04-23T15:11:40.273Z</time></trkpt><trkpt lat="45.505625" lon="11.0965767"><ele>570.0</ele><time>2026-04-23T15:11:41.274Z</time></trkpt><trkpt lat="45.50574" lon="11.0965067"><ele>571.0</ele><time>2026-04-23T15:11:42.273Z</time></trkpt><trkpt lat="45.5058733" lon="11.096425"><ele>572.0</ele><time>2026-04-23T15:11:43.273Z</time></trkpt><trkpt lat="45.5059933" lon="11.0963733"><ele>573.0</ele><time>2026-04-23T15:11:44.273Z</time></trkpt><trkpt lat="45.506095" lon="11.096335"><ele>573.0</ele><time>2026-04-23T15:11:45.273Z</time></trkpt><trkpt lat="45.5061817" lon="11.0963067"><ele>573.0</ele><time>2026-04-23T15:11:46.273Z</time></trkpt><trkpt lat="45.5062817" lon="11.0963367"><ele>573.0</ele><time>2026-04-23T15:11:48.273Z</time></trkpt><trkpt lat="45.5062883" lon="11.0964833"><ele>573.0</ele><time>2026-04-23T15:11:50.273Z</time></trkpt><trkpt lat="45.5063033" lon="11.0965833"><ele>573.0</ele><time>2026-04-23T15:11:51.273Z</time></trkpt><trkpt lat="45.5063117" lon="11.0966817"><ele>573.0</ele><time>2026-04-23T15:11:52.273Z</time></trkpt><trkpt lat="45.50632" lon="11.0967817"><ele>576.5</ele><time>2026-04-23T15:11:53.273Z</time></trkpt><trkpt lat="45.5063067" lon="11.0968983"><ele>580.0</ele><time>2026-04-23T15:11:54.273Z</time></trkpt><trkpt lat="45.5062983" lon="11.0970083"><ele>583.5</ele><time>2026-04-23T15:11:55.273Z</time></trkpt><trkpt lat="45.50629" lon="11.0971117"><ele>587.0</ele><time>2026-04-23T15:11:56.273Z</time></trkpt><trkpt lat="45.5062867" lon="11.0972267"><ele>590.5</ele><time>2026-04-23T15:11:57.273Z</time></trkpt><trkpt lat="45.5062867" lon="11.097415"><ele>594.0</ele><time>2026-04-23T15:11:58.273Z</time></trkpt><trkpt lat="45.5062833" lon="11.097535"><ele>594.5</ele><time>2026-04-23T15:11:59.273Z</time></trkpt><trkpt lat="45.50629" lon="11.0976267"><ele>595.0</ele><time>2026-04-23T15:12:00.273Z</time></trkpt><trkpt lat="45.50629" lon="11.0977317"><ele>595.5</ele><time>2026-04-23T15:12:01.274Z</time></trkpt><trkpt lat="45.506215" lon="11.0978417"><ele>596.0</ele><time>2026-04-23T15:12:02.273Z</time></trkpt><trkpt lat="45.5061583" lon="11.0979667"><ele>596.5</ele><time>2026-04-23T15:12:03.274Z</time></trkpt><trkpt lat="45.50616" lon="11.098065"><ele>597.0</ele><time>2026-04-23T15:12:04.273Z</time></trkpt><trkpt lat="45.5061367" lon="11.098225"><ele>597.0</ele><time>2026-04-23T15:12:06.273Z</time></trkpt><trkpt lat="45.506225" lon="11.0982017"><ele>597.0</ele><time>2026-04-23T15:12:08.273Z</time></trkpt><trkpt lat="45.5063733" lon="11.0982067"><ele>597.0</ele><time>2026-04-23T15:12:10.273Z</time></trkpt><trkpt lat="45.5065317" lon="11.0981383"><ele>597.0</ele><time>2026-04-23T15:12:12.273Z</time></trkpt><trkpt lat="45.5066467" lon="11.09807"><ele>597.0</ele><time>2026-04-23T15:12:13.274Z</time></trkpt><trkpt lat="45.5067533" lon="11.0980033"><ele>597.0</ele><time>2026-04-23T15:12:14.273Z</time></trkpt><trkpt lat="45.5068617" lon="11.0979383"><ele>597.0</ele><time>2026-04-23T15:12:15.273Z</time></trkpt><trkpt lat="45.506955" lon="11.0978967"><ele>597.0</ele><time>2026-04-23T15:12:16.273Z</time></trkpt><trkpt lat="45.50705" lon="11.0978367"><ele>597.0</ele><time>2026-04-23T15:12:17.273Z</time></trkpt><trkpt lat="45.50717" lon="11.0977633"><ele>599.25</ele><time>2026-04-23T15:12:18.273Z</time></trkpt><trkpt lat="45.5072867" lon="11.0976483"><ele>601.5</ele><time>2026-04-23T15:12:19.273Z</time></trkpt><trkpt lat="45.50739" lon="11.0975433"><ele>603.75</ele><time>2026-04-23T15:12:20.273Z</time></trkpt><trkpt lat="45.5074833" lon="11.097425"><ele>606.0</ele><time>2026-04-23T15:12:21.273Z</time></trkpt><trkpt lat="45.5075867" lon="11.097325"><ele>606.0</ele><time>2026-04-23T15:12:22.273Z</time></trkpt><trkpt lat="45.5077333" lon="11.0972233"><ele>606.0</ele><time>2026-04-23T15:12:23.273Z</time></trkpt><trkpt lat="45.5078483" lon="11.0971117"><ele>606.0</ele><time>2026-04-23T15:12:24.273Z</time></trkpt><trkpt lat="45.5080067" lon="11.096985"><ele>609.0</ele><time>2026-04-23T15:12:25.273Z</time></trkpt><trkpt lat="45.5081133" lon="11.0968833"><ele>612.0</ele><time>2026-04-23T15:12:26.273Z</time></trkpt><trkpt lat="45.508225" lon="11.0967783"><ele>615.0</ele><time>2026-04-23T15:12:27.273Z</time></trkpt><trkpt lat="45.508335" lon="11.09668"><ele>618.0</ele><time>2026-04-23T15:12:28.274Z</time></trkpt><trkpt lat="45.5084267" lon="11.0965833"><ele>618.0</ele><time>2026-04-23T15:12:29.273Z</time></trkpt><trkpt lat="45.5085067" lon="11.0964817"><ele>618.0</ele><time>2026-04-23T15:12:30.273Z</time></trkpt><trkpt lat="45.5085917" lon="11.09637"><ele>618.0</ele><time>2026-04-23T15:12:31.273Z</time></trkpt><trkpt lat="45.5086467" lon="11.0962383"><ele>618.0</ele><time>2026-04-23T15:12:32.273Z</time></trkpt><trkpt lat="45.5086633" lon="11.0961183"><ele>618.0</ele><time>2026-04-23T15:12:33.273Z</time></trkpt><trkpt lat="45.5087333" lon="11.096005"><ele>618.0</ele><time>2026-04-23T15:12:34.273Z</time></trkpt><trkpt lat="45.50878" lon="11.0959317"><ele>618.0</ele><time>2026-04-23T15:12:35.273Z</time></trkpt><trkpt lat="45.5087783" lon="11.0961117"><ele>618.0</ele><time>2026-04-23T15:12:39.273Z</time></trkpt><trkpt lat="45.5087617" lon="11.096315"><ele>618.0</ele><time>2026-04-23T15:12:40.273Z</time></trkpt><trkpt lat="45.50873" lon="11.096515"><ele>618.1999999999999</ele><time>2026-04-23T15:12:41.274Z</time></trkpt><trkpt lat="45.5087117" lon="11.096665"><ele>618.4</ele><time>2026-04-23T15:12:42.273Z</time></trkpt><trkpt lat="45.508705" lon="11.0967883"><ele>618.5999999999999</ele><time>2026-04-23T15:12:43.273Z</time></trkpt><trkpt lat="45.5087683" lon="11.096935"><ele>618.8</ele><time>2026-04-23T15:12:45.274Z</time></trkpt><trkpt lat="45.5088417" lon="11.09704"><ele>619.0</ele><time>2026-04-23T15:12:47.273Z</time></trkpt><trkpt lat="45.5089" lon="11.0970833"><ele>620.25</ele><time>2026-04-23T15:12:48.273Z</time></trkpt><trkpt lat="45.5090317" lon="11.0971517"><ele>621.5</ele><time>2026-04-23T15:12:50.273Z</time></trkpt><trkpt lat="45.5091533" lon="11.0971433"><ele>622.75</ele><time>2026-04-23T15:12:51.273Z</time></trkpt><trkpt lat="45.5092917" lon="11.0971133"><ele>624.0</ele><time>2026-04-23T15:12:52.273Z</time></trkpt><trkpt lat="45.5094183" lon="11.097115"><ele>624.0</ele><time>2026-04-23T15:12:53.273Z</time></trkpt><trkpt lat="45.5095483" lon="11.0971433"><ele>624.0</ele><time>2026-04-23T15:12:54.273Z</time></trkpt><trkpt lat="45.5096483" lon="11.097185"><ele>624.0</ele><time>2026-04-23T15:12:55.273Z</time></trkpt><trkpt lat="45.5097517" lon="11.0972117"><ele>624.0</ele><time>2026-04-23T15:12:56.273Z</time></trkpt><trkpt lat="45.50985" lon="11.09724"><ele>624.0</ele><time>2026-04-23T15:12:57.274Z</time></trkpt><trkpt lat="45.50995" lon="11.097275"><ele>624.0</ele><time>2026-04-23T15:12:58.273Z</time></trkpt><trkpt lat="45.5100283" lon="11.0973083"><ele>624.0</ele><time>2026-04-23T15:12:59.273Z</time></trkpt><trkpt lat="45.510125" lon="11.097315"><ele>624.0</ele><time>2026-04-23T15:13:00.273Z</time></trkpt><trkpt lat="45.5102083" lon="11.0973217"><ele>624.0</ele><time>2026-04-23T15:13:01.274Z</time></trkpt><trkpt lat="45.510295" lon="11.097325"><ele>624.0</ele><time>2026-04-23T15:13:02.272Z</time></trkpt><trkpt lat="45.5103717" lon="11.0973317"><ele>624.0</ele><time>2026-04-23T15:13:03.272Z</time></trkpt><trkpt lat="45.5104583" lon="11.0973317"><ele>624.0</ele><time>2026-04-23T15:13:04.272Z</time></trkpt><trkpt lat="45.51055" lon="11.097325"><ele>624.0</ele><time>2026-04-23T15:13:06.272Z</time></trkpt><trkpt lat="45.5106433" lon="11.0972833"><ele>624.0</ele><time>2026-04-23T15:13:08.273Z</time></trkpt><trkpt lat="45.5105267" lon="11.0972417"><ele>624.0</ele><time>2026-04-23T15:13:13.272Z</time></trkpt><trkpt lat="45.5104617" lon="11.097255"><ele>624.0</ele><time>2026-04-23T15:13:14.272Z</time></trkpt><trkpt lat="45.510395" lon="11.0973017"><ele>621.0</ele><time>2026-04-23T15:13:16.272Z</time></trkpt><trkpt lat="45.5103" lon="11.097425"><ele>618.0</ele><time>2026-04-23T15:13:18.273Z</time></trkpt><trkpt lat="45.5102283" lon="11.097535"><ele>615.0</ele><time>2026-04-23T15:13:19.272Z</time></trkpt><trkpt lat="45.5101667" lon="11.097615"><ele>612.0</ele><time>2026-04-23T15:13:20.272Z</time></trkpt><trkpt lat="45.5100883" lon="11.0977367"><ele>609.0</ele><time>2026-04-23T15:13:22.273Z</time></trkpt><trkpt lat="45.51004" lon="11.09781"><ele>609.0</ele><time>2026-04-23T15:13:23.272Z</time></trkpt><trkpt lat="45.5099533" lon="11.0979267"><ele>609.0</ele><time>2026-04-23T15:13:25.272Z</time></trkpt><trkpt lat="45.5098233" lon="11.0980117"><ele>609.0</ele><time>2026-04-23T15:13:27.272Z</time></trkpt><trkpt lat="45.5097217" lon="11.0980983"><ele>609.0</ele><time>2026-04-23T15:13:29.272Z</time></trkpt><trkpt lat="45.5096617" lon="11.09815"><ele>607.6</ele><time>2026-04-23T15:13:30.272Z</time></trkpt><trkpt lat="45.5095667" lon="11.0982017"><ele>606.2</ele><time>2026-04-23T15:13:32.272Z</time></trkpt><trkpt lat="45.5095067" lon="11.0983317"><ele>604.8000000000001</ele><time>2026-04-23T15:13:34.273Z</time></trkpt><trkpt lat="45.5094567" lon="11.098455"><ele>603.4</ele><time>2026-04-23T15:13:36.272Z</time></trkpt><trkpt lat="45.509385" lon="11.0986183"><ele>602.0</ele><time>2026-04-23T15:13:38.272Z</time></trkpt><trkpt lat="45.5093317" lon="11.09872"><ele>602.0</ele><time>2026-04-23T15:13:39.272Z</time></trkpt><trkpt lat="45.5092867" lon="11.0988367"><ele>602.0</ele><time>2026-04-23T15:13:40.273Z</time></trkpt><trkpt lat="45.5092467" lon="11.09895"><ele>602.0</ele><time>2026-04-23T15:13:41.272Z</time></trkpt><trkpt lat="45.5092083" lon="11.099045"><ele>602.0</ele><time>2026-04-23T15:13:42.272Z</time></trkpt><trkpt lat="45.50911" lon="11.0992617"><ele>602.0</ele><time>2026-04-23T15:13:44.272Z</time></trkpt><trkpt lat="45.50902" lon="11.09945"><ele>596.6</ele><time>2026-04-23T15:13:46.272Z</time></trkpt><trkpt lat="45.5089783" lon="11.0995667"><ele>591.2</ele><time>2026-04-23T15:13:47.272Z</time></trkpt><trkpt lat="45.5089367" lon="11.0996583"><ele>585.8</ele><time>2026-04-23T15:13:48.272Z</time></trkpt><trkpt lat="45.50889" lon="11.0998383"><ele>580.4</ele><time>2026-04-23T15:13:49.272Z</time></trkpt><trkpt lat="45.508865" lon="11.099965"><ele>575.0</ele><time>2026-04-23T15:13:50.272Z</time></trkpt><trkpt lat="45.5088717" lon="11.10007"><ele>570.8</ele><time>2026-04-23T15:13:51.272Z</time></trkpt><trkpt lat="45.50887" lon="11.10018"><ele>566.6</ele><time>2026-04-23T15:13:52.272Z</time></trkpt><trkpt lat="45.5088667" lon="11.100285"><ele>562.4</ele><time>2026-04-23T15:13:53.272Z</time></trkpt><trkpt lat="45.508885" lon="11.100405"><ele>558.2</ele><time>2026-04-23T15:13:54.272Z</time></trkpt><trkpt lat="45.5089983" lon="11.1004967"><ele>554.0</ele><time>2026-04-23T15:13:56.272Z</time></trkpt><trkpt lat="45.5089767" lon="11.100615"><ele>554.0</ele><time>2026-04-23T15:14:00.272Z</time></trkpt><trkpt lat="45.508905" lon="11.1006783"><ele>554.0</ele><time>2026-04-23T15:14:02.272Z</time></trkpt><trkpt lat="45.5088117" lon="11.100735"><ele>554.0</ele><time>2026-04-23T15:14:04.272Z</time></trkpt><trkpt lat="45.5087283" lon="11.1007783"><ele>554.0</ele><time>2026-04-23T15:14:06.272Z</time></trkpt><trkpt lat="45.50864" lon="11.1009083"><ele>554.0</ele><time>2026-04-23T15:14:08.273Z</time></trkpt><trkpt lat="45.5086033" lon="11.1010017"><ele>554.8333333333333</ele><time>2026-04-23T15:14:09.273Z</time></trkpt><trkpt lat="45.5085733" lon="11.1010967"><ele>555.6666666666666</ele><time>2026-04-23T15:14:10.272Z</time></trkpt><trkpt lat="45.5085467" lon="11.1011883"><ele>556.5</ele><time>2026-04-23T15:14:11.272Z</time></trkpt><trkpt lat="45.5085033" lon="11.1012617"><ele>557.3333333333334</ele><time>2026-04-23T15:14:12.273Z</time></trkpt><trkpt lat="45.508485" lon="11.101375"><ele>558.1666666666667</ele><time>2026-04-23T15:14:13.272Z</time></trkpt><trkpt lat="45.5084517" lon="11.1015167"><ele>559.0</ele><time>2026-04-23T15:14:14.272Z</time></trkpt><trkpt lat="45.5084083" lon="11.10165"><ele>554.6</ele><time>2026-04-23T15:14:15.273Z</time></trkpt><trkpt lat="45.5083867" lon="11.10176"><ele>550.2</ele><time>2026-04-23T15:14:16.272Z</time></trkpt><trkpt lat="45.50838" lon="11.1019283"><ele>545.8000000000001</ele><time>2026-04-23T15:14:18.272Z</time></trkpt><trkpt lat="45.5084167" lon="11.1020767"><ele>541.4</ele><time>2026-04-23T15:14:20.272Z</time></trkpt><trkpt lat="45.508475" lon="11.1022083"><ele>537.0</ele><time>2026-04-23T15:14:22.272Z</time></trkpt><trkpt lat="45.5085483" lon="11.1023467"><ele>532.8000000000001</ele><time>2026-04-23T15:14:24.272Z</time></trkpt><trkpt lat="45.508595" lon="11.1024933"><ele>528.6</ele><time>2026-04-23T15:14:26.273Z</time></trkpt><trkpt lat="45.5086433" lon="11.1026167"><ele>524.4000000000001</ele><time>2026-04-23T15:14:28.272Z</time></trkpt><trkpt lat="45.508695" lon="11.1027483"><ele>520.2</ele><time>2026-04-23T15:14:30.272Z</time></trkpt><trkpt lat="45.5087233" lon="11.102915"><ele>516.0</ele><time>2026-04-23T15:14:32.272Z</time></trkpt><trkpt lat="45.5087117" lon="11.1030033"><ele>516.0</ele><time>2026-04-23T15:14:33.272Z</time></trkpt><trkpt lat="45.5087333" lon="11.1031783"><ele>516.0</ele><time>2026-04-23T15:14:35.273Z</time></trkpt><trkpt lat="45.5087617" lon="11.103265"><ele>516.0</ele><time>2026-04-23T15:14:36.272Z</time></trkpt><trkpt lat="45.5088033" lon="11.10335"><ele>516.0</ele><time>2026-04-23T15:14:37.273Z</time></trkpt><trkpt lat="45.508845" lon="11.1034283"><ele>516.0</ele><time>2026-04-23T15:14:38.272Z</time></trkpt><trkpt lat="45.508895" lon="11.1034883"><ele>516.0</ele><time>2026-04-23T15:14:39.272Z</time></trkpt><trkpt lat="45.5089517" lon="11.1035367"><ele>511.8571428571428</ele><time>2026-04-23T15:14:40.272Z</time></trkpt><trkpt lat="45.5090083" lon="11.1035917"><ele>507.71428571428567</ele><time>2026-04-23T15:14:41.272Z</time></trkpt><trkpt lat="45.50907" lon="11.1036333"><ele>503.57142857142856</ele><time>2026-04-23T15:14:42.272Z</time></trkpt><trkpt lat="45.5091333" lon="11.1036633"><ele>499.4285714285714</ele><time>2026-04-23T15:14:43.272Z</time></trkpt><trkpt lat="45.5091933" lon="11.1036983"><ele>495.2857142857142</ele><time>2026-04-23T15:14:44.273Z</time></trkpt><trkpt lat="45.50927" lon="11.1037083"><ele>491.14285714285717</ele><time>2026-04-23T15:14:45.273Z</time></trkpt><trkpt lat="45.509365" lon="11.1036833"><ele>487.0</ele><time>2026-04-23T15:14:46.272Z</time></trkpt><trkpt lat="45.5094367" lon="11.1036933"><ele>487.0</ele><time>2026-04-23T15:14:47.273Z</time></trkpt><trkpt lat="45.5095017" lon="11.1037"><ele>487.00000000000006</ele><time>2026-04-23T15:14:48.272Z</time></trkpt><trkpt lat="45.50961" lon="11.1037217"><ele>487.00000000000006</ele><time>2026-04-23T15:14:50.273Z</time></trkpt><trkpt lat="45.5097167" lon="11.10371"><ele>487.0</ele><time>2026-04-23T15:14:52.272Z</time></trkpt><trkpt lat="45.50961" lon="11.1036967"><ele>487.0</ele><time>2026-04-23T15:15:00.272Z</time></trkpt><trkpt lat="45.5094883" lon="11.1037483"><ele>487.0</ele><time>2026-04-23T15:15:02.273Z</time></trkpt><trkpt lat="45.5094133" lon="11.10378"><ele>487.00000000000006</ele><time>2026-04-23T15:15:03.272Z</time></trkpt><trkpt lat="45.50933" lon="11.1038183"><ele>487.00000000000006</ele><time>2026-04-23T15:15:04.272Z</time></trkpt><trkpt lat="45.509225" lon="11.1039083"><ele>487.0</ele><time>2026-04-23T15:15:05.273Z</time></trkpt><trkpt lat="45.509145" lon="11.10397"><ele>487.0</ele><time>2026-04-23T15:15:06.272Z</time></trkpt><trkpt lat="45.50894" lon="11.1041517"><ele>481.25</ele><time>2026-04-23T15:15:07.272Z</time></trkpt><trkpt lat="45.5087783" lon="11.10437"><ele>475.5</ele><time>2026-04-23T15:15:08.272Z</time></trkpt><trkpt lat="45.5086883" lon="11.1044983"><ele>469.75</ele><time>2026-04-23T15:15:09.272Z</time></trkpt><trkpt lat="45.5086183" lon="11.10458"><ele>464.0</ele><time>2026-04-23T15:15:11.272Z</time></trkpt><trkpt lat="45.5086567" lon="11.1046717"><ele>464.0</ele><time>2026-04-23T15:15:14.272Z</time></trkpt><trkpt lat="45.508745" lon="11.1047117"><ele>464.0</ele><time>2026-04-23T15:15:16.272Z</time></trkpt><trkpt lat="45.5089583" lon="11.1046567"><ele>464.0</ele><time>2026-04-23T15:15:17.272Z</time></trkpt><trkpt lat="45.509055" lon="11.1046567"><ele>464.0</ele><time>2026-04-23T15:15:18.272Z</time></trkpt><trkpt lat="45.509255" lon="11.10462"><ele>464.0</ele><time>2026-04-23T15:15:19.272Z</time></trkpt><trkpt lat="45.5093633" lon="11.1046517"><ele>464.0</ele><time>2026-04-23T15:15:20.272Z</time></trkpt><trkpt lat="45.509465" lon="11.1046667"><ele>464.0</ele><time>2026-04-23T15:15:21.272Z</time></trkpt><trkpt lat="45.5095683" lon="11.1046833"><ele>464.0</ele><time>2026-04-23T15:15:22.272Z</time></trkpt><trkpt lat="45.5096567" lon="11.1047167"><ele>464.0</ele><time>2026-04-23T15:15:23.273Z</time></trkpt><trkpt lat="45.509735" lon="11.1047183"><ele>458.79999999999995</ele><time>2026-04-23T15:15:24.273Z</time></trkpt><trkpt lat="45.50982" lon="11.1046983"><ele>453.59999999999997</ele><time>2026-04-23T15:15:25.272Z</time></trkpt><trkpt lat="45.5099083" lon="11.1046983"><ele>448.4</ele><time>2026-04-23T15:15:26.272Z</time></trkpt><trkpt lat="45.509975" lon="11.1046133"><ele>443.2</ele><time>2026-04-23T15:15:27.272Z</time></trkpt><trkpt lat="45.5100517" lon="11.104575"><ele>438.0</ele><time>2026-04-23T15:15:28.272Z</time></trkpt><trkpt lat="45.51013" lon="11.1044217"><ele>438.0</ele><time>2026-04-23T15:15:30.272Z</time></trkpt><trkpt lat="45.5101517" lon="11.1042733"><ele>437.99999999999994</ele><time>2026-04-23T15:15:32.273Z</time></trkpt><trkpt lat="45.5101867" lon="11.1041533"><ele>437.99999999999994</ele><time>2026-04-23T15:15:34.272Z</time></trkpt><trkpt lat="45.510265" lon="11.1041067"><ele>438.0</ele><time>2026-04-23T15:15:38.272Z</time></trkpt><trkpt lat="45.5102533" lon="11.1042317"><ele>438.0</ele><time>2026-04-23T15:15:41.272Z</time></trkpt><trkpt lat="45.5102033" lon="11.1043283"><ele>438.0</ele><time>2026-04-23T15:15:42.272Z</time></trkpt><trkpt lat="45.5101683" lon="11.1044083"><ele>438.0</ele><time>2026-04-23T15:15:43.272Z</time></trkpt><trkpt lat="45.5101283" lon="11.104515"><ele>438.0</ele><time>2026-04-23T15:15:44.273Z</time></trkpt><trkpt lat="45.5100667" lon="11.1046167"><ele>438.0</ele><time>2026-04-23T15:15:45.272Z</time></trkpt><trkpt lat="45.51001" lon="11.1047017"><ele>438.0</ele><time>2026-04-23T15:15:46.272Z</time></trkpt><trkpt lat="45.5099683" lon="11.1047817"><ele>438.0</ele><time>2026-04-23T15:15:47.272Z</time></trkpt><trkpt lat="45.5099233" lon="11.1048517"><ele>438.0</ele><time>2026-04-23T15:15:48.273Z</time></trkpt><trkpt lat="45.509855" lon="11.1049"><ele>437.99999999999994</ele><time>2026-04-23T15:15:49.272Z</time></trkpt><trkpt lat="45.5097817" lon="11.104935"><ele>437.99999999999994</ele><time>2026-04-23T15:15:50.273Z</time></trkpt><trkpt lat="45.509675" lon="11.1049283"><ele>438.0</ele><time>2026-04-23T15:15:51.272Z</time></trkpt><trkpt lat="45.5095767" lon="11.104945"><ele>438.0</ele><time>2026-04-23T15:15:52.273Z</time></trkpt><trkpt lat="45.50948" lon="11.104955"><ele>435.79999999999995</ele><time>2026-04-23T15:15:53.271Z</time></trkpt><trkpt lat="45.509365" lon="11.1049733"><ele>433.59999999999997</ele><time>2026-04-23T15:15:54.272Z</time></trkpt><trkpt lat="45.50927" lon="11.104985"><ele>431.40000000000003</ele><time>2026-04-23T15:15:55.271Z</time></trkpt><trkpt lat="45.5091767" lon="11.1050017"><ele>429.20000000000005</ele><time>2026-04-23T15:15:56.272Z</time></trkpt><trkpt lat="45.5090617" lon="11.10503"><ele>427.0</ele><time>2026-04-23T15:15:57.271Z</time></trkpt><trkpt lat="45.5089567" lon="11.1050483"><ele>427.0</ele><time>2026-04-23T15:15:58.271Z</time></trkpt><trkpt lat="45.5088633" lon="11.1050467"><ele>427.00000000000006</ele><time>2026-04-23T15:15:59.271Z</time></trkpt><trkpt lat="45.50876" lon="11.1050383"><ele>427.00000000000006</ele><time>2026-04-23T15:16:00.271Z</time></trkpt><trkpt lat="45.5086483" lon="11.1050133"><ele>427.0</ele><time>2026-04-23T15:16:01.271Z</time></trkpt><trkpt lat="45.5085533" lon="11.104975"><ele>427.0</ele><time>2026-04-23T15:16:02.271Z</time></trkpt><trkpt lat="45.5084533" lon="11.10492"><ele>434.40000000000003</ele><time>2026-04-23T15:16:03.271Z</time></trkpt><trkpt lat="45.508355" lon="11.10484"><ele>441.80000000000007</ele><time>2026-04-23T15:16:04.271Z</time></trkpt><trkpt lat="45.50824" lon="11.1047467"><ele>449.2</ele><time>2026-04-23T15:16:05.271Z</time></trkpt><trkpt lat="45.5081533" lon="11.1046583"><ele>456.6</ele><time>2026-04-23T15:16:06.272Z</time></trkpt><trkpt lat="45.5080633" lon="11.1046117"><ele>464.0</ele><time>2026-04-23T15:16:07.271Z</time></trkpt><trkpt lat="45.50798" lon="11.1045317"><ele>464.8333333333333</ele><time>2026-04-23T15:16:08.271Z</time></trkpt><trkpt lat="45.5079" lon="11.1044833"><ele>465.66666666666663</ele><time>2026-04-23T15:16:09.271Z</time></trkpt><trkpt lat="45.507815" lon="11.1044567"><ele>466.5</ele><time>2026-04-23T15:16:10.271Z</time></trkpt><trkpt lat="45.50776" lon="11.1043167"><ele>467.33333333333337</ele><time>2026-04-23T15:16:13.272Z</time></trkpt><trkpt lat="45.507695" lon="11.1042317"><ele>468.1666666666667</ele><time>2026-04-23T15:16:15.271Z</time></trkpt><trkpt lat="45.507635" lon="11.10418"><ele>469.0</ele><time>2026-04-23T15:16:17.271Z</time></trkpt><trkpt lat="45.5075667" lon="11.1042083"><ele>469.00000000000006</ele><time>2026-04-23T15:16:20.271Z</time></trkpt><trkpt lat="45.50748" lon="11.104215"><ele>469.0</ele><time>2026-04-23T15:16:22.271Z</time></trkpt><trkpt lat="45.5074067" lon="11.1042417"><ele>469.0</ele><time>2026-04-23T15:16:24.271Z</time></trkpt><trkpt lat="45.5073433" lon="11.1043167"><ele>469.0</ele><time>2026-04-23T15:16:25.271Z</time></trkpt><trkpt lat="45.507325" lon="11.1044117"><ele>469.00000000000006</ele><time>2026-04-23T15:16:27.271Z</time></trkpt><trkpt lat="45.5072583" lon="11.1044567"><ele>469.0</ele><time>2026-04-23T15:16:30.271Z</time></trkpt><trkpt lat="45.5071883" lon="11.1044417"><ele>469.0</ele><time>2026-04-23T15:16:34.271Z</time></trkpt><trkpt lat="45.5071733" lon="11.10434"><ele>469.0</ele><time>2026-04-23T15:16:43.271Z</time></trkpt><trkpt lat="45.5071583" lon="11.1042417"><ele>469.0</ele><time>2026-04-23T15:16:47.271Z</time></trkpt><trkpt lat="45.5071417" lon="11.104145"><ele>469.0</ele><time>2026-04-23T15:16:52.272Z</time></trkpt><trkpt lat="45.5070817" lon="11.1041067"><ele>469.0</ele><time>2026-04-23T15:16:54.271Z</time></trkpt><trkpt lat="45.5070167" lon="11.104055"><ele>469.0</ele><time>2026-04-23T15:16:56.271Z</time></trkpt><trkpt lat="45.5069517" lon="11.104015"><ele>469.0</ele><time>2026-04-23T15:16:58.271Z</time></trkpt><trkpt lat="45.5068817" lon="11.1039617"><ele>477.1666666666667</ele><time>2026-04-23T15:17:00.271Z</time></trkpt><trkpt lat="45.5068017" lon="11.1038983"><ele>485.33333333333337</ele><time>2026-04-23T15:17:02.271Z</time></trkpt><trkpt lat="45.5067433" lon="11.1038283"><ele>493.5</ele><time>2026-04-23T15:17:04.272Z</time></trkpt><trkpt lat="45.5066717" lon="11.1037983"><ele>501.66666666666663</ele><time>2026-04-23T15:17:07.271Z</time></trkpt><trkpt lat="45.50661" lon="11.1038867"><ele>509.8333333333333</ele><time>2026-04-23T15:17:11.272Z</time></trkpt><trkpt lat="45.5065183" lon="11.1038917"><ele>518.0</ele><time>2026-04-23T15:17:15.272Z</time></trkpt><trkpt lat="45.50644" lon="11.1038617"><ele>518.0</ele><time>2026-04-23T15:17:17.271Z</time></trkpt><trkpt lat="45.506365" lon="11.1038217"><ele>518.0</ele><time>2026-04-23T15:17:19.271Z</time></trkpt><trkpt lat="45.5062867" lon="11.1037083"><ele>518.0</ele><time>2026-04-23T15:17:22.271Z</time></trkpt><trkpt lat="45.50619" lon="11.1036183"><ele>518.0</ele><time>2026-04-23T15:17:24.271Z</time></trkpt><trkpt lat="45.50613" lon="11.10354"><ele>518.0</ele><time>2026-04-23T15:17:26.272Z</time></trkpt><trkpt lat="45.5060717" lon="11.103475"><ele>524.3333333333333</ele><time>2026-04-23T15:17:29.271Z</time></trkpt><trkpt lat="45.506015" lon="11.1035183"><ele>530.6666666666666</ele><time>2026-04-23T15:17:32.271Z</time></trkpt><trkpt lat="45.5059483" lon="11.1034917"><ele>537.0</ele><time>2026-04-23T15:17:38.271Z</time></trkpt><trkpt lat="45.505885" lon="11.1034433"><ele>543.3333333333334</ele><time>2026-04-23T15:17:40.271Z</time></trkpt><trkpt lat="45.505905" lon="11.1033483"><ele>549.6666666666667</ele><time>2026-04-23T15:17:42.272Z</time></trkpt><trkpt lat="45.50591" lon="11.1032233"><ele>556.0</ele><time>2026-04-23T15:17:44.271Z</time></trkpt><trkpt lat="45.5059517" lon="11.1030783"><ele>560.5</ele><time>2026-04-23T15:17:46.272Z</time></trkpt><trkpt lat="45.50598" lon="11.102935"><ele>565.0</ele><time>2026-04-23T15:17:48.271Z</time></trkpt><trkpt lat="45.5060333" lon="11.1027983"><ele>569.5</ele><time>2026-04-23T15:17:50.272Z</time></trkpt><trkpt lat="45.5060717" lon="11.10265"><ele>574.0</ele><time>2026-04-23T15:17:52.271Z</time></trkpt><trkpt lat="45.5061333" lon="11.1024917"><ele>577.2</ele><time>2026-04-23T15:17:54.272Z</time></trkpt><trkpt lat="45.5061917" lon="11.1023533"><ele>580.4</ele><time>2026-04-23T15:17:56.271Z</time></trkpt><trkpt lat="45.5062417" lon="11.1022"><ele>583.6</ele><time>2026-04-23T15:17:58.272Z</time></trkpt><trkpt lat="45.5063" lon="11.1020883"><ele>586.8</ele><time>2026-04-23T15:18:00.271Z</time></trkpt><trkpt lat="45.5064067" lon="11.102045"><ele>590.0</ele><time>2026-04-23T15:18:01.272Z</time></trkpt><trkpt lat="45.50646" lon="11.1019333"><ele>590.0</ele><time>2026-04-23T15:18:03.271Z</time></trkpt><trkpt lat="45.5064517" lon="11.1018367"><ele>590.0</ele><time>2026-04-23T15:18:07.271Z</time></trkpt><trkpt lat="45.5063817" lon="11.1017783"><ele>590.0</ele><time>2026-04-23T15:18:10.272Z</time></trkpt><trkpt lat="45.5063117" lon="11.1017483"><ele>590.0</ele><time>2026-04-23T15:18:12.272Z</time></trkpt><trkpt lat="45.50624" lon="11.1017167"><ele>590.0</ele><time>2026-04-23T15:18:15.271Z</time></trkpt><trkpt lat="45.5061583" lon="11.101735"><ele>590.0</ele><time>2026-04-23T15:18:19.271Z</time></trkpt><trkpt lat="45.506085" lon="11.101715"><ele>590.0</ele><time>2026-04-23T15:18:22.271Z</time></trkpt><trkpt lat="45.506015" lon="11.101725"><ele>590.0</ele><time>2026-04-23T15:18:24.271Z</time></trkpt><trkpt lat="45.5059483" lon="11.1017467"><ele>590.0</ele><time>2026-04-23T15:18:26.271Z</time></trkpt><trkpt lat="45.505885" lon="11.1017533"><ele>590.0</ele><time>2026-04-23T15:18:28.271Z</time></trkpt><trkpt lat="45.5058167" lon="11.1016833"><ele>590.0</ele><time>2026-04-23T15:18:31.271Z</time></trkpt><trkpt lat="45.5057667" lon="11.101625"><ele>590.0</ele><time>2026-04-23T15:18:34.271Z</time></trkpt><trkpt lat="45.5057017" lon="11.101465"><ele>591.2857142857143</ele><time>2026-04-23T15:18:46.27Z</time></trkpt><trkpt lat="45.5056933" lon="11.1013283"><ele>592.5714285714286</ele><time>2026-04-23T15:18:48.27Z</time></trkpt><trkpt lat="45.5056767" lon="11.1012217"><ele>593.8571428571429</ele><time>2026-04-23T15:18:49.27Z</time></trkpt><trkpt lat="45.50566" lon="11.1011183"><ele>595.1428571428571</ele><time>2026-04-23T15:18:50.27Z</time></trkpt><trkpt lat="45.5056383" lon="11.1010333"><ele>596.4285714285714</ele><time>2026-04-23T15:18:51.271Z</time></trkpt><trkpt lat="45.5056283" lon="11.1009433"><ele>597.7142857142858</ele><time>2026-04-23T15:18:52.27Z</time></trkpt><trkpt lat="45.5056017" lon="11.1008583"><ele>599.0</ele><time>2026-04-23T15:18:53.27Z</time></trkpt><trkpt lat="45.50563" lon="11.1007167"><ele>600.4</ele><time>2026-04-23T15:18:55.27Z</time></trkpt><trkpt lat="45.505615" lon="11.1006183"><ele>601.8</ele><time>2026-04-23T15:18:58.271Z</time></trkpt><trkpt lat="45.505675" lon="11.1005017"><ele>603.2</ele><time>2026-04-23T15:19:10.27Z</time></trkpt><trkpt lat="45.505735" lon="11.1003767"><ele>604.6</ele><time>2026-04-23T15:19:12.27Z</time></trkpt><trkpt lat="45.5057967" lon="11.1002333"><ele>606.0</ele><time>2026-04-23T15:19:14.27Z</time></trkpt><trkpt lat="45.5058367" lon="11.1001583"><ele>606.0</ele><time>2026-04-23T15:19:15.27Z</time></trkpt><trkpt lat="45.5059017" lon="11.100015"><ele>606.0</ele><time>2026-04-23T15:19:17.27Z</time></trkpt><trkpt lat="45.5059483" lon="11.0998833"><ele>606.0</ele><time>2026-04-23T15:19:19.27Z</time></trkpt><trkpt lat="45.5059967" lon="11.0998017"><ele>606.0</ele><time>2026-04-23T15:19:21.27Z</time></trkpt><trkpt lat="45.5060667" lon="11.0997183"><ele>606.0</ele><time>2026-04-23T15:19:23.27Z</time></trkpt><trkpt lat="45.5061417" lon="11.0996667"><ele>605.1666666666666</ele><time>2026-04-23T15:19:25.27Z</time></trkpt><trkpt lat="45.5062183" lon="11.099585"><ele>604.3333333333334</ele><time>2026-04-23T15:19:27.271Z</time></trkpt><trkpt lat="45.5062967" lon="11.0995033"><ele>603.5</ele><time>2026-04-23T15:19:29.27Z</time></trkpt><trkpt lat="45.5063617" lon="11.0994983"><ele>602.6666666666667</ele><time>2026-04-23T15:19:31.27Z</time></trkpt><trkpt lat="45.5064317" lon="11.0994317"><ele>601.8333333333334</ele><time>2026-04-23T15:19:33.27Z</time></trkpt><trkpt lat="45.5064917" lon="11.0993617"><ele>601.0</ele><time>2026-04-23T15:19:34.27Z</time></trkpt><trkpt lat="45.50655" lon="11.0992983"><ele>602.2</ele><time>2026-04-23T15:19:35.27Z</time></trkpt><trkpt lat="45.50665" lon="11.0992133"><ele>603.4000000000001</ele><time>2026-04-23T15:19:37.27Z</time></trkpt><trkpt lat="45.5067067" lon="11.0991517"><ele>604.6</ele><time>2026-04-23T15:19:38.271Z</time></trkpt><trkpt lat="45.5067933" lon="11.099065"><ele>605.8000000000001</ele><time>2026-04-23T15:19:40.27Z</time></trkpt><trkpt lat="45.5068783" lon="11.099015"><ele>607.0</ele><time>2026-04-23T15:19:42.27Z</time></trkpt><trkpt lat="45.506945" lon="11.0989817"><ele>607.0</ele><time>2026-04-23T15:19:44.27Z</time></trkpt><trkpt lat="45.5070033" lon="11.098945"><ele>607.0</ele><time>2026-04-23T15:19:46.27Z</time></trkpt><trkpt lat="45.5070517" lon="11.0988767"><ele>607.0</ele><time>2026-04-23T15:19:48.27Z</time></trkpt><trkpt lat="45.5071417" lon="11.0987833"><ele>607.0</ele><time>2026-04-23T15:19:50.27Z</time></trkpt><trkpt lat="45.5071967" lon="11.09873"><ele>607.0</ele><time>2026-04-23T15:19:51.27Z</time></trkpt><trkpt lat="45.5072583" lon="11.098655"><ele>607.0</ele><time>2026-04-23T15:19:52.27Z</time></trkpt><trkpt lat="45.5073267" lon="11.09858"><ele>608.0</ele><time>2026-04-23T15:19:53.27Z</time></trkpt><trkpt lat="45.5074233" lon="11.09848"><ele>609.0</ele><time>2026-04-23T15:19:54.271Z</time></trkpt><trkpt lat="45.50753" lon="11.098365"><ele>610.0</ele><time>2026-04-23T15:19:55.27Z</time></trkpt><trkpt lat="45.5076383" lon="11.0982517"><ele>611.0</ele><time>2026-04-23T15:19:56.27Z</time></trkpt><trkpt lat="45.507725" lon="11.098125"><ele>611.0</ele><time>2026-04-23T15:19:57.271Z</time></trkpt><trkpt lat="45.5078183" lon="11.098"><ele>611.0</ele><time>2026-04-23T15:19:58.27Z</time></trkpt><trkpt lat="45.5079017" lon="11.0978817"><ele>611.0</ele><time>2026-04-23T15:19:59.27Z</time></trkpt><trkpt lat="45.508025" lon="11.0976983"><ele>611.0</ele><time>2026-04-23T15:20:00.27Z</time></trkpt><trkpt lat="45.5081017" lon="11.0975"><ele>613.0</ele><time>2026-04-23T15:20:01.271Z</time></trkpt><trkpt lat="45.5081767" lon="11.09733"><ele>615.0</ele><time>2026-04-23T15:20:02.27Z</time></trkpt><trkpt lat="45.508285" lon="11.0971433"><ele>617.0</ele><time>2026-04-23T15:20:03.27Z</time></trkpt><trkpt lat="45.508355" lon="11.097005"><ele>619.0</ele><time>2026-04-23T15:20:04.27Z</time></trkpt><trkpt lat="45.508445" lon="11.0968933"><ele>619.0</ele><time>2026-04-23T15:20:05.27Z</time></trkpt><trkpt lat="45.5085233" lon="11.0968167"><ele>619.0</ele><time>2026-04-23T15:20:06.27Z</time></trkpt><trkpt lat="45.5086267" lon="11.0968017"><ele>619.0</ele><time>2026-04-23T15:20:08.27Z</time></trkpt><trkpt lat="45.5086967" lon="11.0968417"><ele>619.0</ele><time>2026-04-23T15:20:10.27Z</time></trkpt><trkpt lat="45.5086217" lon="11.0970767"><ele>619.0</ele><time>2026-04-23T15:20:13.27Z</time></trkpt><trkpt lat="45.5086933" lon="11.097155"><ele>619.0</ele><time>2026-04-23T15:21:54.27Z</time></trkpt><trkpt lat="45.5086417" lon="11.097095"><ele>619.0</ele><time>2026-04-23T15:24:50.27Z</time></trkpt><trkpt lat="45.508645" lon="11.0969933"><ele>619.0</ele><time>2026-04-23T15:24:52.27Z</time></trkpt><trkpt lat="45.5087083" lon="11.09687"><ele>619.0</ele><time>2026-04-23T15:24:54.269Z</time></trkpt><trkpt lat="45.508765" lon="11.0968117"><ele>619.0</ele><time>2026-04-23T15:24:55.269Z</time></trkpt><trkpt lat="45.5088333" lon="11.09676"><ele>620.0</ele><time>2026-04-23T15:24:56.269Z</time></trkpt><trkpt lat="45.508925" lon="11.0967133"><ele>621.0</ele><time>2026-04-23T15:24:57.269Z</time></trkpt><trkpt lat="45.5090333" lon="11.0966767"><ele>622.0</ele><time>2026-04-23T15:24:58.269Z</time></trkpt><trkpt lat="45.5091417" lon="11.0966567"><ele>623.0</ele><time>2026-04-23T15:24:59.269Z</time></trkpt><trkpt lat="45.50924" lon="11.096625"><ele>624.0</ele><time>2026-04-23T15:25:00.269Z</time></trkpt><trkpt lat="45.509325" lon="11.0965867"><ele>626.0</ele><time>2026-04-23T15:25:01.269Z</time></trkpt><trkpt lat="45.50943" lon="11.096575"><ele>628.0</ele><time>2026-04-23T15:25:02.27Z</time></trkpt><trkpt lat="45.5095217" lon="11.0965433"><ele>630.0</ele><time>2026-04-23T15:25:03.269Z</time></trkpt><trkpt lat="45.50959" lon="11.0965233"><ele>632.0</ele><time>2026-04-23T15:25:04.27Z</time></trkpt><trkpt lat="45.509685" lon="11.09646"><ele>634.0</ele><time>2026-04-23T15:25:06.27Z</time></trkpt><trkpt lat="45.509765" lon="11.0963933"><ele>634.0</ele><time>2026-04-23T15:25:08.269Z</time></trkpt><trkpt lat="45.5098517" lon="11.09638"><ele>634.0</ele><time>2026-04-23T15:25:11.268Z</time></trkpt><trkpt lat="45.5099317" lon="11.0963583"><ele>634.0</ele><time>2026-04-23T15:25:13.268Z</time></trkpt><trkpt lat="45.5100267" lon="11.0963533"><ele>634.0</ele><time>2026-04-23T15:25:15.268Z</time></trkpt><trkpt lat="45.5101483" lon="11.0963183"><ele>634.0</ele><time>2026-04-23T15:25:17.268Z</time></trkpt><trkpt lat="45.51022" lon="11.096305"><ele>634.0</ele><time>2026-04-23T15:25:18.269Z</time></trkpt><trkpt lat="45.5103117" lon="11.0963067"><ele>634.0</ele><time>2026-04-23T15:25:20.268Z</time></trkpt><trkpt lat="45.5103267" lon="11.0962033"><ele>634.0</ele><time>2026-04-23T15:25:23.268Z</time></trkpt><trkpt lat="45.510245" lon="11.096095"><ele>634.0</ele><time>2026-04-23T15:25:26.268Z</time></trkpt><trkpt lat="45.5101567" lon="11.0960067"><ele>634.0</ele><time>2026-04-23T15:25:28.268Z</time></trkpt><trkpt lat="45.510095" lon="11.0959533"><ele>634.0</ele><time>2026-04-23T15:25:29.268Z</time></trkpt><trkpt lat="45.50999" lon="11.095875"><ele>634.0</ele><time>2026-04-23T15:25:31.268Z</time></trkpt><trkpt lat="45.5099233" lon="11.0957933"><ele>634.0</ele><time>2026-04-23T15:25:33.269Z</time></trkpt><trkpt lat="45.509875" lon="11.0956917"><ele>634.0</ele><time>2026-04-23T15:25:35.268Z</time></trkpt><trkpt lat="45.5098467" lon="11.0955617"><ele>634.0</ele><time>2026-04-23T15:25:37.269Z</time></trkpt><trkpt lat="45.5098183" lon="11.095375"><ele>633.2</ele><time>2026-04-23T15:25:39.268Z</time></trkpt><trkpt lat="45.5098083" lon="11.0952767"><ele>632.4</ele><time>2026-04-23T15:25:40.269Z</time></trkpt><trkpt lat="45.5097817" lon="11.0951783"><ele>631.6</ele><time>2026-04-23T15:25:41.268Z</time></trkpt><trkpt lat="45.5097517" lon="11.095085"><ele>630.8</ele><time>2026-04-23T15:25:42.268Z</time></trkpt><trkpt lat="45.5097317" lon="11.0949067"><ele>630.0</ele><time>2026-04-23T15:25:44.268Z</time></trkpt><trkpt lat="45.5097583" lon="11.0947567"><ele>627.0</ele><time>2026-04-23T15:25:46.268Z</time></trkpt><trkpt lat="45.509905" lon="11.094695"><ele>624.0</ele><time>2026-04-23T15:25:47.269Z</time></trkpt><trkpt lat="45.5100033" lon="11.09465"><ele>621.0</ele><time>2026-04-23T15:25:48.269Z</time></trkpt><trkpt lat="45.5100767" lon="11.0946383"><ele>618.0</ele><time>2026-04-23T15:25:50.268Z</time></trkpt><trkpt lat="45.51012" lon="11.0947267"><ele>615.0</ele><time>2026-04-23T15:25:54.268Z</time></trkpt><trkpt lat="45.5101633" lon="11.094635"><ele>615.0</ele><time>2026-04-23T15:26:08.268Z</time></trkpt><trkpt lat="45.5101533" lon="11.0945433"><ele>615.0</ele><time>2026-04-23T15:26:12.268Z</time></trkpt><trkpt lat="45.510095" lon="11.0944967"><ele>615.0</ele><time>2026-04-23T15:26:20.268Z</time></trkpt><trkpt lat="45.5100233" lon="11.09443"><ele>615.0</ele><time>2026-04-23T15:26:22.268Z</time></trkpt><trkpt lat="45.509975" lon="11.0943667"><ele>615.0</ele><time>2026-04-23T15:26:23.268Z</time></trkpt><trkpt lat="45.50992" lon="11.09428"><ele>615.0</ele><time>2026-04-23T15:26:24.268Z</time></trkpt><trkpt lat="45.5098283" lon="11.0941617"><ele>611.8333333333334</ele><time>2026-04-23T15:26:25.268Z</time></trkpt><trkpt lat="45.50979" lon="11.09408"><ele>608.6666666666666</ele><time>2026-04-23T15:26:26.268Z</time></trkpt><trkpt lat="45.509735" lon="11.0940083"><ele>605.5</ele><time>2026-04-23T15:26:27.268Z</time></trkpt><trkpt lat="45.509715" lon="11.09389"><ele>602.3333333333333</ele><time>2026-04-23T15:26:28.268Z</time></trkpt><trkpt lat="45.509685" lon="11.0938017"><ele>599.1666666666666</ele><time>2026-04-23T15:26:29.268Z</time></trkpt><trkpt lat="45.50963" lon="11.0936983"><ele>596.0</ele><time>2026-04-23T15:26:30.269Z</time></trkpt><trkpt lat="45.5095883" lon="11.09361"><ele>597.8</ele><time>2026-04-23T15:26:31.268Z</time></trkpt><trkpt lat="45.509545" lon="11.0935383"><ele>599.6</ele><time>2026-04-23T15:26:32.268Z</time></trkpt><trkpt lat="45.5095117" lon="11.0933783"><ele>601.4</ele><time>2026-04-23T15:26:34.268Z</time></trkpt><trkpt lat="45.5094783" lon="11.0932533"><ele>603.2</ele><time>2026-04-23T15:26:36.268Z</time></trkpt><trkpt lat="45.509405" lon="11.09315"><ele>605.0</ele><time>2026-04-23T15:26:38.268Z</time></trkpt><trkpt lat="45.5093133" lon="11.0930617"><ele>602.0</ele><time>2026-04-23T15:26:40.268Z</time></trkpt><trkpt lat="45.5092433" lon="11.0929717"><ele>599.0</ele><time>2026-04-23T15:26:41.268Z</time></trkpt><trkpt lat="45.5092117" lon="11.0928867"><ele>596.0</ele><time>2026-04-23T15:26:42.268Z</time></trkpt><trkpt lat="45.5091633" lon="11.0927633"><ele>593.0</ele><time>2026-04-23T15:26:43.269Z</time></trkpt><trkpt lat="45.5091033" lon="11.0927083"><ele>590.0</ele><time>2026-04-23T15:26:44.269Z</time></trkpt><trkpt lat="45.5090467" lon="11.0926133"><ele>587.0</ele><time>2026-04-23T15:26:45.268Z</time></trkpt><trkpt lat="45.50902" lon="11.092485"><ele>581.6</ele><time>2026-04-23T15:26:46.268Z</time></trkpt><trkpt lat="45.5089817" lon="11.0924067"><ele>576.2</ele><time>2026-04-23T15:26:47.268Z</time></trkpt><trkpt lat="45.5089317" lon="11.0922667"><ele>570.8</ele><time>2026-04-23T15:26:49.268Z</time></trkpt><trkpt lat="45.508855" lon="11.0921033"><ele>565.4</ele><time>2026-04-23T15:26:51.268Z</time></trkpt><trkpt lat="45.508785" lon="11.0919667"><ele>560.0</ele><time>2026-04-23T15:26:53.268Z</time></trkpt><trkpt lat="45.5087583" lon="11.0918617"><ele>560.8333333333333</ele><time>2026-04-23T15:26:56.268Z</time></trkpt><trkpt lat="45.5086917" lon="11.091815"><ele>561.6666666666666</ele><time>2026-04-23T15:27:00.268Z</time></trkpt><trkpt lat="45.5086317" lon="11.0917283"><ele>562.5</ele><time>2026-04-23T15:27:02.269Z</time></trkpt><trkpt lat="45.5085883" lon="11.0916567"><ele>563.3333333333334</ele><time>2026-04-23T15:27:06.268Z</time></trkpt><trkpt lat="45.508515" lon="11.0917183"><ele>564.1666666666667</ele><time>2026-04-23T15:27:12.268Z</time></trkpt><trkpt lat="45.5084433" lon="11.0918067"><ele>565.0</ele><time>2026-04-23T15:27:14.268Z</time></trkpt><trkpt lat="45.508475" lon="11.09189"><ele>565.0</ele><time>2026-04-23T15:27:15.269Z</time></trkpt><trkpt lat="45.5084117" lon="11.09187"><ele>565.0</ele><time>2026-04-23T15:27:24.268Z</time></trkpt><trkpt lat="45.508345" lon="11.0918383"><ele>565.0</ele><time>2026-04-23T15:27:25.268Z</time></trkpt><trkpt lat="45.5083633" lon="11.091925"><ele>565.0</ele><time>2026-04-23T15:28:21.268Z</time></trkpt><trkpt lat="45.5082733" lon="11.0920683"><ele>565.0</ele><time>2026-04-23T15:28:23.269Z</time></trkpt><trkpt lat="45.5082167" lon="11.0922517"><ele>563.5</ele><time>2026-04-23T15:28:24.268Z</time></trkpt><trkpt lat="45.5081417" lon="11.0924367"><ele>562.0</ele><time>2026-04-23T15:28:25.269Z</time></trkpt><trkpt lat="45.5080617" lon="11.0925617"><ele>560.5</ele><time>2026-04-23T15:28:26.267Z</time></trkpt><trkpt lat="45.5079783" lon="11.0926483"><ele>559.0</ele><time>2026-04-23T15:28:27.267Z</time></trkpt><trkpt lat="45.5079" lon="11.0927033"><ele>559.0</ele><time>2026-04-23T15:28:28.268Z</time></trkpt><trkpt lat="45.507825" lon="11.092765"><ele>559.0</ele><time>2026-04-23T15:28:30.267Z</time></trkpt><trkpt lat="45.5078633" lon="11.0926783"><ele>559.0</ele><time>2026-04-23T15:28:33.267Z</time></trkpt><trkpt lat="45.5079567" lon="11.092645"><ele>559.0</ele><time>2026-04-23T15:28:35.267Z</time></trkpt><trkpt lat="45.5080583" lon="11.09255"><ele>559.0</ele><time>2026-04-23T15:28:37.268Z</time></trkpt><trkpt lat="45.50814" lon="11.0924183"><ele>560.0</ele><time>2026-04-23T15:28:39.267Z</time></trkpt><trkpt lat="45.5081533" lon="11.09232"><ele>561.0</ele><time>2026-04-23T15:28:40.267Z</time></trkpt><trkpt lat="45.5081533" lon="11.092175"><ele>562.0</ele><time>2026-04-23T15:28:41.267Z</time></trkpt><trkpt lat="45.5081483" lon="11.0920583"><ele>563.0</ele><time>2026-04-23T15:28:42.267Z</time></trkpt><trkpt lat="45.5081333" lon="11.0919617"><ele>564.0</ele><time>2026-04-23T15:28:43.267Z</time></trkpt><trkpt lat="45.5081083" lon="11.0918733"><ele>565.0</ele><time>2026-04-23T15:28:44.267Z</time></trkpt><trkpt lat="45.5081067" lon="11.0917717"><ele>565.0</ele><time>2026-04-23T15:28:46.267Z</time></trkpt><trkpt lat="45.5081167" lon="11.0916483"><ele>565.0</ele><time>2026-04-23T15:28:55.267Z</time></trkpt><trkpt lat="45.50812" lon="11.0915583"><ele>554.0</ele><time>2026-04-23T15:28:57.268Z</time></trkpt></trkseg></trk></gpx>